<?xml version="1.0" encoding="utf-8"?>
<gpx xmlns:xsi="http://www.w3.org/2001/XMLSchema-instance" xmlns:xsd="http://www.w3.org/2001/XMLSchema" version="1.1" creator="Shapelink.com" xmlns="http://www.topografix.com/GPX/1/1" xmlns:gpxtpx="http://www.garmin.com/xmlschemas/TrackPointExtension/v1">
  <metadata>
    <name>Sykling 22.36 km, 2013-05-22</name>
    <desc></desc>
    <author><name>Mikael Blom</name></author> 
    <time>2013-05-22T20:15:10Z</time>
  </metadata>
  <trk>
    <name>Sykling 22.36 km, 2013-05-22</name>
    <trkseg>
      <trkpt lat="59.8526228" lon="17.6467796">
        <ele>21.2864</ele>
        <time>2013-05-22T20:15:10Z</time>
      </trkpt>
      <trkpt lat="59.8526136" lon="17.6469175">
        <ele>13.5958</ele>
        <time>2013-05-22T20:15:11Z</time>
      </trkpt>
      <trkpt lat="59.8526588" lon="17.6469743">
        <ele>17.9218</ele>
        <time>2013-05-22T20:15:12Z</time>
      </trkpt>
      <trkpt lat="59.8527005" lon="17.647033">
        <ele>18.8831</ele>
        <time>2013-05-22T20:15:13Z</time>
      </trkpt>
      <trkpt lat="59.8527562" lon="17.6470792">
        <ele>23.209</ele>
        <time>2013-05-22T20:15:14Z</time>
      </trkpt>
      <trkpt lat="59.8527845" lon="17.6471589">
        <ele>23.6896</ele>
        <time>2013-05-22T20:15:15Z</time>
      </trkpt>
      <trkpt lat="59.8528157" lon="17.64724">
        <ele>22.7283</ele>
        <time>2013-05-22T20:15:16Z</time>
      </trkpt>
      <trkpt lat="59.8528446" lon="17.6473252">
        <ele>21.767</ele>
        <time>2013-05-22T20:15:17Z</time>
      </trkpt>
      <trkpt lat="59.8528747" lon="17.6474001">
        <ele>21.2864</ele>
        <time>2013-05-22T20:15:18Z</time>
      </trkpt>
      <trkpt lat="59.8529035" lon="17.6474857">
        <ele>20.8057</ele>
        <time>2013-05-22T20:15:19Z</time>
      </trkpt>
      <trkpt lat="59.8529347" lon="17.6475693">
        <ele>20.325</ele>
        <time>2013-05-22T20:15:20Z</time>
      </trkpt>
      <trkpt lat="59.8529843" lon="17.6476345">
        <ele>22.2476</ele>
        <time>2013-05-22T20:15:21Z</time>
      </trkpt>
      <trkpt lat="59.8530275" lon="17.6477081">
        <ele>22.2476</ele>
        <time>2013-05-22T20:15:22Z</time>
      </trkpt>
      <trkpt lat="59.8530657" lon="17.6477948">
        <ele>21.2864</ele>
        <time>2013-05-22T20:15:23Z</time>
      </trkpt>
      <trkpt lat="59.8531046" lon="17.6478886">
        <ele>20.325</ele>
        <time>2013-05-22T20:15:24Z</time>
      </trkpt>
      <trkpt lat="59.8531418" lon="17.6479862">
        <ele>19.3638</ele>
        <time>2013-05-22T20:15:25Z</time>
      </trkpt>
      <trkpt lat="59.8531812" lon="17.6480797">
        <ele>18.8831</ele>
        <time>2013-05-22T20:15:26Z</time>
      </trkpt>
      <trkpt lat="59.8532207" lon="17.6481735">
        <ele>18.4023</ele>
        <time>2013-05-22T20:15:27Z</time>
      </trkpt>
      <trkpt lat="59.8532644" lon="17.6482677">
        <ele>19.3638</ele>
        <time>2013-05-22T20:15:28Z</time>
      </trkpt>
      <trkpt lat="59.8533035" lon="17.6483705">
        <ele>19.3638</ele>
        <time>2013-05-22T20:15:29Z</time>
      </trkpt>
      <trkpt lat="59.853342" lon="17.6484734">
        <ele>19.3638</ele>
        <time>2013-05-22T20:15:30Z</time>
      </trkpt>
      <trkpt lat="59.8533813" lon="17.6485699">
        <ele>18.8831</ele>
        <time>2013-05-22T20:15:31Z</time>
      </trkpt>
      <trkpt lat="59.8534259" lon="17.6486539">
        <ele>18.4023</ele>
        <time>2013-05-22T20:15:32Z</time>
      </trkpt>
      <trkpt lat="59.8534658" lon="17.6487422">
        <ele>17.9218</ele>
        <time>2013-05-22T20:15:33Z</time>
      </trkpt>
      <trkpt lat="59.8535036" lon="17.6488329">
        <ele>17.4412</ele>
        <time>2013-05-22T20:15:34Z</time>
      </trkpt>
      <trkpt lat="59.8535414" lon="17.6489238">
        <ele>17.4412</ele>
        <time>2013-05-22T20:15:35Z</time>
      </trkpt>
      <trkpt lat="59.8536147" lon="17.648977">
        <ele>21.2864</ele>
        <time>2013-05-22T20:15:36Z</time>
      </trkpt>
      <trkpt lat="59.8536579" lon="17.6490595">
        <ele>21.767</ele>
        <time>2013-05-22T20:15:37Z</time>
      </trkpt>
      <trkpt lat="59.853702" lon="17.6491346">
        <ele>22.2476</ele>
        <time>2013-05-22T20:15:38Z</time>
      </trkpt>
      <trkpt lat="59.8537389" lon="17.6492133">
        <ele>22.2476</ele>
        <time>2013-05-22T20:15:39Z</time>
      </trkpt>
      <trkpt lat="59.8537729" lon="17.6492921">
        <ele>21.767</ele>
        <time>2013-05-22T20:15:40Z</time>
      </trkpt>
      <trkpt lat="59.8538071" lon="17.6493709">
        <ele>21.2864</ele>
        <time>2013-05-22T20:15:41Z</time>
      </trkpt>
      <trkpt lat="59.8538474" lon="17.6494468">
        <ele>21.767</ele>
        <time>2013-05-22T20:15:42Z</time>
      </trkpt>
      <trkpt lat="59.8538855" lon="17.6495229">
        <ele>21.767</ele>
        <time>2013-05-22T20:15:43Z</time>
      </trkpt>
      <trkpt lat="59.8539216" lon="17.6495982">
        <ele>20.8057</ele>
        <time>2013-05-22T20:15:44Z</time>
      </trkpt>
      <trkpt lat="59.8539568" lon="17.6496718">
        <ele>20.325</ele>
        <time>2013-05-22T20:15:45Z</time>
      </trkpt>
      <trkpt lat="59.8539909" lon="17.6497453">
        <ele>19.8444</ele>
        <time>2013-05-22T20:15:46Z</time>
      </trkpt>
      <trkpt lat="59.8540144" lon="17.6498266">
        <ele>19.3638</ele>
        <time>2013-05-22T20:15:47Z</time>
      </trkpt>
      <trkpt lat="59.854019" lon="17.6499172">
        <ele>18.8831</ele>
        <time>2013-05-22T20:15:48Z</time>
      </trkpt>
      <trkpt lat="59.8540206" lon="17.650022">
        <ele>18.8831</ele>
        <time>2013-05-22T20:15:49Z</time>
      </trkpt>
      <trkpt lat="59.8540344" lon="17.650107">
        <ele>18.8831</ele>
        <time>2013-05-22T20:15:50Z</time>
      </trkpt>
      <trkpt lat="59.8540545" lon="17.6501759">
        <ele>18.4023</ele>
        <time>2013-05-22T20:15:51Z</time>
      </trkpt>
      <trkpt lat="59.8540838" lon="17.6502272">
        <ele>17.9218</ele>
        <time>2013-05-22T20:15:52Z</time>
      </trkpt>
      <trkpt lat="59.8541169" lon="17.6502851">
        <ele>17.4412</ele>
        <time>2013-05-22T20:15:53Z</time>
      </trkpt>
      <trkpt lat="59.8541562" lon="17.6503437">
        <ele>17.9218</ele>
        <time>2013-05-22T20:15:54Z</time>
      </trkpt>
      <trkpt lat="59.8541932" lon="17.6504141">
        <ele>17.9218</ele>
        <time>2013-05-22T20:15:55Z</time>
      </trkpt>
      <trkpt lat="59.8542284" lon="17.6504897">
        <ele>17.4412</ele>
        <time>2013-05-22T20:15:56Z</time>
      </trkpt>
      <trkpt lat="59.8542656" lon="17.650563">
        <ele>16.4797</ele>
        <time>2013-05-22T20:15:57Z</time>
      </trkpt>
      <trkpt lat="59.8543053" lon="17.6506366">
        <ele>16.4797</ele>
        <time>2013-05-22T20:15:58Z</time>
      </trkpt>
      <trkpt lat="59.8543355" lon="17.6507037">
        <ele>15.999</ele>
        <time>2013-05-22T20:15:59Z</time>
      </trkpt>
      <trkpt lat="59.8543583" lon="17.6507627">
        <ele>16.4797</ele>
        <time>2013-05-22T20:16:00Z</time>
      </trkpt>
      <trkpt lat="59.8543778" lon="17.6507989">
        <ele>16.9604</ele>
        <time>2013-05-22T20:16:01Z</time>
      </trkpt>
      <trkpt lat="59.8543971" lon="17.6508138">
        <ele>17.4412</ele>
        <time>2013-05-22T20:16:02Z</time>
      </trkpt>
      <trkpt lat="59.8544076" lon="17.6508307">
        <ele>17.4412</ele>
        <time>2013-05-22T20:16:03Z</time>
      </trkpt>
      <trkpt lat="59.8544173" lon="17.6508451">
        <ele>17.4412</ele>
        <time>2013-05-22T20:16:04Z</time>
      </trkpt>
      <trkpt lat="59.8544237" lon="17.6508674">
        <ele>16.9604</ele>
        <time>2013-05-22T20:16:05Z</time>
      </trkpt>
      <trkpt lat="59.8544307" lon="17.6509063">
        <ele>16.9604</ele>
        <time>2013-05-22T20:16:06Z</time>
      </trkpt>
      <trkpt lat="59.8544385" lon="17.6509419">
        <ele>17.4412</ele>
        <time>2013-05-22T20:16:07Z</time>
      </trkpt>
      <trkpt lat="59.8544439" lon="17.6509873">
        <ele>17.4412</ele>
        <time>2013-05-22T20:16:08Z</time>
      </trkpt>
      <trkpt lat="59.8544532" lon="17.6510372">
        <ele>17.4412</ele>
        <time>2013-05-22T20:16:09Z</time>
      </trkpt>
      <trkpt lat="59.8544681" lon="17.6510909">
        <ele>16.9604</ele>
        <time>2013-05-22T20:16:10Z</time>
      </trkpt>
      <trkpt lat="59.8544838" lon="17.6511402">
        <ele>16.4797</ele>
        <time>2013-05-22T20:16:11Z</time>
      </trkpt>
      <trkpt lat="59.8545027" lon="17.6511865">
        <ele>15.5184</ele>
        <time>2013-05-22T20:16:12Z</time>
      </trkpt>
      <trkpt lat="59.8545245" lon="17.651234">
        <ele>14.557</ele>
        <time>2013-05-22T20:16:13Z</time>
      </trkpt>
      <trkpt lat="59.8545474" lon="17.6512847">
        <ele>14.0764</ele>
        <time>2013-05-22T20:16:14Z</time>
      </trkpt>
      <trkpt lat="59.8545701" lon="17.6513282">
        <ele>13.5958</ele>
        <time>2013-05-22T20:16:15Z</time>
      </trkpt>
      <trkpt lat="59.8545961" lon="17.6513676">
        <ele>13.5958</ele>
        <time>2013-05-22T20:16:16Z</time>
      </trkpt>
      <trkpt lat="59.8546198" lon="17.65142">
        <ele>13.5958</ele>
        <time>2013-05-22T20:16:17Z</time>
      </trkpt>
      <trkpt lat="59.8546432" lon="17.6514773">
        <ele>13.5958</ele>
        <time>2013-05-22T20:16:18Z</time>
      </trkpt>
      <trkpt lat="59.8546726" lon="17.6515261">
        <ele>13.5958</ele>
        <time>2013-05-22T20:16:19Z</time>
      </trkpt>
      <trkpt lat="59.8547018" lon="17.651577">
        <ele>13.5958</ele>
        <time>2013-05-22T20:16:20Z</time>
      </trkpt>
      <trkpt lat="59.8547374" lon="17.6516314">
        <ele>13.5958</ele>
        <time>2013-05-22T20:16:21Z</time>
      </trkpt>
      <trkpt lat="59.8547801" lon="17.651688">
        <ele>14.0764</ele>
        <time>2013-05-22T20:16:22Z</time>
      </trkpt>
      <trkpt lat="59.8548208" lon="17.6517568">
        <ele>13.5958</ele>
        <time>2013-05-22T20:16:23Z</time>
      </trkpt>
      <trkpt lat="59.85486" lon="17.6518375">
        <ele>12.6344</ele>
        <time>2013-05-22T20:16:24Z</time>
      </trkpt>
      <trkpt lat="59.8548991" lon="17.651926">
        <ele>12.1538</ele>
        <time>2013-05-22T20:16:25Z</time>
      </trkpt>
      <trkpt lat="59.854938" lon="17.6520228">
        <ele>11.6732</ele>
        <time>2013-05-22T20:16:26Z</time>
      </trkpt>
      <trkpt lat="59.8549794" lon="17.6521235">
        <ele>11.1925</ele>
        <time>2013-05-22T20:16:27Z</time>
      </trkpt>
      <trkpt lat="59.8550202" lon="17.6522288">
        <ele>10.2312</ele>
        <time>2013-05-22T20:16:28Z</time>
      </trkpt>
      <trkpt lat="59.8550648" lon="17.6523305">
        <ele>9.2699</ele>
        <time>2013-05-22T20:16:29Z</time>
      </trkpt>
      <trkpt lat="59.8551131" lon="17.6524251">
        <ele>8.78918</ele>
        <time>2013-05-22T20:16:30Z</time>
      </trkpt>
      <trkpt lat="59.8551652" lon="17.6525128">
        <ele>8.30859</ele>
        <time>2013-05-22T20:16:31Z</time>
      </trkpt>
      <trkpt lat="59.8552188" lon="17.6526032">
        <ele>7.82788</ele>
        <time>2013-05-22T20:16:32Z</time>
      </trkpt>
      <trkpt lat="59.8552746" lon="17.6527045">
        <ele>7.82788</ele>
        <time>2013-05-22T20:16:35Z</time>
      </trkpt>
      <trkpt lat="59.8553004" lon="17.6528705">
        <ele>7.34717</ele>
        <time>2013-05-22T20:16:36Z</time>
      </trkpt>
      <trkpt lat="59.8553514" lon="17.6529755">
        <ele>6.86646</ele>
        <time>2013-05-22T20:16:37Z</time>
      </trkpt>
      <trkpt lat="59.855401" lon="17.6530773">
        <ele>6.38586</ele>
        <time>2013-05-22T20:16:38Z</time>
      </trkpt>
      <trkpt lat="59.8554332" lon="17.6531402">
        <ele>7.82788</ele>
        <time>2013-05-22T20:16:41Z</time>
      </trkpt>
      <trkpt lat="59.85552" lon="17.6531847">
        <ele>9.2699</ele>
        <time>2013-05-22T20:16:42Z</time>
      </trkpt>
      <trkpt lat="59.8555864" lon="17.6532319">
        <ele>9.2699</ele>
        <time>2013-05-22T20:16:43Z</time>
      </trkpt>
      <trkpt lat="59.8556467" lon="17.6532818">
        <ele>9.2699</ele>
        <time>2013-05-22T20:16:44Z</time>
      </trkpt>
      <trkpt lat="59.8557051" lon="17.6533311">
        <ele>9.75061</ele>
        <time>2013-05-22T20:16:45Z</time>
      </trkpt>
      <trkpt lat="59.8557511" lon="17.6533938">
        <ele>9.75061</ele>
        <time>2013-05-22T20:16:46Z</time>
      </trkpt>
      <trkpt lat="59.8557988" lon="17.6534553">
        <ele>10.2312</ele>
        <time>2013-05-22T20:16:47Z</time>
      </trkpt>
      <trkpt lat="59.8558486" lon="17.6535142">
        <ele>10.2312</ele>
        <time>2013-05-22T20:16:48Z</time>
      </trkpt>
      <trkpt lat="59.8558966" lon="17.6535719">
        <ele>10.2312</ele>
        <time>2013-05-22T20:16:49Z</time>
      </trkpt>
      <trkpt lat="59.8559409" lon="17.6536318">
        <ele>9.75061</ele>
        <time>2013-05-22T20:16:50Z</time>
      </trkpt>
      <trkpt lat="59.8559879" lon="17.6536827">
        <ele>10.2312</ele>
        <time>2013-05-22T20:16:51Z</time>
      </trkpt>
      <trkpt lat="59.8560325" lon="17.6537288">
        <ele>10.7118</ele>
        <time>2013-05-22T20:16:52Z</time>
      </trkpt>
      <trkpt lat="59.8560765" lon="17.6537708">
        <ele>10.7118</ele>
        <time>2013-05-22T20:16:53Z</time>
      </trkpt>
      <trkpt lat="59.8561178" lon="17.6538174">
        <ele>10.7118</ele>
        <time>2013-05-22T20:16:54Z</time>
      </trkpt>
      <trkpt lat="59.8561552" lon="17.6538726">
        <ele>10.7118</ele>
        <time>2013-05-22T20:16:55Z</time>
      </trkpt>
      <trkpt lat="59.8561939" lon="17.6539261">
        <ele>10.7118</ele>
        <time>2013-05-22T20:16:56Z</time>
      </trkpt>
      <trkpt lat="59.8562413" lon="17.6539671">
        <ele>12.1538</ele>
        <time>2013-05-22T20:16:57Z</time>
      </trkpt>
      <trkpt lat="59.85629" lon="17.6540023">
        <ele>13.5958</ele>
        <time>2013-05-22T20:16:58Z</time>
      </trkpt>
      <trkpt lat="59.8563231" lon="17.6540562">
        <ele>13.5958</ele>
        <time>2013-05-22T20:16:59Z</time>
      </trkpt>
      <trkpt lat="59.8563516" lon="17.6541199">
        <ele>13.5958</ele>
        <time>2013-05-22T20:17:00Z</time>
      </trkpt>
      <trkpt lat="59.856379" lon="17.6541879">
        <ele>13.5958</ele>
        <time>2013-05-22T20:17:01Z</time>
      </trkpt>
      <trkpt lat="59.8564034" lon="17.6542598">
        <ele>13.5958</ele>
        <time>2013-05-22T20:17:02Z</time>
      </trkpt>
      <trkpt lat="59.8564246" lon="17.654341">
        <ele>13.5958</ele>
        <time>2013-05-22T20:17:03Z</time>
      </trkpt>
      <trkpt lat="59.856442" lon="17.6544295">
        <ele>13.1151</ele>
        <time>2013-05-22T20:17:04Z</time>
      </trkpt>
      <trkpt lat="59.8564591" lon="17.6545209">
        <ele>13.1151</ele>
        <time>2013-05-22T20:17:05Z</time>
      </trkpt>
      <trkpt lat="59.8564743" lon="17.6546136">
        <ele>12.6344</ele>
        <time>2013-05-22T20:17:06Z</time>
      </trkpt>
      <trkpt lat="59.8564854" lon="17.6547099">
        <ele>12.6344</ele>
        <time>2013-05-22T20:17:07Z</time>
      </trkpt>
      <trkpt lat="59.8564928" lon="17.6548037">
        <ele>12.6344</ele>
        <time>2013-05-22T20:17:08Z</time>
      </trkpt>
      <trkpt lat="59.8564968" lon="17.654891">
        <ele>12.6344</ele>
        <time>2013-05-22T20:17:09Z</time>
      </trkpt>
      <trkpt lat="59.8565023" lon="17.6549804">
        <ele>12.6344</ele>
        <time>2013-05-22T20:17:10Z</time>
      </trkpt>
      <trkpt lat="59.8565079" lon="17.6550607">
        <ele>12.1538</ele>
        <time>2013-05-22T20:17:11Z</time>
      </trkpt>
      <trkpt lat="59.856519" lon="17.6551364">
        <ele>12.6344</ele>
        <time>2013-05-22T20:17:12Z</time>
      </trkpt>
      <trkpt lat="59.8565257" lon="17.6552237">
        <ele>13.1151</ele>
        <time>2013-05-22T20:17:13Z</time>
      </trkpt>
      <trkpt lat="59.8565291" lon="17.6553049">
        <ele>13.1151</ele>
        <time>2013-05-22T20:17:14Z</time>
      </trkpt>
      <trkpt lat="59.8565268" lon="17.655391">
        <ele>13.1151</ele>
        <time>2013-05-22T20:17:15Z</time>
      </trkpt>
      <trkpt lat="59.8565223" lon="17.6554797">
        <ele>13.1151</ele>
        <time>2013-05-22T20:17:16Z</time>
      </trkpt>
      <trkpt lat="59.8565183" lon="17.6555693">
        <ele>13.1151</ele>
        <time>2013-05-22T20:17:17Z</time>
      </trkpt>
      <trkpt lat="59.8565142" lon="17.6556582">
        <ele>13.1151</ele>
        <time>2013-05-22T20:17:18Z</time>
      </trkpt>
      <trkpt lat="59.8565111" lon="17.655752">
        <ele>13.1151</ele>
        <time>2013-05-22T20:17:19Z</time>
      </trkpt>
      <trkpt lat="59.8565049" lon="17.6558454">
        <ele>13.1151</ele>
        <time>2013-05-22T20:17:20Z</time>
      </trkpt>
      <trkpt lat="59.8565004" lon="17.6559413">
        <ele>13.1151</ele>
        <time>2013-05-22T20:17:21Z</time>
      </trkpt>
      <trkpt lat="59.8565008" lon="17.6560464">
        <ele>13.5958</ele>
        <time>2013-05-22T20:17:22Z</time>
      </trkpt>
      <trkpt lat="59.8565009" lon="17.6561402">
        <ele>13.5958</ele>
        <time>2013-05-22T20:17:23Z</time>
      </trkpt>
      <trkpt lat="59.8565029" lon="17.6562356">
        <ele>14.0764</ele>
        <time>2013-05-22T20:17:24Z</time>
      </trkpt>
      <trkpt lat="59.8565085" lon="17.6563375">
        <ele>15.0377</ele>
        <time>2013-05-22T20:17:25Z</time>
      </trkpt>
      <trkpt lat="59.8565183" lon="17.6564264">
        <ele>15.5184</ele>
        <time>2013-05-22T20:17:26Z</time>
      </trkpt>
      <trkpt lat="59.8565302" lon="17.6565111">
        <ele>15.999</ele>
        <time>2013-05-22T20:17:27Z</time>
      </trkpt>
      <trkpt lat="59.8565397" lon="17.6565736">
        <ele>15.999</ele>
        <time>2013-05-22T20:17:28Z</time>
      </trkpt>
      <trkpt lat="59.8565602" lon="17.6566292">
        <ele>15.999</ele>
        <time>2013-05-22T20:17:29Z</time>
      </trkpt>
      <trkpt lat="59.8565904" lon="17.6566665">
        <ele>15.999</ele>
        <time>2013-05-22T20:17:30Z</time>
      </trkpt>
      <trkpt lat="59.8566262" lon="17.6566868">
        <ele>15.999</ele>
        <time>2013-05-22T20:17:31Z</time>
      </trkpt>
      <trkpt lat="59.8566627" lon="17.656694">
        <ele>15.5184</ele>
        <time>2013-05-22T20:17:32Z</time>
      </trkpt>
      <trkpt lat="59.8567008" lon="17.6566855">
        <ele>15.0377</ele>
        <time>2013-05-22T20:17:33Z</time>
      </trkpt>
      <trkpt lat="59.8567385" lon="17.6566654">
        <ele>14.557</ele>
        <time>2013-05-22T20:17:34Z</time>
      </trkpt>
      <trkpt lat="59.8567712" lon="17.656638">
        <ele>13.5958</ele>
        <time>2013-05-22T20:17:35Z</time>
      </trkpt>
      <trkpt lat="59.8568064" lon="17.6565924">
        <ele>13.5958</ele>
        <time>2013-05-22T20:17:36Z</time>
      </trkpt>
      <trkpt lat="59.8568376" lon="17.6565489">
        <ele>13.1151</ele>
        <time>2013-05-22T20:17:37Z</time>
      </trkpt>
      <trkpt lat="59.8568717" lon="17.6565111">
        <ele>13.5958</ele>
        <time>2013-05-22T20:17:38Z</time>
      </trkpt>
      <trkpt lat="59.8569077" lon="17.6564912">
        <ele>14.0764</ele>
        <time>2013-05-22T20:17:39Z</time>
      </trkpt>
      <trkpt lat="59.8569436" lon="17.6564789">
        <ele>15.5184</ele>
        <time>2013-05-22T20:17:40Z</time>
      </trkpt>
      <trkpt lat="59.8569664" lon="17.6564768">
        <ele>15.999</ele>
        <time>2013-05-22T20:17:41Z</time>
      </trkpt>
      <trkpt lat="59.8569867" lon="17.6564618">
        <ele>17.4412</ele>
        <time>2013-05-22T20:17:42Z</time>
      </trkpt>
      <trkpt lat="59.8569929" lon="17.6564404">
        <ele>17.9218</ele>
        <time>2013-05-22T20:17:43Z</time>
      </trkpt>
      <trkpt lat="59.8570022" lon="17.656424">
        <ele>17.9218</ele>
        <time>2013-05-22T20:17:44Z</time>
      </trkpt>
      <trkpt lat="59.8570167" lon="17.656415">
        <ele>18.4023</ele>
        <time>2013-05-22T20:17:45Z</time>
      </trkpt>
      <trkpt lat="59.8570308" lon="17.656412">
        <ele>18.4023</ele>
        <time>2013-05-22T20:17:46Z</time>
      </trkpt>
      <trkpt lat="59.8570468" lon="17.6564202">
        <ele>18.8831</ele>
        <time>2013-05-22T20:17:47Z</time>
      </trkpt>
      <trkpt lat="59.8570611" lon="17.6564401">
        <ele>18.8831</ele>
        <time>2013-05-22T20:17:48Z</time>
      </trkpt>
      <trkpt lat="59.857079" lon="17.6564509">
        <ele>18.8831</ele>
        <time>2013-05-22T20:17:49Z</time>
      </trkpt>
      <trkpt lat="59.8571048" lon="17.6564612">
        <ele>19.8444</ele>
        <time>2013-05-22T20:17:50Z</time>
      </trkpt>
      <trkpt lat="59.8571239" lon="17.6564763">
        <ele>18.8831</ele>
        <time>2013-05-22T20:17:51Z</time>
      </trkpt>
      <trkpt lat="59.8571479" lon="17.6564967">
        <ele>18.4023</ele>
        <time>2013-05-22T20:17:52Z</time>
      </trkpt>
      <trkpt lat="59.8571752" lon="17.656524">
        <ele>17.9218</ele>
        <time>2013-05-22T20:17:53Z</time>
      </trkpt>
      <trkpt lat="59.8571959" lon="17.6565756">
        <ele>17.4412</ele>
        <time>2013-05-22T20:17:54Z</time>
      </trkpt>
      <trkpt lat="59.8572147" lon="17.6566341">
        <ele>16.9604</ele>
        <time>2013-05-22T20:17:55Z</time>
      </trkpt>
      <trkpt lat="59.8572306" lon="17.6567098">
        <ele>16.4797</ele>
        <time>2013-05-22T20:17:56Z</time>
      </trkpt>
      <trkpt lat="59.8572405" lon="17.6567841">
        <ele>15.999</ele>
        <time>2013-05-22T20:17:57Z</time>
      </trkpt>
      <trkpt lat="59.8572472" lon="17.656855">
        <ele>15.5184</ele>
        <time>2013-05-22T20:17:58Z</time>
      </trkpt>
      <trkpt lat="59.8572544" lon="17.6569047">
        <ele>13.5958</ele>
        <time>2013-05-22T20:17:59Z</time>
      </trkpt>
      <trkpt lat="59.8572657" lon="17.6569844">
        <ele>12.6344</ele>
        <time>2013-05-22T20:18:00Z</time>
      </trkpt>
      <trkpt lat="59.8572821" lon="17.6570633">
        <ele>11.6732</ele>
        <time>2013-05-22T20:18:01Z</time>
      </trkpt>
      <trkpt lat="59.8573045" lon="17.6571532">
        <ele>11.1925</ele>
        <time>2013-05-22T20:18:02Z</time>
      </trkpt>
      <trkpt lat="59.857331" lon="17.657245">
        <ele>11.6732</ele>
        <time>2013-05-22T20:18:03Z</time>
      </trkpt>
      <trkpt lat="59.8573569" lon="17.6573228">
        <ele>11.1925</ele>
        <time>2013-05-22T20:18:04Z</time>
      </trkpt>
      <trkpt lat="59.85738" lon="17.657398">
        <ele>10.7118</ele>
        <time>2013-05-22T20:18:05Z</time>
      </trkpt>
      <trkpt lat="59.8573962" lon="17.6574741">
        <ele>10.7118</ele>
        <time>2013-05-22T20:18:06Z</time>
      </trkpt>
      <trkpt lat="59.8574073" lon="17.6575638">
        <ele>11.1925</ele>
        <time>2013-05-22T20:18:07Z</time>
      </trkpt>
      <trkpt lat="59.8574182" lon="17.6576667">
        <ele>12.1538</ele>
        <time>2013-05-22T20:18:08Z</time>
      </trkpt>
      <trkpt lat="59.8574315" lon="17.6577843">
        <ele>15.0377</ele>
        <time>2013-05-22T20:18:09Z</time>
      </trkpt>
      <trkpt lat="59.8574498" lon="17.6578787">
        <ele>16.4797</ele>
        <time>2013-05-22T20:18:10Z</time>
      </trkpt>
      <trkpt lat="59.8574789" lon="17.6579484">
        <ele>17.9218</ele>
        <time>2013-05-22T20:18:11Z</time>
      </trkpt>
      <trkpt lat="59.8575016" lon="17.658019">
        <ele>17.4412</ele>
        <time>2013-05-22T20:18:12Z</time>
      </trkpt>
      <trkpt lat="59.8575383" lon="17.658076">
        <ele>17.9218</ele>
        <time>2013-05-22T20:18:13Z</time>
      </trkpt>
      <trkpt lat="59.8575777" lon="17.6581235">
        <ele>17.9218</ele>
        <time>2013-05-22T20:18:14Z</time>
      </trkpt>
      <trkpt lat="59.8576122" lon="17.6581623">
        <ele>17.4412</ele>
        <time>2013-05-22T20:18:15Z</time>
      </trkpt>
      <trkpt lat="59.8576503" lon="17.6581959">
        <ele>17.4412</ele>
        <time>2013-05-22T20:18:16Z</time>
      </trkpt>
      <trkpt lat="59.857697" lon="17.6582055">
        <ele>18.8831</ele>
        <time>2013-05-22T20:18:17Z</time>
      </trkpt>
      <trkpt lat="59.8577306" lon="17.6582397">
        <ele>18.8831</ele>
        <time>2013-05-22T20:18:18Z</time>
      </trkpt>
      <trkpt lat="59.8577663" lon="17.6582692">
        <ele>18.4023</ele>
        <time>2013-05-22T20:18:19Z</time>
      </trkpt>
      <trkpt lat="59.8578062" lon="17.658297">
        <ele>18.8831</ele>
        <time>2013-05-22T20:18:20Z</time>
      </trkpt>
      <trkpt lat="59.8578386" lon="17.6583389">
        <ele>17.9218</ele>
        <time>2013-05-22T20:18:21Z</time>
      </trkpt>
      <trkpt lat="59.8578736" lon="17.6583659">
        <ele>17.4412</ele>
        <time>2013-05-22T20:18:22Z</time>
      </trkpt>
      <trkpt lat="59.8579026" lon="17.6584137">
        <ele>17.9218</ele>
        <time>2013-05-22T20:18:23Z</time>
      </trkpt>
      <trkpt lat="59.8579304" lon="17.6584696">
        <ele>17.4412</ele>
        <time>2013-05-22T20:18:24Z</time>
      </trkpt>
      <trkpt lat="59.8579579" lon="17.6585355">
        <ele>17.4412</ele>
        <time>2013-05-22T20:18:25Z</time>
      </trkpt>
      <trkpt lat="59.8579871" lon="17.6586064">
        <ele>17.4412</ele>
        <time>2013-05-22T20:18:26Z</time>
      </trkpt>
      <trkpt lat="59.8580222" lon="17.658682">
        <ele>17.9218</ele>
        <time>2013-05-22T20:18:27Z</time>
      </trkpt>
      <trkpt lat="59.8580564" lon="17.6587535">
        <ele>17.4412</ele>
        <time>2013-05-22T20:18:28Z</time>
      </trkpt>
      <trkpt lat="59.858088" lon="17.6588379">
        <ele>16.9604</ele>
        <time>2013-05-22T20:18:29Z</time>
      </trkpt>
      <trkpt lat="59.8581184" lon="17.6589168">
        <ele>16.4797</ele>
        <time>2013-05-22T20:18:30Z</time>
      </trkpt>
      <trkpt lat="59.8581504" lon="17.6589938">
        <ele>15.999</ele>
        <time>2013-05-22T20:18:31Z</time>
      </trkpt>
      <trkpt lat="59.8581824" lon="17.65907">
        <ele>15.5184</ele>
        <time>2013-05-22T20:18:32Z</time>
      </trkpt>
      <trkpt lat="59.8582128" lon="17.6591488">
        <ele>15.5184</ele>
        <time>2013-05-22T20:18:33Z</time>
      </trkpt>
      <trkpt lat="59.8582419" lon="17.6592337">
        <ele>15.0377</ele>
        <time>2013-05-22T20:18:34Z</time>
      </trkpt>
      <trkpt lat="59.8582701" lon="17.6593245">
        <ele>14.557</ele>
        <time>2013-05-22T20:18:35Z</time>
      </trkpt>
      <trkpt lat="59.8583012" lon="17.6594161">
        <ele>13.5958</ele>
        <time>2013-05-22T20:18:36Z</time>
      </trkpt>
      <trkpt lat="59.8583333" lon="17.6595113">
        <ele>13.5958</ele>
        <time>2013-05-22T20:18:37Z</time>
      </trkpt>
      <trkpt lat="59.8583644" lon="17.6596094">
        <ele>13.1151</ele>
        <time>2013-05-22T20:18:38Z</time>
      </trkpt>
      <trkpt lat="59.8583968" lon="17.6597081">
        <ele>13.1151</ele>
        <time>2013-05-22T20:18:39Z</time>
      </trkpt>
      <trkpt lat="59.8584309" lon="17.6598035">
        <ele>12.1538</ele>
        <time>2013-05-22T20:18:40Z</time>
      </trkpt>
      <trkpt lat="59.858469" lon="17.6598947">
        <ele>12.1538</ele>
        <time>2013-05-22T20:18:41Z</time>
      </trkpt>
      <trkpt lat="59.8585087" lon="17.6599853">
        <ele>11.6732</ele>
        <time>2013-05-22T20:18:42Z</time>
      </trkpt>
      <trkpt lat="59.8585485" lon="17.6600743">
        <ele>11.1925</ele>
        <time>2013-05-22T20:18:43Z</time>
      </trkpt>
      <trkpt lat="59.8585868" lon="17.6601651">
        <ele>10.7118</ele>
        <time>2013-05-22T20:18:44Z</time>
      </trkpt>
      <trkpt lat="59.8586257" lon="17.660253">
        <ele>10.2312</ele>
        <time>2013-05-22T20:18:45Z</time>
      </trkpt>
      <trkpt lat="59.8586638" lon="17.6603416">
        <ele>10.2312</ele>
        <time>2013-05-22T20:18:46Z</time>
      </trkpt>
      <trkpt lat="59.8587008" lon="17.6604298">
        <ele>9.75061</ele>
        <time>2013-05-22T20:18:47Z</time>
      </trkpt>
      <trkpt lat="59.8587377" lon="17.6605156">
        <ele>9.75061</ele>
        <time>2013-05-22T20:18:48Z</time>
      </trkpt>
      <trkpt lat="59.8587773" lon="17.6605993">
        <ele>9.75061</ele>
        <time>2013-05-22T20:18:49Z</time>
      </trkpt>
      <trkpt lat="59.8588184" lon="17.6606831">
        <ele>9.75061</ele>
        <time>2013-05-22T20:18:50Z</time>
      </trkpt>
      <trkpt lat="59.8588526" lon="17.6607711">
        <ele>9.2699</ele>
        <time>2013-05-22T20:18:51Z</time>
      </trkpt>
      <trkpt lat="59.8588878" lon="17.6608556">
        <ele>8.78918</ele>
        <time>2013-05-22T20:18:52Z</time>
      </trkpt>
      <trkpt lat="59.8589228" lon="17.6609376">
        <ele>8.78918</ele>
        <time>2013-05-22T20:18:53Z</time>
      </trkpt>
      <trkpt lat="59.8589609" lon="17.6610046">
        <ele>8.30859</ele>
        <time>2013-05-22T20:18:54Z</time>
      </trkpt>
      <trkpt lat="59.859005" lon="17.6610576">
        <ele>8.30859</ele>
        <time>2013-05-22T20:18:55Z</time>
      </trkpt>
      <trkpt lat="59.8590524" lon="17.6611048">
        <ele>8.30859</ele>
        <time>2013-05-22T20:18:56Z</time>
      </trkpt>
      <trkpt lat="59.8590981" lon="17.6611524">
        <ele>8.30859</ele>
        <time>2013-05-22T20:18:57Z</time>
      </trkpt>
      <trkpt lat="59.8591406" lon="17.661201">
        <ele>7.82788</ele>
        <time>2013-05-22T20:18:58Z</time>
      </trkpt>
      <trkpt lat="59.8591841" lon="17.6612527">
        <ele>7.34717</ele>
        <time>2013-05-22T20:18:59Z</time>
      </trkpt>
      <trkpt lat="59.8592303" lon="17.6613032">
        <ele>7.34717</ele>
        <time>2013-05-22T20:19:00Z</time>
      </trkpt>
      <trkpt lat="59.8592849" lon="17.6613437">
        <ele>8.30859</ele>
        <time>2013-05-22T20:19:01Z</time>
      </trkpt>
      <trkpt lat="59.8593356" lon="17.6613875">
        <ele>8.30859</ele>
        <time>2013-05-22T20:19:02Z</time>
      </trkpt>
      <trkpt lat="59.8593852" lon="17.6614283">
        <ele>7.82788</ele>
        <time>2013-05-22T20:19:03Z</time>
      </trkpt>
      <trkpt lat="59.8594364" lon="17.6614678">
        <ele>7.82788</ele>
        <time>2013-05-22T20:19:04Z</time>
      </trkpt>
      <trkpt lat="59.8594902" lon="17.6615119">
        <ele>8.30859</ele>
        <time>2013-05-22T20:19:05Z</time>
      </trkpt>
      <trkpt lat="59.8595434" lon="17.6615641">
        <ele>8.30859</ele>
        <time>2013-05-22T20:19:06Z</time>
      </trkpt>
      <trkpt lat="59.8595965" lon="17.661617">
        <ele>7.82788</ele>
        <time>2013-05-22T20:19:07Z</time>
      </trkpt>
      <trkpt lat="59.8596511" lon="17.6616697">
        <ele>7.82788</ele>
        <time>2013-05-22T20:19:08Z</time>
      </trkpt>
      <trkpt lat="59.8597118" lon="17.6617154">
        <ele>8.30859</ele>
        <time>2013-05-22T20:19:09Z</time>
      </trkpt>
      <trkpt lat="59.8597756" lon="17.6617598">
        <ele>8.78918</ele>
        <time>2013-05-22T20:19:10Z</time>
      </trkpt>
      <trkpt lat="59.8598306" lon="17.6618135">
        <ele>9.2699</ele>
        <time>2013-05-22T20:19:11Z</time>
      </trkpt>
      <trkpt lat="59.8598925" lon="17.6618693">
        <ele>10.2312</ele>
        <time>2013-05-22T20:19:12Z</time>
      </trkpt>
      <trkpt lat="59.8599533" lon="17.6619268">
        <ele>10.7118</ele>
        <time>2013-05-22T20:19:13Z</time>
      </trkpt>
      <trkpt lat="59.8600114" lon="17.6619901">
        <ele>11.1925</ele>
        <time>2013-05-22T20:19:14Z</time>
      </trkpt>
      <trkpt lat="59.8600714" lon="17.6620478">
        <ele>11.1925</ele>
        <time>2013-05-22T20:19:15Z</time>
      </trkpt>
      <trkpt lat="59.8601383" lon="17.6620988">
        <ele>12.1538</ele>
        <time>2013-05-22T20:19:16Z</time>
      </trkpt>
      <trkpt lat="59.8601992" lon="17.6621518">
        <ele>12.1538</ele>
        <time>2013-05-22T20:19:17Z</time>
      </trkpt>
      <trkpt lat="59.8602641" lon="17.662195">
        <ele>12.6344</ele>
        <time>2013-05-22T20:19:18Z</time>
      </trkpt>
      <trkpt lat="59.860323" lon="17.6622449">
        <ele>12.6344</ele>
        <time>2013-05-22T20:19:19Z</time>
      </trkpt>
      <trkpt lat="59.8603768" lon="17.6623055">
        <ele>12.1538</ele>
        <time>2013-05-22T20:19:20Z</time>
      </trkpt>
      <trkpt lat="59.8604278" lon="17.6623713">
        <ele>12.1538</ele>
        <time>2013-05-22T20:19:21Z</time>
      </trkpt>
      <trkpt lat="59.8604801" lon="17.662435">
        <ele>11.6732</ele>
        <time>2013-05-22T20:19:22Z</time>
      </trkpt>
      <trkpt lat="59.860535" lon="17.6624968">
        <ele>11.6732</ele>
        <time>2013-05-22T20:19:23Z</time>
      </trkpt>
      <trkpt lat="59.860592" lon="17.6625555">
        <ele>11.6732</ele>
        <time>2013-05-22T20:19:24Z</time>
      </trkpt>
      <trkpt lat="59.8606507" lon="17.6626106">
        <ele>11.6732</ele>
        <time>2013-05-22T20:19:25Z</time>
      </trkpt>
      <trkpt lat="59.860713" lon="17.662666">
        <ele>11.6732</ele>
        <time>2013-05-22T20:19:26Z</time>
      </trkpt>
      <trkpt lat="59.8607764" lon="17.6627259">
        <ele>12.1538</ele>
        <time>2013-05-22T20:19:27Z</time>
      </trkpt>
      <trkpt lat="59.8608342" lon="17.6627893">
        <ele>12.1538</ele>
        <time>2013-05-22T20:19:28Z</time>
      </trkpt>
      <trkpt lat="59.8608919" lon="17.6628474">
        <ele>11.6732</ele>
        <time>2013-05-22T20:19:29Z</time>
      </trkpt>
      <trkpt lat="59.8609503" lon="17.6629007">
        <ele>11.6732</ele>
        <time>2013-05-22T20:19:30Z</time>
      </trkpt>
      <trkpt lat="59.8610101" lon="17.6629502">
        <ele>12.1538</ele>
        <time>2013-05-22T20:19:31Z</time>
      </trkpt>
      <trkpt lat="59.8610669" lon="17.6630003">
        <ele>11.6732</ele>
        <time>2013-05-22T20:19:32Z</time>
      </trkpt>
      <trkpt lat="59.8611255" lon="17.6630468">
        <ele>12.1538</ele>
        <time>2013-05-22T20:19:33Z</time>
      </trkpt>
      <trkpt lat="59.8611775" lon="17.6630973">
        <ele>11.6732</ele>
        <time>2013-05-22T20:19:34Z</time>
      </trkpt>
      <trkpt lat="59.8612306" lon="17.6631522">
        <ele>11.1925</ele>
        <time>2013-05-22T20:19:35Z</time>
      </trkpt>
      <trkpt lat="59.8612854" lon="17.6632053">
        <ele>11.1925</ele>
        <time>2013-05-22T20:19:36Z</time>
      </trkpt>
      <trkpt lat="59.8613415" lon="17.6632566">
        <ele>11.6732</ele>
        <time>2013-05-22T20:19:37Z</time>
      </trkpt>
      <trkpt lat="59.861397" lon="17.6633092">
        <ele>11.1925</ele>
        <time>2013-05-22T20:19:38Z</time>
      </trkpt>
      <trkpt lat="59.8614488" lon="17.6633701">
        <ele>10.7118</ele>
        <time>2013-05-22T20:19:39Z</time>
      </trkpt>
      <trkpt lat="59.8615022" lon="17.6634325">
        <ele>10.7118</ele>
        <time>2013-05-22T20:19:40Z</time>
      </trkpt>
      <trkpt lat="59.8615581" lon="17.6634954">
        <ele>10.7118</ele>
        <time>2013-05-22T20:19:41Z</time>
      </trkpt>
      <trkpt lat="59.8616139" lon="17.6635587">
        <ele>10.7118</ele>
        <time>2013-05-22T20:19:42Z</time>
      </trkpt>
      <trkpt lat="59.8616704" lon="17.6636216">
        <ele>11.1925</ele>
        <time>2013-05-22T20:19:43Z</time>
      </trkpt>
      <trkpt lat="59.8617264" lon="17.663682">
        <ele>11.1925</ele>
        <time>2013-05-22T20:19:44Z</time>
      </trkpt>
      <trkpt lat="59.8617823" lon="17.6637403">
        <ele>11.1925</ele>
        <time>2013-05-22T20:19:45Z</time>
      </trkpt>
      <trkpt lat="59.8618384" lon="17.6637928">
        <ele>10.7118</ele>
        <time>2013-05-22T20:19:46Z</time>
      </trkpt>
      <trkpt lat="59.8618903" lon="17.6638491">
        <ele>10.7118</ele>
        <time>2013-05-22T20:19:47Z</time>
      </trkpt>
      <trkpt lat="59.8619408" lon="17.6639025">
        <ele>10.7118</ele>
        <time>2013-05-22T20:19:48Z</time>
      </trkpt>
      <trkpt lat="59.8619901" lon="17.6639563">
        <ele>10.2312</ele>
        <time>2013-05-22T20:19:49Z</time>
      </trkpt>
      <trkpt lat="59.8620355" lon="17.6640098">
        <ele>9.75061</ele>
        <time>2013-05-22T20:19:50Z</time>
      </trkpt>
      <trkpt lat="59.8620884" lon="17.6640479">
        <ele>10.2312</ele>
        <time>2013-05-22T20:19:51Z</time>
      </trkpt>
      <trkpt lat="59.8621398" lon="17.6640862">
        <ele>9.75061</ele>
        <time>2013-05-22T20:19:52Z</time>
      </trkpt>
      <trkpt lat="59.8621937" lon="17.6641275">
        <ele>10.2312</ele>
        <time>2013-05-22T20:19:53Z</time>
      </trkpt>
      <trkpt lat="59.8622455" lon="17.6641766">
        <ele>10.2312</ele>
        <time>2013-05-22T20:19:54Z</time>
      </trkpt>
      <trkpt lat="59.862301" lon="17.6642235">
        <ele>10.7118</ele>
        <time>2013-05-22T20:19:55Z</time>
      </trkpt>
      <trkpt lat="59.8623527" lon="17.6642734">
        <ele>10.7118</ele>
        <time>2013-05-22T20:19:56Z</time>
      </trkpt>
      <trkpt lat="59.8624052" lon="17.6643183">
        <ele>10.7118</ele>
        <time>2013-05-22T20:19:57Z</time>
      </trkpt>
      <trkpt lat="59.8624544" lon="17.6643702">
        <ele>10.7118</ele>
        <time>2013-05-22T20:19:58Z</time>
      </trkpt>
      <trkpt lat="59.8624989" lon="17.6644294">
        <ele>10.7118</ele>
        <time>2013-05-22T20:19:59Z</time>
      </trkpt>
      <trkpt lat="59.8625362" lon="17.6645058">
        <ele>11.1925</ele>
        <time>2013-05-22T20:20:00Z</time>
      </trkpt>
      <trkpt lat="59.8625662" lon="17.6645977">
        <ele>11.1925</ele>
        <time>2013-05-22T20:20:01Z</time>
      </trkpt>
      <trkpt lat="59.8625947" lon="17.6646951">
        <ele>11.1925</ele>
        <time>2013-05-22T20:20:02Z</time>
      </trkpt>
      <trkpt lat="59.8626247" lon="17.6647939">
        <ele>11.6732</ele>
        <time>2013-05-22T20:20:03Z</time>
      </trkpt>
      <trkpt lat="59.8626579" lon="17.6648909">
        <ele>11.6732</ele>
        <time>2013-05-22T20:20:04Z</time>
      </trkpt>
      <trkpt lat="59.8626935" lon="17.6649826">
        <ele>11.6732</ele>
        <time>2013-05-22T20:20:05Z</time>
      </trkpt>
      <trkpt lat="59.8627298" lon="17.6650764">
        <ele>12.1538</ele>
        <time>2013-05-22T20:20:06Z</time>
      </trkpt>
      <trkpt lat="59.8627652" lon="17.665172">
        <ele>12.1538</ele>
        <time>2013-05-22T20:20:07Z</time>
      </trkpt>
      <trkpt lat="59.8628014" lon="17.665269">
        <ele>12.1538</ele>
        <time>2013-05-22T20:20:08Z</time>
      </trkpt>
      <trkpt lat="59.8628386" lon="17.6653675">
        <ele>12.1538</ele>
        <time>2013-05-22T20:20:09Z</time>
      </trkpt>
      <trkpt lat="59.862877" lon="17.6654648">
        <ele>12.1538</ele>
        <time>2013-05-22T20:20:10Z</time>
      </trkpt>
      <trkpt lat="59.8629162" lon="17.6655628">
        <ele>12.1538</ele>
        <time>2013-05-22T20:20:11Z</time>
      </trkpt>
      <trkpt lat="59.8629536" lon="17.6656623">
        <ele>12.6344</ele>
        <time>2013-05-22T20:20:12Z</time>
      </trkpt>
      <trkpt lat="59.862992" lon="17.6657579">
        <ele>12.6344</ele>
        <time>2013-05-22T20:20:13Z</time>
      </trkpt>
      <trkpt lat="59.8630286" lon="17.66585">
        <ele>12.6344</ele>
        <time>2013-05-22T20:20:14Z</time>
      </trkpt>
      <trkpt lat="59.8630638" lon="17.6659425">
        <ele>12.6344</ele>
        <time>2013-05-22T20:20:15Z</time>
      </trkpt>
      <trkpt lat="59.8631013" lon="17.6660309">
        <ele>13.1151</ele>
        <time>2013-05-22T20:20:16Z</time>
      </trkpt>
      <trkpt lat="59.8631347" lon="17.6661225">
        <ele>13.5958</ele>
        <time>2013-05-22T20:20:17Z</time>
      </trkpt>
      <trkpt lat="59.8631676" lon="17.6662143">
        <ele>13.5958</ele>
        <time>2013-05-22T20:20:18Z</time>
      </trkpt>
      <trkpt lat="59.8632014" lon="17.666306">
        <ele>13.5958</ele>
        <time>2013-05-22T20:20:19Z</time>
      </trkpt>
      <trkpt lat="59.8632344" lon="17.6663987">
        <ele>13.5958</ele>
        <time>2013-05-22T20:20:20Z</time>
      </trkpt>
      <trkpt lat="59.8632695" lon="17.6664908">
        <ele>14.0764</ele>
        <time>2013-05-22T20:20:21Z</time>
      </trkpt>
      <trkpt lat="59.8633047" lon="17.6665828">
        <ele>14.557</ele>
        <time>2013-05-22T20:20:22Z</time>
      </trkpt>
      <trkpt lat="59.8633385" lon="17.6666734">
        <ele>15.0377</ele>
        <time>2013-05-22T20:20:23Z</time>
      </trkpt>
      <trkpt lat="59.8633682" lon="17.6667638">
        <ele>15.5184</ele>
        <time>2013-05-22T20:20:24Z</time>
      </trkpt>
      <trkpt lat="59.8633991" lon="17.6668516">
        <ele>15.5184</ele>
        <time>2013-05-22T20:20:25Z</time>
      </trkpt>
      <trkpt lat="59.8634293" lon="17.6669381">
        <ele>15.5184</ele>
        <time>2013-05-22T20:20:26Z</time>
      </trkpt>
      <trkpt lat="59.8634583" lon="17.6670221">
        <ele>15.5184</ele>
        <time>2013-05-22T20:20:27Z</time>
      </trkpt>
      <trkpt lat="59.8634866" lon="17.6671023">
        <ele>15.5184</ele>
        <time>2013-05-22T20:20:28Z</time>
      </trkpt>
      <trkpt lat="59.8635157" lon="17.6671783">
        <ele>15.999</ele>
        <time>2013-05-22T20:20:29Z</time>
      </trkpt>
      <trkpt lat="59.8635426" lon="17.6672497">
        <ele>15.999</ele>
        <time>2013-05-22T20:20:30Z</time>
      </trkpt>
      <trkpt lat="59.863567" lon="17.6673132">
        <ele>15.999</ele>
        <time>2013-05-22T20:20:31Z</time>
      </trkpt>
      <trkpt lat="59.8635918" lon="17.6673659">
        <ele>15.999</ele>
        <time>2013-05-22T20:20:32Z</time>
      </trkpt>
      <trkpt lat="59.8636108" lon="17.6674163">
        <ele>15.999</ele>
        <time>2013-05-22T20:20:33Z</time>
      </trkpt>
      <trkpt lat="59.8636263" lon="17.6674577">
        <ele>16.4797</ele>
        <time>2013-05-22T20:20:34Z</time>
      </trkpt>
      <trkpt lat="59.8636379" lon="17.6674901">
        <ele>16.4797</ele>
        <time>2013-05-22T20:20:35Z</time>
      </trkpt>
      <trkpt lat="59.8636467" lon="17.6675125">
        <ele>16.4797</ele>
        <time>2013-05-22T20:20:36Z</time>
      </trkpt>
      <trkpt lat="59.863655" lon="17.6675315">
        <ele>16.9604</ele>
        <time>2013-05-22T20:20:37Z</time>
      </trkpt>
      <trkpt lat="59.8636643" lon="17.6675519">
        <ele>16.9604</ele>
        <time>2013-05-22T20:20:38Z</time>
      </trkpt>
      <trkpt lat="59.8636772" lon="17.6675815">
        <ele>17.4412</ele>
        <time>2013-05-22T20:20:39Z</time>
      </trkpt>
      <trkpt lat="59.8636934" lon="17.6676255">
        <ele>17.4412</ele>
        <time>2013-05-22T20:20:40Z</time>
      </trkpt>
      <trkpt lat="59.8637135" lon="17.6676818">
        <ele>17.9218</ele>
        <time>2013-05-22T20:20:41Z</time>
      </trkpt>
      <trkpt lat="59.8637356" lon="17.6677463">
        <ele>17.4412</ele>
        <time>2013-05-22T20:20:42Z</time>
      </trkpt>
      <trkpt lat="59.86376" lon="17.6678213">
        <ele>17.4412</ele>
        <time>2013-05-22T20:20:43Z</time>
      </trkpt>
      <trkpt lat="59.8637843" lon="17.6679066">
        <ele>17.4412</ele>
        <time>2013-05-22T20:20:44Z</time>
      </trkpt>
      <trkpt lat="59.8638073" lon="17.6679962">
        <ele>16.9604</ele>
        <time>2013-05-22T20:20:45Z</time>
      </trkpt>
      <trkpt lat="59.8638358" lon="17.6680811">
        <ele>16.9604</ele>
        <time>2013-05-22T20:20:46Z</time>
      </trkpt>
      <trkpt lat="59.8638695" lon="17.6681622">
        <ele>16.4797</ele>
        <time>2013-05-22T20:20:47Z</time>
      </trkpt>
      <trkpt lat="59.8639081" lon="17.668242">
        <ele>15.999</ele>
        <time>2013-05-22T20:20:48Z</time>
      </trkpt>
      <trkpt lat="59.8639494" lon="17.6683282">
        <ele>15.999</ele>
        <time>2013-05-22T20:20:49Z</time>
      </trkpt>
      <trkpt lat="59.8639902" lon="17.6684218">
        <ele>15.999</ele>
        <time>2013-05-22T20:20:50Z</time>
      </trkpt>
      <trkpt lat="59.864029" lon="17.6685228">
        <ele>15.999</ele>
        <time>2013-05-22T20:20:51Z</time>
      </trkpt>
      <trkpt lat="59.8640678" lon="17.6686267">
        <ele>15.999</ele>
        <time>2013-05-22T20:20:52Z</time>
      </trkpt>
      <trkpt lat="59.8641052" lon="17.6687335">
        <ele>15.5184</ele>
        <time>2013-05-22T20:20:53Z</time>
      </trkpt>
      <trkpt lat="59.8641417" lon="17.6688423">
        <ele>15.5184</ele>
        <time>2013-05-22T20:20:54Z</time>
      </trkpt>
      <trkpt lat="59.8641787" lon="17.6689488">
        <ele>15.0377</ele>
        <time>2013-05-22T20:20:55Z</time>
      </trkpt>
      <trkpt lat="59.8642139" lon="17.6690532">
        <ele>14.557</ele>
        <time>2013-05-22T20:20:56Z</time>
      </trkpt>
      <trkpt lat="59.8642496" lon="17.6691557">
        <ele>14.557</ele>
        <time>2013-05-22T20:20:57Z</time>
      </trkpt>
      <trkpt lat="59.8642797" lon="17.669244">
        <ele>14.557</ele>
        <time>2013-05-22T20:20:58Z</time>
      </trkpt>
      <trkpt lat="59.8643032" lon="17.6693151">
        <ele>14.557</ele>
        <time>2013-05-22T20:20:59Z</time>
      </trkpt>
      <trkpt lat="59.8643216" lon="17.6693773">
        <ele>14.0764</ele>
        <time>2013-05-22T20:21:00Z</time>
      </trkpt>
      <trkpt lat="59.8643327" lon="17.6694452">
        <ele>14.557</ele>
        <time>2013-05-22T20:21:01Z</time>
      </trkpt>
      <trkpt lat="59.8643405" lon="17.6695148">
        <ele>14.557</ele>
        <time>2013-05-22T20:21:02Z</time>
      </trkpt>
      <trkpt lat="59.8643544" lon="17.669581">
        <ele>14.557</ele>
        <time>2013-05-22T20:21:03Z</time>
      </trkpt>
      <trkpt lat="59.8643787" lon="17.6696421">
        <ele>14.557</ele>
        <time>2013-05-22T20:21:04Z</time>
      </trkpt>
      <trkpt lat="59.8644087" lon="17.6697072">
        <ele>14.557</ele>
        <time>2013-05-22T20:21:05Z</time>
      </trkpt>
      <trkpt lat="59.8644386" lon="17.6697809">
        <ele>14.557</ele>
        <time>2013-05-22T20:21:06Z</time>
      </trkpt>
      <trkpt lat="59.8644656" lon="17.6698655">
        <ele>14.0764</ele>
        <time>2013-05-22T20:21:07Z</time>
      </trkpt>
      <trkpt lat="59.8644911" lon="17.6699542">
        <ele>14.0764</ele>
        <time>2013-05-22T20:21:08Z</time>
      </trkpt>
      <trkpt lat="59.8645165" lon="17.6700428">
        <ele>14.0764</ele>
        <time>2013-05-22T20:21:09Z</time>
      </trkpt>
      <trkpt lat="59.864542" lon="17.6701332">
        <ele>14.0764</ele>
        <time>2013-05-22T20:21:10Z</time>
      </trkpt>
      <trkpt lat="59.8645686" lon="17.6702274">
        <ele>14.0764</ele>
        <time>2013-05-22T20:21:11Z</time>
      </trkpt>
      <trkpt lat="59.8645961" lon="17.6703263">
        <ele>14.0764</ele>
        <time>2013-05-22T20:21:12Z</time>
      </trkpt>
      <trkpt lat="59.8646231" lon="17.6704273">
        <ele>14.0764</ele>
        <time>2013-05-22T20:21:13Z</time>
      </trkpt>
      <trkpt lat="59.8646487" lon="17.6705336">
        <ele>14.557</ele>
        <time>2013-05-22T20:21:14Z</time>
      </trkpt>
      <trkpt lat="59.8646744" lon="17.6706458">
        <ele>14.0764</ele>
        <time>2013-05-22T20:21:15Z</time>
      </trkpt>
      <trkpt lat="59.8647013" lon="17.6707604">
        <ele>14.0764</ele>
        <time>2013-05-22T20:21:16Z</time>
      </trkpt>
      <trkpt lat="59.8647289" lon="17.670877">
        <ele>14.0764</ele>
        <time>2013-05-22T20:21:17Z</time>
      </trkpt>
      <trkpt lat="59.8647582" lon="17.6709958">
        <ele>14.0764</ele>
        <time>2013-05-22T20:21:18Z</time>
      </trkpt>
      <trkpt lat="59.8647877" lon="17.6711148">
        <ele>14.0764</ele>
        <time>2013-05-22T20:21:19Z</time>
      </trkpt>
      <trkpt lat="59.8648165" lon="17.6712327">
        <ele>14.0764</ele>
        <time>2013-05-22T20:21:20Z</time>
      </trkpt>
      <trkpt lat="59.8648466" lon="17.6713498">
        <ele>14.0764</ele>
        <time>2013-05-22T20:21:21Z</time>
      </trkpt>
      <trkpt lat="59.864879" lon="17.6714653">
        <ele>14.0764</ele>
        <time>2013-05-22T20:21:22Z</time>
      </trkpt>
      <trkpt lat="59.8649146" lon="17.6715779">
        <ele>14.557</ele>
        <time>2013-05-22T20:21:23Z</time>
      </trkpt>
      <trkpt lat="59.8649506" lon="17.6716911">
        <ele>14.557</ele>
        <time>2013-05-22T20:21:24Z</time>
      </trkpt>
      <trkpt lat="59.8649841" lon="17.6718064">
        <ele>15.0377</ele>
        <time>2013-05-22T20:21:25Z</time>
      </trkpt>
      <trkpt lat="59.8650182" lon="17.6719187">
        <ele>14.557</ele>
        <time>2013-05-22T20:21:26Z</time>
      </trkpt>
      <trkpt lat="59.865054" lon="17.6720326">
        <ele>14.557</ele>
        <time>2013-05-22T20:21:27Z</time>
      </trkpt>
      <trkpt lat="59.8650903" lon="17.672146">
        <ele>15.0377</ele>
        <time>2013-05-22T20:21:28Z</time>
      </trkpt>
      <trkpt lat="59.8651268" lon="17.6722558">
        <ele>15.5184</ele>
        <time>2013-05-22T20:21:29Z</time>
      </trkpt>
      <trkpt lat="59.8651635" lon="17.67236">
        <ele>15.5184</ele>
        <time>2013-05-22T20:21:30Z</time>
      </trkpt>
      <trkpt lat="59.8651995" lon="17.6724601">
        <ele>15.5184</ele>
        <time>2013-05-22T20:21:31Z</time>
      </trkpt>
      <trkpt lat="59.865235" lon="17.672555">
        <ele>15.5184</ele>
        <time>2013-05-22T20:21:32Z</time>
      </trkpt>
      <trkpt lat="59.8652682" lon="17.6726497">
        <ele>15.999</ele>
        <time>2013-05-22T20:21:33Z</time>
      </trkpt>
      <trkpt lat="59.8653001" lon="17.6727434">
        <ele>15.999</ele>
        <time>2013-05-22T20:21:34Z</time>
      </trkpt>
      <trkpt lat="59.8653318" lon="17.6728361">
        <ele>15.999</ele>
        <time>2013-05-22T20:21:35Z</time>
      </trkpt>
      <trkpt lat="59.8653645" lon="17.6729263">
        <ele>15.999</ele>
        <time>2013-05-22T20:21:36Z</time>
      </trkpt>
      <trkpt lat="59.8654011" lon="17.673005">
        <ele>16.4797</ele>
        <time>2013-05-22T20:21:37Z</time>
      </trkpt>
      <trkpt lat="59.8654452" lon="17.673065">
        <ele>16.4797</ele>
        <time>2013-05-22T20:21:38Z</time>
      </trkpt>
      <trkpt lat="59.8654955" lon="17.6731121">
        <ele>16.9604</ele>
        <time>2013-05-22T20:21:39Z</time>
      </trkpt>
      <trkpt lat="59.8655468" lon="17.6731318">
        <ele>16.9604</ele>
        <time>2013-05-22T20:21:40Z</time>
      </trkpt>
      <trkpt lat="59.8656007" lon="17.6731369">
        <ele>17.4412</ele>
        <time>2013-05-22T20:21:41Z</time>
      </trkpt>
      <trkpt lat="59.865659" lon="17.6731463">
        <ele>17.9218</ele>
        <time>2013-05-22T20:21:42Z</time>
      </trkpt>
      <trkpt lat="59.8657175" lon="17.6731586">
        <ele>18.4023</ele>
        <time>2013-05-22T20:21:43Z</time>
      </trkpt>
      <trkpt lat="59.8657758" lon="17.6731823">
        <ele>18.4023</ele>
        <time>2013-05-22T20:21:44Z</time>
      </trkpt>
      <trkpt lat="59.8658352" lon="17.6732215">
        <ele>19.3638</ele>
        <time>2013-05-22T20:21:45Z</time>
      </trkpt>
      <trkpt lat="59.8658906" lon="17.6732816">
        <ele>19.8444</ele>
        <time>2013-05-22T20:21:46Z</time>
      </trkpt>
      <trkpt lat="59.8659356" lon="17.6733651">
        <ele>20.325</ele>
        <time>2013-05-22T20:21:47Z</time>
      </trkpt>
      <trkpt lat="59.8659731" lon="17.6734609">
        <ele>20.325</ele>
        <time>2013-05-22T20:21:48Z</time>
      </trkpt>
      <trkpt lat="59.8660064" lon="17.6735664">
        <ele>20.325</ele>
        <time>2013-05-22T20:21:49Z</time>
      </trkpt>
      <trkpt lat="59.8660379" lon="17.6736747">
        <ele>20.325</ele>
        <time>2013-05-22T20:21:50Z</time>
      </trkpt>
      <trkpt lat="59.8660684" lon="17.6737846">
        <ele>20.325</ele>
        <time>2013-05-22T20:21:51Z</time>
      </trkpt>
      <trkpt lat="59.8660936" lon="17.6738984">
        <ele>20.325</ele>
        <time>2013-05-22T20:21:52Z</time>
      </trkpt>
      <trkpt lat="59.8661247" lon="17.6740047">
        <ele>20.8057</ele>
        <time>2013-05-22T20:21:53Z</time>
      </trkpt>
      <trkpt lat="59.8661649" lon="17.6741027">
        <ele>21.767</ele>
        <time>2013-05-22T20:21:54Z</time>
      </trkpt>
      <trkpt lat="59.8662041" lon="17.6741991">
        <ele>22.2476</ele>
        <time>2013-05-22T20:21:55Z</time>
      </trkpt>
      <trkpt lat="59.8662332" lon="17.6743026">
        <ele>22.2476</ele>
        <time>2013-05-22T20:21:56Z</time>
      </trkpt>
      <trkpt lat="59.8662615" lon="17.6744057">
        <ele>21.767</ele>
        <time>2013-05-22T20:21:57Z</time>
      </trkpt>
      <trkpt lat="59.8662894" lon="17.6745093">
        <ele>21.2864</ele>
        <time>2013-05-22T20:21:58Z</time>
      </trkpt>
      <trkpt lat="59.8663172" lon="17.6746115">
        <ele>20.8057</ele>
        <time>2013-05-22T20:21:59Z</time>
      </trkpt>
      <trkpt lat="59.8663465" lon="17.6747135">
        <ele>20.8057</ele>
        <time>2013-05-22T20:22:00Z</time>
      </trkpt>
      <trkpt lat="59.8663833" lon="17.6748093">
        <ele>21.2864</ele>
        <time>2013-05-22T20:22:01Z</time>
      </trkpt>
      <trkpt lat="59.8664207" lon="17.6749014">
        <ele>21.767</ele>
        <time>2013-05-22T20:22:02Z</time>
      </trkpt>
      <trkpt lat="59.8664465" lon="17.675005">
        <ele>21.767</ele>
        <time>2013-05-22T20:22:03Z</time>
      </trkpt>
      <trkpt lat="59.8664747" lon="17.6751055">
        <ele>21.767</ele>
        <time>2013-05-22T20:22:04Z</time>
      </trkpt>
      <trkpt lat="59.866503" lon="17.6752063">
        <ele>21.767</ele>
        <time>2013-05-22T20:22:05Z</time>
      </trkpt>
      <trkpt lat="59.866531" lon="17.6753049">
        <ele>21.2864</ele>
        <time>2013-05-22T20:22:06Z</time>
      </trkpt>
      <trkpt lat="59.866559" lon="17.6753998">
        <ele>20.8057</ele>
        <time>2013-05-22T20:22:07Z</time>
      </trkpt>
      <trkpt lat="59.8665958" lon="17.6754824">
        <ele>21.2864</ele>
        <time>2013-05-22T20:22:08Z</time>
      </trkpt>
      <trkpt lat="59.8666294" lon="17.6755687">
        <ele>22.2476</ele>
        <time>2013-05-22T20:22:09Z</time>
      </trkpt>
      <trkpt lat="59.8666556" lon="17.6756659">
        <ele>22.7283</ele>
        <time>2013-05-22T20:22:10Z</time>
      </trkpt>
      <trkpt lat="59.866681" lon="17.6757651">
        <ele>22.7283</ele>
        <time>2013-05-22T20:22:11Z</time>
      </trkpt>
      <trkpt lat="59.8667066" lon="17.6758638">
        <ele>22.2476</ele>
        <time>2013-05-22T20:22:12Z</time>
      </trkpt>
      <trkpt lat="59.8667341" lon="17.67596">
        <ele>22.2476</ele>
        <time>2013-05-22T20:22:13Z</time>
      </trkpt>
      <trkpt lat="59.8667641" lon="17.6760535">
        <ele>21.767</ele>
        <time>2013-05-22T20:22:14Z</time>
      </trkpt>
      <trkpt lat="59.8667943" lon="17.6761472">
        <ele>21.2864</ele>
        <time>2013-05-22T20:22:15Z</time>
      </trkpt>
      <trkpt lat="59.8668247" lon="17.6762476">
        <ele>21.2864</ele>
        <time>2013-05-22T20:22:16Z</time>
      </trkpt>
      <trkpt lat="59.8668537" lon="17.676347">
        <ele>21.2864</ele>
        <time>2013-05-22T20:22:17Z</time>
      </trkpt>
      <trkpt lat="59.8668839" lon="17.6764436">
        <ele>20.8057</ele>
        <time>2013-05-22T20:22:18Z</time>
      </trkpt>
      <trkpt lat="59.8669149" lon="17.6765385">
        <ele>20.8057</ele>
        <time>2013-05-22T20:22:19Z</time>
      </trkpt>
      <trkpt lat="59.8669452" lon="17.6766335">
        <ele>20.325</ele>
        <time>2013-05-22T20:22:20Z</time>
      </trkpt>
      <trkpt lat="59.8669768" lon="17.6767278">
        <ele>20.325</ele>
        <time>2013-05-22T20:22:21Z</time>
      </trkpt>
      <trkpt lat="59.8670092" lon="17.6768203">
        <ele>20.325</ele>
        <time>2013-05-22T20:22:22Z</time>
      </trkpt>
      <trkpt lat="59.8670422" lon="17.6769107">
        <ele>19.8444</ele>
        <time>2013-05-22T20:22:23Z</time>
      </trkpt>
      <trkpt lat="59.8670745" lon="17.6770007">
        <ele>19.8444</ele>
        <time>2013-05-22T20:22:24Z</time>
      </trkpt>
      <trkpt lat="59.8671065" lon="17.6770912">
        <ele>19.8444</ele>
        <time>2013-05-22T20:22:25Z</time>
      </trkpt>
      <trkpt lat="59.8671377" lon="17.6771818">
        <ele>19.8444</ele>
        <time>2013-05-22T20:22:26Z</time>
      </trkpt>
      <trkpt lat="59.8671681" lon="17.6772758">
        <ele>19.3638</ele>
        <time>2013-05-22T20:22:27Z</time>
      </trkpt>
      <trkpt lat="59.8671946" lon="17.6773807">
        <ele>20.325</ele>
        <time>2013-05-22T20:22:28Z</time>
      </trkpt>
      <trkpt lat="59.8672153" lon="17.6774875">
        <ele>20.325</ele>
        <time>2013-05-22T20:22:29Z</time>
      </trkpt>
      <trkpt lat="59.8672294" lon="17.6776021">
        <ele>20.8057</ele>
        <time>2013-05-22T20:22:30Z</time>
      </trkpt>
      <trkpt lat="59.8672403" lon="17.6777173">
        <ele>21.2864</ele>
        <time>2013-05-22T20:22:31Z</time>
      </trkpt>
      <trkpt lat="59.8672449" lon="17.6778312">
        <ele>21.767</ele>
        <time>2013-05-22T20:22:32Z</time>
      </trkpt>
      <trkpt lat="59.8672527" lon="17.6779318">
        <ele>21.767</ele>
        <time>2013-05-22T20:22:33Z</time>
      </trkpt>
      <trkpt lat="59.8672651" lon="17.6780292">
        <ele>22.2476</ele>
        <time>2013-05-22T20:22:34Z</time>
      </trkpt>
      <trkpt lat="59.8672769" lon="17.6781266">
        <ele>22.2476</ele>
        <time>2013-05-22T20:22:35Z</time>
      </trkpt>
      <trkpt lat="59.8672874" lon="17.6782374">
        <ele>22.7283</ele>
        <time>2013-05-22T20:22:36Z</time>
      </trkpt>
      <trkpt lat="59.8672938" lon="17.6783362">
        <ele>22.7283</ele>
        <time>2013-05-22T20:22:37Z</time>
      </trkpt>
      <trkpt lat="59.8672997" lon="17.6784358">
        <ele>22.7283</ele>
        <time>2013-05-22T20:22:38Z</time>
      </trkpt>
      <trkpt lat="59.8673038" lon="17.6785358">
        <ele>22.7283</ele>
        <time>2013-05-22T20:22:39Z</time>
      </trkpt>
      <trkpt lat="59.8673125" lon="17.6786247">
        <ele>22.2476</ele>
        <time>2013-05-22T20:22:40Z</time>
      </trkpt>
      <trkpt lat="59.8673206" lon="17.6787144">
        <ele>21.767</ele>
        <time>2013-05-22T20:22:41Z</time>
      </trkpt>
      <trkpt lat="59.8673267" lon="17.6788014">
        <ele>21.2864</ele>
        <time>2013-05-22T20:22:42Z</time>
      </trkpt>
      <trkpt lat="59.8673353" lon="17.678889">
        <ele>20.325</ele>
        <time>2013-05-22T20:22:43Z</time>
      </trkpt>
      <trkpt lat="59.8673422" lon="17.6789512">
        <ele>18.8831</ele>
        <time>2013-05-22T20:22:44Z</time>
      </trkpt>
      <trkpt lat="59.8673526" lon="17.6790154">
        <ele>17.9218</ele>
        <time>2013-05-22T20:22:45Z</time>
      </trkpt>
      <trkpt lat="59.8673697" lon="17.6790554">
        <ele>17.4412</ele>
        <time>2013-05-22T20:22:46Z</time>
      </trkpt>
      <trkpt lat="59.8673954" lon="17.6790745">
        <ele>16.9604</ele>
        <time>2013-05-22T20:22:47Z</time>
      </trkpt>
      <trkpt lat="59.8674256" lon="17.6790862">
        <ele>16.4797</ele>
        <time>2013-05-22T20:22:48Z</time>
      </trkpt>
      <trkpt lat="59.8674523" lon="17.6791047">
        <ele>15.999</ele>
        <time>2013-05-22T20:22:49Z</time>
      </trkpt>
      <trkpt lat="59.8674831" lon="17.6791179">
        <ele>15.5184</ele>
        <time>2013-05-22T20:22:50Z</time>
      </trkpt>
      <trkpt lat="59.8675223" lon="17.6791247">
        <ele>15.5184</ele>
        <time>2013-05-22T20:22:51Z</time>
      </trkpt>
      <trkpt lat="59.8675679" lon="17.679131">
        <ele>15.5184</ele>
        <time>2013-05-22T20:22:52Z</time>
      </trkpt>
      <trkpt lat="59.8676152" lon="17.679137">
        <ele>15.999</ele>
        <time>2013-05-22T20:22:53Z</time>
      </trkpt>
      <trkpt lat="59.8676652" lon="17.6791429">
        <ele>16.4797</ele>
        <time>2013-05-22T20:22:54Z</time>
      </trkpt>
      <trkpt lat="59.8677158" lon="17.6791382">
        <ele>16.4797</ele>
        <time>2013-05-22T20:22:55Z</time>
      </trkpt>
      <trkpt lat="59.8677671" lon="17.6791191">
        <ele>16.9604</ele>
        <time>2013-05-22T20:22:56Z</time>
      </trkpt>
      <trkpt lat="59.8678184" lon="17.6790928">
        <ele>16.9604</ele>
        <time>2013-05-22T20:22:57Z</time>
      </trkpt>
      <trkpt lat="59.8678716" lon="17.6790652">
        <ele>17.4412</ele>
        <time>2013-05-22T20:22:58Z</time>
      </trkpt>
      <trkpt lat="59.8679266" lon="17.6790382">
        <ele>17.9218</ele>
        <time>2013-05-22T20:22:59Z</time>
      </trkpt>
      <trkpt lat="59.8679826" lon="17.6790114">
        <ele>17.9218</ele>
        <time>2013-05-22T20:23:00Z</time>
      </trkpt>
      <trkpt lat="59.8680994" lon="17.6789633">
        <ele>18.8831</ele>
        <time>2013-05-22T20:23:01Z</time>
      </trkpt>
      <trkpt lat="59.8681584" lon="17.6789373">
        <ele>19.3638</ele>
        <time>2013-05-22T20:23:02Z</time>
      </trkpt>
      <trkpt lat="59.8682177" lon="17.6789103">
        <ele>19.3638</ele>
        <time>2013-05-22T20:23:03Z</time>
      </trkpt>
      <trkpt lat="59.8682777" lon="17.6788833">
        <ele>19.8444</ele>
        <time>2013-05-22T20:23:04Z</time>
      </trkpt>
      <trkpt lat="59.8683389" lon="17.6788552">
        <ele>19.8444</ele>
        <time>2013-05-22T20:23:05Z</time>
      </trkpt>
      <trkpt lat="59.8684006" lon="17.6788274">
        <ele>20.325</ele>
        <time>2013-05-22T20:23:06Z</time>
      </trkpt>
      <trkpt lat="59.868463" lon="17.6788027">
        <ele>20.325</ele>
        <time>2013-05-22T20:23:07Z</time>
      </trkpt>
      <trkpt lat="59.8685248" lon="17.6787791">
        <ele>20.8057</ele>
        <time>2013-05-22T20:23:08Z</time>
      </trkpt>
      <trkpt lat="59.8685865" lon="17.6787517">
        <ele>21.2864</ele>
        <time>2013-05-22T20:23:09Z</time>
      </trkpt>
      <trkpt lat="59.8686477" lon="17.6787218">
        <ele>21.2864</ele>
        <time>2013-05-22T20:23:10Z</time>
      </trkpt>
      <trkpt lat="59.8687087" lon="17.6786913">
        <ele>21.2864</ele>
        <time>2013-05-22T20:23:11Z</time>
      </trkpt>
      <trkpt lat="59.8687702" lon="17.6786616">
        <ele>21.767</ele>
        <time>2013-05-22T20:23:12Z</time>
      </trkpt>
      <trkpt lat="59.868832" lon="17.6786322">
        <ele>21.767</ele>
        <time>2013-05-22T20:23:13Z</time>
      </trkpt>
      <trkpt lat="59.8688942" lon="17.6786026">
        <ele>21.767</ele>
        <time>2013-05-22T20:23:14Z</time>
      </trkpt>
      <trkpt lat="59.8689562" lon="17.6785724">
        <ele>22.2476</ele>
        <time>2013-05-22T20:23:15Z</time>
      </trkpt>
      <trkpt lat="59.8690183" lon="17.6785415">
        <ele>22.2476</ele>
        <time>2013-05-22T20:23:16Z</time>
      </trkpt>
      <trkpt lat="59.8690801" lon="17.6785105">
        <ele>22.2476</ele>
        <time>2013-05-22T20:23:17Z</time>
      </trkpt>
      <trkpt lat="59.8691407" lon="17.6784814">
        <ele>22.2476</ele>
        <time>2013-05-22T20:23:18Z</time>
      </trkpt>
      <trkpt lat="59.8691999" lon="17.6784544">
        <ele>22.2476</ele>
        <time>2013-05-22T20:23:19Z</time>
      </trkpt>
      <trkpt lat="59.8692572" lon="17.6784296">
        <ele>22.2476</ele>
        <time>2013-05-22T20:23:20Z</time>
      </trkpt>
      <trkpt lat="59.8693146" lon="17.678404">
        <ele>22.2476</ele>
        <time>2013-05-22T20:23:21Z</time>
      </trkpt>
      <trkpt lat="59.869369" lon="17.678374">
        <ele>21.767</ele>
        <time>2013-05-22T20:23:22Z</time>
      </trkpt>
      <trkpt lat="59.8694255" lon="17.6783421">
        <ele>21.767</ele>
        <time>2013-05-22T20:23:23Z</time>
      </trkpt>
      <trkpt lat="59.8694836" lon="17.6783116">
        <ele>21.767</ele>
        <time>2013-05-22T20:23:24Z</time>
      </trkpt>
      <trkpt lat="59.8695417" lon="17.6782794">
        <ele>21.767</ele>
        <time>2013-05-22T20:23:25Z</time>
      </trkpt>
      <trkpt lat="59.8695993" lon="17.6782487">
        <ele>21.767</ele>
        <time>2013-05-22T20:23:26Z</time>
      </trkpt>
      <trkpt lat="59.8696562" lon="17.6782191">
        <ele>21.767</ele>
        <time>2013-05-22T20:23:27Z</time>
      </trkpt>
      <trkpt lat="59.8697169" lon="17.678189">
        <ele>21.767</ele>
        <time>2013-05-22T20:23:28Z</time>
      </trkpt>
      <trkpt lat="59.8697739" lon="17.6781605">
        <ele>21.767</ele>
        <time>2013-05-22T20:23:29Z</time>
      </trkpt>
      <trkpt lat="59.8698328" lon="17.6781315">
        <ele>21.2864</ele>
        <time>2013-05-22T20:23:30Z</time>
      </trkpt>
      <trkpt lat="59.8698904" lon="17.6781017">
        <ele>20.8057</ele>
        <time>2013-05-22T20:23:31Z</time>
      </trkpt>
      <trkpt lat="59.8699497" lon="17.6780748">
        <ele>20.325</ele>
        <time>2013-05-22T20:23:32Z</time>
      </trkpt>
      <trkpt lat="59.8700094" lon="17.6780469">
        <ele>20.325</ele>
        <time>2013-05-22T20:23:33Z</time>
      </trkpt>
      <trkpt lat="59.8700701" lon="17.6780169">
        <ele>20.325</ele>
        <time>2013-05-22T20:23:34Z</time>
      </trkpt>
      <trkpt lat="59.8701287" lon="17.6779852">
        <ele>19.8444</ele>
        <time>2013-05-22T20:23:35Z</time>
      </trkpt>
      <trkpt lat="59.8701895" lon="17.6779539">
        <ele>19.3638</ele>
        <time>2013-05-22T20:23:36Z</time>
      </trkpt>
      <trkpt lat="59.8702498" lon="17.6779239">
        <ele>19.3638</ele>
        <time>2013-05-22T20:23:37Z</time>
      </trkpt>
      <trkpt lat="59.8703089" lon="17.677895">
        <ele>18.8831</ele>
        <time>2013-05-22T20:23:38Z</time>
      </trkpt>
      <trkpt lat="59.8703667" lon="17.6778645">
        <ele>19.3638</ele>
        <time>2013-05-22T20:23:39Z</time>
      </trkpt>
      <trkpt lat="59.8704226" lon="17.6778313">
        <ele>19.3638</ele>
        <time>2013-05-22T20:23:40Z</time>
      </trkpt>
      <trkpt lat="59.8704765" lon="17.6777966">
        <ele>19.3638</ele>
        <time>2013-05-22T20:23:41Z</time>
      </trkpt>
      <trkpt lat="59.87053" lon="17.6777653">
        <ele>19.3638</ele>
        <time>2013-05-22T20:23:42Z</time>
      </trkpt>
      <trkpt lat="59.870582" lon="17.6777364">
        <ele>19.3638</ele>
        <time>2013-05-22T20:23:43Z</time>
      </trkpt>
      <trkpt lat="59.8706376" lon="17.6777132">
        <ele>19.3638</ele>
        <time>2013-05-22T20:23:44Z</time>
      </trkpt>
      <trkpt lat="59.8706938" lon="17.677692">
        <ele>19.3638</ele>
        <time>2013-05-22T20:23:45Z</time>
      </trkpt>
      <trkpt lat="59.8707493" lon="17.6776728">
        <ele>19.3638</ele>
        <time>2013-05-22T20:23:46Z</time>
      </trkpt>
      <trkpt lat="59.8708046" lon="17.6776578">
        <ele>19.3638</ele>
        <time>2013-05-22T20:23:47Z</time>
      </trkpt>
      <trkpt lat="59.8708594" lon="17.6776421">
        <ele>18.8831</ele>
        <time>2013-05-22T20:23:48Z</time>
      </trkpt>
      <trkpt lat="59.8709118" lon="17.6776195">
        <ele>18.8831</ele>
        <time>2013-05-22T20:23:49Z</time>
      </trkpt>
      <trkpt lat="59.8709622" lon="17.6775977">
        <ele>18.8831</ele>
        <time>2013-05-22T20:23:50Z</time>
      </trkpt>
      <trkpt lat="59.8710123" lon="17.6775905">
        <ele>18.8831</ele>
        <time>2013-05-22T20:23:51Z</time>
      </trkpt>
      <trkpt lat="59.8710599" lon="17.6776018">
        <ele>18.4023</ele>
        <time>2013-05-22T20:23:52Z</time>
      </trkpt>
      <trkpt lat="59.8711052" lon="17.6776127">
        <ele>18.4023</ele>
        <time>2013-05-22T20:23:53Z</time>
      </trkpt>
      <trkpt lat="59.8711454" lon="17.6776033">
        <ele>17.9218</ele>
        <time>2013-05-22T20:23:54Z</time>
      </trkpt>
      <trkpt lat="59.871177" lon="17.6775659">
        <ele>17.4412</ele>
        <time>2013-05-22T20:23:55Z</time>
      </trkpt>
      <trkpt lat="59.8712004" lon="17.6775087">
        <ele>17.4412</ele>
        <time>2013-05-22T20:23:56Z</time>
      </trkpt>
      <trkpt lat="59.8712264" lon="17.6774558">
        <ele>17.4412</ele>
        <time>2013-05-22T20:23:57Z</time>
      </trkpt>
      <trkpt lat="59.8712576" lon="17.6774309">
        <ele>17.9218</ele>
        <time>2013-05-22T20:23:58Z</time>
      </trkpt>
      <trkpt lat="59.8712909" lon="17.6774257">
        <ele>17.9218</ele>
        <time>2013-05-22T20:23:59Z</time>
      </trkpt>
      <trkpt lat="59.8713242" lon="17.6774276">
        <ele>17.9218</ele>
        <time>2013-05-22T20:24:00Z</time>
      </trkpt>
      <trkpt lat="59.8713604" lon="17.6774313">
        <ele>18.4023</ele>
        <time>2013-05-22T20:24:01Z</time>
      </trkpt>
      <trkpt lat="59.8713945" lon="17.6774256">
        <ele>18.8831</ele>
        <time>2013-05-22T20:24:02Z</time>
      </trkpt>
      <trkpt lat="59.8714324" lon="17.6774273">
        <ele>19.8444</ele>
        <time>2013-05-22T20:24:03Z</time>
      </trkpt>
      <trkpt lat="59.8714718" lon="17.677441">
        <ele>20.325</ele>
        <time>2013-05-22T20:24:04Z</time>
      </trkpt>
      <trkpt lat="59.8715106" lon="17.6774719">
        <ele>20.8057</ele>
        <time>2013-05-22T20:24:05Z</time>
      </trkpt>
      <trkpt lat="59.871548" lon="17.6775146">
        <ele>21.2864</ele>
        <time>2013-05-22T20:24:06Z</time>
      </trkpt>
      <trkpt lat="59.871585" lon="17.6775557">
        <ele>21.2864</ele>
        <time>2013-05-22T20:24:07Z</time>
      </trkpt>
      <trkpt lat="59.8716249" lon="17.6775877">
        <ele>20.8057</ele>
        <time>2013-05-22T20:24:08Z</time>
      </trkpt>
      <trkpt lat="59.8716703" lon="17.6776086">
        <ele>20.8057</ele>
        <time>2013-05-22T20:24:09Z</time>
      </trkpt>
      <trkpt lat="59.8717188" lon="17.6776125">
        <ele>21.2864</ele>
        <time>2013-05-22T20:24:10Z</time>
      </trkpt>
      <trkpt lat="59.8717687" lon="17.6775978">
        <ele>20.8057</ele>
        <time>2013-05-22T20:24:11Z</time>
      </trkpt>
      <trkpt lat="59.87182" lon="17.6775749">
        <ele>21.2864</ele>
        <time>2013-05-22T20:24:12Z</time>
      </trkpt>
      <trkpt lat="59.8718713" lon="17.6775507">
        <ele>20.8057</ele>
        <time>2013-05-22T20:24:13Z</time>
      </trkpt>
      <trkpt lat="59.8719231" lon="17.6775267">
        <ele>20.8057</ele>
        <time>2013-05-22T20:24:14Z</time>
      </trkpt>
      <trkpt lat="59.8719763" lon="17.6775042">
        <ele>20.8057</ele>
        <time>2013-05-22T20:24:15Z</time>
      </trkpt>
      <trkpt lat="59.8720307" lon="17.677483">
        <ele>20.8057</ele>
        <time>2013-05-22T20:24:16Z</time>
      </trkpt>
      <trkpt lat="59.8720846" lon="17.6774599">
        <ele>20.8057</ele>
        <time>2013-05-22T20:24:17Z</time>
      </trkpt>
      <trkpt lat="59.8721383" lon="17.677433">
        <ele>20.325</ele>
        <time>2013-05-22T20:24:18Z</time>
      </trkpt>
      <trkpt lat="59.8721923" lon="17.6774029">
        <ele>20.325</ele>
        <time>2013-05-22T20:24:19Z</time>
      </trkpt>
      <trkpt lat="59.8722473" lon="17.6773752">
        <ele>20.325</ele>
        <time>2013-05-22T20:24:20Z</time>
      </trkpt>
      <trkpt lat="59.8723036" lon="17.6773506">
        <ele>20.325</ele>
        <time>2013-05-22T20:24:21Z</time>
      </trkpt>
      <trkpt lat="59.8723602" lon="17.6773278">
        <ele>20.325</ele>
        <time>2013-05-22T20:24:22Z</time>
      </trkpt>
      <trkpt lat="59.8724166" lon="17.6773028">
        <ele>20.325</ele>
        <time>2013-05-22T20:24:23Z</time>
      </trkpt>
      <trkpt lat="59.8724735" lon="17.6772766">
        <ele>20.8057</ele>
        <time>2013-05-22T20:24:24Z</time>
      </trkpt>
      <trkpt lat="59.8725311" lon="17.6772522">
        <ele>20.8057</ele>
        <time>2013-05-22T20:24:25Z</time>
      </trkpt>
      <trkpt lat="59.8725889" lon="17.6772269">
        <ele>20.8057</ele>
        <time>2013-05-22T20:24:26Z</time>
      </trkpt>
      <trkpt lat="59.8726466" lon="17.6771992">
        <ele>20.8057</ele>
        <time>2013-05-22T20:24:27Z</time>
      </trkpt>
      <trkpt lat="59.872704" lon="17.6771711">
        <ele>20.8057</ele>
        <time>2013-05-22T20:24:28Z</time>
      </trkpt>
      <trkpt lat="59.8727616" lon="17.6771448">
        <ele>21.2864</ele>
        <time>2013-05-22T20:24:29Z</time>
      </trkpt>
      <trkpt lat="59.8728194" lon="17.6771189">
        <ele>21.2864</ele>
        <time>2013-05-22T20:24:30Z</time>
      </trkpt>
      <trkpt lat="59.8728766" lon="17.6770929">
        <ele>21.2864</ele>
        <time>2013-05-22T20:24:31Z</time>
      </trkpt>
      <trkpt lat="59.8729337" lon="17.6770676">
        <ele>21.2864</ele>
        <time>2013-05-22T20:24:32Z</time>
      </trkpt>
      <trkpt lat="59.8729912" lon="17.6770418">
        <ele>21.2864</ele>
        <time>2013-05-22T20:24:33Z</time>
      </trkpt>
      <trkpt lat="59.8730501" lon="17.6770184">
        <ele>20.8057</ele>
        <time>2013-05-22T20:24:34Z</time>
      </trkpt>
      <trkpt lat="59.8731098" lon="17.6769922">
        <ele>20.8057</ele>
        <time>2013-05-22T20:24:35Z</time>
      </trkpt>
      <trkpt lat="59.8731689" lon="17.6769627">
        <ele>21.2864</ele>
        <time>2013-05-22T20:24:36Z</time>
      </trkpt>
      <trkpt lat="59.8732284" lon="17.6769351">
        <ele>21.2864</ele>
        <time>2013-05-22T20:24:37Z</time>
      </trkpt>
      <trkpt lat="59.8732864" lon="17.6769082">
        <ele>21.2864</ele>
        <time>2013-05-22T20:24:38Z</time>
      </trkpt>
      <trkpt lat="59.8733427" lon="17.67688">
        <ele>21.2864</ele>
        <time>2013-05-22T20:24:39Z</time>
      </trkpt>
      <trkpt lat="59.8733967" lon="17.6768524">
        <ele>21.2864</ele>
        <time>2013-05-22T20:24:40Z</time>
      </trkpt>
      <trkpt lat="59.8734506" lon="17.6768293">
        <ele>21.2864</ele>
        <time>2013-05-22T20:24:41Z</time>
      </trkpt>
      <trkpt lat="59.873506" lon="17.6768101">
        <ele>21.2864</ele>
        <time>2013-05-22T20:24:42Z</time>
      </trkpt>
      <trkpt lat="59.8735624" lon="17.6767938">
        <ele>21.767</ele>
        <time>2013-05-22T20:24:43Z</time>
      </trkpt>
      <trkpt lat="59.8736199" lon="17.6767824">
        <ele>21.767</ele>
        <time>2013-05-22T20:24:44Z</time>
      </trkpt>
      <trkpt lat="59.8736781" lon="17.6767778">
        <ele>21.767</ele>
        <time>2013-05-22T20:24:45Z</time>
      </trkpt>
      <trkpt lat="59.8737371" lon="17.6767808">
        <ele>21.767</ele>
        <time>2013-05-22T20:24:46Z</time>
      </trkpt>
      <trkpt lat="59.8737965" lon="17.6767943">
        <ele>21.767</ele>
        <time>2013-05-22T20:24:47Z</time>
      </trkpt>
      <trkpt lat="59.873855" lon="17.6768227">
        <ele>21.767</ele>
        <time>2013-05-22T20:24:48Z</time>
      </trkpt>
      <trkpt lat="59.8739116" lon="17.6768673">
        <ele>21.767</ele>
        <time>2013-05-22T20:24:49Z</time>
      </trkpt>
      <trkpt lat="59.8739653" lon="17.6769238">
        <ele>22.2476</ele>
        <time>2013-05-22T20:24:50Z</time>
      </trkpt>
      <trkpt lat="59.874011" lon="17.6769937">
        <ele>21.767</ele>
        <time>2013-05-22T20:24:51Z</time>
      </trkpt>
      <trkpt lat="59.874051" lon="17.6770746">
        <ele>21.767</ele>
        <time>2013-05-22T20:24:52Z</time>
      </trkpt>
      <trkpt lat="59.8740862" lon="17.6771644">
        <ele>21.2864</ele>
        <time>2013-05-22T20:24:53Z</time>
      </trkpt>
      <trkpt lat="59.8741161" lon="17.6772616">
        <ele>21.2864</ele>
        <time>2013-05-22T20:24:54Z</time>
      </trkpt>
      <trkpt lat="59.8741402" lon="17.6773641">
        <ele>21.2864</ele>
        <time>2013-05-22T20:24:55Z</time>
      </trkpt>
      <trkpt lat="59.8741617" lon="17.6774692">
        <ele>21.2864</ele>
        <time>2013-05-22T20:24:56Z</time>
      </trkpt>
      <trkpt lat="59.8741816" lon="17.6775748">
        <ele>20.8057</ele>
        <time>2013-05-22T20:24:57Z</time>
      </trkpt>
      <trkpt lat="59.8741991" lon="17.6776825">
        <ele>20.8057</ele>
        <time>2013-05-22T20:24:58Z</time>
      </trkpt>
      <trkpt lat="59.8742122" lon="17.6777936">
        <ele>20.8057</ele>
        <time>2013-05-22T20:24:59Z</time>
      </trkpt>
      <trkpt lat="59.8742201" lon="17.6779075">
        <ele>20.8057</ele>
        <time>2013-05-22T20:25:00Z</time>
      </trkpt>
      <trkpt lat="59.8742245" lon="17.6780228">
        <ele>20.8057</ele>
        <time>2013-05-22T20:25:01Z</time>
      </trkpt>
      <trkpt lat="59.8742321" lon="17.6781378">
        <ele>20.325</ele>
        <time>2013-05-22T20:25:02Z</time>
      </trkpt>
      <trkpt lat="59.8742497" lon="17.6782487">
        <ele>20.325</ele>
        <time>2013-05-22T20:25:03Z</time>
      </trkpt>
      <trkpt lat="59.87428" lon="17.6783488">
        <ele>20.8057</ele>
        <time>2013-05-22T20:25:04Z</time>
      </trkpt>
      <trkpt lat="59.8743227" lon="17.6784255">
        <ele>20.8057</ele>
        <time>2013-05-22T20:25:05Z</time>
      </trkpt>
      <trkpt lat="59.8743746" lon="17.6784771">
        <ele>20.8057</ele>
        <time>2013-05-22T20:25:06Z</time>
      </trkpt>
      <trkpt lat="59.8744303" lon="17.6785093">
        <ele>20.8057</ele>
        <time>2013-05-22T20:25:07Z</time>
      </trkpt>
      <trkpt lat="59.8744876" lon="17.678527">
        <ele>20.325</ele>
        <time>2013-05-22T20:25:08Z</time>
      </trkpt>
      <trkpt lat="59.8745461" lon="17.6785352">
        <ele>20.325</ele>
        <time>2013-05-22T20:25:09Z</time>
      </trkpt>
      <trkpt lat="59.8746041" lon="17.6785357">
        <ele>20.325</ele>
        <time>2013-05-22T20:25:10Z</time>
      </trkpt>
      <trkpt lat="59.8746616" lon="17.6785327">
        <ele>19.8444</ele>
        <time>2013-05-22T20:25:11Z</time>
      </trkpt>
      <trkpt lat="59.8747202" lon="17.6785296">
        <ele>19.3638</ele>
        <time>2013-05-22T20:25:12Z</time>
      </trkpt>
      <trkpt lat="59.8747806" lon="17.6785258">
        <ele>19.3638</ele>
        <time>2013-05-22T20:25:13Z</time>
      </trkpt>
      <trkpt lat="59.8748415" lon="17.6785233">
        <ele>18.8831</ele>
        <time>2013-05-22T20:25:14Z</time>
      </trkpt>
      <trkpt lat="59.8749021" lon="17.6785229">
        <ele>18.4023</ele>
        <time>2013-05-22T20:25:15Z</time>
      </trkpt>
      <trkpt lat="59.8749631" lon="17.6785223">
        <ele>18.4023</ele>
        <time>2013-05-22T20:25:16Z</time>
      </trkpt>
      <trkpt lat="59.8750251" lon="17.6785209">
        <ele>18.4023</ele>
        <time>2013-05-22T20:25:17Z</time>
      </trkpt>
      <trkpt lat="59.8750866" lon="17.6785192">
        <ele>17.9218</ele>
        <time>2013-05-22T20:25:18Z</time>
      </trkpt>
      <trkpt lat="59.8751476" lon="17.6785171">
        <ele>17.9218</ele>
        <time>2013-05-22T20:25:19Z</time>
      </trkpt>
      <trkpt lat="59.8752093" lon="17.6785121">
        <ele>17.4412</ele>
        <time>2013-05-22T20:25:20Z</time>
      </trkpt>
      <trkpt lat="59.8752708" lon="17.6785046">
        <ele>17.4412</ele>
        <time>2013-05-22T20:25:21Z</time>
      </trkpt>
      <trkpt lat="59.8753319" lon="17.6784957">
        <ele>17.4412</ele>
        <time>2013-05-22T20:25:22Z</time>
      </trkpt>
      <trkpt lat="59.8753921" lon="17.6784861">
        <ele>16.9604</ele>
        <time>2013-05-22T20:25:23Z</time>
      </trkpt>
      <trkpt lat="59.8754526" lon="17.6784747">
        <ele>16.9604</ele>
        <time>2013-05-22T20:25:24Z</time>
      </trkpt>
      <trkpt lat="59.8755143" lon="17.6784638">
        <ele>17.4412</ele>
        <time>2013-05-22T20:25:25Z</time>
      </trkpt>
      <trkpt lat="59.8755755" lon="17.6784515">
        <ele>17.4412</ele>
        <time>2013-05-22T20:25:26Z</time>
      </trkpt>
      <trkpt lat="59.8756338" lon="17.6784353">
        <ele>17.4412</ele>
        <time>2013-05-22T20:25:27Z</time>
      </trkpt>
      <trkpt lat="59.8756909" lon="17.6784164">
        <ele>17.4412</ele>
        <time>2013-05-22T20:25:28Z</time>
      </trkpt>
      <trkpt lat="59.8757479" lon="17.6783932">
        <ele>17.9218</ele>
        <time>2013-05-22T20:25:29Z</time>
      </trkpt>
      <trkpt lat="59.8758039" lon="17.678367">
        <ele>18.4023</ele>
        <time>2013-05-22T20:25:30Z</time>
      </trkpt>
      <trkpt lat="59.8758569" lon="17.6783396">
        <ele>18.8831</ele>
        <time>2013-05-22T20:25:31Z</time>
      </trkpt>
      <trkpt lat="59.875907" lon="17.6783124">
        <ele>19.3638</ele>
        <time>2013-05-22T20:25:32Z</time>
      </trkpt>
      <trkpt lat="59.8759542" lon="17.678288">
        <ele>19.8444</ele>
        <time>2013-05-22T20:25:33Z</time>
      </trkpt>
      <trkpt lat="59.8759998" lon="17.6782673">
        <ele>20.325</ele>
        <time>2013-05-22T20:25:34Z</time>
      </trkpt>
      <trkpt lat="59.8760427" lon="17.6782536">
        <ele>20.325</ele>
        <time>2013-05-22T20:25:35Z</time>
      </trkpt>
      <trkpt lat="59.8760795" lon="17.6782494">
        <ele>20.8057</ele>
        <time>2013-05-22T20:25:36Z</time>
      </trkpt>
      <trkpt lat="59.8761116" lon="17.6782463">
        <ele>21.2864</ele>
        <time>2013-05-22T20:25:37Z</time>
      </trkpt>
      <trkpt lat="59.8761428" lon="17.6782473">
        <ele>21.767</ele>
        <time>2013-05-22T20:25:38Z</time>
      </trkpt>
      <trkpt lat="59.8761757" lon="17.6782602">
        <ele>22.2476</ele>
        <time>2013-05-22T20:25:39Z</time>
      </trkpt>
      <trkpt lat="59.8762103" lon="17.6782828">
        <ele>22.7283</ele>
        <time>2013-05-22T20:25:40Z</time>
      </trkpt>
      <trkpt lat="59.8762469" lon="17.6783105">
        <ele>22.7283</ele>
        <time>2013-05-22T20:25:41Z</time>
      </trkpt>
      <trkpt lat="59.8762867" lon="17.6783411">
        <ele>23.209</ele>
        <time>2013-05-22T20:25:42Z</time>
      </trkpt>
      <trkpt lat="59.8763296" lon="17.6783694">
        <ele>23.209</ele>
        <time>2013-05-22T20:25:43Z</time>
      </trkpt>
      <trkpt lat="59.8763758" lon="17.6783887">
        <ele>23.209</ele>
        <time>2013-05-22T20:25:44Z</time>
      </trkpt>
      <trkpt lat="59.8764244" lon="17.6783959">
        <ele>23.6896</ele>
        <time>2013-05-22T20:25:45Z</time>
      </trkpt>
      <trkpt lat="59.876473" lon="17.6784011">
        <ele>23.6896</ele>
        <time>2013-05-22T20:25:46Z</time>
      </trkpt>
      <trkpt lat="59.8765229" lon="17.6784145">
        <ele>24.1703</ele>
        <time>2013-05-22T20:25:47Z</time>
      </trkpt>
      <trkpt lat="59.8765732" lon="17.6784421">
        <ele>24.651</ele>
        <time>2013-05-22T20:25:48Z</time>
      </trkpt>
      <trkpt lat="59.8766229" lon="17.6784869">
        <ele>24.651</ele>
        <time>2013-05-22T20:25:49Z</time>
      </trkpt>
      <trkpt lat="59.8766685" lon="17.6785487">
        <ele>25.1317</ele>
        <time>2013-05-22T20:25:50Z</time>
      </trkpt>
      <trkpt lat="59.8767084" lon="17.6786239">
        <ele>25.1317</ele>
        <time>2013-05-22T20:25:51Z</time>
      </trkpt>
      <trkpt lat="59.8767465" lon="17.6787063">
        <ele>25.6123</ele>
        <time>2013-05-22T20:25:52Z</time>
      </trkpt>
      <trkpt lat="59.8767849" lon="17.6787912">
        <ele>26.0929</ele>
        <time>2013-05-22T20:25:53Z</time>
      </trkpt>
      <trkpt lat="59.8768238" lon="17.6788757">
        <ele>26.0929</ele>
        <time>2013-05-22T20:25:54Z</time>
      </trkpt>
      <trkpt lat="59.8768625" lon="17.67896">
        <ele>26.5736</ele>
        <time>2013-05-22T20:25:55Z</time>
      </trkpt>
      <trkpt lat="59.8769008" lon="17.6790449">
        <ele>26.5736</ele>
        <time>2013-05-22T20:25:56Z</time>
      </trkpt>
      <trkpt lat="59.8769388" lon="17.679128">
        <ele>27.0543</ele>
        <time>2013-05-22T20:25:57Z</time>
      </trkpt>
      <trkpt lat="59.8769767" lon="17.6792104">
        <ele>26.5736</ele>
        <time>2013-05-22T20:25:58Z</time>
      </trkpt>
      <trkpt lat="59.8770136" lon="17.6792953">
        <ele>26.5736</ele>
        <time>2013-05-22T20:25:59Z</time>
      </trkpt>
      <trkpt lat="59.8770512" lon="17.6793803">
        <ele>26.5736</ele>
        <time>2013-05-22T20:26:00Z</time>
      </trkpt>
      <trkpt lat="59.8770891" lon="17.6794654">
        <ele>26.5736</ele>
        <time>2013-05-22T20:26:01Z</time>
      </trkpt>
      <trkpt lat="59.8771272" lon="17.6795501">
        <ele>26.5736</ele>
        <time>2013-05-22T20:26:02Z</time>
      </trkpt>
      <trkpt lat="59.8771658" lon="17.679635">
        <ele>26.5736</ele>
        <time>2013-05-22T20:26:03Z</time>
      </trkpt>
      <trkpt lat="59.8772045" lon="17.6797208">
        <ele>26.5736</ele>
        <time>2013-05-22T20:26:04Z</time>
      </trkpt>
      <trkpt lat="59.8772436" lon="17.679808">
        <ele>26.0929</ele>
        <time>2013-05-22T20:26:05Z</time>
      </trkpt>
      <trkpt lat="59.8772839" lon="17.679897">
        <ele>26.0929</ele>
        <time>2013-05-22T20:26:06Z</time>
      </trkpt>
      <trkpt lat="59.8773244" lon="17.6799874">
        <ele>26.0929</ele>
        <time>2013-05-22T20:26:07Z</time>
      </trkpt>
      <trkpt lat="59.8773655" lon="17.6800796">
        <ele>26.0929</ele>
        <time>2013-05-22T20:26:08Z</time>
      </trkpt>
      <trkpt lat="59.8774077" lon="17.6801733">
        <ele>26.0929</ele>
        <time>2013-05-22T20:26:09Z</time>
      </trkpt>
      <trkpt lat="59.8774508" lon="17.6802673">
        <ele>26.0929</ele>
        <time>2013-05-22T20:26:10Z</time>
      </trkpt>
      <trkpt lat="59.8774938" lon="17.6803595">
        <ele>26.0929</ele>
        <time>2013-05-22T20:26:11Z</time>
      </trkpt>
      <trkpt lat="59.8775365" lon="17.6804509">
        <ele>26.0929</ele>
        <time>2013-05-22T20:26:12Z</time>
      </trkpt>
      <trkpt lat="59.8775767" lon="17.6805405">
        <ele>26.5736</ele>
        <time>2013-05-22T20:26:13Z</time>
      </trkpt>
      <trkpt lat="59.8776155" lon="17.6806259">
        <ele>26.5736</ele>
        <time>2013-05-22T20:26:14Z</time>
      </trkpt>
      <trkpt lat="59.8776542" lon="17.6807081">
        <ele>26.5736</ele>
        <time>2013-05-22T20:26:15Z</time>
      </trkpt>
      <trkpt lat="59.8776927" lon="17.6807881">
        <ele>27.0543</ele>
        <time>2013-05-22T20:26:16Z</time>
      </trkpt>
      <trkpt lat="59.8777294" lon="17.6808688">
        <ele>27.0543</ele>
        <time>2013-05-22T20:26:17Z</time>
      </trkpt>
      <trkpt lat="59.8777656" lon="17.6809493">
        <ele>27.0543</ele>
        <time>2013-05-22T20:26:18Z</time>
      </trkpt>
      <trkpt lat="59.8778014" lon="17.6810273">
        <ele>27.5349</ele>
        <time>2013-05-22T20:26:19Z</time>
      </trkpt>
      <trkpt lat="59.8778361" lon="17.6811066">
        <ele>27.5349</ele>
        <time>2013-05-22T20:26:20Z</time>
      </trkpt>
      <trkpt lat="59.8778701" lon="17.6811859">
        <ele>28.0155</ele>
        <time>2013-05-22T20:26:21Z</time>
      </trkpt>
      <trkpt lat="59.8779039" lon="17.6812616">
        <ele>28.0155</ele>
        <time>2013-05-22T20:26:22Z</time>
      </trkpt>
      <trkpt lat="59.877938" lon="17.681335">
        <ele>28.4962</ele>
        <time>2013-05-22T20:26:23Z</time>
      </trkpt>
      <trkpt lat="59.8779713" lon="17.6814071">
        <ele>28.4962</ele>
        <time>2013-05-22T20:26:24Z</time>
      </trkpt>
      <trkpt lat="59.8780023" lon="17.6814822">
        <ele>28.4962</ele>
        <time>2013-05-22T20:26:25Z</time>
      </trkpt>
      <trkpt lat="59.8780306" lon="17.6815566">
        <ele>28.4962</ele>
        <time>2013-05-22T20:26:26Z</time>
      </trkpt>
      <trkpt lat="59.8780583" lon="17.6816271">
        <ele>28.0155</ele>
        <time>2013-05-22T20:26:27Z</time>
      </trkpt>
      <trkpt lat="59.8780886" lon="17.6816967">
        <ele>28.0155</ele>
        <time>2013-05-22T20:26:28Z</time>
      </trkpt>
      <trkpt lat="59.8781179" lon="17.6817688">
        <ele>28.0155</ele>
        <time>2013-05-22T20:26:29Z</time>
      </trkpt>
      <trkpt lat="59.8781474" lon="17.6818447">
        <ele>28.0155</ele>
        <time>2013-05-22T20:26:30Z</time>
      </trkpt>
      <trkpt lat="59.8781754" lon="17.6819224">
        <ele>27.5349</ele>
        <time>2013-05-22T20:26:31Z</time>
      </trkpt>
      <trkpt lat="59.8782017" lon="17.6820002">
        <ele>27.5349</ele>
        <time>2013-05-22T20:26:32Z</time>
      </trkpt>
      <trkpt lat="59.8782293" lon="17.6820757">
        <ele>27.5349</ele>
        <time>2013-05-22T20:26:33Z</time>
      </trkpt>
      <trkpt lat="59.8782584" lon="17.6821494">
        <ele>27.5349</ele>
        <time>2013-05-22T20:26:34Z</time>
      </trkpt>
      <trkpt lat="59.8782888" lon="17.6822197">
        <ele>27.5349</ele>
        <time>2013-05-22T20:26:35Z</time>
      </trkpt>
      <trkpt lat="59.87832" lon="17.6822878">
        <ele>27.0543</ele>
        <time>2013-05-22T20:26:36Z</time>
      </trkpt>
      <trkpt lat="59.8783513" lon="17.6823576">
        <ele>27.0543</ele>
        <time>2013-05-22T20:26:37Z</time>
      </trkpt>
      <trkpt lat="59.8783824" lon="17.6824316">
        <ele>27.0543</ele>
        <time>2013-05-22T20:26:38Z</time>
      </trkpt>
      <trkpt lat="59.8784142" lon="17.6825062">
        <ele>27.0543</ele>
        <time>2013-05-22T20:26:39Z</time>
      </trkpt>
      <trkpt lat="59.8784458" lon="17.6825823">
        <ele>26.5736</ele>
        <time>2013-05-22T20:26:40Z</time>
      </trkpt>
      <trkpt lat="59.8784784" lon="17.6826601">
        <ele>26.5736</ele>
        <time>2013-05-22T20:26:41Z</time>
      </trkpt>
      <trkpt lat="59.8785126" lon="17.6827346">
        <ele>26.5736</ele>
        <time>2013-05-22T20:26:42Z</time>
      </trkpt>
      <trkpt lat="59.8785488" lon="17.6828036">
        <ele>26.5736</ele>
        <time>2013-05-22T20:26:43Z</time>
      </trkpt>
      <trkpt lat="59.8785882" lon="17.6828684">
        <ele>26.5736</ele>
        <time>2013-05-22T20:26:44Z</time>
      </trkpt>
      <trkpt lat="59.8786291" lon="17.6829327">
        <ele>26.0929</ele>
        <time>2013-05-22T20:26:45Z</time>
      </trkpt>
      <trkpt lat="59.8786728" lon="17.6829974">
        <ele>26.0929</ele>
        <time>2013-05-22T20:26:46Z</time>
      </trkpt>
      <trkpt lat="59.8787189" lon="17.6830633">
        <ele>25.6123</ele>
        <time>2013-05-22T20:26:47Z</time>
      </trkpt>
      <trkpt lat="59.8787659" lon="17.6831301">
        <ele>25.6123</ele>
        <time>2013-05-22T20:26:48Z</time>
      </trkpt>
      <trkpt lat="59.8788134" lon="17.6831989">
        <ele>25.6123</ele>
        <time>2013-05-22T20:26:49Z</time>
      </trkpt>
      <trkpt lat="59.8788611" lon="17.6832697">
        <ele>25.1317</ele>
        <time>2013-05-22T20:26:50Z</time>
      </trkpt>
      <trkpt lat="59.8789095" lon="17.683343">
        <ele>25.1317</ele>
        <time>2013-05-22T20:26:51Z</time>
      </trkpt>
      <trkpt lat="59.8789589" lon="17.6834189">
        <ele>25.1317</ele>
        <time>2013-05-22T20:26:52Z</time>
      </trkpt>
      <trkpt lat="59.8790104" lon="17.6834921">
        <ele>24.651</ele>
        <time>2013-05-22T20:26:53Z</time>
      </trkpt>
      <trkpt lat="59.8790653" lon="17.6835629">
        <ele>24.651</ele>
        <time>2013-05-22T20:26:54Z</time>
      </trkpt>
      <trkpt lat="59.8791232" lon="17.683632">
        <ele>24.1703</ele>
        <time>2013-05-22T20:26:55Z</time>
      </trkpt>
      <trkpt lat="59.8791835" lon="17.6836992">
        <ele>23.6896</ele>
        <time>2013-05-22T20:26:56Z</time>
      </trkpt>
      <trkpt lat="59.8792454" lon="17.6837677">
        <ele>23.6896</ele>
        <time>2013-05-22T20:26:57Z</time>
      </trkpt>
      <trkpt lat="59.8793083" lon="17.6838383">
        <ele>23.209</ele>
        <time>2013-05-22T20:26:58Z</time>
      </trkpt>
      <trkpt lat="59.8793728" lon="17.6839116">
        <ele>23.209</ele>
        <time>2013-05-22T20:26:59Z</time>
      </trkpt>
      <trkpt lat="59.8794371" lon="17.683991">
        <ele>22.7283</ele>
        <time>2013-05-22T20:27:00Z</time>
      </trkpt>
      <trkpt lat="59.8795011" lon="17.6840759">
        <ele>22.2476</ele>
        <time>2013-05-22T20:27:01Z</time>
      </trkpt>
      <trkpt lat="59.8795667" lon="17.6841624">
        <ele>22.2476</ele>
        <time>2013-05-22T20:27:02Z</time>
      </trkpt>
      <trkpt lat="59.8796329" lon="17.6842505">
        <ele>22.2476</ele>
        <time>2013-05-22T20:27:03Z</time>
      </trkpt>
      <trkpt lat="59.8796995" lon="17.6843404">
        <ele>21.767</ele>
        <time>2013-05-22T20:27:04Z</time>
      </trkpt>
      <trkpt lat="59.8797666" lon="17.6844331">
        <ele>21.767</ele>
        <time>2013-05-22T20:27:05Z</time>
      </trkpt>
      <trkpt lat="59.8798351" lon="17.6845282">
        <ele>21.2864</ele>
        <time>2013-05-22T20:27:06Z</time>
      </trkpt>
      <trkpt lat="59.8799053" lon="17.6846243">
        <ele>21.2864</ele>
        <time>2013-05-22T20:27:07Z</time>
      </trkpt>
      <trkpt lat="59.8799769" lon="17.6847197">
        <ele>21.2864</ele>
        <time>2013-05-22T20:27:08Z</time>
      </trkpt>
      <trkpt lat="59.880049" lon="17.6848145">
        <ele>21.2864</ele>
        <time>2013-05-22T20:27:09Z</time>
      </trkpt>
      <trkpt lat="59.8801204" lon="17.6849089">
        <ele>20.8057</ele>
        <time>2013-05-22T20:27:10Z</time>
      </trkpt>
      <trkpt lat="59.8801908" lon="17.6850021">
        <ele>20.8057</ele>
        <time>2013-05-22T20:27:11Z</time>
      </trkpt>
      <trkpt lat="59.8802603" lon="17.6850948">
        <ele>20.8057</ele>
        <time>2013-05-22T20:27:12Z</time>
      </trkpt>
      <trkpt lat="59.8803301" lon="17.6851889">
        <ele>20.325</ele>
        <time>2013-05-22T20:27:13Z</time>
      </trkpt>
      <trkpt lat="59.8804003" lon="17.6852839">
        <ele>20.325</ele>
        <time>2013-05-22T20:27:14Z</time>
      </trkpt>
      <trkpt lat="59.880471" lon="17.6853788">
        <ele>20.325</ele>
        <time>2013-05-22T20:27:15Z</time>
      </trkpt>
      <trkpt lat="59.8805416" lon="17.685473">
        <ele>20.325</ele>
        <time>2013-05-22T20:27:16Z</time>
      </trkpt>
      <trkpt lat="59.8806121" lon="17.6855673">
        <ele>20.325</ele>
        <time>2013-05-22T20:27:17Z</time>
      </trkpt>
      <trkpt lat="59.880682" lon="17.6856608">
        <ele>20.325</ele>
        <time>2013-05-22T20:27:18Z</time>
      </trkpt>
      <trkpt lat="59.8807518" lon="17.6857531">
        <ele>20.325</ele>
        <time>2013-05-22T20:27:19Z</time>
      </trkpt>
      <trkpt lat="59.8808211" lon="17.6858443">
        <ele>20.325</ele>
        <time>2013-05-22T20:27:20Z</time>
      </trkpt>
      <trkpt lat="59.8808908" lon="17.6859339">
        <ele>20.325</ele>
        <time>2013-05-22T20:27:21Z</time>
      </trkpt>
      <trkpt lat="59.8809606" lon="17.6860236">
        <ele>20.8057</ele>
        <time>2013-05-22T20:27:22Z</time>
      </trkpt>
      <trkpt lat="59.8810291" lon="17.6861148">
        <ele>20.8057</ele>
        <time>2013-05-22T20:27:23Z</time>
      </trkpt>
      <trkpt lat="59.8810964" lon="17.6862071">
        <ele>20.8057</ele>
        <time>2013-05-22T20:27:24Z</time>
      </trkpt>
      <trkpt lat="59.8811632" lon="17.6862993">
        <ele>20.8057</ele>
        <time>2013-05-22T20:27:25Z</time>
      </trkpt>
      <trkpt lat="59.8812302" lon="17.6863899">
        <ele>20.8057</ele>
        <time>2013-05-22T20:27:26Z</time>
      </trkpt>
      <trkpt lat="59.8812974" lon="17.68648">
        <ele>20.8057</ele>
        <time>2013-05-22T20:27:27Z</time>
      </trkpt>
      <trkpt lat="59.8813648" lon="17.6865707">
        <ele>21.2864</ele>
        <time>2013-05-22T20:27:28Z</time>
      </trkpt>
      <trkpt lat="59.8814321" lon="17.6866624">
        <ele>21.2864</ele>
        <time>2013-05-22T20:27:29Z</time>
      </trkpt>
      <trkpt lat="59.8815004" lon="17.6867533">
        <ele>21.2864</ele>
        <time>2013-05-22T20:27:30Z</time>
      </trkpt>
      <trkpt lat="59.8815694" lon="17.6868441">
        <ele>21.2864</ele>
        <time>2013-05-22T20:27:31Z</time>
      </trkpt>
      <trkpt lat="59.8816384" lon="17.6869365">
        <ele>21.2864</ele>
        <time>2013-05-22T20:27:32Z</time>
      </trkpt>
      <trkpt lat="59.8817077" lon="17.6870313">
        <ele>21.2864</ele>
        <time>2013-05-22T20:27:33Z</time>
      </trkpt>
      <trkpt lat="59.8817784" lon="17.687127">
        <ele>21.2864</ele>
        <time>2013-05-22T20:27:34Z</time>
      </trkpt>
      <trkpt lat="59.8818505" lon="17.6872237">
        <ele>21.2864</ele>
        <time>2013-05-22T20:27:35Z</time>
      </trkpt>
      <trkpt lat="59.8819232" lon="17.6873222">
        <ele>21.2864</ele>
        <time>2013-05-22T20:27:36Z</time>
      </trkpt>
      <trkpt lat="59.881996" lon="17.6874202">
        <ele>20.8057</ele>
        <time>2013-05-22T20:27:37Z</time>
      </trkpt>
      <trkpt lat="59.8820687" lon="17.6875179">
        <ele>20.8057</ele>
        <time>2013-05-22T20:27:38Z</time>
      </trkpt>
      <trkpt lat="59.8821407" lon="17.6876175">
        <ele>20.8057</ele>
        <time>2013-05-22T20:27:39Z</time>
      </trkpt>
      <trkpt lat="59.8822126" lon="17.6877174">
        <ele>20.8057</ele>
        <time>2013-05-22T20:27:40Z</time>
      </trkpt>
      <trkpt lat="59.8822854" lon="17.6878154">
        <ele>20.325</ele>
        <time>2013-05-22T20:27:41Z</time>
      </trkpt>
      <trkpt lat="59.8823598" lon="17.6879131">
        <ele>20.325</ele>
        <time>2013-05-22T20:27:42Z</time>
      </trkpt>
      <trkpt lat="59.8824353" lon="17.6880138">
        <ele>20.325</ele>
        <time>2013-05-22T20:27:43Z</time>
      </trkpt>
      <trkpt lat="59.8825115" lon="17.6881183">
        <ele>20.325</ele>
        <time>2013-05-22T20:27:44Z</time>
      </trkpt>
      <trkpt lat="59.8825888" lon="17.6882247">
        <ele>19.8444</ele>
        <time>2013-05-22T20:27:45Z</time>
      </trkpt>
      <trkpt lat="59.8826673" lon="17.6883314">
        <ele>19.8444</ele>
        <time>2013-05-22T20:27:46Z</time>
      </trkpt>
      <trkpt lat="59.8827468" lon="17.6884389">
        <ele>19.8444</ele>
        <time>2013-05-22T20:27:47Z</time>
      </trkpt>
      <trkpt lat="59.8828269" lon="17.6885463">
        <ele>19.3638</ele>
        <time>2013-05-22T20:27:48Z</time>
      </trkpt>
      <trkpt lat="59.8829064" lon="17.688652">
        <ele>19.3638</ele>
        <time>2013-05-22T20:27:49Z</time>
      </trkpt>
      <trkpt lat="59.8829851" lon="17.6887547">
        <ele>19.3638</ele>
        <time>2013-05-22T20:27:50Z</time>
      </trkpt>
      <trkpt lat="59.8830628" lon="17.6888557">
        <ele>18.8831</ele>
        <time>2013-05-22T20:27:51Z</time>
      </trkpt>
      <trkpt lat="59.883139" lon="17.6889564">
        <ele>18.8831</ele>
        <time>2013-05-22T20:27:52Z</time>
      </trkpt>
      <trkpt lat="59.8832138" lon="17.6890554">
        <ele>18.8831</ele>
        <time>2013-05-22T20:27:53Z</time>
      </trkpt>
      <trkpt lat="59.8832875" lon="17.689152">
        <ele>18.8831</ele>
        <time>2013-05-22T20:27:54Z</time>
      </trkpt>
      <trkpt lat="59.8833606" lon="17.6892451">
        <ele>18.8831</ele>
        <time>2013-05-22T20:27:55Z</time>
      </trkpt>
      <trkpt lat="59.8834321" lon="17.6893364">
        <ele>18.4023</ele>
        <time>2013-05-22T20:27:56Z</time>
      </trkpt>
      <trkpt lat="59.8835021" lon="17.6894274">
        <ele>18.4023</ele>
        <time>2013-05-22T20:27:57Z</time>
      </trkpt>
      <trkpt lat="59.8835709" lon="17.689517">
        <ele>18.8831</ele>
        <time>2013-05-22T20:27:58Z</time>
      </trkpt>
      <trkpt lat="59.8836396" lon="17.6896061">
        <ele>18.4023</ele>
        <time>2013-05-22T20:27:59Z</time>
      </trkpt>
      <trkpt lat="59.8837077" lon="17.6896956">
        <ele>18.4023</ele>
        <time>2013-05-22T20:28:00Z</time>
      </trkpt>
      <trkpt lat="59.8837754" lon="17.6897854">
        <ele>18.4023</ele>
        <time>2013-05-22T20:28:01Z</time>
      </trkpt>
      <trkpt lat="59.8838429" lon="17.6898756">
        <ele>18.4023</ele>
        <time>2013-05-22T20:28:02Z</time>
      </trkpt>
      <trkpt lat="59.8839107" lon="17.6899652">
        <ele>18.4023</ele>
        <time>2013-05-22T20:28:03Z</time>
      </trkpt>
      <trkpt lat="59.8839786" lon="17.6900547">
        <ele>18.4023</ele>
        <time>2013-05-22T20:28:04Z</time>
      </trkpt>
      <trkpt lat="59.8840466" lon="17.6901452">
        <ele>18.4023</ele>
        <time>2013-05-22T20:28:05Z</time>
      </trkpt>
      <trkpt lat="59.8841148" lon="17.6902365">
        <ele>18.4023</ele>
        <time>2013-05-22T20:28:06Z</time>
      </trkpt>
      <trkpt lat="59.8841826" lon="17.6903279">
        <ele>18.4023</ele>
        <time>2013-05-22T20:28:07Z</time>
      </trkpt>
      <trkpt lat="59.8842506" lon="17.6904189">
        <ele>18.8831</ele>
        <time>2013-05-22T20:28:08Z</time>
      </trkpt>
      <trkpt lat="59.8843184" lon="17.6905087">
        <ele>18.8831</ele>
        <time>2013-05-22T20:28:09Z</time>
      </trkpt>
      <trkpt lat="59.8843859" lon="17.6905969">
        <ele>18.8831</ele>
        <time>2013-05-22T20:28:10Z</time>
      </trkpt>
      <trkpt lat="59.8844526" lon="17.6906842">
        <ele>18.8831</ele>
        <time>2013-05-22T20:28:11Z</time>
      </trkpt>
      <trkpt lat="59.8845185" lon="17.6907716">
        <ele>18.8831</ele>
        <time>2013-05-22T20:28:12Z</time>
      </trkpt>
      <trkpt lat="59.8845842" lon="17.6908583">
        <ele>18.8831</ele>
        <time>2013-05-22T20:28:13Z</time>
      </trkpt>
      <trkpt lat="59.8846495" lon="17.6909456">
        <ele>18.8831</ele>
        <time>2013-05-22T20:28:14Z</time>
      </trkpt>
      <trkpt lat="59.8847143" lon="17.6910336">
        <ele>18.8831</ele>
        <time>2013-05-22T20:28:15Z</time>
      </trkpt>
      <trkpt lat="59.8847796" lon="17.6911206">
        <ele>18.8831</ele>
        <time>2013-05-22T20:28:16Z</time>
      </trkpt>
      <trkpt lat="59.8848456" lon="17.6912064">
        <ele>18.8831</ele>
        <time>2013-05-22T20:28:17Z</time>
      </trkpt>
      <trkpt lat="59.8849111" lon="17.6912932">
        <ele>18.8831</ele>
        <time>2013-05-22T20:28:18Z</time>
      </trkpt>
      <trkpt lat="59.8849767" lon="17.6913804">
        <ele>18.8831</ele>
        <time>2013-05-22T20:28:19Z</time>
      </trkpt>
      <trkpt lat="59.8850424" lon="17.6914679">
        <ele>18.8831</ele>
        <time>2013-05-22T20:28:20Z</time>
      </trkpt>
      <trkpt lat="59.8851079" lon="17.6915558">
        <ele>18.8831</ele>
        <time>2013-05-22T20:28:21Z</time>
      </trkpt>
      <trkpt lat="59.8851732" lon="17.6916435">
        <ele>18.8831</ele>
        <time>2013-05-22T20:28:22Z</time>
      </trkpt>
      <trkpt lat="59.8852384" lon="17.6917303">
        <ele>18.8831</ele>
        <time>2013-05-22T20:28:23Z</time>
      </trkpt>
      <trkpt lat="59.8853035" lon="17.6918168">
        <ele>18.8831</ele>
        <time>2013-05-22T20:28:24Z</time>
      </trkpt>
      <trkpt lat="59.8853682" lon="17.6919041">
        <ele>18.8831</ele>
        <time>2013-05-22T20:28:25Z</time>
      </trkpt>
      <trkpt lat="59.885432" lon="17.6919907">
        <ele>19.3638</ele>
        <time>2013-05-22T20:28:26Z</time>
      </trkpt>
      <trkpt lat="59.8854947" lon="17.6920761">
        <ele>19.3638</ele>
        <time>2013-05-22T20:28:27Z</time>
      </trkpt>
      <trkpt lat="59.8855568" lon="17.6921579">
        <ele>19.3638</ele>
        <time>2013-05-22T20:28:28Z</time>
      </trkpt>
      <trkpt lat="59.8856181" lon="17.6922371">
        <ele>19.3638</ele>
        <time>2013-05-22T20:28:29Z</time>
      </trkpt>
      <trkpt lat="59.8856785" lon="17.6923165">
        <ele>19.3638</ele>
        <time>2013-05-22T20:28:30Z</time>
      </trkpt>
      <trkpt lat="59.8857382" lon="17.6923975">
        <ele>19.3638</ele>
        <time>2013-05-22T20:28:31Z</time>
      </trkpt>
      <trkpt lat="59.885798" lon="17.6924771">
        <ele>19.3638</ele>
        <time>2013-05-22T20:28:32Z</time>
      </trkpt>
      <trkpt lat="59.8858579" lon="17.6925562">
        <ele>19.3638</ele>
        <time>2013-05-22T20:28:33Z</time>
      </trkpt>
      <trkpt lat="59.885917" lon="17.6926365">
        <ele>19.3638</ele>
        <time>2013-05-22T20:28:34Z</time>
      </trkpt>
      <trkpt lat="59.8859754" lon="17.6927161">
        <ele>18.8831</ele>
        <time>2013-05-22T20:28:35Z</time>
      </trkpt>
      <trkpt lat="59.8860339" lon="17.6927949">
        <ele>18.8831</ele>
        <time>2013-05-22T20:28:36Z</time>
      </trkpt>
      <trkpt lat="59.8860942" lon="17.6928723">
        <ele>18.8831</ele>
        <time>2013-05-22T20:28:37Z</time>
      </trkpt>
      <trkpt lat="59.8861546" lon="17.6929501">
        <ele>18.8831</ele>
        <time>2013-05-22T20:28:38Z</time>
      </trkpt>
      <trkpt lat="59.8862141" lon="17.6930293">
        <ele>18.8831</ele>
        <time>2013-05-22T20:28:39Z</time>
      </trkpt>
      <trkpt lat="59.8862739" lon="17.6931082">
        <ele>19.3638</ele>
        <time>2013-05-22T20:28:40Z</time>
      </trkpt>
      <trkpt lat="59.8863333" lon="17.6931871">
        <ele>19.3638</ele>
        <time>2013-05-22T20:28:41Z</time>
      </trkpt>
      <trkpt lat="59.8863925" lon="17.6932662">
        <ele>19.3638</ele>
        <time>2013-05-22T20:28:42Z</time>
      </trkpt>
      <trkpt lat="59.8864519" lon="17.6933451">
        <ele>19.3638</ele>
        <time>2013-05-22T20:28:43Z</time>
      </trkpt>
      <trkpt lat="59.8865096" lon="17.6934247">
        <ele>19.3638</ele>
        <time>2013-05-22T20:28:44Z</time>
      </trkpt>
      <trkpt lat="59.8865674" lon="17.6935006">
        <ele>19.8444</ele>
        <time>2013-05-22T20:28:45Z</time>
      </trkpt>
      <trkpt lat="59.8866262" lon="17.6935708">
        <ele>19.8444</ele>
        <time>2013-05-22T20:28:46Z</time>
      </trkpt>
      <trkpt lat="59.8866864" lon="17.6936358">
        <ele>19.8444</ele>
        <time>2013-05-22T20:28:47Z</time>
      </trkpt>
      <trkpt lat="59.8867458" lon="17.6937036">
        <ele>20.325</ele>
        <time>2013-05-22T20:28:48Z</time>
      </trkpt>
      <trkpt lat="59.886799" lon="17.6937884">
        <ele>20.325</ele>
        <time>2013-05-22T20:28:49Z</time>
      </trkpt>
      <trkpt lat="59.8868386" lon="17.6938985">
        <ele>20.325</ele>
        <time>2013-05-22T20:28:50Z</time>
      </trkpt>
      <trkpt lat="59.8868581" lon="17.6940279">
        <ele>20.325</ele>
        <time>2013-05-22T20:28:51Z</time>
      </trkpt>
      <trkpt lat="59.886866" lon="17.6941614">
        <ele>20.325</ele>
        <time>2013-05-22T20:28:52Z</time>
      </trkpt>
      <trkpt lat="59.8868749" lon="17.6942924">
        <ele>20.325</ele>
        <time>2013-05-22T20:28:53Z</time>
      </trkpt>
      <trkpt lat="59.8868928" lon="17.6944175">
        <ele>20.325</ele>
        <time>2013-05-22T20:28:54Z</time>
      </trkpt>
      <trkpt lat="59.8869223" lon="17.6945336">
        <ele>20.8057</ele>
        <time>2013-05-22T20:28:55Z</time>
      </trkpt>
      <trkpt lat="59.8869642" lon="17.694634">
        <ele>20.8057</ele>
        <time>2013-05-22T20:28:56Z</time>
      </trkpt>
      <trkpt lat="59.8870173" lon="17.6947134">
        <ele>20.8057</ele>
        <time>2013-05-22T20:28:57Z</time>
      </trkpt>
      <trkpt lat="59.8870773" lon="17.6947713">
        <ele>20.8057</ele>
        <time>2013-05-22T20:28:58Z</time>
      </trkpt>
      <trkpt lat="59.8871406" lon="17.6948105">
        <ele>20.8057</ele>
        <time>2013-05-22T20:28:59Z</time>
      </trkpt>
      <trkpt lat="59.8872067" lon="17.6948391">
        <ele>20.8057</ele>
        <time>2013-05-22T20:29:00Z</time>
      </trkpt>
      <trkpt lat="59.8872751" lon="17.6948671">
        <ele>20.8057</ele>
        <time>2013-05-22T20:29:01Z</time>
      </trkpt>
      <trkpt lat="59.8873453" lon="17.6948986">
        <ele>20.8057</ele>
        <time>2013-05-22T20:29:02Z</time>
      </trkpt>
      <trkpt lat="59.8874159" lon="17.6949365">
        <ele>20.8057</ele>
        <time>2013-05-22T20:29:03Z</time>
      </trkpt>
      <trkpt lat="59.887485" lon="17.6949831">
        <ele>20.8057</ele>
        <time>2013-05-22T20:29:04Z</time>
      </trkpt>
      <trkpt lat="59.8875534" lon="17.6950379">
        <ele>20.8057</ele>
        <time>2013-05-22T20:29:05Z</time>
      </trkpt>
      <trkpt lat="59.8876207" lon="17.6951013">
        <ele>20.8057</ele>
        <time>2013-05-22T20:29:06Z</time>
      </trkpt>
      <trkpt lat="59.8876875" lon="17.6951723">
        <ele>20.8057</ele>
        <time>2013-05-22T20:29:07Z</time>
      </trkpt>
      <trkpt lat="59.887754" lon="17.6952494">
        <ele>20.8057</ele>
        <time>2013-05-22T20:29:08Z</time>
      </trkpt>
      <trkpt lat="59.8878202" lon="17.6953307">
        <ele>21.2864</ele>
        <time>2013-05-22T20:29:09Z</time>
      </trkpt>
      <trkpt lat="59.887886" lon="17.6954161">
        <ele>21.2864</ele>
        <time>2013-05-22T20:29:10Z</time>
      </trkpt>
      <trkpt lat="59.8879508" lon="17.6955044">
        <ele>21.2864</ele>
        <time>2013-05-22T20:29:11Z</time>
      </trkpt>
      <trkpt lat="59.8880156" lon="17.6955933">
        <ele>21.767</ele>
        <time>2013-05-22T20:29:12Z</time>
      </trkpt>
      <trkpt lat="59.8880809" lon="17.6956788">
        <ele>21.767</ele>
        <time>2013-05-22T20:29:13Z</time>
      </trkpt>
      <trkpt lat="59.888147" lon="17.6957616">
        <ele>21.767</ele>
        <time>2013-05-22T20:29:14Z</time>
      </trkpt>
      <trkpt lat="59.8882121" lon="17.6958454">
        <ele>21.767</ele>
        <time>2013-05-22T20:29:15Z</time>
      </trkpt>
      <trkpt lat="59.8882758" lon="17.6959312">
        <ele>21.767</ele>
        <time>2013-05-22T20:29:16Z</time>
      </trkpt>
      <trkpt lat="59.8883392" lon="17.696016">
        <ele>21.767</ele>
        <time>2013-05-22T20:29:17Z</time>
      </trkpt>
      <trkpt lat="59.8884025" lon="17.6960984">
        <ele>21.767</ele>
        <time>2013-05-22T20:29:18Z</time>
      </trkpt>
      <trkpt lat="59.8884661" lon="17.6961814">
        <ele>22.2476</ele>
        <time>2013-05-22T20:29:19Z</time>
      </trkpt>
      <trkpt lat="59.8885286" lon="17.6962662">
        <ele>21.767</ele>
        <time>2013-05-22T20:29:20Z</time>
      </trkpt>
      <trkpt lat="59.8885913" lon="17.6963516">
        <ele>22.2476</ele>
        <time>2013-05-22T20:29:21Z</time>
      </trkpt>
      <trkpt lat="59.8886537" lon="17.6964347">
        <ele>22.2476</ele>
        <time>2013-05-22T20:29:22Z</time>
      </trkpt>
      <trkpt lat="59.8887157" lon="17.6965159">
        <ele>22.2476</ele>
        <time>2013-05-22T20:29:23Z</time>
      </trkpt>
      <trkpt lat="59.888777" lon="17.6965965">
        <ele>22.7283</ele>
        <time>2013-05-22T20:29:24Z</time>
      </trkpt>
      <trkpt lat="59.8888371" lon="17.6966775">
        <ele>22.7283</ele>
        <time>2013-05-22T20:29:25Z</time>
      </trkpt>
      <trkpt lat="59.8888971" lon="17.6967579">
        <ele>22.7283</ele>
        <time>2013-05-22T20:29:26Z</time>
      </trkpt>
      <trkpt lat="59.8889573" lon="17.696839">
        <ele>22.7283</ele>
        <time>2013-05-22T20:29:27Z</time>
      </trkpt>
      <trkpt lat="59.8890167" lon="17.6969193">
        <ele>23.209</ele>
        <time>2013-05-22T20:29:28Z</time>
      </trkpt>
      <trkpt lat="59.8890754" lon="17.6969972">
        <ele>22.7283</ele>
        <time>2013-05-22T20:29:29Z</time>
      </trkpt>
      <trkpt lat="59.889135" lon="17.6970748">
        <ele>23.209</ele>
        <time>2013-05-22T20:29:30Z</time>
      </trkpt>
      <trkpt lat="59.8891938" lon="17.6971532">
        <ele>23.209</ele>
        <time>2013-05-22T20:29:31Z</time>
      </trkpt>
      <trkpt lat="59.8892516" lon="17.6972323">
        <ele>23.209</ele>
        <time>2013-05-22T20:29:32Z</time>
      </trkpt>
      <trkpt lat="59.8893095" lon="17.6973106">
        <ele>23.209</ele>
        <time>2013-05-22T20:29:33Z</time>
      </trkpt>
      <trkpt lat="59.889368" lon="17.6973877">
        <ele>23.209</ele>
        <time>2013-05-22T20:29:34Z</time>
      </trkpt>
      <trkpt lat="59.8894269" lon="17.6974635">
        <ele>23.6896</ele>
        <time>2013-05-22T20:29:35Z</time>
      </trkpt>
      <trkpt lat="59.8894855" lon="17.69754">
        <ele>23.6896</ele>
        <time>2013-05-22T20:29:36Z</time>
      </trkpt>
      <trkpt lat="59.8895431" lon="17.6976166">
        <ele>23.6896</ele>
        <time>2013-05-22T20:29:37Z</time>
      </trkpt>
      <trkpt lat="59.8896005" lon="17.6976927">
        <ele>23.6896</ele>
        <time>2013-05-22T20:29:38Z</time>
      </trkpt>
      <trkpt lat="59.8896575" lon="17.6977699">
        <ele>23.6896</ele>
        <time>2013-05-22T20:29:39Z</time>
      </trkpt>
      <trkpt lat="59.8897145" lon="17.6978468">
        <ele>23.6896</ele>
        <time>2013-05-22T20:29:40Z</time>
      </trkpt>
      <trkpt lat="59.889772" lon="17.6979218">
        <ele>23.6896</ele>
        <time>2013-05-22T20:29:41Z</time>
      </trkpt>
      <trkpt lat="59.8898294" lon="17.6979954">
        <ele>23.6896</ele>
        <time>2013-05-22T20:29:42Z</time>
      </trkpt>
      <trkpt lat="59.8898865" lon="17.6980699">
        <ele>23.6896</ele>
        <time>2013-05-22T20:29:43Z</time>
      </trkpt>
      <trkpt lat="59.8899426" lon="17.6981456">
        <ele>23.6896</ele>
        <time>2013-05-22T20:29:44Z</time>
      </trkpt>
      <trkpt lat="59.8899972" lon="17.6982218">
        <ele>23.6896</ele>
        <time>2013-05-22T20:29:45Z</time>
      </trkpt>
      <trkpt lat="59.89005" lon="17.6982993">
        <ele>23.6896</ele>
        <time>2013-05-22T20:29:46Z</time>
      </trkpt>
      <trkpt lat="59.8901025" lon="17.6983767">
        <ele>23.6896</ele>
        <time>2013-05-22T20:29:47Z</time>
      </trkpt>
      <trkpt lat="59.8901559" lon="17.6984508">
        <ele>23.6896</ele>
        <time>2013-05-22T20:29:48Z</time>
      </trkpt>
      <trkpt lat="59.8902103" lon="17.6985222">
        <ele>23.6896</ele>
        <time>2013-05-22T20:29:49Z</time>
      </trkpt>
      <trkpt lat="59.8902651" lon="17.6985935">
        <ele>23.6896</ele>
        <time>2013-05-22T20:29:50Z</time>
      </trkpt>
      <trkpt lat="59.8903195" lon="17.6986665">
        <ele>23.6896</ele>
        <time>2013-05-22T20:29:51Z</time>
      </trkpt>
      <trkpt lat="59.8903733" lon="17.6987408">
        <ele>23.6896</ele>
        <time>2013-05-22T20:29:52Z</time>
      </trkpt>
      <trkpt lat="59.8904269" lon="17.6988138">
        <ele>23.6896</ele>
        <time>2013-05-22T20:29:53Z</time>
      </trkpt>
      <trkpt lat="59.89048" lon="17.6988868">
        <ele>23.6896</ele>
        <time>2013-05-22T20:29:54Z</time>
      </trkpt>
      <trkpt lat="59.8905315" lon="17.6989635">
        <ele>23.6896</ele>
        <time>2013-05-22T20:29:55Z</time>
      </trkpt>
      <trkpt lat="59.8905812" lon="17.6990462">
        <ele>23.209</ele>
        <time>2013-05-22T20:29:56Z</time>
      </trkpt>
      <trkpt lat="59.8906302" lon="17.6991338">
        <ele>23.209</ele>
        <time>2013-05-22T20:29:57Z</time>
      </trkpt>
      <trkpt lat="59.8906784" lon="17.699223">
        <ele>23.209</ele>
        <time>2013-05-22T20:29:58Z</time>
      </trkpt>
      <trkpt lat="59.8907273" lon="17.6993086">
        <ele>23.209</ele>
        <time>2013-05-22T20:29:59Z</time>
      </trkpt>
      <trkpt lat="59.8907799" lon="17.6993863">
        <ele>23.209</ele>
        <time>2013-05-22T20:30:00Z</time>
      </trkpt>
      <trkpt lat="59.8908356" lon="17.699453">
        <ele>23.209</ele>
        <time>2013-05-22T20:30:01Z</time>
      </trkpt>
      <trkpt lat="59.890895" lon="17.6995069">
        <ele>23.209</ele>
        <time>2013-05-22T20:30:02Z</time>
      </trkpt>
      <trkpt lat="59.8909573" lon="17.6995554">
        <ele>23.209</ele>
        <time>2013-05-22T20:30:03Z</time>
      </trkpt>
      <trkpt lat="59.8910193" lon="17.6996116">
        <ele>23.209</ele>
        <time>2013-05-22T20:30:04Z</time>
      </trkpt>
      <trkpt lat="59.891078" lon="17.6996799">
        <ele>23.6896</ele>
        <time>2013-05-22T20:30:05Z</time>
      </trkpt>
      <trkpt lat="59.8911343" lon="17.6997551">
        <ele>23.6896</ele>
        <time>2013-05-22T20:30:06Z</time>
      </trkpt>
      <trkpt lat="59.8911899" lon="17.6998318">
        <ele>23.6896</ele>
        <time>2013-05-22T20:30:07Z</time>
      </trkpt>
      <trkpt lat="59.8912459" lon="17.6999073">
        <ele>24.1703</ele>
        <time>2013-05-22T20:30:08Z</time>
      </trkpt>
      <trkpt lat="59.8913032" lon="17.6999793">
        <ele>24.1703</ele>
        <time>2013-05-22T20:30:09Z</time>
      </trkpt>
      <trkpt lat="59.8913609" lon="17.7000503">
        <ele>24.651</ele>
        <time>2013-05-22T20:30:10Z</time>
      </trkpt>
      <trkpt lat="59.8914173" lon="17.7001243">
        <ele>24.651</ele>
        <time>2013-05-22T20:30:11Z</time>
      </trkpt>
      <trkpt lat="59.8914727" lon="17.7002011">
        <ele>24.651</ele>
        <time>2013-05-22T20:30:12Z</time>
      </trkpt>
      <trkpt lat="59.8915282" lon="17.7002782">
        <ele>24.651</ele>
        <time>2013-05-22T20:30:13Z</time>
      </trkpt>
      <trkpt lat="59.8915836" lon="17.7003535">
        <ele>24.651</ele>
        <time>2013-05-22T20:30:14Z</time>
      </trkpt>
      <trkpt lat="59.8916398" lon="17.7004259">
        <ele>24.651</ele>
        <time>2013-05-22T20:30:15Z</time>
      </trkpt>
      <trkpt lat="59.8916958" lon="17.7004977">
        <ele>24.651</ele>
        <time>2013-05-22T20:30:16Z</time>
      </trkpt>
      <trkpt lat="59.8917508" lon="17.7005719">
        <ele>24.651</ele>
        <time>2013-05-22T20:30:17Z</time>
      </trkpt>
      <trkpt lat="59.8918052" lon="17.7006482">
        <ele>24.651</ele>
        <time>2013-05-22T20:30:18Z</time>
      </trkpt>
      <trkpt lat="59.8918597" lon="17.7007245">
        <ele>24.651</ele>
        <time>2013-05-22T20:30:19Z</time>
      </trkpt>
      <trkpt lat="59.8919156" lon="17.7007978">
        <ele>24.651</ele>
        <time>2013-05-22T20:30:20Z</time>
      </trkpt>
      <trkpt lat="59.8919721" lon="17.7008688">
        <ele>24.651</ele>
        <time>2013-05-22T20:30:21Z</time>
      </trkpt>
      <trkpt lat="59.8920283" lon="17.7009393">
        <ele>25.1317</ele>
        <time>2013-05-22T20:30:22Z</time>
      </trkpt>
      <trkpt lat="59.8920834" lon="17.7010102">
        <ele>25.1317</ele>
        <time>2013-05-22T20:30:23Z</time>
      </trkpt>
      <trkpt lat="59.8921373" lon="17.7010822">
        <ele>25.1317</ele>
        <time>2013-05-22T20:30:24Z</time>
      </trkpt>
      <trkpt lat="59.8921901" lon="17.7011537">
        <ele>25.6123</ele>
        <time>2013-05-22T20:30:25Z</time>
      </trkpt>
      <trkpt lat="59.8922418" lon="17.7012257">
        <ele>25.6123</ele>
        <time>2013-05-22T20:30:26Z</time>
      </trkpt>
      <trkpt lat="59.8922917" lon="17.7012987">
        <ele>25.6123</ele>
        <time>2013-05-22T20:30:27Z</time>
      </trkpt>
      <trkpt lat="59.8923418" lon="17.701371">
        <ele>26.0929</ele>
        <time>2013-05-22T20:30:28Z</time>
      </trkpt>
      <trkpt lat="59.8923923" lon="17.7014404">
        <ele>26.0929</ele>
        <time>2013-05-22T20:30:29Z</time>
      </trkpt>
      <trkpt lat="59.8924432" lon="17.7015095">
        <ele>26.0929</ele>
        <time>2013-05-22T20:30:30Z</time>
      </trkpt>
      <trkpt lat="59.8924932" lon="17.7015834">
        <ele>26.0929</ele>
        <time>2013-05-22T20:30:31Z</time>
      </trkpt>
      <trkpt lat="59.8925403" lon="17.701666">
        <ele>26.0929</ele>
        <time>2013-05-22T20:30:32Z</time>
      </trkpt>
      <trkpt lat="59.8925868" lon="17.7017504">
        <ele>25.6123</ele>
        <time>2013-05-22T20:30:33Z</time>
      </trkpt>
      <trkpt lat="59.8926357" lon="17.7018269">
        <ele>25.6123</ele>
        <time>2013-05-22T20:30:34Z</time>
      </trkpt>
      <trkpt lat="59.8926878" lon="17.7018927">
        <ele>25.6123</ele>
        <time>2013-05-22T20:30:35Z</time>
      </trkpt>
      <trkpt lat="59.8927423" lon="17.7019515">
        <ele>25.6123</ele>
        <time>2013-05-22T20:30:36Z</time>
      </trkpt>
      <trkpt lat="59.8927994" lon="17.7020077">
        <ele>25.6123</ele>
        <time>2013-05-22T20:30:37Z</time>
      </trkpt>
      <trkpt lat="59.8928573" lon="17.7020677">
        <ele>25.6123</ele>
        <time>2013-05-22T20:30:38Z</time>
      </trkpt>
      <trkpt lat="59.8929149" lon="17.7021341">
        <ele>25.6123</ele>
        <time>2013-05-22T20:30:39Z</time>
      </trkpt>
      <trkpt lat="59.8929727" lon="17.7022052">
        <ele>25.6123</ele>
        <time>2013-05-22T20:30:40Z</time>
      </trkpt>
      <trkpt lat="59.8930312" lon="17.7022792">
        <ele>25.6123</ele>
        <time>2013-05-22T20:30:41Z</time>
      </trkpt>
      <trkpt lat="59.8930897" lon="17.7023565">
        <ele>25.6123</ele>
        <time>2013-05-22T20:30:42Z</time>
      </trkpt>
      <trkpt lat="59.893148" lon="17.7024363">
        <ele>26.0929</ele>
        <time>2013-05-22T20:30:43Z</time>
      </trkpt>
      <trkpt lat="59.8932066" lon="17.702516">
        <ele>26.0929</ele>
        <time>2013-05-22T20:30:44Z</time>
      </trkpt>
      <trkpt lat="59.893266" lon="17.7025943">
        <ele>26.0929</ele>
        <time>2013-05-22T20:30:45Z</time>
      </trkpt>
      <trkpt lat="59.8933257" lon="17.7026713">
        <ele>26.0929</ele>
        <time>2013-05-22T20:30:46Z</time>
      </trkpt>
      <trkpt lat="59.8933858" lon="17.7027484">
        <ele>25.6123</ele>
        <time>2013-05-22T20:30:47Z</time>
      </trkpt>
      <trkpt lat="59.8934462" lon="17.7028272">
        <ele>25.6123</ele>
        <time>2013-05-22T20:30:48Z</time>
      </trkpt>
      <trkpt lat="59.8935067" lon="17.7029074">
        <ele>25.1317</ele>
        <time>2013-05-22T20:30:49Z</time>
      </trkpt>
      <trkpt lat="59.8935676" lon="17.7029872">
        <ele>25.1317</ele>
        <time>2013-05-22T20:30:50Z</time>
      </trkpt>
      <trkpt lat="59.8936293" lon="17.7030677">
        <ele>25.1317</ele>
        <time>2013-05-22T20:30:51Z</time>
      </trkpt>
      <trkpt lat="59.8936913" lon="17.7031492">
        <ele>25.1317</ele>
        <time>2013-05-22T20:30:52Z</time>
      </trkpt>
      <trkpt lat="59.8937524" lon="17.7032322">
        <ele>24.651</ele>
        <time>2013-05-22T20:30:53Z</time>
      </trkpt>
      <trkpt lat="59.893813" lon="17.7033164">
        <ele>24.651</ele>
        <time>2013-05-22T20:30:54Z</time>
      </trkpt>
      <trkpt lat="59.8938731" lon="17.7034017">
        <ele>24.651</ele>
        <time>2013-05-22T20:30:55Z</time>
      </trkpt>
      <trkpt lat="59.8939341" lon="17.7034855">
        <ele>24.1703</ele>
        <time>2013-05-22T20:30:56Z</time>
      </trkpt>
      <trkpt lat="59.893995" lon="17.7035689">
        <ele>24.1703</ele>
        <time>2013-05-22T20:30:57Z</time>
      </trkpt>
      <trkpt lat="59.8940564" lon="17.7036526">
        <ele>23.6896</ele>
        <time>2013-05-22T20:30:58Z</time>
      </trkpt>
      <trkpt lat="59.8941186" lon="17.7037383">
        <ele>23.6896</ele>
        <time>2013-05-22T20:30:59Z</time>
      </trkpt>
      <trkpt lat="59.8941819" lon="17.703826">
        <ele>23.6896</ele>
        <time>2013-05-22T20:31:00Z</time>
      </trkpt>
      <trkpt lat="59.8942451" lon="17.7039145">
        <ele>23.209</ele>
        <time>2013-05-22T20:31:01Z</time>
      </trkpt>
      <trkpt lat="59.8943088" lon="17.7040025">
        <ele>23.209</ele>
        <time>2013-05-22T20:31:02Z</time>
      </trkpt>
      <trkpt lat="59.8943733" lon="17.7040903">
        <ele>23.209</ele>
        <time>2013-05-22T20:31:03Z</time>
      </trkpt>
      <trkpt lat="59.8944383" lon="17.7041777">
        <ele>23.6896</ele>
        <time>2013-05-22T20:31:04Z</time>
      </trkpt>
      <trkpt lat="59.8945039" lon="17.7042639">
        <ele>23.6896</ele>
        <time>2013-05-22T20:31:05Z</time>
      </trkpt>
      <trkpt lat="59.8945703" lon="17.7043481">
        <ele>23.6896</ele>
        <time>2013-05-22T20:31:06Z</time>
      </trkpt>
      <trkpt lat="59.8946366" lon="17.7044332">
        <ele>23.6896</ele>
        <time>2013-05-22T20:31:07Z</time>
      </trkpt>
      <trkpt lat="59.8947024" lon="17.7045216">
        <ele>23.6896</ele>
        <time>2013-05-22T20:31:08Z</time>
      </trkpt>
      <trkpt lat="59.8947676" lon="17.7046135">
        <ele>23.6896</ele>
        <time>2013-05-22T20:31:09Z</time>
      </trkpt>
      <trkpt lat="59.8948325" lon="17.7047077">
        <ele>23.6896</ele>
        <time>2013-05-22T20:31:10Z</time>
      </trkpt>
      <trkpt lat="59.8948983" lon="17.7048006">
        <ele>23.6896</ele>
        <time>2013-05-22T20:31:11Z</time>
      </trkpt>
      <trkpt lat="59.8949655" lon="17.7048926">
        <ele>23.6896</ele>
        <time>2013-05-22T20:31:12Z</time>
      </trkpt>
      <trkpt lat="59.895032" lon="17.7049875">
        <ele>23.6896</ele>
        <time>2013-05-22T20:31:13Z</time>
      </trkpt>
      <trkpt lat="59.8950975" lon="17.7050865">
        <ele>23.6896</ele>
        <time>2013-05-22T20:31:14Z</time>
      </trkpt>
      <trkpt lat="59.8951621" lon="17.7051851">
        <ele>23.209</ele>
        <time>2013-05-22T20:31:15Z</time>
      </trkpt>
      <trkpt lat="59.8952288" lon="17.7052781">
        <ele>23.209</ele>
        <time>2013-05-22T20:31:16Z</time>
      </trkpt>
      <trkpt lat="59.8952981" lon="17.7053635">
        <ele>23.6896</ele>
        <time>2013-05-22T20:31:17Z</time>
      </trkpt>
      <trkpt lat="59.8953686" lon="17.7054413">
        <ele>23.6896</ele>
        <time>2013-05-22T20:31:18Z</time>
      </trkpt>
      <trkpt lat="59.8954387" lon="17.7055163">
        <ele>23.6896</ele>
        <time>2013-05-22T20:31:19Z</time>
      </trkpt>
      <trkpt lat="59.8955059" lon="17.7055942">
        <ele>24.1703</ele>
        <time>2013-05-22T20:31:20Z</time>
      </trkpt>
      <trkpt lat="59.895569" lon="17.7056754">
        <ele>24.1703</ele>
        <time>2013-05-22T20:31:21Z</time>
      </trkpt>
      <trkpt lat="59.8956301" lon="17.7057571">
        <ele>23.6896</ele>
        <time>2013-05-22T20:31:22Z</time>
      </trkpt>
      <trkpt lat="59.8956907" lon="17.7058395">
        <ele>23.6896</ele>
        <time>2013-05-22T20:31:23Z</time>
      </trkpt>
      <trkpt lat="59.8957509" lon="17.7059229">
        <ele>23.6896</ele>
        <time>2013-05-22T20:31:24Z</time>
      </trkpt>
      <trkpt lat="59.8958111" lon="17.7060049">
        <ele>23.6896</ele>
        <time>2013-05-22T20:31:25Z</time>
      </trkpt>
      <trkpt lat="59.8958712" lon="17.7060856">
        <ele>23.6896</ele>
        <time>2013-05-22T20:31:26Z</time>
      </trkpt>
      <trkpt lat="59.8959312" lon="17.7061649">
        <ele>23.6896</ele>
        <time>2013-05-22T20:31:27Z</time>
      </trkpt>
      <trkpt lat="59.8959912" lon="17.7062436">
        <ele>23.6896</ele>
        <time>2013-05-22T20:31:28Z</time>
      </trkpt>
      <trkpt lat="59.896051" lon="17.7063239">
        <ele>23.6896</ele>
        <time>2013-05-22T20:31:29Z</time>
      </trkpt>
      <trkpt lat="59.8961113" lon="17.7064054">
        <ele>23.6896</ele>
        <time>2013-05-22T20:31:30Z</time>
      </trkpt>
      <trkpt lat="59.8961725" lon="17.706487">
        <ele>23.6896</ele>
        <time>2013-05-22T20:31:31Z</time>
      </trkpt>
      <trkpt lat="59.8962348" lon="17.7065672">
        <ele>23.6896</ele>
        <time>2013-05-22T20:31:32Z</time>
      </trkpt>
      <trkpt lat="59.8962973" lon="17.7066475">
        <ele>23.6896</ele>
        <time>2013-05-22T20:31:33Z</time>
      </trkpt>
      <trkpt lat="59.8963585" lon="17.7067309">
        <ele>24.1703</ele>
        <time>2013-05-22T20:31:34Z</time>
      </trkpt>
      <trkpt lat="59.8964192" lon="17.7068153">
        <ele>24.1703</ele>
        <time>2013-05-22T20:31:35Z</time>
      </trkpt>
      <trkpt lat="59.8964794" lon="17.7068979">
        <ele>24.1703</ele>
        <time>2013-05-22T20:31:36Z</time>
      </trkpt>
      <trkpt lat="59.8965393" lon="17.7069792">
        <ele>24.1703</ele>
        <time>2013-05-22T20:31:37Z</time>
      </trkpt>
      <trkpt lat="59.8965989" lon="17.7070595">
        <ele>24.1703</ele>
        <time>2013-05-22T20:31:38Z</time>
      </trkpt>
      <trkpt lat="59.8966583" lon="17.7071403">
        <ele>24.1703</ele>
        <time>2013-05-22T20:31:39Z</time>
      </trkpt>
      <trkpt lat="59.896718" lon="17.7072211">
        <ele>24.1703</ele>
        <time>2013-05-22T20:31:40Z</time>
      </trkpt>
      <trkpt lat="59.8967782" lon="17.7073008">
        <ele>24.1703</ele>
        <time>2013-05-22T20:31:41Z</time>
      </trkpt>
      <trkpt lat="59.8968388" lon="17.7073807">
        <ele>24.1703</ele>
        <time>2013-05-22T20:31:42Z</time>
      </trkpt>
      <trkpt lat="59.8968997" lon="17.7074613">
        <ele>24.1703</ele>
        <time>2013-05-22T20:31:43Z</time>
      </trkpt>
      <trkpt lat="59.8969606" lon="17.7075422">
        <ele>23.6896</ele>
        <time>2013-05-22T20:31:44Z</time>
      </trkpt>
      <trkpt lat="59.8970214" lon="17.7076241">
        <ele>23.6896</ele>
        <time>2013-05-22T20:31:45Z</time>
      </trkpt>
      <trkpt lat="59.8970816" lon="17.7077069">
        <ele>23.6896</ele>
        <time>2013-05-22T20:31:46Z</time>
      </trkpt>
      <trkpt lat="59.8971419" lon="17.7077882">
        <ele>23.6896</ele>
        <time>2013-05-22T20:31:47Z</time>
      </trkpt>
      <trkpt lat="59.8972019" lon="17.707871">
        <ele>23.209</ele>
        <time>2013-05-22T20:31:48Z</time>
      </trkpt>
      <trkpt lat="59.897263" lon="17.7079526">
        <ele>23.209</ele>
        <time>2013-05-22T20:31:49Z</time>
      </trkpt>
      <trkpt lat="59.8973246" lon="17.7080352">
        <ele>23.209</ele>
        <time>2013-05-22T20:31:50Z</time>
      </trkpt>
      <trkpt lat="59.8973852" lon="17.7081225">
        <ele>23.209</ele>
        <time>2013-05-22T20:31:51Z</time>
      </trkpt>
      <trkpt lat="59.8974436" lon="17.7082152">
        <ele>23.209</ele>
        <time>2013-05-22T20:31:52Z</time>
      </trkpt>
      <trkpt lat="59.8975014" lon="17.7083092">
        <ele>23.209</ele>
        <time>2013-05-22T20:31:53Z</time>
      </trkpt>
      <trkpt lat="59.8975619" lon="17.7083981">
        <ele>23.209</ele>
        <time>2013-05-22T20:31:54Z</time>
      </trkpt>
      <trkpt lat="59.8976252" lon="17.7084793">
        <ele>22.7283</ele>
        <time>2013-05-22T20:31:55Z</time>
      </trkpt>
      <trkpt lat="59.8976912" lon="17.7085533">
        <ele>22.7283</ele>
        <time>2013-05-22T20:31:56Z</time>
      </trkpt>
      <trkpt lat="59.8977587" lon="17.7086271">
        <ele>22.7283</ele>
        <time>2013-05-22T20:31:57Z</time>
      </trkpt>
      <trkpt lat="59.8978249" lon="17.7087058">
        <ele>22.7283</ele>
        <time>2013-05-22T20:31:58Z</time>
      </trkpt>
      <trkpt lat="59.8978898" lon="17.7087871">
        <ele>22.7283</ele>
        <time>2013-05-22T20:31:59Z</time>
      </trkpt>
      <trkpt lat="59.8979536" lon="17.7088692">
        <ele>23.209</ele>
        <time>2013-05-22T20:32:00Z</time>
      </trkpt>
      <trkpt lat="59.8980162" lon="17.7089528">
        <ele>23.209</ele>
        <time>2013-05-22T20:32:01Z</time>
      </trkpt>
      <trkpt lat="59.8980777" lon="17.7090372">
        <ele>23.209</ele>
        <time>2013-05-22T20:32:02Z</time>
      </trkpt>
      <trkpt lat="59.8981391" lon="17.709119">
        <ele>23.6896</ele>
        <time>2013-05-22T20:32:03Z</time>
      </trkpt>
      <trkpt lat="59.8982001" lon="17.7091984">
        <ele>23.6896</ele>
        <time>2013-05-22T20:32:04Z</time>
      </trkpt>
      <trkpt lat="59.8982603" lon="17.7092767">
        <ele>23.6896</ele>
        <time>2013-05-22T20:32:05Z</time>
      </trkpt>
      <trkpt lat="59.8983217" lon="17.7093538">
        <ele>23.6896</ele>
        <time>2013-05-22T20:32:06Z</time>
      </trkpt>
      <trkpt lat="59.8983832" lon="17.7094314">
        <ele>24.1703</ele>
        <time>2013-05-22T20:32:07Z</time>
      </trkpt>
      <trkpt lat="59.8984435" lon="17.7095115">
        <ele>24.1703</ele>
        <time>2013-05-22T20:32:08Z</time>
      </trkpt>
      <trkpt lat="59.8985034" lon="17.709593">
        <ele>24.1703</ele>
        <time>2013-05-22T20:32:09Z</time>
      </trkpt>
      <trkpt lat="59.8985636" lon="17.7096749">
        <ele>24.1703</ele>
        <time>2013-05-22T20:32:10Z</time>
      </trkpt>
      <trkpt lat="59.8986243" lon="17.7097568">
        <ele>24.1703</ele>
        <time>2013-05-22T20:32:11Z</time>
      </trkpt>
      <trkpt lat="59.898686" lon="17.7098379">
        <ele>24.1703</ele>
        <time>2013-05-22T20:32:12Z</time>
      </trkpt>
      <trkpt lat="59.8987486" lon="17.7099174">
        <ele>24.1703</ele>
        <time>2013-05-22T20:32:13Z</time>
      </trkpt>
      <trkpt lat="59.8988128" lon="17.7099962">
        <ele>24.1703</ele>
        <time>2013-05-22T20:32:14Z</time>
      </trkpt>
      <trkpt lat="59.8988772" lon="17.7100762">
        <ele>24.1703</ele>
        <time>2013-05-22T20:32:15Z</time>
      </trkpt>
      <trkpt lat="59.8989409" lon="17.7101581">
        <ele>24.1703</ele>
        <time>2013-05-22T20:32:16Z</time>
      </trkpt>
      <trkpt lat="59.8990045" lon="17.7102409">
        <ele>24.1703</ele>
        <time>2013-05-22T20:32:17Z</time>
      </trkpt>
      <trkpt lat="59.8990675" lon="17.7103235">
        <ele>24.651</ele>
        <time>2013-05-22T20:32:18Z</time>
      </trkpt>
      <trkpt lat="59.8991288" lon="17.7104058">
        <ele>24.651</ele>
        <time>2013-05-22T20:32:19Z</time>
      </trkpt>
      <trkpt lat="59.899189" lon="17.7104877">
        <ele>24.651</ele>
        <time>2013-05-22T20:32:20Z</time>
      </trkpt>
      <trkpt lat="59.8992494" lon="17.7105659">
        <ele>24.651</ele>
        <time>2013-05-22T20:32:21Z</time>
      </trkpt>
      <trkpt lat="59.8993087" lon="17.7106361">
        <ele>24.651</ele>
        <time>2013-05-22T20:32:22Z</time>
      </trkpt>
      <trkpt lat="59.8993671" lon="17.7106963">
        <ele>25.1317</ele>
        <time>2013-05-22T20:32:23Z</time>
      </trkpt>
      <trkpt lat="59.8994261" lon="17.7107617">
        <ele>25.1317</ele>
        <time>2013-05-22T20:32:24Z</time>
      </trkpt>
      <trkpt lat="59.8994842" lon="17.71083">
        <ele>25.6123</ele>
        <time>2013-05-22T20:32:25Z</time>
      </trkpt>
      <trkpt lat="59.899542" lon="17.7108979">
        <ele>25.6123</ele>
        <time>2013-05-22T20:32:26Z</time>
      </trkpt>
      <trkpt lat="59.8996" lon="17.7109661">
        <ele>25.6123</ele>
        <time>2013-05-22T20:32:27Z</time>
      </trkpt>
      <trkpt lat="59.8996579" lon="17.7110353">
        <ele>25.6123</ele>
        <time>2013-05-22T20:32:28Z</time>
      </trkpt>
      <trkpt lat="59.8997163" lon="17.711105">
        <ele>25.6123</ele>
        <time>2013-05-22T20:32:29Z</time>
      </trkpt>
      <trkpt lat="59.8997738" lon="17.7111764">
        <ele>25.6123</ele>
        <time>2013-05-22T20:32:30Z</time>
      </trkpt>
      <trkpt lat="59.8998308" lon="17.711248">
        <ele>25.6123</ele>
        <time>2013-05-22T20:32:31Z</time>
      </trkpt>
      <trkpt lat="59.8998887" lon="17.711317">
        <ele>25.6123</ele>
        <time>2013-05-22T20:32:32Z</time>
      </trkpt>
      <trkpt lat="59.8999473" lon="17.7113834">
        <ele>25.6123</ele>
        <time>2013-05-22T20:32:33Z</time>
      </trkpt>
      <trkpt lat="59.9000057" lon="17.7114499">
        <ele>25.6123</ele>
        <time>2013-05-22T20:32:34Z</time>
      </trkpt>
      <trkpt lat="59.9000637" lon="17.7115179">
        <ele>25.6123</ele>
        <time>2013-05-22T20:32:35Z</time>
      </trkpt>
      <trkpt lat="59.9001219" lon="17.7115853">
        <ele>25.6123</ele>
        <time>2013-05-22T20:32:36Z</time>
      </trkpt>
      <trkpt lat="59.9001807" lon="17.7116511">
        <ele>25.6123</ele>
        <time>2013-05-22T20:32:37Z</time>
      </trkpt>
      <trkpt lat="59.9002395" lon="17.7117181">
        <ele>25.1317</ele>
        <time>2013-05-22T20:32:38Z</time>
      </trkpt>
      <trkpt lat="59.9002981" lon="17.7117856">
        <ele>25.1317</ele>
        <time>2013-05-22T20:32:39Z</time>
      </trkpt>
      <trkpt lat="59.9003567" lon="17.7118532">
        <ele>25.1317</ele>
        <time>2013-05-22T20:32:40Z</time>
      </trkpt>
      <trkpt lat="59.9004156" lon="17.7119205">
        <ele>25.1317</ele>
        <time>2013-05-22T20:32:41Z</time>
      </trkpt>
      <trkpt lat="59.9004748" lon="17.7119879">
        <ele>25.1317</ele>
        <time>2013-05-22T20:32:42Z</time>
      </trkpt>
      <trkpt lat="59.9005352" lon="17.7120562">
        <ele>25.1317</ele>
        <time>2013-05-22T20:32:43Z</time>
      </trkpt>
      <trkpt lat="59.9005964" lon="17.7121241">
        <ele>24.651</ele>
        <time>2013-05-22T20:32:44Z</time>
      </trkpt>
      <trkpt lat="59.9006583" lon="17.7121912">
        <ele>24.651</ele>
        <time>2013-05-22T20:32:45Z</time>
      </trkpt>
      <trkpt lat="59.9007206" lon="17.7122589">
        <ele>24.651</ele>
        <time>2013-05-22T20:32:46Z</time>
      </trkpt>
      <trkpt lat="59.9007834" lon="17.7123286">
        <ele>24.651</ele>
        <time>2013-05-22T20:32:47Z</time>
      </trkpt>
      <trkpt lat="59.9008464" lon="17.7124003">
        <ele>24.1703</ele>
        <time>2013-05-22T20:32:48Z</time>
      </trkpt>
      <trkpt lat="59.9009107" lon="17.7124731">
        <ele>24.1703</ele>
        <time>2013-05-22T20:32:49Z</time>
      </trkpt>
      <trkpt lat="59.9009766" lon="17.7125452">
        <ele>24.1703</ele>
        <time>2013-05-22T20:32:50Z</time>
      </trkpt>
      <trkpt lat="59.9010438" lon="17.7126162">
        <ele>24.651</ele>
        <time>2013-05-22T20:32:51Z</time>
      </trkpt>
      <trkpt lat="59.9011101" lon="17.7126886">
        <ele>24.651</ele>
        <time>2013-05-22T20:32:52Z</time>
      </trkpt>
      <trkpt lat="59.901176" lon="17.7127634">
        <ele>24.651</ele>
        <time>2013-05-22T20:32:53Z</time>
      </trkpt>
      <trkpt lat="59.9012413" lon="17.7128387">
        <ele>24.651</ele>
        <time>2013-05-22T20:32:54Z</time>
      </trkpt>
      <trkpt lat="59.9013065" lon="17.7129133">
        <ele>24.651</ele>
        <time>2013-05-22T20:32:55Z</time>
      </trkpt>
      <trkpt lat="59.9013724" lon="17.7129875">
        <ele>24.651</ele>
        <time>2013-05-22T20:32:56Z</time>
      </trkpt>
      <trkpt lat="59.9014377" lon="17.7130592">
        <ele>24.651</ele>
        <time>2013-05-22T20:32:57Z</time>
      </trkpt>
      <trkpt lat="59.901502" lon="17.7131294">
        <ele>24.651</ele>
        <time>2013-05-22T20:32:58Z</time>
      </trkpt>
      <trkpt lat="59.9015647" lon="17.7131978">
        <ele>24.651</ele>
        <time>2013-05-22T20:32:59Z</time>
      </trkpt>
      <trkpt lat="59.901626" lon="17.7132638">
        <ele>24.651</ele>
        <time>2013-05-22T20:33:00Z</time>
      </trkpt>
      <trkpt lat="59.9016854" lon="17.7133277">
        <ele>24.651</ele>
        <time>2013-05-22T20:33:01Z</time>
      </trkpt>
      <trkpt lat="59.9017431" lon="17.713392">
        <ele>24.651</ele>
        <time>2013-05-22T20:33:02Z</time>
      </trkpt>
      <trkpt lat="59.9017995" lon="17.7134585">
        <ele>24.651</ele>
        <time>2013-05-22T20:33:03Z</time>
      </trkpt>
      <trkpt lat="59.9018551" lon="17.7135256">
        <ele>24.651</ele>
        <time>2013-05-22T20:33:04Z</time>
      </trkpt>
      <trkpt lat="59.9019101" lon="17.7135917">
        <ele>24.651</ele>
        <time>2013-05-22T20:33:05Z</time>
      </trkpt>
      <trkpt lat="59.9019654" lon="17.7136574">
        <ele>24.651</ele>
        <time>2013-05-22T20:33:06Z</time>
      </trkpt>
      <trkpt lat="59.9020212" lon="17.7137221">
        <ele>24.651</ele>
        <time>2013-05-22T20:33:07Z</time>
      </trkpt>
      <trkpt lat="59.9020777" lon="17.7137852">
        <ele>24.651</ele>
        <time>2013-05-22T20:33:08Z</time>
      </trkpt>
      <trkpt lat="59.9021347" lon="17.7138465">
        <ele>24.651</ele>
        <time>2013-05-22T20:33:09Z</time>
      </trkpt>
      <trkpt lat="59.9021917" lon="17.713908">
        <ele>24.651</ele>
        <time>2013-05-22T20:33:10Z</time>
      </trkpt>
      <trkpt lat="59.9022478" lon="17.7139701">
        <ele>24.651</ele>
        <time>2013-05-22T20:33:11Z</time>
      </trkpt>
      <trkpt lat="59.9023037" lon="17.7140322">
        <ele>24.651</ele>
        <time>2013-05-22T20:33:12Z</time>
      </trkpt>
      <trkpt lat="59.9023601" lon="17.714095">
        <ele>25.1317</ele>
        <time>2013-05-22T20:33:13Z</time>
      </trkpt>
      <trkpt lat="59.9024145" lon="17.7141636">
        <ele>25.1317</ele>
        <time>2013-05-22T20:33:14Z</time>
      </trkpt>
      <trkpt lat="59.902468" lon="17.7142333">
        <ele>25.1317</ele>
        <time>2013-05-22T20:33:15Z</time>
      </trkpt>
      <trkpt lat="59.9025234" lon="17.7142969">
        <ele>25.1317</ele>
        <time>2013-05-22T20:33:16Z</time>
      </trkpt>
      <trkpt lat="59.9025793" lon="17.7143573">
        <ele>25.1317</ele>
        <time>2013-05-22T20:33:17Z</time>
      </trkpt>
      <trkpt lat="59.9026349" lon="17.7144171">
        <ele>25.1317</ele>
        <time>2013-05-22T20:33:18Z</time>
      </trkpt>
      <trkpt lat="59.9026897" lon="17.714479">
        <ele>25.6123</ele>
        <time>2013-05-22T20:33:19Z</time>
      </trkpt>
      <trkpt lat="59.9027436" lon="17.7145457">
        <ele>25.6123</ele>
        <time>2013-05-22T20:33:20Z</time>
      </trkpt>
      <trkpt lat="59.9027973" lon="17.7146135">
        <ele>25.6123</ele>
        <time>2013-05-22T20:33:21Z</time>
      </trkpt>
      <trkpt lat="59.9028521" lon="17.7146788">
        <ele>25.6123</ele>
        <time>2013-05-22T20:33:22Z</time>
      </trkpt>
      <trkpt lat="59.9029077" lon="17.7147432">
        <ele>26.0929</ele>
        <time>2013-05-22T20:33:23Z</time>
      </trkpt>
      <trkpt lat="59.9029621" lon="17.7148089">
        <ele>26.0929</ele>
        <time>2013-05-22T20:33:24Z</time>
      </trkpt>
      <trkpt lat="59.9030155" lon="17.7148758">
        <ele>26.0929</ele>
        <time>2013-05-22T20:33:25Z</time>
      </trkpt>
      <trkpt lat="59.9030683" lon="17.7149434">
        <ele>26.0929</ele>
        <time>2013-05-22T20:33:26Z</time>
      </trkpt>
      <trkpt lat="59.9031201" lon="17.7150115">
        <ele>26.0929</ele>
        <time>2013-05-22T20:33:27Z</time>
      </trkpt>
      <trkpt lat="59.9031715" lon="17.7150819">
        <ele>26.0929</ele>
        <time>2013-05-22T20:33:28Z</time>
      </trkpt>
      <trkpt lat="59.9032226" lon="17.715155">
        <ele>25.6123</ele>
        <time>2013-05-22T20:33:29Z</time>
      </trkpt>
      <trkpt lat="59.9032731" lon="17.7152323">
        <ele>25.6123</ele>
        <time>2013-05-22T20:33:30Z</time>
      </trkpt>
      <trkpt lat="59.9033238" lon="17.7153135">
        <ele>26.0929</ele>
        <time>2013-05-22T20:33:31Z</time>
      </trkpt>
      <trkpt lat="59.9033718" lon="17.7153993">
        <ele>26.0929</ele>
        <time>2013-05-22T20:33:32Z</time>
      </trkpt>
      <trkpt lat="59.9034142" lon="17.7154915">
        <ele>26.0929</ele>
        <time>2013-05-22T20:33:33Z</time>
      </trkpt>
      <trkpt lat="59.9034572" lon="17.7155802">
        <ele>26.0929</ele>
        <time>2013-05-22T20:33:34Z</time>
      </trkpt>
      <trkpt lat="59.9035004" lon="17.7156641">
        <ele>26.0929</ele>
        <time>2013-05-22T20:33:35Z</time>
      </trkpt>
      <trkpt lat="59.9035469" lon="17.7157408">
        <ele>26.5736</ele>
        <time>2013-05-22T20:33:36Z</time>
      </trkpt>
      <trkpt lat="59.9035926" lon="17.7158179">
        <ele>27.0543</ele>
        <time>2013-05-22T20:33:37Z</time>
      </trkpt>
      <trkpt lat="59.9036336" lon="17.715903">
        <ele>27.0543</ele>
        <time>2013-05-22T20:33:38Z</time>
      </trkpt>
      <trkpt lat="59.9036635" lon="17.7160075">
        <ele>27.0543</ele>
        <time>2013-05-22T20:33:39Z</time>
      </trkpt>
      <trkpt lat="59.9036838" lon="17.7161231">
        <ele>27.0543</ele>
        <time>2013-05-22T20:33:40Z</time>
      </trkpt>
      <trkpt lat="59.9037055" lon="17.7162386">
        <ele>27.0543</ele>
        <time>2013-05-22T20:33:41Z</time>
      </trkpt>
      <trkpt lat="59.9037405" lon="17.7163425">
        <ele>27.0543</ele>
        <time>2013-05-22T20:33:42Z</time>
      </trkpt>
      <trkpt lat="59.903792" lon="17.7164221">
        <ele>27.0543</ele>
        <time>2013-05-22T20:33:43Z</time>
      </trkpt>
      <trkpt lat="59.9038557" lon="17.7164716">
        <ele>28.0155</ele>
        <time>2013-05-22T20:33:44Z</time>
      </trkpt>
      <trkpt lat="59.9039122" lon="17.7165115">
        <ele>28.0155</ele>
        <time>2013-05-22T20:33:45Z</time>
      </trkpt>
      <trkpt lat="59.903967" lon="17.7165549">
        <ele>28.0155</ele>
        <time>2013-05-22T20:33:46Z</time>
      </trkpt>
      <trkpt lat="59.9040179" lon="17.7166072">
        <ele>28.4962</ele>
        <time>2013-05-22T20:33:47Z</time>
      </trkpt>
      <trkpt lat="59.9040618" lon="17.7166691">
        <ele>28.4962</ele>
        <time>2013-05-22T20:33:48Z</time>
      </trkpt>
      <trkpt lat="59.9041003" lon="17.7167291">
        <ele>28.4962</ele>
        <time>2013-05-22T20:33:49Z</time>
      </trkpt>
      <trkpt lat="59.9041391" lon="17.7167785">
        <ele>28.9769</ele>
        <time>2013-05-22T20:33:50Z</time>
      </trkpt>
      <trkpt lat="59.9041736" lon="17.716816">
        <ele>28.4962</ele>
        <time>2013-05-22T20:33:51Z</time>
      </trkpt>
      <trkpt lat="59.9042095" lon="17.7168526">
        <ele>28.4962</ele>
        <time>2013-05-22T20:33:52Z</time>
      </trkpt>
      <trkpt lat="59.9042462" lon="17.7168865">
        <ele>28.0155</ele>
        <time>2013-05-22T20:33:53Z</time>
      </trkpt>
      <trkpt lat="59.9042861" lon="17.7169248">
        <ele>28.9769</ele>
        <time>2013-05-22T20:33:54Z</time>
      </trkpt>
      <trkpt lat="59.9043246" lon="17.7169488">
        <ele>29.9381</ele>
        <time>2013-05-22T20:33:55Z</time>
      </trkpt>
      <trkpt lat="59.9043602" lon="17.7169802">
        <ele>30.4188</ele>
        <time>2013-05-22T20:33:56Z</time>
      </trkpt>
      <trkpt lat="59.9043927" lon="17.717012">
        <ele>30.4188</ele>
        <time>2013-05-22T20:33:57Z</time>
      </trkpt>
      <trkpt lat="59.9044214" lon="17.7170548">
        <ele>30.8995</ele>
        <time>2013-05-22T20:33:58Z</time>
      </trkpt>
      <trkpt lat="59.9044509" lon="17.7170875">
        <ele>31.3801</ele>
        <time>2013-05-22T20:33:59Z</time>
      </trkpt>
      <trkpt lat="59.9044777" lon="17.7171247">
        <ele>31.8607</ele>
        <time>2013-05-22T20:34:00Z</time>
      </trkpt>
      <trkpt lat="59.9045067" lon="17.7171628">
        <ele>32.8223</ele>
        <time>2013-05-22T20:34:01Z</time>
      </trkpt>
      <trkpt lat="59.9045311" lon="17.7171983">
        <ele>33.3029</ele>
        <time>2013-05-22T20:34:02Z</time>
      </trkpt>
      <trkpt lat="59.904551" lon="17.7172379">
        <ele>33.3029</ele>
        <time>2013-05-22T20:34:03Z</time>
      </trkpt>
      <trkpt lat="59.9045752" lon="17.7172768">
        <ele>33.7834</ele>
        <time>2013-05-22T20:34:04Z</time>
      </trkpt>
      <trkpt lat="59.9046016" lon="17.7173068">
        <ele>33.7834</ele>
        <time>2013-05-22T20:34:05Z</time>
      </trkpt>
      <trkpt lat="59.9046327" lon="17.7173574">
        <ele>33.7834</ele>
        <time>2013-05-22T20:34:06Z</time>
      </trkpt>
      <trkpt lat="59.9046657" lon="17.7174088">
        <ele>34.2642</ele>
        <time>2013-05-22T20:34:07Z</time>
      </trkpt>
      <trkpt lat="59.904696" lon="17.7174644">
        <ele>34.7449</ele>
        <time>2013-05-22T20:34:08Z</time>
      </trkpt>
      <trkpt lat="59.9047323" lon="17.7175171">
        <ele>35.2255</ele>
        <time>2013-05-22T20:34:09Z</time>
      </trkpt>
      <trkpt lat="59.9047772" lon="17.7175658">
        <ele>36.1868</ele>
        <time>2013-05-22T20:34:10Z</time>
      </trkpt>
      <trkpt lat="59.9048222" lon="17.7176137">
        <ele>36.6675</ele>
        <time>2013-05-22T20:34:11Z</time>
      </trkpt>
      <trkpt lat="59.9048571" lon="17.7176735">
        <ele>36.1868</ele>
        <time>2013-05-22T20:34:12Z</time>
      </trkpt>
      <trkpt lat="59.904899" lon="17.7177265">
        <ele>37.1481</ele>
        <time>2013-05-22T20:34:13Z</time>
      </trkpt>
      <trkpt lat="59.904939" lon="17.7177835">
        <ele>37.6287</ele>
        <time>2013-05-22T20:34:14Z</time>
      </trkpt>
      <trkpt lat="59.9049766" lon="17.7178465">
        <ele>37.6287</ele>
        <time>2013-05-22T20:34:15Z</time>
      </trkpt>
      <trkpt lat="59.9050197" lon="17.717908">
        <ele>37.6287</ele>
        <time>2013-05-22T20:34:16Z</time>
      </trkpt>
      <trkpt lat="59.9050677" lon="17.717963">
        <ele>38.1094</ele>
        <time>2013-05-22T20:34:17Z</time>
      </trkpt>
      <trkpt lat="59.9051138" lon="17.7180247">
        <ele>38.1094</ele>
        <time>2013-05-22T20:34:18Z</time>
      </trkpt>
      <trkpt lat="59.905155" lon="17.718096">
        <ele>38.1094</ele>
        <time>2013-05-22T20:34:19Z</time>
      </trkpt>
      <trkpt lat="59.9051954" lon="17.7181734">
        <ele>37.1481</ele>
        <time>2013-05-22T20:34:20Z</time>
      </trkpt>
      <trkpt lat="59.9052392" lon="17.7182475">
        <ele>37.1481</ele>
        <time>2013-05-22T20:34:21Z</time>
      </trkpt>
      <trkpt lat="59.9052791" lon="17.7183231">
        <ele>36.6675</ele>
        <time>2013-05-22T20:34:22Z</time>
      </trkpt>
      <trkpt lat="59.90532" lon="17.7183975">
        <ele>36.1868</ele>
        <time>2013-05-22T20:34:23Z</time>
      </trkpt>
      <trkpt lat="59.9053636" lon="17.7184664">
        <ele>35.7061</ele>
        <time>2013-05-22T20:34:24Z</time>
      </trkpt>
      <trkpt lat="59.9054051" lon="17.7185335">
        <ele>35.7061</ele>
        <time>2013-05-22T20:34:25Z</time>
      </trkpt>
      <trkpt lat="59.9054449" lon="17.7186047">
        <ele>35.7061</ele>
        <time>2013-05-22T20:34:26Z</time>
      </trkpt>
      <trkpt lat="59.9054869" lon="17.7186737">
        <ele>35.2255</ele>
        <time>2013-05-22T20:34:27Z</time>
      </trkpt>
      <trkpt lat="59.9055282" lon="17.7187447">
        <ele>34.7449</ele>
        <time>2013-05-22T20:34:28Z</time>
      </trkpt>
      <trkpt lat="59.9055706" lon="17.7188177">
        <ele>34.7449</ele>
        <time>2013-05-22T20:34:29Z</time>
      </trkpt>
      <trkpt lat="59.9056133" lon="17.7188919">
        <ele>34.2642</ele>
        <time>2013-05-22T20:34:30Z</time>
      </trkpt>
      <trkpt lat="59.9056546" lon="17.7189674">
        <ele>34.2642</ele>
        <time>2013-05-22T20:34:31Z</time>
      </trkpt>
      <trkpt lat="59.9056957" lon="17.7190386">
        <ele>33.7834</ele>
        <time>2013-05-22T20:34:32Z</time>
      </trkpt>
      <trkpt lat="59.9057379" lon="17.7191044">
        <ele>33.3029</ele>
        <time>2013-05-22T20:34:33Z</time>
      </trkpt>
      <trkpt lat="59.9057799" lon="17.7191684">
        <ele>33.3029</ele>
        <time>2013-05-22T20:34:34Z</time>
      </trkpt>
      <trkpt lat="59.905821" lon="17.719238">
        <ele>32.8223</ele>
        <time>2013-05-22T20:34:35Z</time>
      </trkpt>
      <trkpt lat="59.9058603" lon="17.7193078">
        <ele>32.8223</ele>
        <time>2013-05-22T20:34:36Z</time>
      </trkpt>
      <trkpt lat="59.9058987" lon="17.7193783">
        <ele>32.3416</ele>
        <time>2013-05-22T20:34:37Z</time>
      </trkpt>
      <trkpt lat="59.9059371" lon="17.7194468">
        <ele>32.3416</ele>
        <time>2013-05-22T20:34:38Z</time>
      </trkpt>
      <trkpt lat="59.9059759" lon="17.7195156">
        <ele>32.3416</ele>
        <time>2013-05-22T20:34:39Z</time>
      </trkpt>
      <trkpt lat="59.906008" lon="17.7195931">
        <ele>31.8607</ele>
        <time>2013-05-22T20:34:40Z</time>
      </trkpt>
      <trkpt lat="59.906027" lon="17.7196829">
        <ele>31.8607</ele>
        <time>2013-05-22T20:34:41Z</time>
      </trkpt>
      <trkpt lat="59.9060365" lon="17.7197765">
        <ele>31.8607</ele>
        <time>2013-05-22T20:34:42Z</time>
      </trkpt>
      <trkpt lat="59.9060456" lon="17.7198698">
        <ele>31.8607</ele>
        <time>2013-05-22T20:34:43Z</time>
      </trkpt>
      <trkpt lat="59.9060599" lon="17.7199593">
        <ele>31.8607</ele>
        <time>2013-05-22T20:34:44Z</time>
      </trkpt>
      <trkpt lat="59.9060812" lon="17.7200424">
        <ele>31.8607</ele>
        <time>2013-05-22T20:34:45Z</time>
      </trkpt>
      <trkpt lat="59.9061106" lon="17.7201132">
        <ele>31.3801</ele>
        <time>2013-05-22T20:34:46Z</time>
      </trkpt>
      <trkpt lat="59.9061472" lon="17.7201515">
        <ele>31.3801</ele>
        <time>2013-05-22T20:34:47Z</time>
      </trkpt>
      <trkpt lat="59.9061878" lon="17.7201451">
        <ele>30.8995</ele>
        <time>2013-05-22T20:34:48Z</time>
      </trkpt>
      <trkpt lat="59.9062256" lon="17.7201043">
        <ele>30.4188</ele>
        <time>2013-05-22T20:34:49Z</time>
      </trkpt>
      <trkpt lat="59.9062648" lon="17.7200547">
        <ele>29.9381</ele>
        <time>2013-05-22T20:34:50Z</time>
      </trkpt>
      <trkpt lat="59.90631" lon="17.7200217">
        <ele>29.9381</ele>
        <time>2013-05-22T20:34:51Z</time>
      </trkpt>
      <trkpt lat="59.9063586" lon="17.7200231">
        <ele>29.4575</ele>
        <time>2013-05-22T20:34:52Z</time>
      </trkpt>
      <trkpt lat="59.9064055" lon="17.7200556">
        <ele>29.4575</ele>
        <time>2013-05-22T20:34:53Z</time>
      </trkpt>
      <trkpt lat="59.9064528" lon="17.7201061">
        <ele>29.4575</ele>
        <time>2013-05-22T20:34:54Z</time>
      </trkpt>
      <trkpt lat="59.9064996" lon="17.7201657">
        <ele>29.9381</ele>
        <time>2013-05-22T20:34:55Z</time>
      </trkpt>
      <trkpt lat="59.9065478" lon="17.7202289">
        <ele>29.9381</ele>
        <time>2013-05-22T20:34:56Z</time>
      </trkpt>
      <trkpt lat="59.9065973" lon="17.7202962">
        <ele>30.4188</ele>
        <time>2013-05-22T20:34:57Z</time>
      </trkpt>
      <trkpt lat="59.9066481" lon="17.7203688">
        <ele>30.4188</ele>
        <time>2013-05-22T20:34:58Z</time>
      </trkpt>
      <trkpt lat="59.9066975" lon="17.7204489">
        <ele>30.4188</ele>
        <time>2013-05-22T20:34:59Z</time>
      </trkpt>
      <trkpt lat="59.9067468" lon="17.720533">
        <ele>30.4188</ele>
        <time>2013-05-22T20:35:00Z</time>
      </trkpt>
      <trkpt lat="59.9067975" lon="17.72062">
        <ele>30.4188</ele>
        <time>2013-05-22T20:35:01Z</time>
      </trkpt>
      <trkpt lat="59.9068497" lon="17.7207106">
        <ele>30.8995</ele>
        <time>2013-05-22T20:35:02Z</time>
      </trkpt>
      <trkpt lat="59.9069009" lon="17.7208048">
        <ele>30.8995</ele>
        <time>2013-05-22T20:35:03Z</time>
      </trkpt>
      <trkpt lat="59.9069512" lon="17.7209022">
        <ele>30.8995</ele>
        <time>2013-05-22T20:35:04Z</time>
      </trkpt>
      <trkpt lat="59.9070005" lon="17.7210018">
        <ele>30.8995</ele>
        <time>2013-05-22T20:35:05Z</time>
      </trkpt>
      <trkpt lat="59.9070503" lon="17.7211033">
        <ele>30.8995</ele>
        <time>2013-05-22T20:35:06Z</time>
      </trkpt>
      <trkpt lat="59.9071005" lon="17.721207">
        <ele>31.3801</ele>
        <time>2013-05-22T20:35:07Z</time>
      </trkpt>
      <trkpt lat="59.90715" lon="17.7213139">
        <ele>31.3801</ele>
        <time>2013-05-22T20:35:08Z</time>
      </trkpt>
      <trkpt lat="59.9071983" lon="17.7214239">
        <ele>31.3801</ele>
        <time>2013-05-22T20:35:09Z</time>
      </trkpt>
      <trkpt lat="59.9072465" lon="17.7215359">
        <ele>31.8607</ele>
        <time>2013-05-22T20:35:10Z</time>
      </trkpt>
      <trkpt lat="59.907294" lon="17.7216502">
        <ele>31.8607</ele>
        <time>2013-05-22T20:35:11Z</time>
      </trkpt>
      <trkpt lat="59.9073409" lon="17.7217668">
        <ele>31.8607</ele>
        <time>2013-05-22T20:35:12Z</time>
      </trkpt>
      <trkpt lat="59.9073876" lon="17.721886">
        <ele>32.3416</ele>
        <time>2013-05-22T20:35:13Z</time>
      </trkpt>
      <trkpt lat="59.9074332" lon="17.7220076">
        <ele>32.3416</ele>
        <time>2013-05-22T20:35:14Z</time>
      </trkpt>
      <trkpt lat="59.9074785" lon="17.7221306">
        <ele>32.3416</ele>
        <time>2013-05-22T20:35:15Z</time>
      </trkpt>
      <trkpt lat="59.907522" lon="17.7222553">
        <ele>32.8223</ele>
        <time>2013-05-22T20:35:16Z</time>
      </trkpt>
      <trkpt lat="59.9075646" lon="17.7223806">
        <ele>32.8223</ele>
        <time>2013-05-22T20:35:17Z</time>
      </trkpt>
      <trkpt lat="59.9076062" lon="17.7225061">
        <ele>32.8223</ele>
        <time>2013-05-22T20:35:18Z</time>
      </trkpt>
      <trkpt lat="59.907646" lon="17.7226327">
        <ele>32.8223</ele>
        <time>2013-05-22T20:35:19Z</time>
      </trkpt>
      <trkpt lat="59.9076842" lon="17.7227599">
        <ele>32.8223</ele>
        <time>2013-05-22T20:35:20Z</time>
      </trkpt>
      <trkpt lat="59.9077594" lon="17.7230168">
        <ele>33.3029</ele>
        <time>2013-05-22T20:35:21Z</time>
      </trkpt>
      <trkpt lat="59.9077958" lon="17.7231468">
        <ele>33.3029</ele>
        <time>2013-05-22T20:35:22Z</time>
      </trkpt>
      <trkpt lat="59.9078307" lon="17.7232779">
        <ele>33.3029</ele>
        <time>2013-05-22T20:35:23Z</time>
      </trkpt>
      <trkpt lat="59.9078636" lon="17.7234101">
        <ele>32.8223</ele>
        <time>2013-05-22T20:35:24Z</time>
      </trkpt>
      <trkpt lat="59.9078965" lon="17.7235431">
        <ele>32.8223</ele>
        <time>2013-05-22T20:35:25Z</time>
      </trkpt>
      <trkpt lat="59.9079293" lon="17.7236779">
        <ele>32.8223</ele>
        <time>2013-05-22T20:35:26Z</time>
      </trkpt>
      <trkpt lat="59.9079629" lon="17.723815">
        <ele>32.8223</ele>
        <time>2013-05-22T20:35:27Z</time>
      </trkpt>
      <trkpt lat="59.907997" lon="17.7239529">
        <ele>32.8223</ele>
        <time>2013-05-22T20:35:28Z</time>
      </trkpt>
      <trkpt lat="59.9080322" lon="17.7240902">
        <ele>32.8223</ele>
        <time>2013-05-22T20:35:29Z</time>
      </trkpt>
      <trkpt lat="59.9080674" lon="17.7242269">
        <ele>32.8223</ele>
        <time>2013-05-22T20:35:30Z</time>
      </trkpt>
      <trkpt lat="59.9081012" lon="17.7243622">
        <ele>32.8223</ele>
        <time>2013-05-22T20:35:31Z</time>
      </trkpt>
      <trkpt lat="59.9081343" lon="17.7244948">
        <ele>32.8223</ele>
        <time>2013-05-22T20:35:32Z</time>
      </trkpt>
      <trkpt lat="59.9081665" lon="17.7246257">
        <ele>32.8223</ele>
        <time>2013-05-22T20:35:33Z</time>
      </trkpt>
      <trkpt lat="59.9081978" lon="17.724755">
        <ele>32.8223</ele>
        <time>2013-05-22T20:35:34Z</time>
      </trkpt>
      <trkpt lat="59.9082296" lon="17.7248817">
        <ele>32.8223</ele>
        <time>2013-05-22T20:35:35Z</time>
      </trkpt>
      <trkpt lat="59.9082608" lon="17.7250071">
        <ele>32.8223</ele>
        <time>2013-05-22T20:35:36Z</time>
      </trkpt>
      <trkpt lat="59.9082923" lon="17.7251322">
        <ele>32.8223</ele>
        <time>2013-05-22T20:35:37Z</time>
      </trkpt>
      <trkpt lat="59.9083239" lon="17.7252586">
        <ele>32.8223</ele>
        <time>2013-05-22T20:35:38Z</time>
      </trkpt>
      <trkpt lat="59.9083554" lon="17.7253868">
        <ele>32.8223</ele>
        <time>2013-05-22T20:35:39Z</time>
      </trkpt>
      <trkpt lat="59.9083877" lon="17.725516">
        <ele>32.8223</ele>
        <time>2013-05-22T20:35:40Z</time>
      </trkpt>
      <trkpt lat="59.9084203" lon="17.7256461">
        <ele>32.3416</ele>
        <time>2013-05-22T20:35:41Z</time>
      </trkpt>
      <trkpt lat="59.9084532" lon="17.7257776">
        <ele>32.3416</ele>
        <time>2013-05-22T20:35:42Z</time>
      </trkpt>
      <trkpt lat="59.9084857" lon="17.7259104">
        <ele>32.3416</ele>
        <time>2013-05-22T20:35:43Z</time>
      </trkpt>
      <trkpt lat="59.9085182" lon="17.726044">
        <ele>31.8607</ele>
        <time>2013-05-22T20:35:44Z</time>
      </trkpt>
      <trkpt lat="59.9085509" lon="17.7261786">
        <ele>31.8607</ele>
        <time>2013-05-22T20:35:45Z</time>
      </trkpt>
      <trkpt lat="59.908584" lon="17.726315">
        <ele>31.8607</ele>
        <time>2013-05-22T20:35:46Z</time>
      </trkpt>
      <trkpt lat="59.9086172" lon="17.7264528">
        <ele>31.8607</ele>
        <time>2013-05-22T20:35:47Z</time>
      </trkpt>
      <trkpt lat="59.9086494" lon="17.7265912">
        <ele>31.8607</ele>
        <time>2013-05-22T20:35:48Z</time>
      </trkpt>
      <trkpt lat="59.9086806" lon="17.7267308">
        <ele>31.8607</ele>
        <time>2013-05-22T20:35:49Z</time>
      </trkpt>
      <trkpt lat="59.908711" lon="17.7268716">
        <ele>31.8607</ele>
        <time>2013-05-22T20:35:50Z</time>
      </trkpt>
      <trkpt lat="59.9087406" lon="17.7270127">
        <ele>31.8607</ele>
        <time>2013-05-22T20:35:51Z</time>
      </trkpt>
      <trkpt lat="59.90877" lon="17.7271541">
        <ele>31.8607</ele>
        <time>2013-05-22T20:35:52Z</time>
      </trkpt>
      <trkpt lat="59.9087994" lon="17.7272955">
        <ele>31.8607</ele>
        <time>2013-05-22T20:35:53Z</time>
      </trkpt>
      <trkpt lat="59.9088286" lon="17.7274369">
        <ele>31.8607</ele>
        <time>2013-05-22T20:35:54Z</time>
      </trkpt>
      <trkpt lat="59.9088579" lon="17.7275783">
        <ele>31.8607</ele>
        <time>2013-05-22T20:35:55Z</time>
      </trkpt>
      <trkpt lat="59.9088869" lon="17.7277198">
        <ele>31.8607</ele>
        <time>2013-05-22T20:35:56Z</time>
      </trkpt>
      <trkpt lat="59.9089157" lon="17.7278615">
        <ele>31.8607</ele>
        <time>2013-05-22T20:35:57Z</time>
      </trkpt>
      <trkpt lat="59.908945" lon="17.7280028">
        <ele>31.8607</ele>
        <time>2013-05-22T20:35:58Z</time>
      </trkpt>
      <trkpt lat="59.9089753" lon="17.728143">
        <ele>31.3801</ele>
        <time>2013-05-22T20:35:59Z</time>
      </trkpt>
      <trkpt lat="59.9090076" lon="17.7282825">
        <ele>31.8607</ele>
        <time>2013-05-22T20:36:00Z</time>
      </trkpt>
      <trkpt lat="59.9090389" lon="17.7284229">
        <ele>31.8607</ele>
        <time>2013-05-22T20:36:01Z</time>
      </trkpt>
      <trkpt lat="59.9090715" lon="17.7285625">
        <ele>31.8607</ele>
        <time>2013-05-22T20:36:02Z</time>
      </trkpt>
      <trkpt lat="59.9091047" lon="17.7287007">
        <ele>31.8607</ele>
        <time>2013-05-22T20:36:03Z</time>
      </trkpt>
      <trkpt lat="59.9091371" lon="17.7288377">
        <ele>31.8607</ele>
        <time>2013-05-22T20:36:04Z</time>
      </trkpt>
      <trkpt lat="59.9091689" lon="17.7289739">
        <ele>31.3801</ele>
        <time>2013-05-22T20:36:05Z</time>
      </trkpt>
      <trkpt lat="59.9092052" lon="17.7291069">
        <ele>31.8607</ele>
        <time>2013-05-22T20:36:06Z</time>
      </trkpt>
      <trkpt lat="59.9092389" lon="17.7292407">
        <ele>32.3416</ele>
        <time>2013-05-22T20:36:07Z</time>
      </trkpt>
      <trkpt lat="59.9092728" lon="17.7293721">
        <ele>32.3416</ele>
        <time>2013-05-22T20:36:08Z</time>
      </trkpt>
      <trkpt lat="59.9093053" lon="17.7295027">
        <ele>32.3416</ele>
        <time>2013-05-22T20:36:09Z</time>
      </trkpt>
      <trkpt lat="59.9093371" lon="17.7296323">
        <ele>32.3416</ele>
        <time>2013-05-22T20:36:10Z</time>
      </trkpt>
      <trkpt lat="59.9093669" lon="17.7297613">
        <ele>31.8607</ele>
        <time>2013-05-22T20:36:11Z</time>
      </trkpt>
      <trkpt lat="59.9093988" lon="17.7298872">
        <ele>31.8607</ele>
        <time>2013-05-22T20:36:12Z</time>
      </trkpt>
      <trkpt lat="59.9094289" lon="17.7300139">
        <ele>32.3416</ele>
        <time>2013-05-22T20:36:13Z</time>
      </trkpt>
      <trkpt lat="59.9094578" lon="17.7301403">
        <ele>32.3416</ele>
        <time>2013-05-22T20:36:14Z</time>
      </trkpt>
      <trkpt lat="59.9094883" lon="17.7302632">
        <ele>32.3416</ele>
        <time>2013-05-22T20:36:15Z</time>
      </trkpt>
      <trkpt lat="59.909519" lon="17.7303827">
        <ele>32.3416</ele>
        <time>2013-05-22T20:36:16Z</time>
      </trkpt>
      <trkpt lat="59.9095481" lon="17.7305035">
        <ele>32.3416</ele>
        <time>2013-05-22T20:36:17Z</time>
      </trkpt>
      <trkpt lat="59.9095798" lon="17.730621">
        <ele>32.3416</ele>
        <time>2013-05-22T20:36:18Z</time>
      </trkpt>
      <trkpt lat="59.9096082" lon="17.7307392">
        <ele>32.3416</ele>
        <time>2013-05-22T20:36:19Z</time>
      </trkpt>
      <trkpt lat="59.9096375" lon="17.7308579">
        <ele>32.3416</ele>
        <time>2013-05-22T20:36:20Z</time>
      </trkpt>
      <trkpt lat="59.9096678" lon="17.7309755">
        <ele>32.3416</ele>
        <time>2013-05-22T20:36:21Z</time>
      </trkpt>
      <trkpt lat="59.9096986" lon="17.7310922">
        <ele>32.3416</ele>
        <time>2013-05-22T20:36:22Z</time>
      </trkpt>
      <trkpt lat="59.9097295" lon="17.7312091">
        <ele>32.8223</ele>
        <time>2013-05-22T20:36:23Z</time>
      </trkpt>
      <trkpt lat="59.9097635" lon="17.7313235">
        <ele>33.3029</ele>
        <time>2013-05-22T20:36:24Z</time>
      </trkpt>
      <trkpt lat="59.909793" lon="17.7314402">
        <ele>33.3029</ele>
        <time>2013-05-22T20:36:25Z</time>
      </trkpt>
      <trkpt lat="59.909822" lon="17.731557">
        <ele>33.7834</ele>
        <time>2013-05-22T20:36:26Z</time>
      </trkpt>
      <trkpt lat="59.9098537" lon="17.7316702">
        <ele>33.7834</ele>
        <time>2013-05-22T20:36:27Z</time>
      </trkpt>
      <trkpt lat="59.9098841" lon="17.7317834">
        <ele>33.7834</ele>
        <time>2013-05-22T20:36:28Z</time>
      </trkpt>
      <trkpt lat="59.9099142" lon="17.7318974">
        <ele>34.2642</ele>
        <time>2013-05-22T20:36:29Z</time>
      </trkpt>
      <trkpt lat="59.9099442" lon="17.7320134">
        <ele>34.2642</ele>
        <time>2013-05-22T20:36:30Z</time>
      </trkpt>
      <trkpt lat="59.909977" lon="17.7321282">
        <ele>34.7449</ele>
        <time>2013-05-22T20:36:31Z</time>
      </trkpt>
      <trkpt lat="59.9100115" lon="17.7322426">
        <ele>35.2255</ele>
        <time>2013-05-22T20:36:32Z</time>
      </trkpt>
      <trkpt lat="59.9100407" lon="17.7323626">
        <ele>35.2255</ele>
        <time>2013-05-22T20:36:33Z</time>
      </trkpt>
      <trkpt lat="59.9100703" lon="17.7324845">
        <ele>35.2255</ele>
        <time>2013-05-22T20:36:34Z</time>
      </trkpt>
      <trkpt lat="59.9101003" lon="17.7326066">
        <ele>35.2255</ele>
        <time>2013-05-22T20:36:35Z</time>
      </trkpt>
      <trkpt lat="59.9101302" lon="17.7327295">
        <ele>35.2255</ele>
        <time>2013-05-22T20:36:36Z</time>
      </trkpt>
      <trkpt lat="59.9101604" lon="17.7328555">
        <ele>35.2255</ele>
        <time>2013-05-22T20:36:37Z</time>
      </trkpt>
      <trkpt lat="59.910191" lon="17.7329828">
        <ele>35.2255</ele>
        <time>2013-05-22T20:36:38Z</time>
      </trkpt>
      <trkpt lat="59.9102213" lon="17.733111">
        <ele>35.7061</ele>
        <time>2013-05-22T20:36:39Z</time>
      </trkpt>
      <trkpt lat="59.9102529" lon="17.7332403">
        <ele>35.7061</ele>
        <time>2013-05-22T20:36:40Z</time>
      </trkpt>
      <trkpt lat="59.9102847" lon="17.7333713">
        <ele>36.1868</ele>
        <time>2013-05-22T20:36:41Z</time>
      </trkpt>
      <trkpt lat="59.9103172" lon="17.7335028">
        <ele>36.1868</ele>
        <time>2013-05-22T20:36:42Z</time>
      </trkpt>
      <trkpt lat="59.910351" lon="17.7336333">
        <ele>36.1868</ele>
        <time>2013-05-22T20:36:43Z</time>
      </trkpt>
      <trkpt lat="59.9103852" lon="17.733762">
        <ele>36.6675</ele>
        <time>2013-05-22T20:36:44Z</time>
      </trkpt>
      <trkpt lat="59.9104189" lon="17.7338886">
        <ele>37.1481</ele>
        <time>2013-05-22T20:36:45Z</time>
      </trkpt>
      <trkpt lat="59.9104518" lon="17.7340139">
        <ele>37.1481</ele>
        <time>2013-05-22T20:36:46Z</time>
      </trkpt>
      <trkpt lat="59.9104835" lon="17.7341396">
        <ele>37.6287</ele>
        <time>2013-05-22T20:36:47Z</time>
      </trkpt>
      <trkpt lat="59.9105145" lon="17.7342736">
        <ele>38.1094</ele>
        <time>2013-05-22T20:36:48Z</time>
      </trkpt>
      <trkpt lat="59.9105435" lon="17.734402">
        <ele>38.1094</ele>
        <time>2013-05-22T20:36:49Z</time>
      </trkpt>
      <trkpt lat="59.9105737" lon="17.734529">
        <ele>38.1094</ele>
        <time>2013-05-22T20:36:50Z</time>
      </trkpt>
      <trkpt lat="59.9106043" lon="17.734656">
        <ele>38.5901</ele>
        <time>2013-05-22T20:36:51Z</time>
      </trkpt>
      <trkpt lat="59.9106354" lon="17.7347821">
        <ele>38.5901</ele>
        <time>2013-05-22T20:36:52Z</time>
      </trkpt>
      <trkpt lat="59.9106673" lon="17.7349051">
        <ele>39.0707</ele>
        <time>2013-05-22T20:36:53Z</time>
      </trkpt>
      <trkpt lat="59.910699" lon="17.7350256">
        <ele>39.0707</ele>
        <time>2013-05-22T20:36:54Z</time>
      </trkpt>
      <trkpt lat="59.9107303" lon="17.7351437">
        <ele>39.0707</ele>
        <time>2013-05-22T20:36:55Z</time>
      </trkpt>
      <trkpt lat="59.9107621" lon="17.7352618">
        <ele>39.0707</ele>
        <time>2013-05-22T20:36:56Z</time>
      </trkpt>
      <trkpt lat="59.9107944" lon="17.735379">
        <ele>39.0707</ele>
        <time>2013-05-22T20:36:57Z</time>
      </trkpt>
      <trkpt lat="59.9108269" lon="17.7354946">
        <ele>39.0707</ele>
        <time>2013-05-22T20:36:58Z</time>
      </trkpt>
      <trkpt lat="59.9108597" lon="17.7356089">
        <ele>39.0707</ele>
        <time>2013-05-22T20:36:59Z</time>
      </trkpt>
      <trkpt lat="59.9108929" lon="17.7357223">
        <ele>39.5513</ele>
        <time>2013-05-22T20:37:00Z</time>
      </trkpt>
      <trkpt lat="59.9109255" lon="17.7358334">
        <ele>39.5513</ele>
        <time>2013-05-22T20:37:01Z</time>
      </trkpt>
      <trkpt lat="59.9109587" lon="17.7359415">
        <ele>39.5513</ele>
        <time>2013-05-22T20:37:02Z</time>
      </trkpt>
      <trkpt lat="59.9109919" lon="17.7360478">
        <ele>39.5513</ele>
        <time>2013-05-22T20:37:03Z</time>
      </trkpt>
      <trkpt lat="59.9110253" lon="17.7361531">
        <ele>39.5513</ele>
        <time>2013-05-22T20:37:04Z</time>
      </trkpt>
      <trkpt lat="59.9110586" lon="17.7362574">
        <ele>39.5513</ele>
        <time>2013-05-22T20:37:05Z</time>
      </trkpt>
      <trkpt lat="59.9110927" lon="17.7363597">
        <ele>40.0321</ele>
        <time>2013-05-22T20:37:06Z</time>
      </trkpt>
      <trkpt lat="59.911127" lon="17.7364597">
        <ele>40.0321</ele>
        <time>2013-05-22T20:37:07Z</time>
      </trkpt>
      <trkpt lat="59.9111617" lon="17.7365567">
        <ele>40.0321</ele>
        <time>2013-05-22T20:37:08Z</time>
      </trkpt>
      <trkpt lat="59.9111969" lon="17.7366524">
        <ele>40.0321</ele>
        <time>2013-05-22T20:37:09Z</time>
      </trkpt>
      <trkpt lat="59.9112317" lon="17.7367478">
        <ele>40.0321</ele>
        <time>2013-05-22T20:37:10Z</time>
      </trkpt>
      <trkpt lat="59.9112658" lon="17.736843">
        <ele>40.0321</ele>
        <time>2013-05-22T20:37:11Z</time>
      </trkpt>
      <trkpt lat="59.9112995" lon="17.7369383">
        <ele>40.0321</ele>
        <time>2013-05-22T20:37:12Z</time>
      </trkpt>
      <trkpt lat="59.9113337" lon="17.7370346">
        <ele>40.5128</ele>
        <time>2013-05-22T20:37:13Z</time>
      </trkpt>
      <trkpt lat="59.9113674" lon="17.7371315">
        <ele>40.5128</ele>
        <time>2013-05-22T20:37:14Z</time>
      </trkpt>
      <trkpt lat="59.9114005" lon="17.737229">
        <ele>40.5128</ele>
        <time>2013-05-22T20:37:15Z</time>
      </trkpt>
      <trkpt lat="59.9114355" lon="17.7373247">
        <ele>40.5128</ele>
        <time>2013-05-22T20:37:16Z</time>
      </trkpt>
      <trkpt lat="59.9114706" lon="17.7374199">
        <ele>40.5128</ele>
        <time>2013-05-22T20:37:17Z</time>
      </trkpt>
      <trkpt lat="59.9115041" lon="17.7375148">
        <ele>40.5128</ele>
        <time>2013-05-22T20:37:18Z</time>
      </trkpt>
      <trkpt lat="59.9115383" lon="17.7376112">
        <ele>40.5128</ele>
        <time>2013-05-22T20:37:19Z</time>
      </trkpt>
      <trkpt lat="59.9115726" lon="17.7377079">
        <ele>40.5128</ele>
        <time>2013-05-22T20:37:20Z</time>
      </trkpt>
      <trkpt lat="59.9116067" lon="17.737804">
        <ele>40.5128</ele>
        <time>2013-05-22T20:37:21Z</time>
      </trkpt>
      <trkpt lat="59.9116409" lon="17.7378999">
        <ele>40.5128</ele>
        <time>2013-05-22T20:37:22Z</time>
      </trkpt>
      <trkpt lat="59.9116749" lon="17.7379936">
        <ele>40.0321</ele>
        <time>2013-05-22T20:37:23Z</time>
      </trkpt>
      <trkpt lat="59.9117093" lon="17.7380858">
        <ele>40.5128</ele>
        <time>2013-05-22T20:37:24Z</time>
      </trkpt>
      <trkpt lat="59.9117427" lon="17.7381738">
        <ele>40.5128</ele>
        <time>2013-05-22T20:37:25Z</time>
      </trkpt>
      <trkpt lat="59.9117736" lon="17.7382609">
        <ele>40.5128</ele>
        <time>2013-05-22T20:37:26Z</time>
      </trkpt>
      <trkpt lat="59.9118044" lon="17.7383482">
        <ele>40.5128</ele>
        <time>2013-05-22T20:37:27Z</time>
      </trkpt>
      <trkpt lat="59.9118366" lon="17.7384357">
        <ele>40.5128</ele>
        <time>2013-05-22T20:37:28Z</time>
      </trkpt>
      <trkpt lat="59.9118689" lon="17.738523">
        <ele>40.5128</ele>
        <time>2013-05-22T20:37:29Z</time>
      </trkpt>
      <trkpt lat="59.9119012" lon="17.7386103">
        <ele>40.5128</ele>
        <time>2013-05-22T20:37:30Z</time>
      </trkpt>
      <trkpt lat="59.9119336" lon="17.7386971">
        <ele>40.9934</ele>
        <time>2013-05-22T20:37:31Z</time>
      </trkpt>
      <trkpt lat="59.9119663" lon="17.7387848">
        <ele>40.9934</ele>
        <time>2013-05-22T20:37:32Z</time>
      </trkpt>
      <trkpt lat="59.9119991" lon="17.7388735">
        <ele>40.9934</ele>
        <time>2013-05-22T20:37:33Z</time>
      </trkpt>
      <trkpt lat="59.9120314" lon="17.7389627">
        <ele>41.474</ele>
        <time>2013-05-22T20:37:34Z</time>
      </trkpt>
      <trkpt lat="59.9120641" lon="17.7390513">
        <ele>41.474</ele>
        <time>2013-05-22T20:37:35Z</time>
      </trkpt>
      <trkpt lat="59.9120968" lon="17.7391407">
        <ele>41.474</ele>
        <time>2013-05-22T20:37:36Z</time>
      </trkpt>
      <trkpt lat="59.9121294" lon="17.7392321">
        <ele>41.474</ele>
        <time>2013-05-22T20:37:37Z</time>
      </trkpt>
      <trkpt lat="59.9121625" lon="17.7393233">
        <ele>41.474</ele>
        <time>2013-05-22T20:37:38Z</time>
      </trkpt>
      <trkpt lat="59.9121965" lon="17.7394166">
        <ele>41.474</ele>
        <time>2013-05-22T20:37:39Z</time>
      </trkpt>
      <trkpt lat="59.9122314" lon="17.7395114">
        <ele>41.9547</ele>
        <time>2013-05-22T20:37:40Z</time>
      </trkpt>
      <trkpt lat="59.9122661" lon="17.7396061">
        <ele>41.9547</ele>
        <time>2013-05-22T20:37:41Z</time>
      </trkpt>
      <trkpt lat="59.9123011" lon="17.7396955">
        <ele>41.9547</ele>
        <time>2013-05-22T20:37:42Z</time>
      </trkpt>
      <trkpt lat="59.9123345" lon="17.7397941">
        <ele>41.9547</ele>
        <time>2013-05-22T20:37:43Z</time>
      </trkpt>
      <trkpt lat="59.9123686" lon="17.7398956">
        <ele>41.9547</ele>
        <time>2013-05-22T20:37:44Z</time>
      </trkpt>
      <trkpt lat="59.9124044" lon="17.7399986">
        <ele>41.9547</ele>
        <time>2013-05-22T20:37:45Z</time>
      </trkpt>
      <trkpt lat="59.9124397" lon="17.7401006">
        <ele>41.9547</ele>
        <time>2013-05-22T20:37:46Z</time>
      </trkpt>
      <trkpt lat="59.9124759" lon="17.7402021">
        <ele>41.9547</ele>
        <time>2013-05-22T20:37:47Z</time>
      </trkpt>
      <trkpt lat="59.9125125" lon="17.7403041">
        <ele>41.9547</ele>
        <time>2013-05-22T20:37:48Z</time>
      </trkpt>
      <trkpt lat="59.9125499" lon="17.7404072">
        <ele>41.9547</ele>
        <time>2013-05-22T20:37:49Z</time>
      </trkpt>
      <trkpt lat="59.9125874" lon="17.7405108">
        <ele>41.9547</ele>
        <time>2013-05-22T20:37:50Z</time>
      </trkpt>
      <trkpt lat="59.9126255" lon="17.740615">
        <ele>41.9547</ele>
        <time>2013-05-22T20:37:51Z</time>
      </trkpt>
      <trkpt lat="59.9126638" lon="17.7407194">
        <ele>41.9547</ele>
        <time>2013-05-22T20:37:52Z</time>
      </trkpt>
      <trkpt lat="59.9127023" lon="17.7408247">
        <ele>41.9547</ele>
        <time>2013-05-22T20:37:53Z</time>
      </trkpt>
      <trkpt lat="59.9127411" lon="17.7409309">
        <ele>41.9547</ele>
        <time>2013-05-22T20:37:54Z</time>
      </trkpt>
      <trkpt lat="59.9127795" lon="17.7410382">
        <ele>41.9547</ele>
        <time>2013-05-22T20:37:55Z</time>
      </trkpt>
      <trkpt lat="59.9128174" lon="17.7411457">
        <ele>41.9547</ele>
        <time>2013-05-22T20:37:56Z</time>
      </trkpt>
      <trkpt lat="59.9128551" lon="17.7412528">
        <ele>41.474</ele>
        <time>2013-05-22T20:37:57Z</time>
      </trkpt>
      <trkpt lat="59.912892" lon="17.7413604">
        <ele>41.474</ele>
        <time>2013-05-22T20:37:58Z</time>
      </trkpt>
      <trkpt lat="59.912929" lon="17.7414688">
        <ele>41.474</ele>
        <time>2013-05-22T20:37:59Z</time>
      </trkpt>
      <trkpt lat="59.912967" lon="17.7415771">
        <ele>41.474</ele>
        <time>2013-05-22T20:38:00Z</time>
      </trkpt>
      <trkpt lat="59.9130037" lon="17.7416855">
        <ele>41.474</ele>
        <time>2013-05-22T20:38:01Z</time>
      </trkpt>
      <trkpt lat="59.9130389" lon="17.7417955">
        <ele>41.474</ele>
        <time>2013-05-22T20:38:02Z</time>
      </trkpt>
      <trkpt lat="59.913074" lon="17.7419071">
        <ele>40.9934</ele>
        <time>2013-05-22T20:38:03Z</time>
      </trkpt>
      <trkpt lat="59.9131089" lon="17.7420195">
        <ele>40.9934</ele>
        <time>2013-05-22T20:38:04Z</time>
      </trkpt>
      <trkpt lat="59.9131439" lon="17.7421319">
        <ele>40.9934</ele>
        <time>2013-05-22T20:38:05Z</time>
      </trkpt>
      <trkpt lat="59.9131786" lon="17.7422439">
        <ele>40.9934</ele>
        <time>2013-05-22T20:38:06Z</time>
      </trkpt>
      <trkpt lat="59.9132136" lon="17.7423558">
        <ele>40.5128</ele>
        <time>2013-05-22T20:38:07Z</time>
      </trkpt>
      <trkpt lat="59.9132479" lon="17.7424681">
        <ele>40.5128</ele>
        <time>2013-05-22T20:38:08Z</time>
      </trkpt>
      <trkpt lat="59.9132818" lon="17.7425813">
        <ele>40.5128</ele>
        <time>2013-05-22T20:38:09Z</time>
      </trkpt>
      <trkpt lat="59.9133136" lon="17.7426973">
        <ele>40.5128</ele>
        <time>2013-05-22T20:38:10Z</time>
      </trkpt>
      <trkpt lat="59.913344" lon="17.7428152">
        <ele>40.5128</ele>
        <time>2013-05-22T20:38:11Z</time>
      </trkpt>
      <trkpt lat="59.9133751" lon="17.7429325">
        <ele>40.5128</ele>
        <time>2013-05-22T20:38:12Z</time>
      </trkpt>
      <trkpt lat="59.9134064" lon="17.7430489">
        <ele>40.5128</ele>
        <time>2013-05-22T20:38:13Z</time>
      </trkpt>
      <trkpt lat="59.9134382" lon="17.7431668">
        <ele>40.5128</ele>
        <time>2013-05-22T20:38:14Z</time>
      </trkpt>
      <trkpt lat="59.9134714" lon="17.7432824">
        <ele>40.5128</ele>
        <time>2013-05-22T20:38:15Z</time>
      </trkpt>
      <trkpt lat="59.9135067" lon="17.7433936">
        <ele>40.5128</ele>
        <time>2013-05-22T20:38:16Z</time>
      </trkpt>
      <trkpt lat="59.9135423" lon="17.7435031">
        <ele>40.5128</ele>
        <time>2013-05-22T20:38:17Z</time>
      </trkpt>
      <trkpt lat="59.9135776" lon="17.7436144">
        <ele>40.5128</ele>
        <time>2013-05-22T20:38:18Z</time>
      </trkpt>
      <trkpt lat="59.913613" lon="17.7437272">
        <ele>40.5128</ele>
        <time>2013-05-22T20:38:19Z</time>
      </trkpt>
      <trkpt lat="59.9136482" lon="17.7438408">
        <ele>40.5128</ele>
        <time>2013-05-22T20:38:20Z</time>
      </trkpt>
      <trkpt lat="59.9136844" lon="17.7439536">
        <ele>40.5128</ele>
        <time>2013-05-22T20:38:21Z</time>
      </trkpt>
      <trkpt lat="59.9137216" lon="17.7440661">
        <ele>40.5128</ele>
        <time>2013-05-22T20:38:22Z</time>
      </trkpt>
      <trkpt lat="59.9137589" lon="17.7441789">
        <ele>40.9934</ele>
        <time>2013-05-22T20:38:23Z</time>
      </trkpt>
      <trkpt lat="59.9137958" lon="17.7442918">
        <ele>40.9934</ele>
        <time>2013-05-22T20:38:24Z</time>
      </trkpt>
      <trkpt lat="59.9138321" lon="17.7444054">
        <ele>40.9934</ele>
        <time>2013-05-22T20:38:25Z</time>
      </trkpt>
      <trkpt lat="59.9138683" lon="17.7445207">
        <ele>40.9934</ele>
        <time>2013-05-22T20:38:26Z</time>
      </trkpt>
      <trkpt lat="59.9139046" lon="17.7446368">
        <ele>40.9934</ele>
        <time>2013-05-22T20:38:27Z</time>
      </trkpt>
      <trkpt lat="59.9139407" lon="17.7447526">
        <ele>40.9934</ele>
        <time>2013-05-22T20:38:28Z</time>
      </trkpt>
      <trkpt lat="59.9139772" lon="17.7448686">
        <ele>40.9934</ele>
        <time>2013-05-22T20:38:29Z</time>
      </trkpt>
      <trkpt lat="59.9140143" lon="17.7449849">
        <ele>40.9934</ele>
        <time>2013-05-22T20:38:30Z</time>
      </trkpt>
      <trkpt lat="59.9140511" lon="17.7451009">
        <ele>40.9934</ele>
        <time>2013-05-22T20:38:31Z</time>
      </trkpt>
      <trkpt lat="59.914088" lon="17.7452187">
        <ele>40.9934</ele>
        <time>2013-05-22T20:38:32Z</time>
      </trkpt>
      <trkpt lat="59.9141264" lon="17.7453371">
        <ele>40.9934</ele>
        <time>2013-05-22T20:38:33Z</time>
      </trkpt>
      <trkpt lat="59.9141662" lon="17.7454544">
        <ele>40.9934</ele>
        <time>2013-05-22T20:38:34Z</time>
      </trkpt>
      <trkpt lat="59.9142055" lon="17.7455735">
        <ele>40.9934</ele>
        <time>2013-05-22T20:38:35Z</time>
      </trkpt>
      <trkpt lat="59.9142434" lon="17.7456925">
        <ele>41.474</ele>
        <time>2013-05-22T20:38:36Z</time>
      </trkpt>
      <trkpt lat="59.9142796" lon="17.7458099">
        <ele>41.474</ele>
        <time>2013-05-22T20:38:37Z</time>
      </trkpt>
      <trkpt lat="59.9143162" lon="17.7459282">
        <ele>41.474</ele>
        <time>2013-05-22T20:38:38Z</time>
      </trkpt>
      <trkpt lat="59.9143528" lon="17.7460466">
        <ele>41.474</ele>
        <time>2013-05-22T20:38:39Z</time>
      </trkpt>
      <trkpt lat="59.9143909" lon="17.7461645">
        <ele>41.9547</ele>
        <time>2013-05-22T20:38:40Z</time>
      </trkpt>
      <trkpt lat="59.9144298" lon="17.7462817">
        <ele>41.9547</ele>
        <time>2013-05-22T20:38:41Z</time>
      </trkpt>
      <trkpt lat="59.9144706" lon="17.7463975">
        <ele>41.9547</ele>
        <time>2013-05-22T20:38:42Z</time>
      </trkpt>
      <trkpt lat="59.9145112" lon="17.7465132">
        <ele>41.9547</ele>
        <time>2013-05-22T20:38:43Z</time>
      </trkpt>
      <trkpt lat="59.9145509" lon="17.7466301">
        <ele>41.9547</ele>
        <time>2013-05-22T20:38:44Z</time>
      </trkpt>
      <trkpt lat="59.9145902" lon="17.7467484">
        <ele>41.9547</ele>
        <time>2013-05-22T20:38:45Z</time>
      </trkpt>
      <trkpt lat="59.9146283" lon="17.746868">
        <ele>41.9547</ele>
        <time>2013-05-22T20:38:46Z</time>
      </trkpt>
      <trkpt lat="59.9146654" lon="17.7469873">
        <ele>41.9547</ele>
        <time>2013-05-22T20:38:47Z</time>
      </trkpt>
      <trkpt lat="59.9147017" lon="17.7471053">
        <ele>41.9547</ele>
        <time>2013-05-22T20:38:48Z</time>
      </trkpt>
      <trkpt lat="59.9147391" lon="17.7472204">
        <ele>41.9547</ele>
        <time>2013-05-22T20:38:49Z</time>
      </trkpt>
      <trkpt lat="59.9147773" lon="17.7473326">
        <ele>41.474</ele>
        <time>2013-05-22T20:38:50Z</time>
      </trkpt>
      <trkpt lat="59.9148147" lon="17.7474452">
        <ele>41.474</ele>
        <time>2013-05-22T20:38:51Z</time>
      </trkpt>
      <trkpt lat="59.9148518" lon="17.747558">
        <ele>41.474</ele>
        <time>2013-05-22T20:38:52Z</time>
      </trkpt>
      <trkpt lat="59.9148893" lon="17.7476706">
        <ele>41.474</ele>
        <time>2013-05-22T20:38:53Z</time>
      </trkpt>
      <trkpt lat="59.9149266" lon="17.7477837">
        <ele>41.9547</ele>
        <time>2013-05-22T20:38:54Z</time>
      </trkpt>
      <trkpt lat="59.9149639" lon="17.7478967">
        <ele>41.9547</ele>
        <time>2013-05-22T20:38:55Z</time>
      </trkpt>
      <trkpt lat="59.9150001" lon="17.7480092">
        <ele>41.9547</ele>
        <time>2013-05-22T20:38:56Z</time>
      </trkpt>
      <trkpt lat="59.9150353" lon="17.7481212">
        <ele>41.9547</ele>
        <time>2013-05-22T20:38:57Z</time>
      </trkpt>
      <trkpt lat="59.9150701" lon="17.7482325">
        <ele>41.9547</ele>
        <time>2013-05-22T20:38:58Z</time>
      </trkpt>
      <trkpt lat="59.9151049" lon="17.7483429">
        <ele>41.9547</ele>
        <time>2013-05-22T20:38:59Z</time>
      </trkpt>
      <trkpt lat="59.9151395" lon="17.7484533">
        <ele>41.9547</ele>
        <time>2013-05-22T20:39:00Z</time>
      </trkpt>
      <trkpt lat="59.9151737" lon="17.7485644">
        <ele>41.474</ele>
        <time>2013-05-22T20:39:01Z</time>
      </trkpt>
      <trkpt lat="59.9152082" lon="17.7486769">
        <ele>41.474</ele>
        <time>2013-05-22T20:39:02Z</time>
      </trkpt>
      <trkpt lat="59.9152431" lon="17.7487894">
        <ele>41.474</ele>
        <time>2013-05-22T20:39:03Z</time>
      </trkpt>
      <trkpt lat="59.9152776" lon="17.7489031">
        <ele>41.474</ele>
        <time>2013-05-22T20:39:04Z</time>
      </trkpt>
      <trkpt lat="59.9153126" lon="17.7490177">
        <ele>41.474</ele>
        <time>2013-05-22T20:39:05Z</time>
      </trkpt>
      <trkpt lat="59.9153493" lon="17.7491319">
        <ele>41.9547</ele>
        <time>2013-05-22T20:39:06Z</time>
      </trkpt>
      <trkpt lat="59.9153859" lon="17.7492463">
        <ele>41.9547</ele>
        <time>2013-05-22T20:39:07Z</time>
      </trkpt>
      <trkpt lat="59.9154223" lon="17.7493612">
        <ele>41.9547</ele>
        <time>2013-05-22T20:39:08Z</time>
      </trkpt>
      <trkpt lat="59.9154579" lon="17.7494751">
        <ele>41.9547</ele>
        <time>2013-05-22T20:39:09Z</time>
      </trkpt>
      <trkpt lat="59.9154928" lon="17.7495897">
        <ele>41.9547</ele>
        <time>2013-05-22T20:39:10Z</time>
      </trkpt>
      <trkpt lat="59.9155284" lon="17.7497034">
        <ele>41.9547</ele>
        <time>2013-05-22T20:39:11Z</time>
      </trkpt>
      <trkpt lat="59.9155659" lon="17.7498166">
        <ele>41.9547</ele>
        <time>2013-05-22T20:39:12Z</time>
      </trkpt>
      <trkpt lat="59.9156042" lon="17.7499306">
        <ele>41.9547</ele>
        <time>2013-05-22T20:39:13Z</time>
      </trkpt>
      <trkpt lat="59.9156425" lon="17.750046">
        <ele>41.9547</ele>
        <time>2013-05-22T20:39:14Z</time>
      </trkpt>
      <trkpt lat="59.9156802" lon="17.7501627">
        <ele>41.9547</ele>
        <time>2013-05-22T20:39:15Z</time>
      </trkpt>
      <trkpt lat="59.9157197" lon="17.7502808">
        <ele>42.4354</ele>
        <time>2013-05-22T20:39:16Z</time>
      </trkpt>
      <trkpt lat="59.9157583" lon="17.7503998">
        <ele>42.916</ele>
        <time>2013-05-22T20:39:17Z</time>
      </trkpt>
      <trkpt lat="59.9157967" lon="17.7505185">
        <ele>42.916</ele>
        <time>2013-05-22T20:39:18Z</time>
      </trkpt>
      <trkpt lat="59.9158355" lon="17.7506386">
        <ele>42.916</ele>
        <time>2013-05-22T20:39:19Z</time>
      </trkpt>
      <trkpt lat="59.9158742" lon="17.7507598">
        <ele>42.916</ele>
        <time>2013-05-22T20:39:20Z</time>
      </trkpt>
      <trkpt lat="59.9159111" lon="17.7508825">
        <ele>42.916</ele>
        <time>2013-05-22T20:39:21Z</time>
      </trkpt>
      <trkpt lat="59.915949" lon="17.7510057">
        <ele>42.916</ele>
        <time>2013-05-22T20:39:22Z</time>
      </trkpt>
      <trkpt lat="59.9159885" lon="17.7511287">
        <ele>42.916</ele>
        <time>2013-05-22T20:39:23Z</time>
      </trkpt>
      <trkpt lat="59.9160272" lon="17.7512521">
        <ele>42.916</ele>
        <time>2013-05-22T20:39:24Z</time>
      </trkpt>
      <trkpt lat="59.9160652" lon="17.7513759">
        <ele>42.916</ele>
        <time>2013-05-22T20:39:25Z</time>
      </trkpt>
      <trkpt lat="59.916103" lon="17.7515002">
        <ele>42.916</ele>
        <time>2013-05-22T20:39:26Z</time>
      </trkpt>
      <trkpt lat="59.9161419" lon="17.7516242">
        <ele>42.4354</ele>
        <time>2013-05-22T20:39:27Z</time>
      </trkpt>
      <trkpt lat="59.9161802" lon="17.7517483">
        <ele>42.4354</ele>
        <time>2013-05-22T20:39:28Z</time>
      </trkpt>
      <trkpt lat="59.9162184" lon="17.7518729">
        <ele>42.4354</ele>
        <time>2013-05-22T20:39:29Z</time>
      </trkpt>
      <trkpt lat="59.9162567" lon="17.7519953">
        <ele>42.4354</ele>
        <time>2013-05-22T20:39:30Z</time>
      </trkpt>
      <trkpt lat="59.9162948" lon="17.7521165">
        <ele>42.4354</ele>
        <time>2013-05-22T20:39:31Z</time>
      </trkpt>
      <trkpt lat="59.9163345" lon="17.7522357">
        <ele>42.916</ele>
        <time>2013-05-22T20:39:32Z</time>
      </trkpt>
      <trkpt lat="59.9163734" lon="17.7523536">
        <ele>43.3966</ele>
        <time>2013-05-22T20:39:33Z</time>
      </trkpt>
      <trkpt lat="59.9164118" lon="17.7524699">
        <ele>43.3966</ele>
        <time>2013-05-22T20:39:34Z</time>
      </trkpt>
      <trkpt lat="59.9164479" lon="17.752586">
        <ele>43.8773</ele>
        <time>2013-05-22T20:39:35Z</time>
      </trkpt>
      <trkpt lat="59.9164826" lon="17.7527008">
        <ele>43.8773</ele>
        <time>2013-05-22T20:39:36Z</time>
      </trkpt>
      <trkpt lat="59.9165179" lon="17.7528143">
        <ele>43.8773</ele>
        <time>2013-05-22T20:39:37Z</time>
      </trkpt>
      <trkpt lat="59.9165536" lon="17.752928">
        <ele>44.358</ele>
        <time>2013-05-22T20:39:38Z</time>
      </trkpt>
      <trkpt lat="59.9165887" lon="17.7530401">
        <ele>44.358</ele>
        <time>2013-05-22T20:39:39Z</time>
      </trkpt>
      <trkpt lat="59.9166236" lon="17.753152">
        <ele>44.8386</ele>
        <time>2013-05-22T20:39:40Z</time>
      </trkpt>
      <trkpt lat="59.9166591" lon="17.7532637">
        <ele>44.8386</ele>
        <time>2013-05-22T20:39:41Z</time>
      </trkpt>
      <trkpt lat="59.9166951" lon="17.7533742">
        <ele>44.8386</ele>
        <time>2013-05-22T20:39:42Z</time>
      </trkpt>
      <trkpt lat="59.9167302" lon="17.7534844">
        <ele>44.8386</ele>
        <time>2013-05-22T20:39:43Z</time>
      </trkpt>
      <trkpt lat="59.9167645" lon="17.7535954">
        <ele>44.8386</ele>
        <time>2013-05-22T20:39:44Z</time>
      </trkpt>
      <trkpt lat="59.9167987" lon="17.7537058">
        <ele>44.8386</ele>
        <time>2013-05-22T20:39:45Z</time>
      </trkpt>
      <trkpt lat="59.9168334" lon="17.7538156">
        <ele>44.8386</ele>
        <time>2013-05-22T20:39:46Z</time>
      </trkpt>
      <trkpt lat="59.9168675" lon="17.7539253">
        <ele>44.8386</ele>
        <time>2013-05-22T20:39:47Z</time>
      </trkpt>
      <trkpt lat="59.9169023" lon="17.7540332">
        <ele>44.358</ele>
        <time>2013-05-22T20:39:48Z</time>
      </trkpt>
      <trkpt lat="59.9169384" lon="17.7541391">
        <ele>44.358</ele>
        <time>2013-05-22T20:39:49Z</time>
      </trkpt>
      <trkpt lat="59.9169748" lon="17.7542444">
        <ele>44.358</ele>
        <time>2013-05-22T20:39:50Z</time>
      </trkpt>
      <trkpt lat="59.9170111" lon="17.7543497">
        <ele>44.358</ele>
        <time>2013-05-22T20:39:51Z</time>
      </trkpt>
      <trkpt lat="59.9170468" lon="17.7544549">
        <ele>44.358</ele>
        <time>2013-05-22T20:39:52Z</time>
      </trkpt>
      <trkpt lat="59.9170824" lon="17.7545595">
        <ele>43.8773</ele>
        <time>2013-05-22T20:39:53Z</time>
      </trkpt>
      <trkpt lat="59.9171188" lon="17.7546616">
        <ele>43.8773</ele>
        <time>2013-05-22T20:39:54Z</time>
      </trkpt>
      <trkpt lat="59.9171561" lon="17.754762">
        <ele>43.8773</ele>
        <time>2013-05-22T20:39:55Z</time>
      </trkpt>
      <trkpt lat="59.9171938" lon="17.7548624">
        <ele>43.8773</ele>
        <time>2013-05-22T20:39:56Z</time>
      </trkpt>
      <trkpt lat="59.9172312" lon="17.7549626">
        <ele>43.8773</ele>
        <time>2013-05-22T20:39:57Z</time>
      </trkpt>
      <trkpt lat="59.917269" lon="17.755063">
        <ele>43.3966</ele>
        <time>2013-05-22T20:39:58Z</time>
      </trkpt>
      <trkpt lat="59.9173069" lon="17.7551639">
        <ele>43.3966</ele>
        <time>2013-05-22T20:39:59Z</time>
      </trkpt>
      <trkpt lat="59.9173461" lon="17.755265">
        <ele>43.3966</ele>
        <time>2013-05-22T20:40:00Z</time>
      </trkpt>
      <trkpt lat="59.917386" lon="17.7553654">
        <ele>43.3966</ele>
        <time>2013-05-22T20:40:01Z</time>
      </trkpt>
      <trkpt lat="59.9174265" lon="17.755466">
        <ele>43.8773</ele>
        <time>2013-05-22T20:40:02Z</time>
      </trkpt>
      <trkpt lat="59.9174673" lon="17.7555671">
        <ele>43.3966</ele>
        <time>2013-05-22T20:40:03Z</time>
      </trkpt>
      <trkpt lat="59.9175083" lon="17.7556684">
        <ele>43.8773</ele>
        <time>2013-05-22T20:40:04Z</time>
      </trkpt>
      <trkpt lat="59.9175503" lon="17.7557689">
        <ele>43.8773</ele>
        <time>2013-05-22T20:40:05Z</time>
      </trkpt>
      <trkpt lat="59.9175927" lon="17.7558693">
        <ele>43.8773</ele>
        <time>2013-05-22T20:40:06Z</time>
      </trkpt>
      <trkpt lat="59.9176353" lon="17.7559695">
        <ele>43.8773</ele>
        <time>2013-05-22T20:40:07Z</time>
      </trkpt>
      <trkpt lat="59.9176788" lon="17.7560705">
        <ele>43.8773</ele>
        <time>2013-05-22T20:40:08Z</time>
      </trkpt>
      <trkpt lat="59.9177223" lon="17.7561701">
        <ele>43.8773</ele>
        <time>2013-05-22T20:40:09Z</time>
      </trkpt>
      <trkpt lat="59.917767" lon="17.7562669">
        <ele>44.358</ele>
        <time>2013-05-22T20:40:10Z</time>
      </trkpt>
      <trkpt lat="59.9178122" lon="17.7563627">
        <ele>44.358</ele>
        <time>2013-05-22T20:40:11Z</time>
      </trkpt>
      <trkpt lat="59.917857" lon="17.7564588">
        <ele>44.358</ele>
        <time>2013-05-22T20:40:12Z</time>
      </trkpt>
      <trkpt lat="59.9179021" lon="17.7565543">
        <ele>44.358</ele>
        <time>2013-05-22T20:40:13Z</time>
      </trkpt>
      <trkpt lat="59.917947" lon="17.7566512">
        <ele>44.358</ele>
        <time>2013-05-22T20:40:14Z</time>
      </trkpt>
      <trkpt lat="59.9179923" lon="17.7567481">
        <ele>44.358</ele>
        <time>2013-05-22T20:40:15Z</time>
      </trkpt>
      <trkpt lat="59.9180396" lon="17.7568443">
        <ele>43.8773</ele>
        <time>2013-05-22T20:40:16Z</time>
      </trkpt>
      <trkpt lat="59.9180878" lon="17.7569417">
        <ele>43.8773</ele>
        <time>2013-05-22T20:40:17Z</time>
      </trkpt>
      <trkpt lat="59.9181368" lon="17.757039">
        <ele>44.358</ele>
        <time>2013-05-22T20:40:18Z</time>
      </trkpt>
      <trkpt lat="59.9181864" lon="17.7571364">
        <ele>44.358</ele>
        <time>2013-05-22T20:40:19Z</time>
      </trkpt>
      <trkpt lat="59.9182356" lon="17.7572348">
        <ele>44.358</ele>
        <time>2013-05-22T20:40:20Z</time>
      </trkpt>
      <trkpt lat="59.9182842" lon="17.7573319">
        <ele>44.358</ele>
        <time>2013-05-22T20:40:21Z</time>
      </trkpt>
      <trkpt lat="59.9183329" lon="17.7574277">
        <ele>44.358</ele>
        <time>2013-05-22T20:40:22Z</time>
      </trkpt>
      <trkpt lat="59.9183823" lon="17.7575224">
        <ele>44.358</ele>
        <time>2013-05-22T20:40:23Z</time>
      </trkpt>
      <trkpt lat="59.9184325" lon="17.7576162">
        <ele>44.358</ele>
        <time>2013-05-22T20:40:24Z</time>
      </trkpt>
      <trkpt lat="59.9184833" lon="17.7577094">
        <ele>44.358</ele>
        <time>2013-05-22T20:40:25Z</time>
      </trkpt>
      <trkpt lat="59.9185344" lon="17.7578021">
        <ele>44.358</ele>
        <time>2013-05-22T20:40:26Z</time>
      </trkpt>
      <trkpt lat="59.9185853" lon="17.7578949">
        <ele>44.8386</ele>
        <time>2013-05-22T20:40:27Z</time>
      </trkpt>
      <trkpt lat="59.9186362" lon="17.7579878">
        <ele>44.8386</ele>
        <time>2013-05-22T20:40:28Z</time>
      </trkpt>
      <trkpt lat="59.9186869" lon="17.7580787">
        <ele>44.8386</ele>
        <time>2013-05-22T20:40:29Z</time>
      </trkpt>
      <trkpt lat="59.9187377" lon="17.758167">
        <ele>44.8386</ele>
        <time>2013-05-22T20:40:30Z</time>
      </trkpt>
      <trkpt lat="59.9187892" lon="17.7582543">
        <ele>44.8386</ele>
        <time>2013-05-22T20:40:31Z</time>
      </trkpt>
      <trkpt lat="59.9188413" lon="17.7583409">
        <ele>44.8386</ele>
        <time>2013-05-22T20:40:32Z</time>
      </trkpt>
      <trkpt lat="59.9188935" lon="17.758428">
        <ele>44.8386</ele>
        <time>2013-05-22T20:40:33Z</time>
      </trkpt>
      <trkpt lat="59.9189458" lon="17.7585154">
        <ele>45.3192</ele>
        <time>2013-05-22T20:40:34Z</time>
      </trkpt>
      <trkpt lat="59.9189985" lon="17.758602">
        <ele>45.3192</ele>
        <time>2013-05-22T20:40:35Z</time>
      </trkpt>
      <trkpt lat="59.9190513" lon="17.7586875">
        <ele>45.3192</ele>
        <time>2013-05-22T20:40:36Z</time>
      </trkpt>
      <trkpt lat="59.9191033" lon="17.7587729">
        <ele>45.3192</ele>
        <time>2013-05-22T20:40:37Z</time>
      </trkpt>
      <trkpt lat="59.9191546" lon="17.7588587">
        <ele>45.3192</ele>
        <time>2013-05-22T20:40:38Z</time>
      </trkpt>
      <trkpt lat="59.9192054" lon="17.7589455">
        <ele>45.3192</ele>
        <time>2013-05-22T20:40:39Z</time>
      </trkpt>
      <trkpt lat="59.919257" lon="17.7590326">
        <ele>45.3192</ele>
        <time>2013-05-22T20:40:40Z</time>
      </trkpt>
      <trkpt lat="59.91931" lon="17.75912">
        <ele>44.8386</ele>
        <time>2013-05-22T20:40:41Z</time>
      </trkpt>
      <trkpt lat="59.9193642" lon="17.759209">
        <ele>44.8386</ele>
        <time>2013-05-22T20:40:42Z</time>
      </trkpt>
      <trkpt lat="59.9194193" lon="17.7592987">
        <ele>44.8386</ele>
        <time>2013-05-22T20:40:43Z</time>
      </trkpt>
      <trkpt lat="59.9194753" lon="17.7593878">
        <ele>44.358</ele>
        <time>2013-05-22T20:40:44Z</time>
      </trkpt>
      <trkpt lat="59.9195332" lon="17.7594775">
        <ele>44.358</ele>
        <time>2013-05-22T20:40:45Z</time>
      </trkpt>
      <trkpt lat="59.9195902" lon="17.75957">
        <ele>44.358</ele>
        <time>2013-05-22T20:40:46Z</time>
      </trkpt>
      <trkpt lat="59.9196466" lon="17.7596637">
        <ele>44.358</ele>
        <time>2013-05-22T20:40:47Z</time>
      </trkpt>
      <trkpt lat="59.9197028" lon="17.7597582">
        <ele>43.8773</ele>
        <time>2013-05-22T20:40:48Z</time>
      </trkpt>
      <trkpt lat="59.9197589" lon="17.7598545">
        <ele>43.8773</ele>
        <time>2013-05-22T20:40:49Z</time>
      </trkpt>
      <trkpt lat="59.919814" lon="17.7599499">
        <ele>43.3966</ele>
        <time>2013-05-22T20:40:50Z</time>
      </trkpt>
      <trkpt lat="59.9198705" lon="17.7600436">
        <ele>43.3966</ele>
        <time>2013-05-22T20:40:51Z</time>
      </trkpt>
      <trkpt lat="59.9199271" lon="17.7601354">
        <ele>43.3966</ele>
        <time>2013-05-22T20:40:52Z</time>
      </trkpt>
      <trkpt lat="59.9199834" lon="17.7602261">
        <ele>43.3966</ele>
        <time>2013-05-22T20:40:53Z</time>
      </trkpt>
      <trkpt lat="59.9200392" lon="17.7603171">
        <ele>43.3966</ele>
        <time>2013-05-22T20:40:54Z</time>
      </trkpt>
      <trkpt lat="59.9200946" lon="17.7604099">
        <ele>43.3966</ele>
        <time>2013-05-22T20:40:55Z</time>
      </trkpt>
      <trkpt lat="59.920149" lon="17.7605032">
        <ele>43.3966</ele>
        <time>2013-05-22T20:40:56Z</time>
      </trkpt>
      <trkpt lat="59.9202034" lon="17.7605958">
        <ele>43.3966</ele>
        <time>2013-05-22T20:40:57Z</time>
      </trkpt>
      <trkpt lat="59.9202578" lon="17.7606894">
        <ele>43.3966</ele>
        <time>2013-05-22T20:40:58Z</time>
      </trkpt>
      <trkpt lat="59.9203111" lon="17.7607845">
        <ele>43.3966</ele>
        <time>2013-05-22T20:40:59Z</time>
      </trkpt>
      <trkpt lat="59.9203635" lon="17.7608806">
        <ele>43.3966</ele>
        <time>2013-05-22T20:41:00Z</time>
      </trkpt>
      <trkpt lat="59.9204154" lon="17.7609777">
        <ele>43.3966</ele>
        <time>2013-05-22T20:41:01Z</time>
      </trkpt>
      <trkpt lat="59.9204692" lon="17.7610755">
        <ele>43.8773</ele>
        <time>2013-05-22T20:41:02Z</time>
      </trkpt>
      <trkpt lat="59.9205231" lon="17.7611733">
        <ele>44.358</ele>
        <time>2013-05-22T20:41:03Z</time>
      </trkpt>
      <trkpt lat="59.9205769" lon="17.7612704">
        <ele>44.358</ele>
        <time>2013-05-22T20:41:04Z</time>
      </trkpt>
      <trkpt lat="59.92063" lon="17.7613688">
        <ele>44.8386</ele>
        <time>2013-05-22T20:41:05Z</time>
      </trkpt>
      <trkpt lat="59.9206828" lon="17.7614692">
        <ele>44.8386</ele>
        <time>2013-05-22T20:41:06Z</time>
      </trkpt>
      <trkpt lat="59.9207357" lon="17.7615723">
        <ele>44.8386</ele>
        <time>2013-05-22T20:41:07Z</time>
      </trkpt>
      <trkpt lat="59.9207874" lon="17.7616775">
        <ele>44.8386</ele>
        <time>2013-05-22T20:41:08Z</time>
      </trkpt>
      <trkpt lat="59.920837" lon="17.7617816">
        <ele>44.8386</ele>
        <time>2013-05-22T20:41:09Z</time>
      </trkpt>
      <trkpt lat="59.9208868" lon="17.7618822">
        <ele>44.8386</ele>
        <time>2013-05-22T20:41:10Z</time>
      </trkpt>
      <trkpt lat="59.9209356" lon="17.7619836">
        <ele>44.8386</ele>
        <time>2013-05-22T20:41:11Z</time>
      </trkpt>
      <trkpt lat="59.920984" lon="17.7620867">
        <ele>44.8386</ele>
        <time>2013-05-22T20:41:12Z</time>
      </trkpt>
      <trkpt lat="59.9210322" lon="17.7621911">
        <ele>44.358</ele>
        <time>2013-05-22T20:41:13Z</time>
      </trkpt>
      <trkpt lat="59.9210802" lon="17.7622969">
        <ele>44.358</ele>
        <time>2013-05-22T20:41:14Z</time>
      </trkpt>
      <trkpt lat="59.9211296" lon="17.7624036">
        <ele>43.8773</ele>
        <time>2013-05-22T20:41:15Z</time>
      </trkpt>
      <trkpt lat="59.92118" lon="17.7625113">
        <ele>43.8773</ele>
        <time>2013-05-22T20:41:16Z</time>
      </trkpt>
      <trkpt lat="59.9212313" lon="17.7626195">
        <ele>43.8773</ele>
        <time>2013-05-22T20:41:17Z</time>
      </trkpt>
      <trkpt lat="59.9212832" lon="17.7627286">
        <ele>43.8773</ele>
        <time>2013-05-22T20:41:18Z</time>
      </trkpt>
      <trkpt lat="59.9213339" lon="17.7628404">
        <ele>43.3966</ele>
        <time>2013-05-22T20:41:19Z</time>
      </trkpt>
      <trkpt lat="59.9213847" lon="17.7629538">
        <ele>43.3966</ele>
        <time>2013-05-22T20:41:20Z</time>
      </trkpt>
      <trkpt lat="59.9214374" lon="17.7630678">
        <ele>43.3966</ele>
        <time>2013-05-22T20:41:21Z</time>
      </trkpt>
      <trkpt lat="59.9214908" lon="17.7631834">
        <ele>42.916</ele>
        <time>2013-05-22T20:41:22Z</time>
      </trkpt>
      <trkpt lat="59.9215438" lon="17.7633015">
        <ele>42.916</ele>
        <time>2013-05-22T20:41:23Z</time>
      </trkpt>
      <trkpt lat="59.921597" lon="17.7634253">
        <ele>42.916</ele>
        <time>2013-05-22T20:41:24Z</time>
      </trkpt>
      <trkpt lat="59.9216508" lon="17.7635478">
        <ele>42.916</ele>
        <time>2013-05-22T20:41:25Z</time>
      </trkpt>
      <trkpt lat="59.9217048" lon="17.7636707">
        <ele>42.4354</ele>
        <time>2013-05-22T20:41:26Z</time>
      </trkpt>
      <trkpt lat="59.9217597" lon="17.7637925">
        <ele>42.4354</ele>
        <time>2013-05-22T20:41:27Z</time>
      </trkpt>
      <trkpt lat="59.9218136" lon="17.7639156">
        <ele>41.9547</ele>
        <time>2013-05-22T20:41:28Z</time>
      </trkpt>
      <trkpt lat="59.9218663" lon="17.7640419">
        <ele>41.9547</ele>
        <time>2013-05-22T20:41:29Z</time>
      </trkpt>
      <trkpt lat="59.9219185" lon="17.7641695">
        <ele>41.9547</ele>
        <time>2013-05-22T20:41:30Z</time>
      </trkpt>
      <trkpt lat="59.9219695" lon="17.7642976">
        <ele>41.474</ele>
        <time>2013-05-22T20:41:31Z</time>
      </trkpt>
      <trkpt lat="59.9220193" lon="17.7644264">
        <ele>41.474</ele>
        <time>2013-05-22T20:41:32Z</time>
      </trkpt>
      <trkpt lat="59.9220683" lon="17.7645571">
        <ele>41.474</ele>
        <time>2013-05-22T20:41:33Z</time>
      </trkpt>
      <trkpt lat="59.9221169" lon="17.76469">
        <ele>40.9934</ele>
        <time>2013-05-22T20:41:34Z</time>
      </trkpt>
      <trkpt lat="59.9221653" lon="17.7648217">
        <ele>40.9934</ele>
        <time>2013-05-22T20:41:35Z</time>
      </trkpt>
      <trkpt lat="59.922213" lon="17.7649507">
        <ele>40.5128</ele>
        <time>2013-05-22T20:41:36Z</time>
      </trkpt>
      <trkpt lat="59.9222642" lon="17.7650875">
        <ele>40.5128</ele>
        <time>2013-05-22T20:41:37Z</time>
      </trkpt>
      <trkpt lat="59.9223143" lon="17.7652178">
        <ele>40.0321</ele>
        <time>2013-05-22T20:41:38Z</time>
      </trkpt>
      <trkpt lat="59.9223637" lon="17.7653505">
        <ele>40.0321</ele>
        <time>2013-05-22T20:41:39Z</time>
      </trkpt>
      <trkpt lat="59.9224127" lon="17.7654877">
        <ele>39.5513</ele>
        <time>2013-05-22T20:41:40Z</time>
      </trkpt>
      <trkpt lat="59.9224595" lon="17.7656221">
        <ele>39.5513</ele>
        <time>2013-05-22T20:41:41Z</time>
      </trkpt>
      <trkpt lat="59.9225072" lon="17.7657589">
        <ele>39.0707</ele>
        <time>2013-05-22T20:41:42Z</time>
      </trkpt>
      <trkpt lat="59.9225559" lon="17.7659">
        <ele>39.0707</ele>
        <time>2013-05-22T20:41:43Z</time>
      </trkpt>
      <trkpt lat="59.9226038" lon="17.7660391">
        <ele>39.0707</ele>
        <time>2013-05-22T20:41:44Z</time>
      </trkpt>
      <trkpt lat="59.9226505" lon="17.7661785">
        <ele>39.0707</ele>
        <time>2013-05-22T20:41:45Z</time>
      </trkpt>
      <trkpt lat="59.9226968" lon="17.7663205">
        <ele>38.5901</ele>
        <time>2013-05-22T20:41:46Z</time>
      </trkpt>
      <trkpt lat="59.9227427" lon="17.7664591">
        <ele>38.5901</ele>
        <time>2013-05-22T20:41:47Z</time>
      </trkpt>
      <trkpt lat="59.9227875" lon="17.7666022">
        <ele>38.5901</ele>
        <time>2013-05-22T20:41:48Z</time>
      </trkpt>
      <trkpt lat="59.922832" lon="17.7667493">
        <ele>38.5901</ele>
        <time>2013-05-22T20:41:49Z</time>
      </trkpt>
      <trkpt lat="59.922874" lon="17.7668838">
        <ele>38.1094</ele>
        <time>2013-05-22T20:41:50Z</time>
      </trkpt>
      <trkpt lat="59.9229164" lon="17.7670195">
        <ele>38.1094</ele>
        <time>2013-05-22T20:41:51Z</time>
      </trkpt>
      <trkpt lat="59.9229582" lon="17.7671598">
        <ele>38.1094</ele>
        <time>2013-05-22T20:41:52Z</time>
      </trkpt>
      <trkpt lat="59.9229989" lon="17.7673054">
        <ele>38.1094</ele>
        <time>2013-05-22T20:41:53Z</time>
      </trkpt>
      <trkpt lat="59.9230397" lon="17.7674485">
        <ele>38.1094</ele>
        <time>2013-05-22T20:41:54Z</time>
      </trkpt>
      <trkpt lat="59.9230806" lon="17.7675883">
        <ele>38.5901</ele>
        <time>2013-05-22T20:41:55Z</time>
      </trkpt>
      <trkpt lat="59.9231194" lon="17.7677271">
        <ele>38.5901</ele>
        <time>2013-05-22T20:41:56Z</time>
      </trkpt>
      <trkpt lat="59.9231557" lon="17.7678671">
        <ele>38.5901</ele>
        <time>2013-05-22T20:41:57Z</time>
      </trkpt>
      <trkpt lat="59.923191" lon="17.7680034">
        <ele>39.0707</ele>
        <time>2013-05-22T20:41:58Z</time>
      </trkpt>
      <trkpt lat="59.9232273" lon="17.7681387">
        <ele>39.0707</ele>
        <time>2013-05-22T20:41:59Z</time>
      </trkpt>
      <trkpt lat="59.9232644" lon="17.7682749">
        <ele>39.0707</ele>
        <time>2013-05-22T20:42:00Z</time>
      </trkpt>
      <trkpt lat="59.9233013" lon="17.7684112">
        <ele>39.0707</ele>
        <time>2013-05-22T20:42:01Z</time>
      </trkpt>
      <trkpt lat="59.923338" lon="17.7685483">
        <ele>39.5513</ele>
        <time>2013-05-22T20:42:02Z</time>
      </trkpt>
      <trkpt lat="59.9233738" lon="17.7686849">
        <ele>39.5513</ele>
        <time>2013-05-22T20:42:03Z</time>
      </trkpt>
      <trkpt lat="59.9234078" lon="17.768825">
        <ele>39.5513</ele>
        <time>2013-05-22T20:42:04Z</time>
      </trkpt>
      <trkpt lat="59.923443" lon="17.7689648">
        <ele>39.5513</ele>
        <time>2013-05-22T20:42:05Z</time>
      </trkpt>
      <trkpt lat="59.9234775" lon="17.7691056">
        <ele>39.5513</ele>
        <time>2013-05-22T20:42:06Z</time>
      </trkpt>
      <trkpt lat="59.9235121" lon="17.7692407">
        <ele>39.0707</ele>
        <time>2013-05-22T20:42:07Z</time>
      </trkpt>
      <trkpt lat="59.9235472" lon="17.7693782">
        <ele>39.0707</ele>
        <time>2013-05-22T20:42:08Z</time>
      </trkpt>
      <trkpt lat="59.9235816" lon="17.7695165">
        <ele>39.0707</ele>
        <time>2013-05-22T20:42:09Z</time>
      </trkpt>
      <trkpt lat="59.9236148" lon="17.7696579">
        <ele>39.0707</ele>
        <time>2013-05-22T20:42:10Z</time>
      </trkpt>
      <trkpt lat="59.9236487" lon="17.7697958">
        <ele>38.5901</ele>
        <time>2013-05-22T20:42:11Z</time>
      </trkpt>
      <trkpt lat="59.9236824" lon="17.7699401">
        <ele>38.5901</ele>
        <time>2013-05-22T20:42:12Z</time>
      </trkpt>
      <trkpt lat="59.9237151" lon="17.7700852">
        <ele>38.1094</ele>
        <time>2013-05-22T20:42:13Z</time>
      </trkpt>
      <trkpt lat="59.9237463" lon="17.7702303">
        <ele>38.1094</ele>
        <time>2013-05-22T20:42:14Z</time>
      </trkpt>
      <trkpt lat="59.923778" lon="17.7703759">
        <ele>38.1094</ele>
        <time>2013-05-22T20:42:15Z</time>
      </trkpt>
      <trkpt lat="59.92381" lon="17.7705234">
        <ele>37.6287</ele>
        <time>2013-05-22T20:42:16Z</time>
      </trkpt>
      <trkpt lat="59.9238416" lon="17.7706742">
        <ele>37.6287</ele>
        <time>2013-05-22T20:42:17Z</time>
      </trkpt>
      <trkpt lat="59.923873" lon="17.7708294">
        <ele>37.6287</ele>
        <time>2013-05-22T20:42:18Z</time>
      </trkpt>
      <trkpt lat="59.9239058" lon="17.7709828">
        <ele>37.6287</ele>
        <time>2013-05-22T20:42:19Z</time>
      </trkpt>
      <trkpt lat="59.9239377" lon="17.7711342">
        <ele>37.1481</ele>
        <time>2013-05-22T20:42:20Z</time>
      </trkpt>
      <trkpt lat="59.9239681" lon="17.7712861">
        <ele>36.6675</ele>
        <time>2013-05-22T20:42:21Z</time>
      </trkpt>
      <trkpt lat="59.9239984" lon="17.7714405">
        <ele>36.1868</ele>
        <time>2013-05-22T20:42:22Z</time>
      </trkpt>
      <trkpt lat="59.9240281" lon="17.7715979">
        <ele>35.7061</ele>
        <time>2013-05-22T20:42:23Z</time>
      </trkpt>
      <trkpt lat="59.9240581" lon="17.7717596">
        <ele>35.7061</ele>
        <time>2013-05-22T20:42:24Z</time>
      </trkpt>
      <trkpt lat="59.9240898" lon="17.7719226">
        <ele>34.7449</ele>
        <time>2013-05-22T20:42:25Z</time>
      </trkpt>
      <trkpt lat="59.9241226" lon="17.7720864">
        <ele>34.2642</ele>
        <time>2013-05-22T20:42:26Z</time>
      </trkpt>
      <trkpt lat="59.9241525" lon="17.7722622">
        <ele>34.2642</ele>
        <time>2013-05-22T20:42:27Z</time>
      </trkpt>
      <trkpt lat="59.9241824" lon="17.772437">
        <ele>33.7834</ele>
        <time>2013-05-22T20:42:28Z</time>
      </trkpt>
      <trkpt lat="59.9242121" lon="17.772611">
        <ele>33.3029</ele>
        <time>2013-05-22T20:42:29Z</time>
      </trkpt>
      <trkpt lat="59.9242405" lon="17.7727916">
        <ele>33.3029</ele>
        <time>2013-05-22T20:42:30Z</time>
      </trkpt>
      <trkpt lat="59.924269" lon="17.7729738">
        <ele>33.3029</ele>
        <time>2013-05-22T20:42:31Z</time>
      </trkpt>
      <trkpt lat="59.9242989" lon="17.7731534">
        <ele>32.8223</ele>
        <time>2013-05-22T20:42:32Z</time>
      </trkpt>
      <trkpt lat="59.9243286" lon="17.7733366">
        <ele>32.3416</ele>
        <time>2013-05-22T20:42:33Z</time>
      </trkpt>
      <trkpt lat="59.924357" lon="17.7735191">
        <ele>31.8607</ele>
        <time>2013-05-22T20:42:34Z</time>
      </trkpt>
      <trkpt lat="59.9243773" lon="17.7736971">
        <ele>31.3801</ele>
        <time>2013-05-22T20:42:35Z</time>
      </trkpt>
      <trkpt lat="59.9244001" lon="17.7738738">
        <ele>30.4188</ele>
        <time>2013-05-22T20:42:36Z</time>
      </trkpt>
      <trkpt lat="59.9244254" lon="17.7740501">
        <ele>30.4188</ele>
        <time>2013-05-22T20:42:37Z</time>
      </trkpt>
      <trkpt lat="59.9244528" lon="17.7742361">
        <ele>30.4188</ele>
        <time>2013-05-22T20:42:38Z</time>
      </trkpt>
      <trkpt lat="59.9244777" lon="17.774422">
        <ele>30.8995</ele>
        <time>2013-05-22T20:42:39Z</time>
      </trkpt>
      <trkpt lat="59.9245" lon="17.7746063">
        <ele>30.8995</ele>
        <time>2013-05-22T20:42:40Z</time>
      </trkpt>
      <trkpt lat="59.9245207" lon="17.7747891">
        <ele>31.3801</ele>
        <time>2013-05-22T20:42:41Z</time>
      </trkpt>
      <trkpt lat="59.9245393" lon="17.7749684">
        <ele>31.3801</ele>
        <time>2013-05-22T20:42:42Z</time>
      </trkpt>
      <trkpt lat="59.924558" lon="17.7751455">
        <ele>30.8995</ele>
        <time>2013-05-22T20:42:43Z</time>
      </trkpt>
      <trkpt lat="59.9245767" lon="17.7753203">
        <ele>30.8995</ele>
        <time>2013-05-22T20:42:44Z</time>
      </trkpt>
      <trkpt lat="59.9245952" lon="17.775491">
        <ele>30.8995</ele>
        <time>2013-05-22T20:42:45Z</time>
      </trkpt>
      <trkpt lat="59.9246148" lon="17.7756574">
        <ele>30.8995</ele>
        <time>2013-05-22T20:42:46Z</time>
      </trkpt>
      <trkpt lat="59.9246331" lon="17.7758231">
        <ele>30.4188</ele>
        <time>2013-05-22T20:42:47Z</time>
      </trkpt>
      <trkpt lat="59.9246502" lon="17.7759883">
        <ele>30.4188</ele>
        <time>2013-05-22T20:42:48Z</time>
      </trkpt>
      <trkpt lat="59.9246667" lon="17.7761561">
        <ele>30.4188</ele>
        <time>2013-05-22T20:42:49Z</time>
      </trkpt>
      <trkpt lat="59.9246817" lon="17.7763224">
        <ele>30.4188</ele>
        <time>2013-05-22T20:42:50Z</time>
      </trkpt>
      <trkpt lat="59.9246964" lon="17.7764866">
        <ele>30.4188</ele>
        <time>2013-05-22T20:42:51Z</time>
      </trkpt>
      <trkpt lat="59.9247112" lon="17.7766479">
        <ele>30.4188</ele>
        <time>2013-05-22T20:42:52Z</time>
      </trkpt>
      <trkpt lat="59.9247256" lon="17.7768062">
        <ele>30.8995</ele>
        <time>2013-05-22T20:42:53Z</time>
      </trkpt>
      <trkpt lat="59.9247397" lon="17.7769623">
        <ele>30.8995</ele>
        <time>2013-05-22T20:42:54Z</time>
      </trkpt>
      <trkpt lat="59.9247533" lon="17.7771179">
        <ele>30.8995</ele>
        <time>2013-05-22T20:42:55Z</time>
      </trkpt>
      <trkpt lat="59.9247666" lon="17.7772736">
        <ele>30.8995</ele>
        <time>2013-05-22T20:42:56Z</time>
      </trkpt>
      <trkpt lat="59.9247802" lon="17.7774302">
        <ele>30.8995</ele>
        <time>2013-05-22T20:42:57Z</time>
      </trkpt>
      <trkpt lat="59.9247942" lon="17.777586">
        <ele>30.8995</ele>
        <time>2013-05-22T20:42:58Z</time>
      </trkpt>
      <trkpt lat="59.9248077" lon="17.7777386">
        <ele>30.4188</ele>
        <time>2013-05-22T20:42:59Z</time>
      </trkpt>
      <trkpt lat="59.9248199" lon="17.7778868">
        <ele>30.8995</ele>
        <time>2013-05-22T20:43:00Z</time>
      </trkpt>
      <trkpt lat="59.9248318" lon="17.7780314">
        <ele>30.8995</ele>
        <time>2013-05-22T20:43:01Z</time>
      </trkpt>
      <trkpt lat="59.9248429" lon="17.7781729">
        <ele>30.8995</ele>
        <time>2013-05-22T20:43:02Z</time>
      </trkpt>
      <trkpt lat="59.9248527" lon="17.7783107">
        <ele>30.8995</ele>
        <time>2013-05-22T20:43:03Z</time>
      </trkpt>
      <trkpt lat="59.9248609" lon="17.7784457">
        <ele>30.8995</ele>
        <time>2013-05-22T20:43:04Z</time>
      </trkpt>
      <trkpt lat="59.9248688" lon="17.7785783">
        <ele>31.3801</ele>
        <time>2013-05-22T20:43:05Z</time>
      </trkpt>
      <trkpt lat="59.9248771" lon="17.7787096">
        <ele>31.3801</ele>
        <time>2013-05-22T20:43:06Z</time>
      </trkpt>
      <trkpt lat="59.9248822" lon="17.7788392">
        <ele>31.3801</ele>
        <time>2013-05-22T20:43:07Z</time>
      </trkpt>
      <trkpt lat="59.9248874" lon="17.7789706">
        <ele>30.8995</ele>
        <time>2013-05-22T20:43:08Z</time>
      </trkpt>
      <trkpt lat="59.9248929" lon="17.779102">
        <ele>30.8995</ele>
        <time>2013-05-22T20:43:09Z</time>
      </trkpt>
      <trkpt lat="59.9248994" lon="17.7792343">
        <ele>30.8995</ele>
        <time>2013-05-22T20:43:10Z</time>
      </trkpt>
      <trkpt lat="59.9249071" lon="17.779368">
        <ele>30.8995</ele>
        <time>2013-05-22T20:43:11Z</time>
      </trkpt>
      <trkpt lat="59.9249191" lon="17.7795002">
        <ele>31.3801</ele>
        <time>2013-05-22T20:43:12Z</time>
      </trkpt>
      <trkpt lat="59.9249278" lon="17.7796357">
        <ele>31.3801</ele>
        <time>2013-05-22T20:43:13Z</time>
      </trkpt>
      <trkpt lat="59.9249376" lon="17.7797706">
        <ele>31.3801</ele>
        <time>2013-05-22T20:43:14Z</time>
      </trkpt>
      <trkpt lat="59.9249471" lon="17.7799041">
        <ele>31.3801</ele>
        <time>2013-05-22T20:43:15Z</time>
      </trkpt>
      <trkpt lat="59.9249569" lon="17.7800358">
        <ele>30.8995</ele>
        <time>2013-05-22T20:43:16Z</time>
      </trkpt>
      <trkpt lat="59.9249681" lon="17.7801682">
        <ele>30.8995</ele>
        <time>2013-05-22T20:43:17Z</time>
      </trkpt>
      <trkpt lat="59.9249796" lon="17.7803014">
        <ele>30.8995</ele>
        <time>2013-05-22T20:43:18Z</time>
      </trkpt>
      <trkpt lat="59.9249911" lon="17.7804352">
        <ele>31.3801</ele>
        <time>2013-05-22T20:43:19Z</time>
      </trkpt>
      <trkpt lat="59.9250031" lon="17.7805673">
        <ele>31.3801</ele>
        <time>2013-05-22T20:43:20Z</time>
      </trkpt>
      <trkpt lat="59.9250162" lon="17.7806971">
        <ele>31.3801</ele>
        <time>2013-05-22T20:43:21Z</time>
      </trkpt>
      <trkpt lat="59.9250294" lon="17.7808261">
        <ele>31.3801</ele>
        <time>2013-05-22T20:43:22Z</time>
      </trkpt>
      <trkpt lat="59.9250428" lon="17.7809548">
        <ele>31.3801</ele>
        <time>2013-05-22T20:43:23Z</time>
      </trkpt>
      <trkpt lat="59.9250571" lon="17.7810834">
        <ele>31.3801</ele>
        <time>2013-05-22T20:43:24Z</time>
      </trkpt>
      <trkpt lat="59.9250714" lon="17.7812116">
        <ele>31.3801</ele>
        <time>2013-05-22T20:43:25Z</time>
      </trkpt>
      <trkpt lat="59.9250854" lon="17.78134">
        <ele>31.3801</ele>
        <time>2013-05-22T20:43:26Z</time>
      </trkpt>
      <trkpt lat="59.9251003" lon="17.781469">
        <ele>31.3801</ele>
        <time>2013-05-22T20:43:27Z</time>
      </trkpt>
      <trkpt lat="59.9251144" lon="17.781596">
        <ele>31.3801</ele>
        <time>2013-05-22T20:43:28Z</time>
      </trkpt>
      <trkpt lat="59.9251288" lon="17.7817237">
        <ele>30.8995</ele>
        <time>2013-05-22T20:43:29Z</time>
      </trkpt>
      <trkpt lat="59.9251442" lon="17.7818528">
        <ele>30.8995</ele>
        <time>2013-05-22T20:43:30Z</time>
      </trkpt>
      <trkpt lat="59.9251609" lon="17.7819823">
        <ele>30.8995</ele>
        <time>2013-05-22T20:43:31Z</time>
      </trkpt>
      <trkpt lat="59.9251787" lon="17.7821125">
        <ele>30.8995</ele>
        <time>2013-05-22T20:43:32Z</time>
      </trkpt>
      <trkpt lat="59.9251951" lon="17.7822404">
        <ele>30.8995</ele>
        <time>2013-05-22T20:43:33Z</time>
      </trkpt>
      <trkpt lat="59.9252136" lon="17.7823734">
        <ele>30.8995</ele>
        <time>2013-05-22T20:43:34Z</time>
      </trkpt>
      <trkpt lat="59.9252335" lon="17.7825064">
        <ele>30.8995</ele>
        <time>2013-05-22T20:43:35Z</time>
      </trkpt>
      <trkpt lat="59.9252542" lon="17.7826372">
        <ele>30.8995</ele>
        <time>2013-05-22T20:43:36Z</time>
      </trkpt>
      <trkpt lat="59.925275" lon="17.7827641">
        <ele>30.4188</ele>
        <time>2013-05-22T20:43:37Z</time>
      </trkpt>
      <trkpt lat="59.9252936" lon="17.7828885">
        <ele>30.4188</ele>
        <time>2013-05-22T20:43:38Z</time>
      </trkpt>
      <trkpt lat="59.9253132" lon="17.7830179">
        <ele>30.4188</ele>
        <time>2013-05-22T20:43:39Z</time>
      </trkpt>
      <trkpt lat="59.9253329" lon="17.7831442">
        <ele>30.4188</ele>
        <time>2013-05-22T20:43:40Z</time>
      </trkpt>
      <trkpt lat="59.9253534" lon="17.783266">
        <ele>29.9381</ele>
        <time>2013-05-22T20:43:41Z</time>
      </trkpt>
      <trkpt lat="59.9253754" lon="17.7833919">
        <ele>29.9381</ele>
        <time>2013-05-22T20:43:42Z</time>
      </trkpt>
      <trkpt lat="59.9253982" lon="17.7835162">
        <ele>29.9381</ele>
        <time>2013-05-22T20:43:43Z</time>
      </trkpt>
      <trkpt lat="59.9254214" lon="17.7836411">
        <ele>29.9381</ele>
        <time>2013-05-22T20:43:44Z</time>
      </trkpt>
      <trkpt lat="59.9254449" lon="17.7837606">
        <ele>29.9381</ele>
        <time>2013-05-22T20:43:45Z</time>
      </trkpt>
      <trkpt lat="59.9254679" lon="17.7838783">
        <ele>29.4575</ele>
        <time>2013-05-22T20:43:46Z</time>
      </trkpt>
      <trkpt lat="59.92549" lon="17.7839981">
        <ele>29.4575</ele>
        <time>2013-05-22T20:43:47Z</time>
      </trkpt>
      <trkpt lat="59.9255121" lon="17.784118">
        <ele>29.4575</ele>
        <time>2013-05-22T20:43:48Z</time>
      </trkpt>
      <trkpt lat="59.9255342" lon="17.7842377">
        <ele>29.4575</ele>
        <time>2013-05-22T20:43:49Z</time>
      </trkpt>
      <trkpt lat="59.9255573" lon="17.7843532">
        <ele>29.4575</ele>
        <time>2013-05-22T20:43:50Z</time>
      </trkpt>
      <trkpt lat="59.9255821" lon="17.7844688">
        <ele>29.4575</ele>
        <time>2013-05-22T20:43:51Z</time>
      </trkpt>
      <trkpt lat="59.9256067" lon="17.7845875">
        <ele>29.4575</ele>
        <time>2013-05-22T20:43:52Z</time>
      </trkpt>
      <trkpt lat="59.9256296" lon="17.7847101">
        <ele>29.9381</ele>
        <time>2013-05-22T20:43:53Z</time>
      </trkpt>
      <trkpt lat="59.9256528" lon="17.7848299">
        <ele>29.9381</ele>
        <time>2013-05-22T20:43:54Z</time>
      </trkpt>
      <trkpt lat="59.9256769" lon="17.7849547">
        <ele>29.9381</ele>
        <time>2013-05-22T20:43:55Z</time>
      </trkpt>
      <trkpt lat="59.9257011" lon="17.7850814">
        <ele>30.4188</ele>
        <time>2013-05-22T20:43:56Z</time>
      </trkpt>
      <trkpt lat="59.9257256" lon="17.7852021">
        <ele>30.4188</ele>
        <time>2013-05-22T20:43:57Z</time>
      </trkpt>
      <trkpt lat="59.9257503" lon="17.7853241">
        <ele>30.4188</ele>
        <time>2013-05-22T20:43:58Z</time>
      </trkpt>
      <trkpt lat="59.9257759" lon="17.7854453">
        <ele>30.4188</ele>
        <time>2013-05-22T20:43:59Z</time>
      </trkpt>
      <trkpt lat="59.9258021" lon="17.785567">
        <ele>30.4188</ele>
        <time>2013-05-22T20:44:00Z</time>
      </trkpt>
      <trkpt lat="59.9258276" lon="17.7856897">
        <ele>30.4188</ele>
        <time>2013-05-22T20:44:01Z</time>
      </trkpt>
      <trkpt lat="59.9258525" lon="17.7858146">
        <ele>30.4188</ele>
        <time>2013-05-22T20:44:02Z</time>
      </trkpt>
      <trkpt lat="59.9258769" lon="17.78594">
        <ele>30.4188</ele>
        <time>2013-05-22T20:44:03Z</time>
      </trkpt>
      <trkpt lat="59.9259005" lon="17.7860655">
        <ele>30.4188</ele>
        <time>2013-05-22T20:44:04Z</time>
      </trkpt>
      <trkpt lat="59.9259234" lon="17.7861903">
        <ele>30.4188</ele>
        <time>2013-05-22T20:44:05Z</time>
      </trkpt>
      <trkpt lat="59.9259462" lon="17.7863109">
        <ele>30.4188</ele>
        <time>2013-05-22T20:44:06Z</time>
      </trkpt>
      <trkpt lat="59.9259688" lon="17.7864285">
        <ele>30.4188</ele>
        <time>2013-05-22T20:44:07Z</time>
      </trkpt>
      <trkpt lat="59.9259909" lon="17.7865438">
        <ele>30.4188</ele>
        <time>2013-05-22T20:44:08Z</time>
      </trkpt>
      <trkpt lat="59.9260141" lon="17.7866584">
        <ele>30.4188</ele>
        <time>2013-05-22T20:44:09Z</time>
      </trkpt>
      <trkpt lat="59.9260377" lon="17.7867745">
        <ele>30.4188</ele>
        <time>2013-05-22T20:44:10Z</time>
      </trkpt>
      <trkpt lat="59.9260612" lon="17.7868924">
        <ele>30.4188</ele>
        <time>2013-05-22T20:44:11Z</time>
      </trkpt>
      <trkpt lat="59.9260849" lon="17.7870123">
        <ele>30.4188</ele>
        <time>2013-05-22T20:44:12Z</time>
      </trkpt>
      <trkpt lat="59.9261079" lon="17.7871345">
        <ele>30.4188</ele>
        <time>2013-05-22T20:44:13Z</time>
      </trkpt>
      <trkpt lat="59.9261313" lon="17.7872594">
        <ele>30.4188</ele>
        <time>2013-05-22T20:44:14Z</time>
      </trkpt>
      <trkpt lat="59.9261551" lon="17.7873874">
        <ele>30.4188</ele>
        <time>2013-05-22T20:44:15Z</time>
      </trkpt>
      <trkpt lat="59.9261799" lon="17.7875193">
        <ele>30.4188</ele>
        <time>2013-05-22T20:44:16Z</time>
      </trkpt>
      <trkpt lat="59.9262057" lon="17.7876532">
        <ele>30.4188</ele>
        <time>2013-05-22T20:44:17Z</time>
      </trkpt>
      <trkpt lat="59.9262315" lon="17.787788">
        <ele>30.4188</ele>
        <time>2013-05-22T20:44:18Z</time>
      </trkpt>
      <trkpt lat="59.9262571" lon="17.7879253">
        <ele>30.4188</ele>
        <time>2013-05-22T20:44:19Z</time>
      </trkpt>
      <trkpt lat="59.9262844" lon="17.7880648">
        <ele>29.9381</ele>
        <time>2013-05-22T20:44:20Z</time>
      </trkpt>
      <trkpt lat="59.9263126" lon="17.7882052">
        <ele>29.9381</ele>
        <time>2013-05-22T20:44:21Z</time>
      </trkpt>
      <trkpt lat="59.9263421" lon="17.7883461">
        <ele>29.9381</ele>
        <time>2013-05-22T20:44:22Z</time>
      </trkpt>
      <trkpt lat="59.9263714" lon="17.7884896">
        <ele>29.9381</ele>
        <time>2013-05-22T20:44:23Z</time>
      </trkpt>
      <trkpt lat="59.9263993" lon="17.7886356">
        <ele>29.9381</ele>
        <time>2013-05-22T20:44:24Z</time>
      </trkpt>
      <trkpt lat="59.9264279" lon="17.7887808">
        <ele>29.4575</ele>
        <time>2013-05-22T20:44:25Z</time>
      </trkpt>
      <trkpt lat="59.9264565" lon="17.7889264">
        <ele>29.4575</ele>
        <time>2013-05-22T20:44:26Z</time>
      </trkpt>
      <trkpt lat="59.9264853" lon="17.7890727">
        <ele>29.4575</ele>
        <time>2013-05-22T20:44:27Z</time>
      </trkpt>
      <trkpt lat="59.9265154" lon="17.7892189">
        <ele>28.9769</ele>
        <time>2013-05-22T20:44:28Z</time>
      </trkpt>
      <trkpt lat="59.9265457" lon="17.789364">
        <ele>28.9769</ele>
        <time>2013-05-22T20:44:29Z</time>
      </trkpt>
      <trkpt lat="59.926575" lon="17.7895071">
        <ele>28.9769</ele>
        <time>2013-05-22T20:44:30Z</time>
      </trkpt>
      <trkpt lat="59.9266035" lon="17.7896488">
        <ele>28.9769</ele>
        <time>2013-05-22T20:44:31Z</time>
      </trkpt>
      <trkpt lat="59.9266316" lon="17.7897912">
        <ele>28.9769</ele>
        <time>2013-05-22T20:44:32Z</time>
      </trkpt>
      <trkpt lat="59.9266596" lon="17.7899348">
        <ele>28.9769</ele>
        <time>2013-05-22T20:44:33Z</time>
      </trkpt>
      <trkpt lat="59.9266869" lon="17.7900789">
        <ele>28.4962</ele>
        <time>2013-05-22T20:44:34Z</time>
      </trkpt>
      <trkpt lat="59.9267134" lon="17.7902235">
        <ele>28.4962</ele>
        <time>2013-05-22T20:44:35Z</time>
      </trkpt>
      <trkpt lat="59.9267402" lon="17.7903667">
        <ele>28.4962</ele>
        <time>2013-05-22T20:44:36Z</time>
      </trkpt>
      <trkpt lat="59.9267666" lon="17.7905088">
        <ele>28.4962</ele>
        <time>2013-05-22T20:44:37Z</time>
      </trkpt>
      <trkpt lat="59.9267942" lon="17.7906497">
        <ele>28.4962</ele>
        <time>2013-05-22T20:44:38Z</time>
      </trkpt>
      <trkpt lat="59.9268223" lon="17.7907905">
        <ele>28.9769</ele>
        <time>2013-05-22T20:44:39Z</time>
      </trkpt>
      <trkpt lat="59.9268505" lon="17.7909296">
        <ele>28.9769</ele>
        <time>2013-05-22T20:44:40Z</time>
      </trkpt>
      <trkpt lat="59.9268781" lon="17.7910662">
        <ele>28.9769</ele>
        <time>2013-05-22T20:44:41Z</time>
      </trkpt>
      <trkpt lat="59.9269052" lon="17.7911978">
        <ele>29.4575</ele>
        <time>2013-05-22T20:44:42Z</time>
      </trkpt>
      <trkpt lat="59.9269304" lon="17.7913326">
        <ele>29.4575</ele>
        <time>2013-05-22T20:44:43Z</time>
      </trkpt>
      <trkpt lat="59.9269554" lon="17.7914651">
        <ele>29.9381</ele>
        <time>2013-05-22T20:44:44Z</time>
      </trkpt>
      <trkpt lat="59.926981" lon="17.791592">
        <ele>30.4188</ele>
        <time>2013-05-22T20:44:45Z</time>
      </trkpt>
      <trkpt lat="59.9270056" lon="17.7917156">
        <ele>30.4188</ele>
        <time>2013-05-22T20:44:46Z</time>
      </trkpt>
      <trkpt lat="59.9270293" lon="17.7918382">
        <ele>30.8995</ele>
        <time>2013-05-22T20:44:47Z</time>
      </trkpt>
      <trkpt lat="59.9270523" lon="17.7919601">
        <ele>30.8995</ele>
        <time>2013-05-22T20:44:48Z</time>
      </trkpt>
      <trkpt lat="59.9270743" lon="17.7920803">
        <ele>31.3801</ele>
        <time>2013-05-22T20:44:49Z</time>
      </trkpt>
      <trkpt lat="59.9270977" lon="17.792197">
        <ele>31.8607</ele>
        <time>2013-05-22T20:44:50Z</time>
      </trkpt>
      <trkpt lat="59.9271202" lon="17.7923101">
        <ele>31.8607</ele>
        <time>2013-05-22T20:44:51Z</time>
      </trkpt>
      <trkpt lat="59.9271434" lon="17.7924207">
        <ele>32.3416</ele>
        <time>2013-05-22T20:44:52Z</time>
      </trkpt>
      <trkpt lat="59.9271681" lon="17.7925252">
        <ele>32.8223</ele>
        <time>2013-05-22T20:44:53Z</time>
      </trkpt>
      <trkpt lat="59.9271903" lon="17.7926275">
        <ele>32.8223</ele>
        <time>2013-05-22T20:44:54Z</time>
      </trkpt>
      <trkpt lat="59.9272148" lon="17.7927289">
        <ele>33.3029</ele>
        <time>2013-05-22T20:44:55Z</time>
      </trkpt>
      <trkpt lat="59.9272397" lon="17.7928267">
        <ele>34.2642</ele>
        <time>2013-05-22T20:44:56Z</time>
      </trkpt>
      <trkpt lat="59.927262" lon="17.7929239">
        <ele>34.7449</ele>
        <time>2013-05-22T20:44:57Z</time>
      </trkpt>
      <trkpt lat="59.9272849" lon="17.7930149">
        <ele>34.7449</ele>
        <time>2013-05-22T20:44:58Z</time>
      </trkpt>
      <trkpt lat="59.9273066" lon="17.7931109">
        <ele>35.2255</ele>
        <time>2013-05-22T20:44:59Z</time>
      </trkpt>
      <trkpt lat="59.9273288" lon="17.7932046">
        <ele>35.7061</ele>
        <time>2013-05-22T20:45:00Z</time>
      </trkpt>
      <trkpt lat="59.927352" lon="17.7932935">
        <ele>35.7061</ele>
        <time>2013-05-22T20:45:01Z</time>
      </trkpt>
      <trkpt lat="59.9273742" lon="17.7933749">
        <ele>36.1868</ele>
        <time>2013-05-22T20:45:02Z</time>
      </trkpt>
      <trkpt lat="59.9273968" lon="17.793463">
        <ele>36.1868</ele>
        <time>2013-05-22T20:45:03Z</time>
      </trkpt>
      <trkpt lat="59.9274156" lon="17.793551">
        <ele>36.6675</ele>
        <time>2013-05-22T20:45:04Z</time>
      </trkpt>
      <trkpt lat="59.927436" lon="17.7936353">
        <ele>36.6675</ele>
        <time>2013-05-22T20:45:05Z</time>
      </trkpt>
      <trkpt lat="59.9274573" lon="17.7937173">
        <ele>37.1481</ele>
        <time>2013-05-22T20:45:06Z</time>
      </trkpt>
      <trkpt lat="59.927479" lon="17.7937977">
        <ele>37.6287</ele>
        <time>2013-05-22T20:45:07Z</time>
      </trkpt>
      <trkpt lat="59.9275003" lon="17.7938775">
        <ele>37.6287</ele>
        <time>2013-05-22T20:45:08Z</time>
      </trkpt>
      <trkpt lat="59.9275236" lon="17.793956">
        <ele>38.1094</ele>
        <time>2013-05-22T20:45:09Z</time>
      </trkpt>
      <trkpt lat="59.9275475" lon="17.7940324">
        <ele>39.0707</ele>
        <time>2013-05-22T20:45:10Z</time>
      </trkpt>
      <trkpt lat="59.9275671" lon="17.7941083">
        <ele>39.0707</ele>
        <time>2013-05-22T20:45:11Z</time>
      </trkpt>
      <trkpt lat="59.9275852" lon="17.7941831">
        <ele>39.0707</ele>
        <time>2013-05-22T20:45:12Z</time>
      </trkpt>
      <trkpt lat="59.9276044" lon="17.7942569">
        <ele>39.0707</ele>
        <time>2013-05-22T20:45:13Z</time>
      </trkpt>
      <trkpt lat="59.9276246" lon="17.7943295">
        <ele>39.0707</ele>
        <time>2013-05-22T20:45:14Z</time>
      </trkpt>
      <trkpt lat="59.927643" lon="17.7944038">
        <ele>38.5901</ele>
        <time>2013-05-22T20:45:15Z</time>
      </trkpt>
      <trkpt lat="59.9276612" lon="17.7944779">
        <ele>38.5901</ele>
        <time>2013-05-22T20:45:16Z</time>
      </trkpt>
      <trkpt lat="59.927683" lon="17.7945497">
        <ele>38.5901</ele>
        <time>2013-05-22T20:45:17Z</time>
      </trkpt>
      <trkpt lat="59.9277037" lon="17.7946219">
        <ele>38.5901</ele>
        <time>2013-05-22T20:45:18Z</time>
      </trkpt>
      <trkpt lat="59.9277249" lon="17.7946975">
        <ele>38.5901</ele>
        <time>2013-05-22T20:45:19Z</time>
      </trkpt>
      <trkpt lat="59.9277472" lon="17.7947757">
        <ele>38.5901</ele>
        <time>2013-05-22T20:45:20Z</time>
      </trkpt>
      <trkpt lat="59.9277708" lon="17.794857">
        <ele>39.0707</ele>
        <time>2013-05-22T20:45:21Z</time>
      </trkpt>
      <trkpt lat="59.927794" lon="17.7949402">
        <ele>38.5901</ele>
        <time>2013-05-22T20:45:22Z</time>
      </trkpt>
      <trkpt lat="59.9278178" lon="17.7950238">
        <ele>38.5901</ele>
        <time>2013-05-22T20:45:23Z</time>
      </trkpt>
      <trkpt lat="59.9278432" lon="17.7951081">
        <ele>38.5901</ele>
        <time>2013-05-22T20:45:24Z</time>
      </trkpt>
      <trkpt lat="59.9278701" lon="17.7951918">
        <ele>38.5901</ele>
        <time>2013-05-22T20:45:25Z</time>
      </trkpt>
      <trkpt lat="59.9278981" lon="17.7952756">
        <ele>38.5901</ele>
        <time>2013-05-22T20:45:26Z</time>
      </trkpt>
      <trkpt lat="59.9279266" lon="17.7953604">
        <ele>38.5901</ele>
        <time>2013-05-22T20:45:27Z</time>
      </trkpt>
      <trkpt lat="59.9279554" lon="17.7954464">
        <ele>38.5901</ele>
        <time>2013-05-22T20:45:28Z</time>
      </trkpt>
      <trkpt lat="59.9279836" lon="17.7955325">
        <ele>38.5901</ele>
        <time>2013-05-22T20:45:29Z</time>
      </trkpt>
      <trkpt lat="59.9280116" lon="17.7956178">
        <ele>38.5901</ele>
        <time>2013-05-22T20:45:30Z</time>
      </trkpt>
      <trkpt lat="59.9280404" lon="17.7957023">
        <ele>38.5901</ele>
        <time>2013-05-22T20:45:31Z</time>
      </trkpt>
      <trkpt lat="59.928069" lon="17.7957879">
        <ele>38.5901</ele>
        <time>2013-05-22T20:45:32Z</time>
      </trkpt>
      <trkpt lat="59.9280989" lon="17.7958755">
        <ele>38.5901</ele>
        <time>2013-05-22T20:45:33Z</time>
      </trkpt>
      <trkpt lat="59.9281298" lon="17.7959609">
        <ele>38.5901</ele>
        <time>2013-05-22T20:45:34Z</time>
      </trkpt>
      <trkpt lat="59.9281621" lon="17.7960446">
        <ele>39.0707</ele>
        <time>2013-05-22T20:45:35Z</time>
      </trkpt>
      <trkpt lat="59.9281937" lon="17.7961287">
        <ele>39.0707</ele>
        <time>2013-05-22T20:45:36Z</time>
      </trkpt>
      <trkpt lat="59.9282242" lon="17.7962132">
        <ele>38.5901</ele>
        <time>2013-05-22T20:45:37Z</time>
      </trkpt>
      <trkpt lat="59.9282554" lon="17.7962975">
        <ele>38.5901</ele>
        <time>2013-05-22T20:45:38Z</time>
      </trkpt>
      <trkpt lat="59.9282871" lon="17.7963806">
        <ele>38.5901</ele>
        <time>2013-05-22T20:45:39Z</time>
      </trkpt>
      <trkpt lat="59.9283191" lon="17.7964634">
        <ele>38.5901</ele>
        <time>2013-05-22T20:45:40Z</time>
      </trkpt>
      <trkpt lat="59.9283515" lon="17.796546">
        <ele>38.5901</ele>
        <time>2013-05-22T20:45:41Z</time>
      </trkpt>
      <trkpt lat="59.9283843" lon="17.7966286">
        <ele>38.5901</ele>
        <time>2013-05-22T20:45:42Z</time>
      </trkpt>
      <trkpt lat="59.9284172" lon="17.7967116">
        <ele>38.5901</ele>
        <time>2013-05-22T20:45:43Z</time>
      </trkpt>
      <trkpt lat="59.9284508" lon="17.7967949">
        <ele>38.5901</ele>
        <time>2013-05-22T20:45:44Z</time>
      </trkpt>
      <trkpt lat="59.9284848" lon="17.7968786">
        <ele>38.1094</ele>
        <time>2013-05-22T20:45:45Z</time>
      </trkpt>
      <trkpt lat="59.928519" lon="17.7969622">
        <ele>38.1094</ele>
        <time>2013-05-22T20:45:46Z</time>
      </trkpt>
      <trkpt lat="59.928554" lon="17.797046">
        <ele>38.1094</ele>
        <time>2013-05-22T20:45:47Z</time>
      </trkpt>
      <trkpt lat="59.9285905" lon="17.7971307">
        <ele>38.1094</ele>
        <time>2013-05-22T20:45:48Z</time>
      </trkpt>
      <trkpt lat="59.928627" lon="17.7972167">
        <ele>38.1094</ele>
        <time>2013-05-22T20:45:49Z</time>
      </trkpt>
      <trkpt lat="59.9286636" lon="17.7973025">
        <ele>38.1094</ele>
        <time>2013-05-22T20:45:50Z</time>
      </trkpt>
      <trkpt lat="59.9287016" lon="17.7973863">
        <ele>37.6287</ele>
        <time>2013-05-22T20:45:51Z</time>
      </trkpt>
      <trkpt lat="59.9287409" lon="17.7974698">
        <ele>37.6287</ele>
        <time>2013-05-22T20:45:52Z</time>
      </trkpt>
      <trkpt lat="59.9287813" lon="17.7975542">
        <ele>37.6287</ele>
        <time>2013-05-22T20:45:53Z</time>
      </trkpt>
      <trkpt lat="59.9288206" lon="17.7976406">
        <ele>37.6287</ele>
        <time>2013-05-22T20:45:54Z</time>
      </trkpt>
      <trkpt lat="59.9288593" lon="17.7977273">
        <ele>37.6287</ele>
        <time>2013-05-22T20:45:55Z</time>
      </trkpt>
      <trkpt lat="59.9288997" lon="17.7978129">
        <ele>37.6287</ele>
        <time>2013-05-22T20:45:56Z</time>
      </trkpt>
      <trkpt lat="59.9289406" lon="17.7978993">
        <ele>37.6287</ele>
        <time>2013-05-22T20:45:57Z</time>
      </trkpt>
      <trkpt lat="59.9289818" lon="17.7979867">
        <ele>37.1481</ele>
        <time>2013-05-22T20:45:58Z</time>
      </trkpt>
      <trkpt lat="59.9290236" lon="17.7980729">
        <ele>37.1481</ele>
        <time>2013-05-22T20:45:59Z</time>
      </trkpt>
      <trkpt lat="59.9290662" lon="17.7981583">
        <ele>37.1481</ele>
        <time>2013-05-22T20:46:00Z</time>
      </trkpt>
      <trkpt lat="59.9291102" lon="17.7982433">
        <ele>36.6675</ele>
        <time>2013-05-22T20:46:01Z</time>
      </trkpt>
      <trkpt lat="59.9291557" lon="17.798329">
        <ele>36.6675</ele>
        <time>2013-05-22T20:46:02Z</time>
      </trkpt>
      <trkpt lat="59.9292009" lon="17.7984147">
        <ele>36.6675</ele>
        <time>2013-05-22T20:46:03Z</time>
      </trkpt>
      <trkpt lat="59.9292458" lon="17.7985017">
        <ele>36.6675</ele>
        <time>2013-05-22T20:46:04Z</time>
      </trkpt>
      <trkpt lat="59.929291" lon="17.7985883">
        <ele>36.1868</ele>
        <time>2013-05-22T20:46:05Z</time>
      </trkpt>
      <trkpt lat="59.9293376" lon="17.7986736">
        <ele>36.1868</ele>
        <time>2013-05-22T20:46:06Z</time>
      </trkpt>
      <trkpt lat="59.9293856" lon="17.7987579">
        <ele>35.7061</ele>
        <time>2013-05-22T20:46:07Z</time>
      </trkpt>
      <trkpt lat="59.9294334" lon="17.7988426">
        <ele>35.7061</ele>
        <time>2013-05-22T20:46:08Z</time>
      </trkpt>
      <trkpt lat="59.9294809" lon="17.7989282">
        <ele>35.7061</ele>
        <time>2013-05-22T20:46:09Z</time>
      </trkpt>
      <trkpt lat="59.9295291" lon="17.7990125">
        <ele>35.7061</ele>
        <time>2013-05-22T20:46:10Z</time>
      </trkpt>
      <trkpt lat="59.9295788" lon="17.7990967">
        <ele>35.7061</ele>
        <time>2013-05-22T20:46:11Z</time>
      </trkpt>
      <trkpt lat="59.9296276" lon="17.7991815">
        <ele>35.2255</ele>
        <time>2013-05-22T20:46:12Z</time>
      </trkpt>
      <trkpt lat="59.9296762" lon="17.7992653">
        <ele>35.2255</ele>
        <time>2013-05-22T20:46:13Z</time>
      </trkpt>
      <trkpt lat="59.9297237" lon="17.7993466">
        <ele>34.7449</ele>
        <time>2013-05-22T20:46:14Z</time>
      </trkpt>
      <trkpt lat="59.9297719" lon="17.7994275">
        <ele>34.7449</ele>
        <time>2013-05-22T20:46:15Z</time>
      </trkpt>
      <trkpt lat="59.9298218" lon="17.7995087">
        <ele>34.2642</ele>
        <time>2013-05-22T20:46:16Z</time>
      </trkpt>
      <trkpt lat="59.9298729" lon="17.799589">
        <ele>34.2642</ele>
        <time>2013-05-22T20:46:17Z</time>
      </trkpt>
      <trkpt lat="59.9299266" lon="17.7996713">
        <ele>34.2642</ele>
        <time>2013-05-22T20:46:18Z</time>
      </trkpt>
      <trkpt lat="59.9299779" lon="17.7997496">
        <ele>33.7834</ele>
        <time>2013-05-22T20:46:19Z</time>
      </trkpt>
      <trkpt lat="59.9300301" lon="17.7998283">
        <ele>33.7834</ele>
        <time>2013-05-22T20:46:20Z</time>
      </trkpt>
      <trkpt lat="59.930084" lon="17.7999086">
        <ele>33.3029</ele>
        <time>2013-05-22T20:46:21Z</time>
      </trkpt>
      <trkpt lat="59.9301416" lon="17.799991">
        <ele>33.7834</ele>
        <time>2013-05-22T20:46:22Z</time>
      </trkpt>
      <trkpt lat="59.9301996" lon="17.8000744">
        <ele>33.7834</ele>
        <time>2013-05-22T20:46:23Z</time>
      </trkpt>
      <trkpt lat="59.930255" lon="17.8001574">
        <ele>33.3029</ele>
        <time>2013-05-22T20:46:24Z</time>
      </trkpt>
      <trkpt lat="59.930313" lon="17.8002453">
        <ele>33.3029</ele>
        <time>2013-05-22T20:46:25Z</time>
      </trkpt>
      <trkpt lat="59.9303725" lon="17.8003353">
        <ele>33.7834</ele>
        <time>2013-05-22T20:46:26Z</time>
      </trkpt>
      <trkpt lat="59.9304347" lon="17.8004225">
        <ele>34.2642</ele>
        <time>2013-05-22T20:46:27Z</time>
      </trkpt>
      <trkpt lat="59.9304975" lon="17.8005098">
        <ele>34.2642</ele>
        <time>2013-05-22T20:46:28Z</time>
      </trkpt>
      <trkpt lat="59.9305597" lon="17.8005971">
        <ele>34.7449</ele>
        <time>2013-05-22T20:46:29Z</time>
      </trkpt>
      <trkpt lat="59.9306223" lon="17.8006846">
        <ele>34.7449</ele>
        <time>2013-05-22T20:46:30Z</time>
      </trkpt>
      <trkpt lat="59.9306809" lon="17.80077">
        <ele>34.2642</ele>
        <time>2013-05-22T20:46:31Z</time>
      </trkpt>
      <trkpt lat="59.9307377" lon="17.8008561">
        <ele>34.2642</ele>
        <time>2013-05-22T20:46:32Z</time>
      </trkpt>
      <trkpt lat="59.930797" lon="17.8009447">
        <ele>33.3029</ele>
        <time>2013-05-22T20:46:33Z</time>
      </trkpt>
      <trkpt lat="59.930855" lon="17.8010297">
        <ele>33.3029</ele>
        <time>2013-05-22T20:46:34Z</time>
      </trkpt>
      <trkpt lat="59.930911" lon="17.8011121">
        <ele>32.8223</ele>
        <time>2013-05-22T20:46:35Z</time>
      </trkpt>
      <trkpt lat="59.9309677" lon="17.8011921">
        <ele>32.8223</ele>
        <time>2013-05-22T20:46:36Z</time>
      </trkpt>
      <trkpt lat="59.9310237" lon="17.8012741">
        <ele>32.8223</ele>
        <time>2013-05-22T20:46:37Z</time>
      </trkpt>
      <trkpt lat="59.9310797" lon="17.8013584">
        <ele>32.8223</ele>
        <time>2013-05-22T20:46:38Z</time>
      </trkpt>
      <trkpt lat="59.9311358" lon="17.8014443">
        <ele>32.8223</ele>
        <time>2013-05-22T20:46:39Z</time>
      </trkpt>
      <trkpt lat="59.9311926" lon="17.80153">
        <ele>33.3029</ele>
        <time>2013-05-22T20:46:40Z</time>
      </trkpt>
      <trkpt lat="59.9312518" lon="17.8016106">
        <ele>33.3029</ele>
        <time>2013-05-22T20:46:41Z</time>
      </trkpt>
      <trkpt lat="59.9313119" lon="17.8016959">
        <ele>33.7834</ele>
        <time>2013-05-22T20:46:42Z</time>
      </trkpt>
      <trkpt lat="59.9313725" lon="17.8017863">
        <ele>33.7834</ele>
        <time>2013-05-22T20:46:43Z</time>
      </trkpt>
      <trkpt lat="59.9314345" lon="17.8018784">
        <ele>33.7834</ele>
        <time>2013-05-22T20:46:44Z</time>
      </trkpt>
      <trkpt lat="59.9314979" lon="17.8019724">
        <ele>33.7834</ele>
        <time>2013-05-22T20:46:45Z</time>
      </trkpt>
      <trkpt lat="59.9315626" lon="17.8020678">
        <ele>33.7834</ele>
        <time>2013-05-22T20:46:46Z</time>
      </trkpt>
      <trkpt lat="59.9316273" lon="17.8021633">
        <ele>33.7834</ele>
        <time>2013-05-22T20:46:47Z</time>
      </trkpt>
      <trkpt lat="59.9316913" lon="17.8022577">
        <ele>33.7834</ele>
        <time>2013-05-22T20:46:48Z</time>
      </trkpt>
      <trkpt lat="59.9317553" lon="17.8023511">
        <ele>33.7834</ele>
        <time>2013-05-22T20:46:49Z</time>
      </trkpt>
      <trkpt lat="59.9318193" lon="17.8024459">
        <ele>33.7834</ele>
        <time>2013-05-22T20:46:50Z</time>
      </trkpt>
      <trkpt lat="59.9318837" lon="17.8025417">
        <ele>33.3029</ele>
        <time>2013-05-22T20:46:51Z</time>
      </trkpt>
      <trkpt lat="59.9319505" lon="17.8026349">
        <ele>33.3029</ele>
        <time>2013-05-22T20:46:52Z</time>
      </trkpt>
      <trkpt lat="59.9320209" lon="17.8027282">
        <ele>33.3029</ele>
        <time>2013-05-22T20:46:53Z</time>
      </trkpt>
      <trkpt lat="59.9320959" lon="17.8028246">
        <ele>33.3029</ele>
        <time>2013-05-22T20:46:54Z</time>
      </trkpt>
      <trkpt lat="59.9321731" lon="17.8029219">
        <ele>33.3029</ele>
        <time>2013-05-22T20:46:55Z</time>
      </trkpt>
      <trkpt lat="59.9322521" lon="17.8030182">
        <ele>32.8223</ele>
        <time>2013-05-22T20:46:56Z</time>
      </trkpt>
      <trkpt lat="59.9323316" lon="17.8031172">
        <ele>32.8223</ele>
        <time>2013-05-22T20:46:57Z</time>
      </trkpt>
      <trkpt lat="59.9324121" lon="17.8032177">
        <ele>32.3416</ele>
        <time>2013-05-22T20:46:58Z</time>
      </trkpt>
      <trkpt lat="59.9324908" lon="17.8033248">
        <ele>32.3416</ele>
        <time>2013-05-22T20:46:59Z</time>
      </trkpt>
      <trkpt lat="59.9325691" lon="17.8034358">
        <ele>31.8607</ele>
        <time>2013-05-22T20:47:00Z</time>
      </trkpt>
      <trkpt lat="59.9326465" lon="17.8035506">
        <ele>31.8607</ele>
        <time>2013-05-22T20:47:01Z</time>
      </trkpt>
      <trkpt lat="59.9327238" lon="17.8036678">
        <ele>31.3801</ele>
        <time>2013-05-22T20:47:02Z</time>
      </trkpt>
      <trkpt lat="59.9328014" lon="17.8037863">
        <ele>30.8995</ele>
        <time>2013-05-22T20:47:03Z</time>
      </trkpt>
      <trkpt lat="59.9328808" lon="17.803903">
        <ele>30.4188</ele>
        <time>2013-05-22T20:47:04Z</time>
      </trkpt>
      <trkpt lat="59.9329591" lon="17.8040256">
        <ele>29.9381</ele>
        <time>2013-05-22T20:47:05Z</time>
      </trkpt>
      <trkpt lat="59.9330373" lon="17.8041522">
        <ele>29.4575</ele>
        <time>2013-05-22T20:47:06Z</time>
      </trkpt>
      <trkpt lat="59.9331166" lon="17.8042768">
        <ele>28.9769</ele>
        <time>2013-05-22T20:47:07Z</time>
      </trkpt>
      <trkpt lat="59.9331968" lon="17.8043999">
        <ele>28.4962</ele>
        <time>2013-05-22T20:47:08Z</time>
      </trkpt>
      <trkpt lat="59.933277" lon="17.8045241">
        <ele>28.0155</ele>
        <time>2013-05-22T20:47:09Z</time>
      </trkpt>
      <trkpt lat="59.9333565" lon="17.804648">
        <ele>28.0155</ele>
        <time>2013-05-22T20:47:10Z</time>
      </trkpt>
      <trkpt lat="59.9334354" lon="17.8047727">
        <ele>27.5349</ele>
        <time>2013-05-22T20:47:11Z</time>
      </trkpt>
      <trkpt lat="59.9335126" lon="17.8049023">
        <ele>27.0543</ele>
        <time>2013-05-22T20:47:12Z</time>
      </trkpt>
      <trkpt lat="59.9335883" lon="17.805036">
        <ele>27.0543</ele>
        <time>2013-05-22T20:47:13Z</time>
      </trkpt>
      <trkpt lat="59.9336623" lon="17.805172">
        <ele>26.5736</ele>
        <time>2013-05-22T20:47:14Z</time>
      </trkpt>
      <trkpt lat="59.9337335" lon="17.8053109">
        <ele>26.5736</ele>
        <time>2013-05-22T20:47:15Z</time>
      </trkpt>
      <trkpt lat="59.9338029" lon="17.8054528">
        <ele>26.0929</ele>
        <time>2013-05-22T20:47:16Z</time>
      </trkpt>
      <trkpt lat="59.9338717" lon="17.8055959">
        <ele>26.0929</ele>
        <time>2013-05-22T20:47:17Z</time>
      </trkpt>
      <trkpt lat="59.9339397" lon="17.8057412">
        <ele>25.6123</ele>
        <time>2013-05-22T20:47:18Z</time>
      </trkpt>
      <trkpt lat="59.9340071" lon="17.805888">
        <ele>25.6123</ele>
        <time>2013-05-22T20:47:19Z</time>
      </trkpt>
      <trkpt lat="59.9340737" lon="17.8060372">
        <ele>25.1317</ele>
        <time>2013-05-22T20:47:20Z</time>
      </trkpt>
      <trkpt lat="59.9341391" lon="17.8061888">
        <ele>25.1317</ele>
        <time>2013-05-22T20:47:21Z</time>
      </trkpt>
      <trkpt lat="59.9342036" lon="17.8063413">
        <ele>25.1317</ele>
        <time>2013-05-22T20:47:22Z</time>
      </trkpt>
      <trkpt lat="59.934267" lon="17.8064934">
        <ele>25.1317</ele>
        <time>2013-05-22T20:47:23Z</time>
      </trkpt>
      <trkpt lat="59.9343296" lon="17.8066458">
        <ele>25.1317</ele>
        <time>2013-05-22T20:47:24Z</time>
      </trkpt>
      <trkpt lat="59.9343914" lon="17.8067982">
        <ele>24.651</ele>
        <time>2013-05-22T20:47:25Z</time>
      </trkpt>
      <trkpt lat="59.9344516" lon="17.8069498">
        <ele>24.651</ele>
        <time>2013-05-22T20:47:26Z</time>
      </trkpt>
      <trkpt lat="59.9345095" lon="17.8070991">
        <ele>24.651</ele>
        <time>2013-05-22T20:47:27Z</time>
      </trkpt>
      <trkpt lat="59.9345645" lon="17.8072443">
        <ele>25.1317</ele>
        <time>2013-05-22T20:47:28Z</time>
      </trkpt>
      <trkpt lat="59.9346161" lon="17.8073856">
        <ele>25.1317</ele>
        <time>2013-05-22T20:47:29Z</time>
      </trkpt>
      <trkpt lat="59.9346639" lon="17.8075229">
        <ele>25.1317</ele>
        <time>2013-05-22T20:47:30Z</time>
      </trkpt>
      <trkpt lat="59.9347095" lon="17.8076564">
        <ele>25.1317</ele>
        <time>2013-05-22T20:47:31Z</time>
      </trkpt>
      <trkpt lat="59.9347546" lon="17.8077861">
        <ele>25.1317</ele>
        <time>2013-05-22T20:47:32Z</time>
      </trkpt>
      <trkpt lat="59.9347997" lon="17.8079133">
        <ele>25.1317</ele>
        <time>2013-05-22T20:47:33Z</time>
      </trkpt>
      <trkpt lat="59.9348442" lon="17.8080388">
        <ele>25.6123</ele>
        <time>2013-05-22T20:47:34Z</time>
      </trkpt>
      <trkpt lat="59.9348871" lon="17.8081629">
        <ele>25.6123</ele>
        <time>2013-05-22T20:47:35Z</time>
      </trkpt>
      <trkpt lat="59.9349289" lon="17.8082855">
        <ele>25.6123</ele>
        <time>2013-05-22T20:47:36Z</time>
      </trkpt>
      <trkpt lat="59.934971" lon="17.8084071">
        <ele>25.6123</ele>
        <time>2013-05-22T20:47:37Z</time>
      </trkpt>
      <trkpt lat="59.9350136" lon="17.8085283">
        <ele>26.0929</ele>
        <time>2013-05-22T20:47:38Z</time>
      </trkpt>
      <trkpt lat="59.9350552" lon="17.8086485">
        <ele>26.0929</ele>
        <time>2013-05-22T20:47:39Z</time>
      </trkpt>
      <trkpt lat="59.9350974" lon="17.8087666">
        <ele>26.0929</ele>
        <time>2013-05-22T20:47:40Z</time>
      </trkpt>
      <trkpt lat="59.9351395" lon="17.8088833">
        <ele>26.0929</ele>
        <time>2013-05-22T20:47:41Z</time>
      </trkpt>
      <trkpt lat="59.9351829" lon="17.8089988">
        <ele>26.5736</ele>
        <time>2013-05-22T20:47:42Z</time>
      </trkpt>
      <trkpt lat="59.9352262" lon="17.8091156">
        <ele>26.5736</ele>
        <time>2013-05-22T20:47:43Z</time>
      </trkpt>
      <trkpt lat="59.9352697" lon="17.8092328">
        <ele>26.5736</ele>
        <time>2013-05-22T20:47:44Z</time>
      </trkpt>
      <trkpt lat="59.9353125" lon="17.8093515">
        <ele>26.5736</ele>
        <time>2013-05-22T20:47:45Z</time>
      </trkpt>
      <trkpt lat="59.9353554" lon="17.8094731">
        <ele>26.5736</ele>
        <time>2013-05-22T20:47:46Z</time>
      </trkpt>
      <trkpt lat="59.9353979" lon="17.809597">
        <ele>26.5736</ele>
        <time>2013-05-22T20:47:47Z</time>
      </trkpt>
      <trkpt lat="59.9354398" lon="17.8097222">
        <ele>26.5736</ele>
        <time>2013-05-22T20:47:48Z</time>
      </trkpt>
      <trkpt lat="59.9354826" lon="17.8098477">
        <ele>26.5736</ele>
        <time>2013-05-22T20:47:49Z</time>
      </trkpt>
      <trkpt lat="59.9355257" lon="17.8099747">
        <ele>26.0929</ele>
        <time>2013-05-22T20:47:50Z</time>
      </trkpt>
      <trkpt lat="59.9355681" lon="17.810102">
        <ele>26.0929</ele>
        <time>2013-05-22T20:47:51Z</time>
      </trkpt>
      <trkpt lat="59.9356092" lon="17.8102285">
        <ele>26.0929</ele>
        <time>2013-05-22T20:47:52Z</time>
      </trkpt>
      <trkpt lat="59.9356508" lon="17.8103527">
        <ele>26.0929</ele>
        <time>2013-05-22T20:47:53Z</time>
      </trkpt>
      <trkpt lat="59.9356935" lon="17.8104753">
        <ele>25.6123</ele>
        <time>2013-05-22T20:47:54Z</time>
      </trkpt>
      <trkpt lat="59.9357372" lon="17.8105988">
        <ele>25.6123</ele>
        <time>2013-05-22T20:47:55Z</time>
      </trkpt>
      <trkpt lat="59.9357811" lon="17.8107242">
        <ele>25.6123</ele>
        <time>2013-05-22T20:47:56Z</time>
      </trkpt>
      <trkpt lat="59.9358246" lon="17.8108519">
        <ele>25.6123</ele>
        <time>2013-05-22T20:47:57Z</time>
      </trkpt>
      <trkpt lat="59.9358692" lon="17.8109805">
        <ele>25.6123</ele>
        <time>2013-05-22T20:47:58Z</time>
      </trkpt>
      <trkpt lat="59.9359138" lon="17.8111096">
        <ele>25.1317</ele>
        <time>2013-05-22T20:47:59Z</time>
      </trkpt>
      <trkpt lat="59.9359582" lon="17.8112391">
        <ele>25.1317</ele>
        <time>2013-05-22T20:48:00Z</time>
      </trkpt>
      <trkpt lat="59.9360027" lon="17.811368">
        <ele>25.1317</ele>
        <time>2013-05-22T20:48:01Z</time>
      </trkpt>
      <trkpt lat="59.9360464" lon="17.8114968">
        <ele>25.1317</ele>
        <time>2013-05-22T20:48:02Z</time>
      </trkpt>
      <trkpt lat="59.9360897" lon="17.8116249">
        <ele>25.1317</ele>
        <time>2013-05-22T20:48:03Z</time>
      </trkpt>
      <trkpt lat="59.936133" lon="17.8117514">
        <ele>25.1317</ele>
        <time>2013-05-22T20:48:04Z</time>
      </trkpt>
      <trkpt lat="59.9361764" lon="17.8118777">
        <ele>24.651</ele>
        <time>2013-05-22T20:48:05Z</time>
      </trkpt>
      <trkpt lat="59.9362195" lon="17.8120031">
        <ele>25.1317</ele>
        <time>2013-05-22T20:48:06Z</time>
      </trkpt>
      <trkpt lat="59.9362619" lon="17.8121269">
        <ele>25.1317</ele>
        <time>2013-05-22T20:48:07Z</time>
      </trkpt>
      <trkpt lat="59.9363039" lon="17.8122485">
        <ele>25.1317</ele>
        <time>2013-05-22T20:48:08Z</time>
      </trkpt>
      <trkpt lat="59.9363448" lon="17.8123682">
        <ele>25.1317</ele>
        <time>2013-05-22T20:48:09Z</time>
      </trkpt>
      <trkpt lat="59.9363852" lon="17.8124863">
        <ele>25.1317</ele>
        <time>2013-05-22T20:48:10Z</time>
      </trkpt>
      <trkpt lat="59.9364254" lon="17.812602">
        <ele>25.1317</ele>
        <time>2013-05-22T20:48:11Z</time>
      </trkpt>
      <trkpt lat="59.9364654" lon="17.8127159">
        <ele>25.1317</ele>
        <time>2013-05-22T20:48:12Z</time>
      </trkpt>
      <trkpt lat="59.9365049" lon="17.8128284">
        <ele>25.1317</ele>
        <time>2013-05-22T20:48:13Z</time>
      </trkpt>
      <trkpt lat="59.9365438" lon="17.8129395">
        <ele>25.6123</ele>
        <time>2013-05-22T20:48:14Z</time>
      </trkpt>
      <trkpt lat="59.9365824" lon="17.8130484">
        <ele>25.6123</ele>
        <time>2013-05-22T20:48:15Z</time>
      </trkpt>
      <trkpt lat="59.9366198" lon="17.8131557">
        <ele>25.6123</ele>
        <time>2013-05-22T20:48:16Z</time>
      </trkpt>
      <trkpt lat="59.9366557" lon="17.8132627">
        <ele>25.6123</ele>
        <time>2013-05-22T20:48:17Z</time>
      </trkpt>
      <trkpt lat="59.9366913" lon="17.8133682">
        <ele>26.0929</ele>
        <time>2013-05-22T20:48:18Z</time>
      </trkpt>
      <trkpt lat="59.9367265" lon="17.813471">
        <ele>26.0929</ele>
        <time>2013-05-22T20:48:19Z</time>
      </trkpt>
      <trkpt lat="59.9367613" lon="17.8135713">
        <ele>26.0929</ele>
        <time>2013-05-22T20:48:20Z</time>
      </trkpt>
      <trkpt lat="59.9367947" lon="17.8136702">
        <ele>26.5736</ele>
        <time>2013-05-22T20:48:21Z</time>
      </trkpt>
      <trkpt lat="59.936827" lon="17.8137674">
        <ele>26.5736</ele>
        <time>2013-05-22T20:48:22Z</time>
      </trkpt>
      <trkpt lat="59.9368597" lon="17.8138619">
        <ele>26.5736</ele>
        <time>2013-05-22T20:48:23Z</time>
      </trkpt>
      <trkpt lat="59.9368924" lon="17.8139538">
        <ele>26.5736</ele>
        <time>2013-05-22T20:48:24Z</time>
      </trkpt>
      <trkpt lat="59.9369254" lon="17.8140435">
        <ele>27.0543</ele>
        <time>2013-05-22T20:48:25Z</time>
      </trkpt>
      <trkpt lat="59.9369584" lon="17.8141318">
        <ele>27.0543</ele>
        <time>2013-05-22T20:48:26Z</time>
      </trkpt>
      <trkpt lat="59.9369907" lon="17.8142207">
        <ele>27.0543</ele>
        <time>2013-05-22T20:48:27Z</time>
      </trkpt>
      <trkpt lat="59.9370232" lon="17.8143097">
        <ele>27.0543</ele>
        <time>2013-05-22T20:48:28Z</time>
      </trkpt>
      <trkpt lat="59.9370573" lon="17.8143965">
        <ele>27.5349</ele>
        <time>2013-05-22T20:48:29Z</time>
      </trkpt>
      <trkpt lat="59.9370928" lon="17.8144806">
        <ele>27.5349</ele>
        <time>2013-05-22T20:48:30Z</time>
      </trkpt>
      <trkpt lat="59.9371285" lon="17.8145626">
        <ele>27.5349</ele>
        <time>2013-05-22T20:48:31Z</time>
      </trkpt>
      <trkpt lat="59.9371648" lon="17.8146432">
        <ele>27.5349</ele>
        <time>2013-05-22T20:48:32Z</time>
      </trkpt>
      <trkpt lat="59.9372012" lon="17.8147227">
        <ele>28.0155</ele>
        <time>2013-05-22T20:48:33Z</time>
      </trkpt>
      <trkpt lat="59.9372372" lon="17.8148019">
        <ele>28.0155</ele>
        <time>2013-05-22T20:48:34Z</time>
      </trkpt>
      <trkpt lat="59.9372742" lon="17.8148803">
        <ele>28.0155</ele>
        <time>2013-05-22T20:48:35Z</time>
      </trkpt>
      <trkpt lat="59.9373129" lon="17.8149584">
        <ele>28.0155</ele>
        <time>2013-05-22T20:48:36Z</time>
      </trkpt>
      <trkpt lat="59.9373518" lon="17.8150372">
        <ele>28.4962</ele>
        <time>2013-05-22T20:48:37Z</time>
      </trkpt>
      <trkpt lat="59.9373913" lon="17.8151165">
        <ele>28.4962</ele>
        <time>2013-05-22T20:48:38Z</time>
      </trkpt>
      <trkpt lat="59.9374317" lon="17.8151962">
        <ele>28.4962</ele>
        <time>2013-05-22T20:48:39Z</time>
      </trkpt>
      <trkpt lat="59.9374733" lon="17.8152738">
        <ele>28.4962</ele>
        <time>2013-05-22T20:48:40Z</time>
      </trkpt>
      <trkpt lat="59.9375164" lon="17.8153495">
        <ele>28.4962</ele>
        <time>2013-05-22T20:48:41Z</time>
      </trkpt>
      <trkpt lat="59.9375605" lon="17.8154252">
        <ele>28.4962</ele>
        <time>2013-05-22T20:48:42Z</time>
      </trkpt>
      <trkpt lat="59.937605" lon="17.8155026">
        <ele>28.0155</ele>
        <time>2013-05-22T20:48:43Z</time>
      </trkpt>
      <trkpt lat="59.9376498" lon="17.8155815">
        <ele>28.0155</ele>
        <time>2013-05-22T20:48:44Z</time>
      </trkpt>
      <trkpt lat="59.9376957" lon="17.8156596">
        <ele>28.0155</ele>
        <time>2013-05-22T20:48:45Z</time>
      </trkpt>
      <trkpt lat="59.9377432" lon="17.8157359">
        <ele>28.0155</ele>
        <time>2013-05-22T20:48:46Z</time>
      </trkpt>
      <trkpt lat="59.9377912" lon="17.8158113">
        <ele>27.5349</ele>
        <time>2013-05-22T20:48:47Z</time>
      </trkpt>
      <trkpt lat="59.9378407" lon="17.8158867">
        <ele>27.5349</ele>
        <time>2013-05-22T20:48:48Z</time>
      </trkpt>
      <trkpt lat="59.9378905" lon="17.8159602">
        <ele>27.5349</ele>
        <time>2013-05-22T20:48:49Z</time>
      </trkpt>
      <trkpt lat="59.9379391" lon="17.8160301">
        <ele>27.0543</ele>
        <time>2013-05-22T20:48:50Z</time>
      </trkpt>
      <trkpt lat="59.9379884" lon="17.8160971">
        <ele>27.0543</ele>
        <time>2013-05-22T20:48:51Z</time>
      </trkpt>
      <trkpt lat="59.9380381" lon="17.816167">
        <ele>26.5736</ele>
        <time>2013-05-22T20:48:52Z</time>
      </trkpt>
      <trkpt lat="59.9380863" lon="17.8162317">
        <ele>26.0929</ele>
        <time>2013-05-22T20:48:53Z</time>
      </trkpt>
      <trkpt lat="59.9381353" lon="17.8162975">
        <ele>26.0929</ele>
        <time>2013-05-22T20:48:54Z</time>
      </trkpt>
      <trkpt lat="59.9381874" lon="17.8163647">
        <ele>25.6123</ele>
        <time>2013-05-22T20:48:55Z</time>
      </trkpt>
      <trkpt lat="59.9382407" lon="17.8164332">
        <ele>25.1317</ele>
        <time>2013-05-22T20:48:56Z</time>
      </trkpt>
      <trkpt lat="59.9382964" lon="17.8165021">
        <ele>25.1317</ele>
        <time>2013-05-22T20:48:57Z</time>
      </trkpt>
      <trkpt lat="59.9383522" lon="17.8165715">
        <ele>24.651</ele>
        <time>2013-05-22T20:48:58Z</time>
      </trkpt>
      <trkpt lat="59.9384085" lon="17.8166434">
        <ele>24.1703</ele>
        <time>2013-05-22T20:48:59Z</time>
      </trkpt>
      <trkpt lat="59.9384653" lon="17.816715">
        <ele>23.6896</ele>
        <time>2013-05-22T20:49:00Z</time>
      </trkpt>
      <trkpt lat="59.9385198" lon="17.8167849">
        <ele>23.6896</ele>
        <time>2013-05-22T20:49:01Z</time>
      </trkpt>
      <trkpt lat="59.9385743" lon="17.8168564">
        <ele>23.6896</ele>
        <time>2013-05-22T20:49:02Z</time>
      </trkpt>
      <trkpt lat="59.9386306" lon="17.816929">
        <ele>23.6896</ele>
        <time>2013-05-22T20:49:03Z</time>
      </trkpt>
      <trkpt lat="59.938686" lon="17.8169998">
        <ele>23.6896</ele>
        <time>2013-05-22T20:49:04Z</time>
      </trkpt>
      <trkpt lat="59.9387409" lon="17.8170708">
        <ele>24.1703</ele>
        <time>2013-05-22T20:49:05Z</time>
      </trkpt>
      <trkpt lat="59.938797" lon="17.817145">
        <ele>24.1703</ele>
        <time>2013-05-22T20:49:06Z</time>
      </trkpt>
      <trkpt lat="59.9388538" lon="17.8172177">
        <ele>24.1703</ele>
        <time>2013-05-22T20:49:07Z</time>
      </trkpt>
      <trkpt lat="59.9389115" lon="17.8172889">
        <ele>24.1703</ele>
        <time>2013-05-22T20:49:08Z</time>
      </trkpt>
      <trkpt lat="59.9389701" lon="17.8173605">
        <ele>24.651</ele>
        <time>2013-05-22T20:49:09Z</time>
      </trkpt>
      <trkpt lat="59.9390295" lon="17.8174324">
        <ele>24.651</ele>
        <time>2013-05-22T20:49:10Z</time>
      </trkpt>
      <trkpt lat="59.9390892" lon="17.8175054">
        <ele>24.651</ele>
        <time>2013-05-22T20:49:11Z</time>
      </trkpt>
      <trkpt lat="59.9391497" lon="17.8175795">
        <ele>24.651</ele>
        <time>2013-05-22T20:49:12Z</time>
      </trkpt>
      <trkpt lat="59.9392145" lon="17.8176515">
        <ele>25.6123</ele>
        <time>2013-05-22T20:49:13Z</time>
      </trkpt>
      <trkpt lat="59.9392763" lon="17.8177271">
        <ele>25.6123</ele>
        <time>2013-05-22T20:49:14Z</time>
      </trkpt>
      <trkpt lat="59.9393389" lon="17.8178034">
        <ele>25.6123</ele>
        <time>2013-05-22T20:49:15Z</time>
      </trkpt>
      <trkpt lat="59.9394026" lon="17.8178816">
        <ele>25.6123</ele>
        <time>2013-05-22T20:49:16Z</time>
      </trkpt>
      <trkpt lat="59.9394673" lon="17.8179612">
        <ele>25.6123</ele>
        <time>2013-05-22T20:49:17Z</time>
      </trkpt>
      <trkpt lat="59.9395348" lon="17.818038">
        <ele>25.6123</ele>
        <time>2013-05-22T20:49:18Z</time>
      </trkpt>
      <trkpt lat="59.9396029" lon="17.8181165">
        <ele>25.6123</ele>
        <time>2013-05-22T20:49:19Z</time>
      </trkpt>
      <trkpt lat="59.9396709" lon="17.8181953">
        <ele>25.6123</ele>
        <time>2013-05-22T20:49:20Z</time>
      </trkpt>
      <trkpt lat="59.9397389" lon="17.8182768">
        <ele>25.1317</ele>
        <time>2013-05-22T20:49:21Z</time>
      </trkpt>
      <trkpt lat="59.9398066" lon="17.8183598">
        <ele>25.1317</ele>
        <time>2013-05-22T20:49:22Z</time>
      </trkpt>
      <trkpt lat="59.9398734" lon="17.818442">
        <ele>25.1317</ele>
        <time>2013-05-22T20:49:23Z</time>
      </trkpt>
      <trkpt lat="59.939939" lon="17.8185229">
        <ele>24.651</ele>
        <time>2013-05-22T20:49:24Z</time>
      </trkpt>
      <trkpt lat="59.940004" lon="17.8186025">
        <ele>24.651</ele>
        <time>2013-05-22T20:49:25Z</time>
      </trkpt>
      <trkpt lat="59.9400686" lon="17.8186808">
        <ele>24.651</ele>
        <time>2013-05-22T20:49:26Z</time>
      </trkpt>
      <trkpt lat="59.9401326" lon="17.8187581">
        <ele>24.1703</ele>
        <time>2013-05-22T20:49:27Z</time>
      </trkpt>
      <trkpt lat="59.9401966" lon="17.8188352">
        <ele>24.1703</ele>
        <time>2013-05-22T20:49:28Z</time>
      </trkpt>
      <trkpt lat="59.9402604" lon="17.8189142">
        <ele>24.1703</ele>
        <time>2013-05-22T20:49:29Z</time>
      </trkpt>
      <trkpt lat="59.9403242" lon="17.818994">
        <ele>24.1703</ele>
        <time>2013-05-22T20:49:30Z</time>
      </trkpt>
      <trkpt lat="59.940388" lon="17.819074">
        <ele>23.6896</ele>
        <time>2013-05-22T20:49:31Z</time>
      </trkpt>
      <trkpt lat="59.9404517" lon="17.8191547">
        <ele>23.6896</ele>
        <time>2013-05-22T20:49:32Z</time>
      </trkpt>
      <trkpt lat="59.9405168" lon="17.819236">
        <ele>23.6896</ele>
        <time>2013-05-22T20:49:33Z</time>
      </trkpt>
      <trkpt lat="59.9405826" lon="17.8193186">
        <ele>23.209</ele>
        <time>2013-05-22T20:49:34Z</time>
      </trkpt>
      <trkpt lat="59.9406494" lon="17.8194027">
        <ele>23.209</ele>
        <time>2013-05-22T20:49:35Z</time>
      </trkpt>
      <trkpt lat="59.9407177" lon="17.8194867">
        <ele>23.209</ele>
        <time>2013-05-22T20:49:36Z</time>
      </trkpt>
      <trkpt lat="59.9407866" lon="17.8195707">
        <ele>22.7283</ele>
        <time>2013-05-22T20:49:37Z</time>
      </trkpt>
      <trkpt lat="59.9408562" lon="17.8196571">
        <ele>22.7283</ele>
        <time>2013-05-22T20:49:38Z</time>
      </trkpt>
      <trkpt lat="59.9409266" lon="17.8197458">
        <ele>22.2476</ele>
        <time>2013-05-22T20:49:39Z</time>
      </trkpt>
      <trkpt lat="59.9409981" lon="17.8198347">
        <ele>22.2476</ele>
        <time>2013-05-22T20:49:40Z</time>
      </trkpt>
      <trkpt lat="59.941071" lon="17.8199236">
        <ele>21.767</ele>
        <time>2013-05-22T20:49:41Z</time>
      </trkpt>
      <trkpt lat="59.9411445" lon="17.820014">
        <ele>21.767</ele>
        <time>2013-05-22T20:49:42Z</time>
      </trkpt>
      <trkpt lat="59.9412188" lon="17.8201056">
        <ele>21.2864</ele>
        <time>2013-05-22T20:49:43Z</time>
      </trkpt>
      <trkpt lat="59.9412937" lon="17.8201987">
        <ele>21.2864</ele>
        <time>2013-05-22T20:49:44Z</time>
      </trkpt>
      <trkpt lat="59.9413688" lon="17.8202922">
        <ele>20.8057</ele>
        <time>2013-05-22T20:49:45Z</time>
      </trkpt>
      <trkpt lat="59.9414444" lon="17.820385">
        <ele>20.8057</ele>
        <time>2013-05-22T20:49:46Z</time>
      </trkpt>
      <trkpt lat="59.9415202" lon="17.8204783">
        <ele>20.325</ele>
        <time>2013-05-22T20:49:47Z</time>
      </trkpt>
      <trkpt lat="59.9415958" lon="17.8205722">
        <ele>20.325</ele>
        <time>2013-05-22T20:49:48Z</time>
      </trkpt>
      <trkpt lat="59.941671" lon="17.8206653">
        <ele>20.325</ele>
        <time>2013-05-22T20:49:49Z</time>
      </trkpt>
      <trkpt lat="59.9417448" lon="17.8207574">
        <ele>20.325</ele>
        <time>2013-05-22T20:49:50Z</time>
      </trkpt>
      <trkpt lat="59.9418168" lon="17.8208482">
        <ele>20.325</ele>
        <time>2013-05-22T20:49:51Z</time>
      </trkpt>
      <trkpt lat="59.941887" lon="17.8209371">
        <ele>20.325</ele>
        <time>2013-05-22T20:49:52Z</time>
      </trkpt>
      <trkpt lat="59.9419557" lon="17.8210237">
        <ele>20.325</ele>
        <time>2013-05-22T20:49:53Z</time>
      </trkpt>
      <trkpt lat="59.9420227" lon="17.8211072">
        <ele>20.325</ele>
        <time>2013-05-22T20:49:54Z</time>
      </trkpt>
      <trkpt lat="59.942088" lon="17.821188">
        <ele>20.8057</ele>
        <time>2013-05-22T20:49:55Z</time>
      </trkpt>
      <trkpt lat="59.9421511" lon="17.8212662">
        <ele>20.8057</ele>
        <time>2013-05-22T20:49:56Z</time>
      </trkpt>
      <trkpt lat="59.9422133" lon="17.8213423">
        <ele>20.8057</ele>
        <time>2013-05-22T20:49:57Z</time>
      </trkpt>
      <trkpt lat="59.9422744" lon="17.8214175">
        <ele>21.2864</ele>
        <time>2013-05-22T20:49:58Z</time>
      </trkpt>
      <trkpt lat="59.9423345" lon="17.8214913">
        <ele>21.2864</ele>
        <time>2013-05-22T20:49:59Z</time>
      </trkpt>
      <trkpt lat="59.9423931" lon="17.8215631">
        <ele>21.767</ele>
        <time>2013-05-22T20:50:00Z</time>
      </trkpt>
      <trkpt lat="59.94245" lon="17.821633">
        <ele>21.767</ele>
        <time>2013-05-22T20:50:01Z</time>
      </trkpt>
      <trkpt lat="59.9425055" lon="17.8217012">
        <ele>22.2476</ele>
        <time>2013-05-22T20:50:02Z</time>
      </trkpt>
      <trkpt lat="59.9425607" lon="17.8217688">
        <ele>22.2476</ele>
        <time>2013-05-22T20:50:03Z</time>
      </trkpt>
      <trkpt lat="59.9426156" lon="17.8218365">
        <ele>22.7283</ele>
        <time>2013-05-22T20:50:04Z</time>
      </trkpt>
      <trkpt lat="59.9426702" lon="17.8219042">
        <ele>22.7283</ele>
        <time>2013-05-22T20:50:05Z</time>
      </trkpt>
      <trkpt lat="59.9427249" lon="17.8219717">
        <ele>22.7283</ele>
        <time>2013-05-22T20:50:06Z</time>
      </trkpt>
      <trkpt lat="59.9427796" lon="17.8220385">
        <ele>23.209</ele>
        <time>2013-05-22T20:50:07Z</time>
      </trkpt>
      <trkpt lat="59.9428339" lon="17.8221043">
        <ele>23.209</ele>
        <time>2013-05-22T20:50:08Z</time>
      </trkpt>
      <trkpt lat="59.9428872" lon="17.8221704">
        <ele>23.6896</ele>
        <time>2013-05-22T20:50:09Z</time>
      </trkpt>
      <trkpt lat="59.9429397" lon="17.8222358">
        <ele>23.6896</ele>
        <time>2013-05-22T20:50:10Z</time>
      </trkpt>
      <trkpt lat="59.9429924" lon="17.8223003">
        <ele>23.6896</ele>
        <time>2013-05-22T20:50:11Z</time>
      </trkpt>
      <trkpt lat="59.9430446" lon="17.8223652">
        <ele>24.1703</ele>
        <time>2013-05-22T20:50:12Z</time>
      </trkpt>
      <trkpt lat="59.9430965" lon="17.8224297">
        <ele>24.1703</ele>
        <time>2013-05-22T20:50:13Z</time>
      </trkpt>
      <trkpt lat="59.9431483" lon="17.8224934">
        <ele>24.1703</ele>
        <time>2013-05-22T20:50:14Z</time>
      </trkpt>
      <trkpt lat="59.9431996" lon="17.8225556">
        <ele>24.1703</ele>
        <time>2013-05-22T20:50:15Z</time>
      </trkpt>
      <trkpt lat="59.9432503" lon="17.8226181">
        <ele>24.651</ele>
        <time>2013-05-22T20:50:16Z</time>
      </trkpt>
      <trkpt lat="59.9433" lon="17.8226804">
        <ele>24.651</ele>
        <time>2013-05-22T20:50:17Z</time>
      </trkpt>
      <trkpt lat="59.9433492" lon="17.8227424">
        <ele>24.651</ele>
        <time>2013-05-22T20:50:18Z</time>
      </trkpt>
      <trkpt lat="59.9433981" lon="17.8228035">
        <ele>25.1317</ele>
        <time>2013-05-22T20:50:19Z</time>
      </trkpt>
      <trkpt lat="59.9434472" lon="17.8228643">
        <ele>25.1317</ele>
        <time>2013-05-22T20:50:20Z</time>
      </trkpt>
      <trkpt lat="59.9434959" lon="17.8229254">
        <ele>25.1317</ele>
        <time>2013-05-22T20:50:21Z</time>
      </trkpt>
      <trkpt lat="59.9435441" lon="17.8229853">
        <ele>25.1317</ele>
        <time>2013-05-22T20:50:22Z</time>
      </trkpt>
      <trkpt lat="59.943592" lon="17.8230433">
        <ele>25.6123</ele>
        <time>2013-05-22T20:50:23Z</time>
      </trkpt>
      <trkpt lat="59.9436395" lon="17.8231006">
        <ele>25.6123</ele>
        <time>2013-05-22T20:50:24Z</time>
      </trkpt>
      <trkpt lat="59.9436861" lon="17.8231584">
        <ele>25.6123</ele>
        <time>2013-05-22T20:50:25Z</time>
      </trkpt>
      <trkpt lat="59.9437317" lon="17.8232156">
        <ele>25.6123</ele>
        <time>2013-05-22T20:50:26Z</time>
      </trkpt>
      <trkpt lat="59.9437766" lon="17.8232713">
        <ele>26.0929</ele>
        <time>2013-05-22T20:50:27Z</time>
      </trkpt>
      <trkpt lat="59.9438207" lon="17.8233258">
        <ele>26.0929</ele>
        <time>2013-05-22T20:50:28Z</time>
      </trkpt>
      <trkpt lat="59.9438642" lon="17.8233802">
        <ele>26.0929</ele>
        <time>2013-05-22T20:50:29Z</time>
      </trkpt>
      <trkpt lat="59.943907" lon="17.8234347">
        <ele>26.0929</ele>
        <time>2013-05-22T20:50:30Z</time>
      </trkpt>
      <trkpt lat="59.9439492" lon="17.8234869">
        <ele>26.0929</ele>
        <time>2013-05-22T20:50:31Z</time>
      </trkpt>
      <trkpt lat="59.9439905" lon="17.8235383">
        <ele>26.5736</ele>
        <time>2013-05-22T20:50:32Z</time>
      </trkpt>
      <trkpt lat="59.9440306" lon="17.823593">
        <ele>26.5736</ele>
        <time>2013-05-22T20:50:33Z</time>
      </trkpt>
      <trkpt lat="59.9440709" lon="17.823649">
        <ele>26.5736</ele>
        <time>2013-05-22T20:50:34Z</time>
      </trkpt>
      <trkpt lat="59.9441123" lon="17.823703">
        <ele>26.5736</ele>
        <time>2013-05-22T20:50:35Z</time>
      </trkpt>
      <trkpt lat="59.9441533" lon="17.8237532">
        <ele>27.0543</ele>
        <time>2013-05-22T20:50:36Z</time>
      </trkpt>
      <trkpt lat="59.9441958" lon="17.8238038">
        <ele>27.0543</ele>
        <time>2013-05-22T20:50:37Z</time>
      </trkpt>
      <trkpt lat="59.9442378" lon="17.823852">
        <ele>27.0543</ele>
        <time>2013-05-22T20:50:38Z</time>
      </trkpt>
      <trkpt lat="59.9442796" lon="17.8239006">
        <ele>27.0543</ele>
        <time>2013-05-22T20:50:39Z</time>
      </trkpt>
      <trkpt lat="59.9443232" lon="17.8239485">
        <ele>27.0543</ele>
        <time>2013-05-22T20:50:40Z</time>
      </trkpt>
      <trkpt lat="59.9443667" lon="17.8239956">
        <ele>27.0543</ele>
        <time>2013-05-22T20:50:41Z</time>
      </trkpt>
      <trkpt lat="59.9444128" lon="17.8240411">
        <ele>27.0543</ele>
        <time>2013-05-22T20:50:42Z</time>
      </trkpt>
      <trkpt lat="59.9444599" lon="17.8240873">
        <ele>27.5349</ele>
        <time>2013-05-22T20:50:43Z</time>
      </trkpt>
      <trkpt lat="59.9445076" lon="17.8241354">
        <ele>27.5349</ele>
        <time>2013-05-22T20:50:44Z</time>
      </trkpt>
      <trkpt lat="59.9445556" lon="17.824186">
        <ele>27.5349</ele>
        <time>2013-05-22T20:50:45Z</time>
      </trkpt>
      <trkpt lat="59.9446039" lon="17.8242389">
        <ele>27.5349</ele>
        <time>2013-05-22T20:50:46Z</time>
      </trkpt>
      <trkpt lat="59.9446536" lon="17.8242917">
        <ele>27.5349</ele>
        <time>2013-05-22T20:50:47Z</time>
      </trkpt>
      <trkpt lat="59.9447058" lon="17.8243433">
        <ele>27.5349</ele>
        <time>2013-05-22T20:50:48Z</time>
      </trkpt>
      <trkpt lat="59.944757" lon="17.8243929">
        <ele>28.0155</ele>
        <time>2013-05-22T20:50:49Z</time>
      </trkpt>
      <trkpt lat="59.944809" lon="17.8244445">
        <ele>27.5349</ele>
        <time>2013-05-22T20:50:50Z</time>
      </trkpt>
      <trkpt lat="59.9448608" lon="17.8244963">
        <ele>27.5349</ele>
        <time>2013-05-22T20:50:51Z</time>
      </trkpt>
      <trkpt lat="59.9449137" lon="17.824551">
        <ele>27.5349</ele>
        <time>2013-05-22T20:50:52Z</time>
      </trkpt>
      <trkpt lat="59.9449679" lon="17.824607">
        <ele>27.0543</ele>
        <time>2013-05-22T20:50:53Z</time>
      </trkpt>
      <trkpt lat="59.9450228" lon="17.8246633">
        <ele>27.0543</ele>
        <time>2013-05-22T20:50:54Z</time>
      </trkpt>
      <trkpt lat="59.945077" lon="17.8247235">
        <ele>27.0543</ele>
        <time>2013-05-22T20:50:55Z</time>
      </trkpt>
      <trkpt lat="59.9451332" lon="17.8247831">
        <ele>27.0543</ele>
        <time>2013-05-22T20:50:56Z</time>
      </trkpt>
      <trkpt lat="59.9451911" lon="17.8248416">
        <ele>27.0543</ele>
        <time>2013-05-22T20:50:57Z</time>
      </trkpt>
      <trkpt lat="59.9452498" lon="17.8249007">
        <ele>27.0543</ele>
        <time>2013-05-22T20:50:58Z</time>
      </trkpt>
      <trkpt lat="59.9453092" lon="17.8249618">
        <ele>27.0543</ele>
        <time>2013-05-22T20:50:59Z</time>
      </trkpt>
      <trkpt lat="59.9453693" lon="17.8250244">
        <ele>26.5736</ele>
        <time>2013-05-22T20:51:00Z</time>
      </trkpt>
      <trkpt lat="59.9454307" lon="17.8250886">
        <ele>26.5736</ele>
        <time>2013-05-22T20:51:01Z</time>
      </trkpt>
      <trkpt lat="59.9454926" lon="17.8251543">
        <ele>26.5736</ele>
        <time>2013-05-22T20:51:02Z</time>
      </trkpt>
      <trkpt lat="59.9455541" lon="17.82522">
        <ele>26.5736</ele>
        <time>2013-05-22T20:51:03Z</time>
      </trkpt>
      <trkpt lat="59.9456162" lon="17.8252837">
        <ele>26.5736</ele>
        <time>2013-05-22T20:51:04Z</time>
      </trkpt>
      <trkpt lat="59.9456774" lon="17.8253471">
        <ele>26.0929</ele>
        <time>2013-05-22T20:51:05Z</time>
      </trkpt>
      <trkpt lat="59.9457373" lon="17.8254111">
        <ele>26.0929</ele>
        <time>2013-05-22T20:51:06Z</time>
      </trkpt>
      <trkpt lat="59.9457967" lon="17.8254751">
        <ele>25.6123</ele>
        <time>2013-05-22T20:51:07Z</time>
      </trkpt>
      <trkpt lat="59.9458558" lon="17.8255386">
        <ele>25.1317</ele>
        <time>2013-05-22T20:51:08Z</time>
      </trkpt>
      <trkpt lat="59.9459151" lon="17.8256008">
        <ele>25.1317</ele>
        <time>2013-05-22T20:51:09Z</time>
      </trkpt>
      <trkpt lat="59.9459751" lon="17.8256632">
        <ele>25.1317</ele>
        <time>2013-05-22T20:51:10Z</time>
      </trkpt>
      <trkpt lat="59.9460365" lon="17.8257269">
        <ele>24.651</ele>
        <time>2013-05-22T20:51:11Z</time>
      </trkpt>
      <trkpt lat="59.9460995" lon="17.8257921">
        <ele>24.651</ele>
        <time>2013-05-22T20:51:12Z</time>
      </trkpt>
      <trkpt lat="59.9461637" lon="17.8258585">
        <ele>24.651</ele>
        <time>2013-05-22T20:51:13Z</time>
      </trkpt>
      <trkpt lat="59.9462288" lon="17.8259255">
        <ele>24.651</ele>
        <time>2013-05-22T20:51:14Z</time>
      </trkpt>
      <trkpt lat="59.9462941" lon="17.8259933">
        <ele>24.1703</ele>
        <time>2013-05-22T20:51:15Z</time>
      </trkpt>
      <trkpt lat="59.9463595" lon="17.8260615">
        <ele>24.1703</ele>
        <time>2013-05-22T20:51:16Z</time>
      </trkpt>
      <trkpt lat="59.9464261" lon="17.8261301">
        <ele>24.1703</ele>
        <time>2013-05-22T20:51:17Z</time>
      </trkpt>
      <trkpt lat="59.9464941" lon="17.8261996">
        <ele>24.1703</ele>
        <time>2013-05-22T20:51:18Z</time>
      </trkpt>
      <trkpt lat="59.9465628" lon="17.8262686">
        <ele>23.6896</ele>
        <time>2013-05-22T20:51:19Z</time>
      </trkpt>
      <trkpt lat="59.9466312" lon="17.8263375">
        <ele>23.6896</ele>
        <time>2013-05-22T20:51:20Z</time>
      </trkpt>
      <trkpt lat="59.9466988" lon="17.8264081">
        <ele>23.6896</ele>
        <time>2013-05-22T20:51:21Z</time>
      </trkpt>
      <trkpt lat="59.9467662" lon="17.8264799">
        <ele>23.209</ele>
        <time>2013-05-22T20:51:22Z</time>
      </trkpt>
      <trkpt lat="59.9468345" lon="17.826551">
        <ele>23.209</ele>
        <time>2013-05-22T20:51:23Z</time>
      </trkpt>
      <trkpt lat="59.9469033" lon="17.8266204">
        <ele>23.209</ele>
        <time>2013-05-22T20:51:24Z</time>
      </trkpt>
      <trkpt lat="59.9469711" lon="17.8266892">
        <ele>23.209</ele>
        <time>2013-05-22T20:51:25Z</time>
      </trkpt>
      <trkpt lat="59.9470364" lon="17.8267584">
        <ele>22.7283</ele>
        <time>2013-05-22T20:51:26Z</time>
      </trkpt>
      <trkpt lat="59.9471005" lon="17.8268254">
        <ele>22.7283</ele>
        <time>2013-05-22T20:51:27Z</time>
      </trkpt>
      <trkpt lat="59.947163" lon="17.8268903">
        <ele>22.7283</ele>
        <time>2013-05-22T20:51:28Z</time>
      </trkpt>
      <trkpt lat="59.9472245" lon="17.826955">
        <ele>22.7283</ele>
        <time>2013-05-22T20:51:29Z</time>
      </trkpt>
      <trkpt lat="59.9472851" lon="17.8270187">
        <ele>22.7283</ele>
        <time>2013-05-22T20:51:30Z</time>
      </trkpt>
      <trkpt lat="59.9473441" lon="17.8270801">
        <ele>22.7283</ele>
        <time>2013-05-22T20:51:31Z</time>
      </trkpt>
      <trkpt lat="59.9474012" lon="17.8271393">
        <ele>22.2476</ele>
        <time>2013-05-22T20:51:32Z</time>
      </trkpt>
      <trkpt lat="59.9474572" lon="17.827197">
        <ele>22.2476</ele>
        <time>2013-05-22T20:51:33Z</time>
      </trkpt>
      <trkpt lat="59.947513" lon="17.8272549">
        <ele>22.2476</ele>
        <time>2013-05-22T20:51:34Z</time>
      </trkpt>
      <trkpt lat="59.947568" lon="17.827313">
        <ele>22.2476</ele>
        <time>2013-05-22T20:51:35Z</time>
      </trkpt>
      <trkpt lat="59.9476229" lon="17.8273709">
        <ele>22.2476</ele>
        <time>2013-05-22T20:51:36Z</time>
      </trkpt>
      <trkpt lat="59.9476793" lon="17.8274286">
        <ele>22.2476</ele>
        <time>2013-05-22T20:51:37Z</time>
      </trkpt>
      <trkpt lat="59.9477367" lon="17.8274875">
        <ele>22.2476</ele>
        <time>2013-05-22T20:51:38Z</time>
      </trkpt>
      <trkpt lat="59.9477945" lon="17.8275469">
        <ele>22.2476</ele>
        <time>2013-05-22T20:51:39Z</time>
      </trkpt>
      <trkpt lat="59.9478523" lon="17.8276076">
        <ele>22.2476</ele>
        <time>2013-05-22T20:51:40Z</time>
      </trkpt>
      <trkpt lat="59.94791" lon="17.8276689">
        <ele>21.767</ele>
        <time>2013-05-22T20:51:41Z</time>
      </trkpt>
      <trkpt lat="59.9479684" lon="17.8277304">
        <ele>22.2476</ele>
        <time>2013-05-22T20:51:42Z</time>
      </trkpt>
      <trkpt lat="59.9480276" lon="17.827792">
        <ele>22.2476</ele>
        <time>2013-05-22T20:51:43Z</time>
      </trkpt>
      <trkpt lat="59.9480881" lon="17.8278541">
        <ele>22.2476</ele>
        <time>2013-05-22T20:51:44Z</time>
      </trkpt>
      <trkpt lat="59.9481492" lon="17.827917">
        <ele>22.2476</ele>
        <time>2013-05-22T20:51:45Z</time>
      </trkpt>
      <trkpt lat="59.9482102" lon="17.8279806">
        <ele>21.767</ele>
        <time>2013-05-22T20:51:46Z</time>
      </trkpt>
      <trkpt lat="59.9482707" lon="17.8280441">
        <ele>21.767</ele>
        <time>2013-05-22T20:51:47Z</time>
      </trkpt>
      <trkpt lat="59.9483352" lon="17.8281087">
        <ele>22.7283</ele>
        <time>2013-05-22T20:51:48Z</time>
      </trkpt>
      <trkpt lat="59.9484004" lon="17.8281718">
        <ele>23.209</ele>
        <time>2013-05-22T20:51:49Z</time>
      </trkpt>
      <trkpt lat="59.9484642" lon="17.8282355">
        <ele>23.209</ele>
        <time>2013-05-22T20:51:50Z</time>
      </trkpt>
      <trkpt lat="59.9485267" lon="17.8283014">
        <ele>23.209</ele>
        <time>2013-05-22T20:51:51Z</time>
      </trkpt>
      <trkpt lat="59.9485879" lon="17.8283669">
        <ele>22.7283</ele>
        <time>2013-05-22T20:51:52Z</time>
      </trkpt>
      <trkpt lat="59.9486487" lon="17.8284299">
        <ele>22.7283</ele>
        <time>2013-05-22T20:51:53Z</time>
      </trkpt>
      <trkpt lat="59.9487093" lon="17.828493">
        <ele>22.7283</ele>
        <time>2013-05-22T20:51:54Z</time>
      </trkpt>
      <trkpt lat="59.9487691" lon="17.8285581">
        <ele>22.7283</ele>
        <time>2013-05-22T20:51:55Z</time>
      </trkpt>
      <trkpt lat="59.9488278" lon="17.8286228">
        <ele>22.2476</ele>
        <time>2013-05-22T20:51:56Z</time>
      </trkpt>
      <trkpt lat="59.9488861" lon="17.8286867">
        <ele>22.2476</ele>
        <time>2013-05-22T20:51:57Z</time>
      </trkpt>
      <trkpt lat="59.9489428" lon="17.8287504">
        <ele>22.2476</ele>
        <time>2013-05-22T20:51:58Z</time>
      </trkpt>
      <trkpt lat="59.9489982" lon="17.8288122">
        <ele>22.2476</ele>
        <time>2013-05-22T20:51:59Z</time>
      </trkpt>
      <trkpt lat="59.9490517" lon="17.828874">
        <ele>22.2476</ele>
        <time>2013-05-22T20:52:00Z</time>
      </trkpt>
      <trkpt lat="59.9491034" lon="17.8289343">
        <ele>22.2476</ele>
        <time>2013-05-22T20:52:01Z</time>
      </trkpt>
      <trkpt lat="59.9491531" lon="17.8289913">
        <ele>22.2476</ele>
        <time>2013-05-22T20:52:02Z</time>
      </trkpt>
      <trkpt lat="59.9492018" lon="17.8290436">
        <ele>22.2476</ele>
        <time>2013-05-22T20:52:03Z</time>
      </trkpt>
      <trkpt lat="59.9492519" lon="17.829084">
        <ele>22.2476</ele>
        <time>2013-05-22T20:52:04Z</time>
      </trkpt>
      <trkpt lat="59.9493031" lon="17.8291161">
        <ele>22.2476</ele>
        <time>2013-05-22T20:52:05Z</time>
      </trkpt>
      <trkpt lat="59.949355" lon="17.8291483">
        <ele>22.2476</ele>
        <time>2013-05-22T20:52:06Z</time>
      </trkpt>
      <trkpt lat="59.949407" lon="17.8291829">
        <ele>22.2476</ele>
        <time>2013-05-22T20:52:07Z</time>
      </trkpt>
      <trkpt lat="59.9494587" lon="17.8292252">
        <ele>22.2476</ele>
        <time>2013-05-22T20:52:08Z</time>
      </trkpt>
      <trkpt lat="59.9495074" lon="17.8292787">
        <ele>22.2476</ele>
        <time>2013-05-22T20:52:09Z</time>
      </trkpt>
      <trkpt lat="59.9495534" lon="17.8293399">
        <ele>22.7283</ele>
        <time>2013-05-22T20:52:10Z</time>
      </trkpt>
      <trkpt lat="59.9495987" lon="17.8294031">
        <ele>22.7283</ele>
        <time>2013-05-22T20:52:11Z</time>
      </trkpt>
      <trkpt lat="59.9496441" lon="17.8294678">
        <ele>22.7283</ele>
        <time>2013-05-22T20:52:12Z</time>
      </trkpt>
      <trkpt lat="59.9496892" lon="17.8295342">
        <ele>22.7283</ele>
        <time>2013-05-22T20:52:13Z</time>
      </trkpt>
      <trkpt lat="59.9497336" lon="17.8296035">
        <ele>23.209</ele>
        <time>2013-05-22T20:52:14Z</time>
      </trkpt>
      <trkpt lat="59.9497771" lon="17.8296746">
        <ele>23.209</ele>
        <time>2013-05-22T20:52:15Z</time>
      </trkpt>
      <trkpt lat="59.9498234" lon="17.829734">
        <ele>23.209</ele>
        <time>2013-05-22T20:52:16Z</time>
      </trkpt>
      <trkpt lat="59.9498783" lon="17.8297439">
        <ele>22.7283</ele>
        <time>2013-05-22T20:52:17Z</time>
      </trkpt>
      <trkpt lat="59.9499317" lon="17.8297129">
        <ele>22.7283</ele>
        <time>2013-05-22T20:52:18Z</time>
      </trkpt>
      <trkpt lat="59.9499844" lon="17.8296335">
        <ele>22.7283</ele>
        <time>2013-05-22T20:52:19Z</time>
      </trkpt>
      <trkpt lat="59.9500178" lon="17.8295304">
        <ele>22.2476</ele>
        <time>2013-05-22T20:52:20Z</time>
      </trkpt>
      <trkpt lat="59.9500437" lon="17.8294093">
        <ele>22.2476</ele>
        <time>2013-05-22T20:52:21Z</time>
      </trkpt>
      <trkpt lat="59.9500606" lon="17.8292752">
        <ele>21.767</ele>
        <time>2013-05-22T20:52:22Z</time>
      </trkpt>
      <trkpt lat="59.9500679" lon="17.8291377">
        <ele>21.767</ele>
        <time>2013-05-22T20:52:23Z</time>
      </trkpt>
      <trkpt lat="59.950071" lon="17.8289969">
        <ele>21.2864</ele>
        <time>2013-05-22T20:52:24Z</time>
      </trkpt>
      <trkpt lat="59.9500669" lon="17.828856">
        <ele>20.8057</ele>
        <time>2013-05-22T20:52:25Z</time>
      </trkpt>
      <trkpt lat="59.9500677" lon="17.8286976">
        <ele>22.2476</ele>
        <time>2013-05-22T20:52:26Z</time>
      </trkpt>
      <trkpt lat="59.9500677" lon="17.8285366">
        <ele>23.209</ele>
        <time>2013-05-22T20:52:27Z</time>
      </trkpt>
      <trkpt lat="59.9500632" lon="17.8283912">
        <ele>23.209</ele>
        <time>2013-05-22T20:52:28Z</time>
      </trkpt>
      <trkpt lat="59.9500555" lon="17.8282541">
        <ele>22.2476</ele>
        <time>2013-05-22T20:52:29Z</time>
      </trkpt>
      <trkpt lat="59.9500513" lon="17.8281061">
        <ele>22.7283</ele>
        <time>2013-05-22T20:52:30Z</time>
      </trkpt>
      <trkpt lat="59.9500504" lon="17.8279577">
        <ele>22.7283</ele>
        <time>2013-05-22T20:52:31Z</time>
      </trkpt>
      <trkpt lat="59.9500513" lon="17.8278086">
        <ele>23.209</ele>
        <time>2013-05-22T20:52:32Z</time>
      </trkpt>
      <trkpt lat="59.9500527" lon="17.8276605">
        <ele>23.209</ele>
        <time>2013-05-22T20:52:33Z</time>
      </trkpt>
      <trkpt lat="59.9500543" lon="17.8275108">
        <ele>23.209</ele>
        <time>2013-05-22T20:52:34Z</time>
      </trkpt>
      <trkpt lat="59.9500564" lon="17.8273594">
        <ele>23.209</ele>
        <time>2013-05-22T20:52:35Z</time>
      </trkpt>
      <trkpt lat="59.9500596" lon="17.8272066">
        <ele>23.6896</ele>
        <time>2013-05-22T20:52:36Z</time>
      </trkpt>
      <trkpt lat="59.9500632" lon="17.8270537">
        <ele>23.6896</ele>
        <time>2013-05-22T20:52:37Z</time>
      </trkpt>
      <trkpt lat="59.9500677" lon="17.8269005">
        <ele>23.6896</ele>
        <time>2013-05-22T20:52:38Z</time>
      </trkpt>
      <trkpt lat="59.9500745" lon="17.8267463">
        <ele>23.6896</ele>
        <time>2013-05-22T20:52:39Z</time>
      </trkpt>
      <trkpt lat="59.9500845" lon="17.8265922">
        <ele>23.6896</ele>
        <time>2013-05-22T20:52:40Z</time>
      </trkpt>
      <trkpt lat="59.950099" lon="17.8264385">
        <ele>24.1703</ele>
        <time>2013-05-22T20:52:41Z</time>
      </trkpt>
      <trkpt lat="59.9501169" lon="17.826285">
        <ele>24.1703</ele>
        <time>2013-05-22T20:52:42Z</time>
      </trkpt>
      <trkpt lat="59.9501394" lon="17.8261338">
        <ele>24.1703</ele>
        <time>2013-05-22T20:52:43Z</time>
      </trkpt>
      <trkpt lat="59.9501684" lon="17.8259874">
        <ele>24.651</ele>
        <time>2013-05-22T20:52:44Z</time>
      </trkpt>
      <trkpt lat="59.9502011" lon="17.8258448">
        <ele>24.651</ele>
        <time>2013-05-22T20:52:45Z</time>
      </trkpt>
      <trkpt lat="59.9502352" lon="17.8257045">
        <ele>24.651</ele>
        <time>2013-05-22T20:52:46Z</time>
      </trkpt>
      <trkpt lat="59.9502687" lon="17.8255647">
        <ele>25.1317</ele>
        <time>2013-05-22T20:52:47Z</time>
      </trkpt>
      <trkpt lat="59.9503008" lon="17.8254267">
        <ele>25.1317</ele>
        <time>2013-05-22T20:52:48Z</time>
      </trkpt>
      <trkpt lat="59.9503326" lon="17.8252925">
        <ele>25.6123</ele>
        <time>2013-05-22T20:52:49Z</time>
      </trkpt>
      <trkpt lat="59.950364" lon="17.8251616">
        <ele>25.6123</ele>
        <time>2013-05-22T20:52:50Z</time>
      </trkpt>
      <trkpt lat="59.9503936" lon="17.8250301">
        <ele>26.0929</ele>
        <time>2013-05-22T20:52:51Z</time>
      </trkpt>
      <trkpt lat="59.9504218" lon="17.8248979">
        <ele>26.0929</ele>
        <time>2013-05-22T20:52:52Z</time>
      </trkpt>
      <trkpt lat="59.950451" lon="17.8247664">
        <ele>26.0929</ele>
        <time>2013-05-22T20:52:53Z</time>
      </trkpt>
      <trkpt lat="59.9504816" lon="17.8246359">
        <ele>26.5736</ele>
        <time>2013-05-22T20:52:54Z</time>
      </trkpt>
      <trkpt lat="59.9505123" lon="17.8245048">
        <ele>26.5736</ele>
        <time>2013-05-22T20:52:55Z</time>
      </trkpt>
      <trkpt lat="59.9505429" lon="17.8243728">
        <ele>26.5736</ele>
        <time>2013-05-22T20:52:56Z</time>
      </trkpt>
      <trkpt lat="59.9505735" lon="17.824242">
        <ele>26.5736</ele>
        <time>2013-05-22T20:52:57Z</time>
      </trkpt>
      <trkpt lat="59.950603" lon="17.8241123">
        <ele>26.5736</ele>
        <time>2013-05-22T20:52:58Z</time>
      </trkpt>
      <trkpt lat="59.9506292" lon="17.8239806">
        <ele>26.5736</ele>
        <time>2013-05-22T20:52:59Z</time>
      </trkpt>
      <trkpt lat="59.9506532" lon="17.823847">
        <ele>26.5736</ele>
        <time>2013-05-22T20:53:00Z</time>
      </trkpt>
      <trkpt lat="59.9506735" lon="17.823711">
        <ele>26.5736</ele>
        <time>2013-05-22T20:53:01Z</time>
      </trkpt>
      <trkpt lat="59.9506911" lon="17.8235724">
        <ele>27.0543</ele>
        <time>2013-05-22T20:53:02Z</time>
      </trkpt>
      <trkpt lat="59.9507067" lon="17.8234289">
        <ele>27.0543</ele>
        <time>2013-05-22T20:53:03Z</time>
      </trkpt>
      <trkpt lat="59.9507215" lon="17.8232833">
        <ele>27.0543</ele>
        <time>2013-05-22T20:53:04Z</time>
      </trkpt>
      <trkpt lat="59.950732" lon="17.8231458">
        <ele>26.0929</ele>
        <time>2013-05-22T20:53:05Z</time>
      </trkpt>
      <trkpt lat="59.9507403" lon="17.8230053">
        <ele>26.0929</ele>
        <time>2013-05-22T20:53:06Z</time>
      </trkpt>
      <trkpt lat="59.9507496" lon="17.82287">
        <ele>24.651</ele>
        <time>2013-05-22T20:53:07Z</time>
      </trkpt>
      <trkpt lat="59.9507618" lon="17.822732">
        <ele>24.1703</ele>
        <time>2013-05-22T20:53:08Z</time>
      </trkpt>
      <trkpt lat="59.9507763" lon="17.8225964">
        <ele>24.1703</ele>
        <time>2013-05-22T20:53:09Z</time>
      </trkpt>
      <trkpt lat="59.9507927" lon="17.822465">
        <ele>23.6896</ele>
        <time>2013-05-22T20:53:10Z</time>
      </trkpt>
      <trkpt lat="59.9508086" lon="17.8223359">
        <ele>23.6896</ele>
        <time>2013-05-22T20:53:11Z</time>
      </trkpt>
      <trkpt lat="59.9508226" lon="17.8222075">
        <ele>23.6896</ele>
        <time>2013-05-22T20:53:12Z</time>
      </trkpt>
      <trkpt lat="59.9508359" lon="17.8220784">
        <ele>23.209</ele>
        <time>2013-05-22T20:53:13Z</time>
      </trkpt>
      <trkpt lat="59.9508511" lon="17.82195">
        <ele>23.209</ele>
        <time>2013-05-22T20:53:14Z</time>
      </trkpt>
      <trkpt lat="59.9508666" lon="17.821823">
        <ele>23.209</ele>
        <time>2013-05-22T20:53:15Z</time>
      </trkpt>
      <trkpt lat="59.9508807" lon="17.8216956">
        <ele>22.7283</ele>
        <time>2013-05-22T20:53:16Z</time>
      </trkpt>
      <trkpt lat="59.9508946" lon="17.8215693">
        <ele>22.7283</ele>
        <time>2013-05-22T20:53:17Z</time>
      </trkpt>
      <trkpt lat="59.9509082" lon="17.8214476">
        <ele>22.7283</ele>
        <time>2013-05-22T20:53:18Z</time>
      </trkpt>
      <trkpt lat="59.9509208" lon="17.8213258">
        <ele>22.2476</ele>
        <time>2013-05-22T20:53:19Z</time>
      </trkpt>
      <trkpt lat="59.9509335" lon="17.8212013">
        <ele>22.2476</ele>
        <time>2013-05-22T20:53:20Z</time>
      </trkpt>
      <trkpt lat="59.9509449" lon="17.8210746">
        <ele>22.7283</ele>
        <time>2013-05-22T20:53:21Z</time>
      </trkpt>
      <trkpt lat="59.9509554" lon="17.8209457">
        <ele>22.7283</ele>
        <time>2013-05-22T20:53:22Z</time>
      </trkpt>
      <trkpt lat="59.9509646" lon="17.8208171">
        <ele>22.7283</ele>
        <time>2013-05-22T20:53:23Z</time>
      </trkpt>
      <trkpt lat="59.9509729" lon="17.8206906">
        <ele>22.7283</ele>
        <time>2013-05-22T20:53:24Z</time>
      </trkpt>
      <trkpt lat="59.9509821" lon="17.8205599">
        <ele>22.7283</ele>
        <time>2013-05-22T20:53:25Z</time>
      </trkpt>
      <trkpt lat="59.9509919" lon="17.8204291">
        <ele>23.209</ele>
        <time>2013-05-22T20:53:26Z</time>
      </trkpt>
      <trkpt lat="59.9509998" lon="17.820301">
        <ele>23.209</ele>
        <time>2013-05-22T20:53:27Z</time>
      </trkpt>
      <trkpt lat="59.9510053" lon="17.8201711">
        <ele>23.209</ele>
        <time>2013-05-22T20:53:28Z</time>
      </trkpt>
      <trkpt lat="59.9510103" lon="17.8200376">
        <ele>23.6896</ele>
        <time>2013-05-22T20:53:29Z</time>
      </trkpt>
      <trkpt lat="59.9510157" lon="17.8199084">
        <ele>23.209</ele>
        <time>2013-05-22T20:53:30Z</time>
      </trkpt>
      <trkpt lat="59.9510205" lon="17.8197805">
        <ele>23.209</ele>
        <time>2013-05-22T20:53:31Z</time>
      </trkpt>
      <trkpt lat="59.951024" lon="17.8196536">
        <ele>23.209</ele>
        <time>2013-05-22T20:53:32Z</time>
      </trkpt>
      <trkpt lat="59.9510267" lon="17.8195275">
        <ele>23.209</ele>
        <time>2013-05-22T20:53:33Z</time>
      </trkpt>
      <trkpt lat="59.9510272" lon="17.819405">
        <ele>22.2476</ele>
        <time>2013-05-22T20:53:34Z</time>
      </trkpt>
      <trkpt lat="59.9510267" lon="17.8192776">
        <ele>22.2476</ele>
        <time>2013-05-22T20:53:35Z</time>
      </trkpt>
      <trkpt lat="59.9510289" lon="17.8191486">
        <ele>22.7283</ele>
        <time>2013-05-22T20:53:36Z</time>
      </trkpt>
      <trkpt lat="59.9510343" lon="17.8190175">
        <ele>22.7283</ele>
        <time>2013-05-22T20:53:37Z</time>
      </trkpt>
      <trkpt lat="59.9510423" lon="17.8188854">
        <ele>23.209</ele>
        <time>2013-05-22T20:53:38Z</time>
      </trkpt>
      <trkpt lat="59.951054" lon="17.8187552">
        <ele>23.209</ele>
        <time>2013-05-22T20:53:39Z</time>
      </trkpt>
      <trkpt lat="59.9510669" lon="17.8186257">
        <ele>23.209</ele>
        <time>2013-05-22T20:53:40Z</time>
      </trkpt>
      <trkpt lat="59.9510791" lon="17.8184974">
        <ele>23.6896</ele>
        <time>2013-05-22T20:53:41Z</time>
      </trkpt>
      <trkpt lat="59.951093" lon="17.8183694">
        <ele>23.6896</ele>
        <time>2013-05-22T20:53:42Z</time>
      </trkpt>
      <trkpt lat="59.9511084" lon="17.8182403">
        <ele>23.6896</ele>
        <time>2013-05-22T20:53:43Z</time>
      </trkpt>
      <trkpt lat="59.951124" lon="17.8181099">
        <ele>23.6896</ele>
        <time>2013-05-22T20:53:44Z</time>
      </trkpt>
      <trkpt lat="59.9511382" lon="17.8179753">
        <ele>23.6896</ele>
        <time>2013-05-22T20:53:45Z</time>
      </trkpt>
      <trkpt lat="59.951152" lon="17.8178386">
        <ele>24.1703</ele>
        <time>2013-05-22T20:53:46Z</time>
      </trkpt>
      <trkpt lat="59.9511659" lon="17.8177037">
        <ele>24.1703</ele>
        <time>2013-05-22T20:53:47Z</time>
      </trkpt>
      <trkpt lat="59.9511796" lon="17.8175693">
        <ele>24.1703</ele>
        <time>2013-05-22T20:53:48Z</time>
      </trkpt>
      <trkpt lat="59.9511936" lon="17.8174369">
        <ele>24.1703</ele>
        <time>2013-05-22T20:53:49Z</time>
      </trkpt>
      <trkpt lat="59.9512076" lon="17.8173053">
        <ele>24.1703</ele>
        <time>2013-05-22T20:53:50Z</time>
      </trkpt>
      <trkpt lat="59.9512216" lon="17.8171729">
        <ele>24.1703</ele>
        <time>2013-05-22T20:53:51Z</time>
      </trkpt>
      <trkpt lat="59.9512358" lon="17.8170392">
        <ele>24.1703</ele>
        <time>2013-05-22T20:53:52Z</time>
      </trkpt>
      <trkpt lat="59.9512495" lon="17.8169038">
        <ele>24.1703</ele>
        <time>2013-05-22T20:53:53Z</time>
      </trkpt>
      <trkpt lat="59.9512629" lon="17.8167671">
        <ele>24.1703</ele>
        <time>2013-05-22T20:53:54Z</time>
      </trkpt>
      <trkpt lat="59.9512763" lon="17.8166294">
        <ele>24.1703</ele>
        <time>2013-05-22T20:53:55Z</time>
      </trkpt>
      <trkpt lat="59.9512887" lon="17.8164886">
        <ele>24.1703</ele>
        <time>2013-05-22T20:53:56Z</time>
      </trkpt>
      <trkpt lat="59.9512996" lon="17.8163435">
        <ele>24.1703</ele>
        <time>2013-05-22T20:53:57Z</time>
      </trkpt>
      <trkpt lat="59.9513096" lon="17.8161985">
        <ele>24.1703</ele>
        <time>2013-05-22T20:53:58Z</time>
      </trkpt>
      <trkpt lat="59.9513194" lon="17.8160531">
        <ele>24.1703</ele>
        <time>2013-05-22T20:53:59Z</time>
      </trkpt>
      <trkpt lat="59.9513291" lon="17.815908">
        <ele>24.1703</ele>
        <time>2013-05-22T20:54:00Z</time>
      </trkpt>
      <trkpt lat="59.9513376" lon="17.8157629">
        <ele>24.1703</ele>
        <time>2013-05-22T20:54:01Z</time>
      </trkpt>
      <trkpt lat="59.9513457" lon="17.8156184">
        <ele>24.651</ele>
        <time>2013-05-22T20:54:02Z</time>
      </trkpt>
      <trkpt lat="59.9513532" lon="17.8154759">
        <ele>24.651</ele>
        <time>2013-05-22T20:54:03Z</time>
      </trkpt>
      <trkpt lat="59.9513584" lon="17.8153371">
        <ele>24.651</ele>
        <time>2013-05-22T20:54:04Z</time>
      </trkpt>
      <trkpt lat="59.9513646" lon="17.8152019">
        <ele>24.651</ele>
        <time>2013-05-22T20:54:05Z</time>
      </trkpt>
      <trkpt lat="59.95137" lon="17.8150651">
        <ele>25.1317</ele>
        <time>2013-05-22T20:54:06Z</time>
      </trkpt>
      <trkpt lat="59.9513726" lon="17.8149309">
        <ele>25.6123</ele>
        <time>2013-05-22T20:54:07Z</time>
      </trkpt>
      <trkpt lat="59.9513748" lon="17.8147984">
        <ele>25.6123</ele>
        <time>2013-05-22T20:54:08Z</time>
      </trkpt>
      <trkpt lat="59.9513772" lon="17.8146652">
        <ele>25.6123</ele>
        <time>2013-05-22T20:54:09Z</time>
      </trkpt>
      <trkpt lat="59.9513793" lon="17.8145315">
        <ele>26.0929</ele>
        <time>2013-05-22T20:54:10Z</time>
      </trkpt>
      <trkpt lat="59.9513819" lon="17.8143977">
        <ele>26.0929</ele>
        <time>2013-05-22T20:54:11Z</time>
      </trkpt>
      <trkpt lat="59.9513839" lon="17.8142633">
        <ele>26.0929</ele>
        <time>2013-05-22T20:54:12Z</time>
      </trkpt>
      <trkpt lat="59.9513842" lon="17.8141292">
        <ele>26.0929</ele>
        <time>2013-05-22T20:54:13Z</time>
      </trkpt>
      <trkpt lat="59.9513841" lon="17.8139945">
        <ele>26.5736</ele>
        <time>2013-05-22T20:54:14Z</time>
      </trkpt>
      <trkpt lat="59.9513842" lon="17.8138575">
        <ele>26.5736</ele>
        <time>2013-05-22T20:54:15Z</time>
      </trkpt>
      <trkpt lat="59.9513846" lon="17.8137202">
        <ele>26.5736</ele>
        <time>2013-05-22T20:54:16Z</time>
      </trkpt>
      <trkpt lat="59.9513863" lon="17.8135839">
        <ele>26.5736</ele>
        <time>2013-05-22T20:54:17Z</time>
      </trkpt>
      <trkpt lat="59.9513879" lon="17.8134493">
        <ele>26.5736</ele>
        <time>2013-05-22T20:54:18Z</time>
      </trkpt>
      <trkpt lat="59.9513878" lon="17.8133146">
        <ele>26.5736</ele>
        <time>2013-05-22T20:54:19Z</time>
      </trkpt>
      <trkpt lat="59.9513878" lon="17.8131783">
        <ele>26.5736</ele>
        <time>2013-05-22T20:54:20Z</time>
      </trkpt>
      <trkpt lat="59.9513877" lon="17.8130401">
        <ele>26.5736</ele>
        <time>2013-05-22T20:54:21Z</time>
      </trkpt>
      <trkpt lat="59.9513878" lon="17.8128992">
        <ele>26.5736</ele>
        <time>2013-05-22T20:54:22Z</time>
      </trkpt>
      <trkpt lat="59.9513878" lon="17.8127584">
        <ele>27.0543</ele>
        <time>2013-05-22T20:54:23Z</time>
      </trkpt>
      <trkpt lat="59.9513883" lon="17.8126186">
        <ele>27.0543</ele>
        <time>2013-05-22T20:54:24Z</time>
      </trkpt>
      <trkpt lat="59.9513905" lon="17.812479">
        <ele>27.0543</ele>
        <time>2013-05-22T20:54:25Z</time>
      </trkpt>
      <trkpt lat="59.9513941" lon="17.8123413">
        <ele>27.5349</ele>
        <time>2013-05-22T20:54:26Z</time>
      </trkpt>
      <trkpt lat="59.9513981" lon="17.8122057">
        <ele>27.5349</ele>
        <time>2013-05-22T20:54:27Z</time>
      </trkpt>
      <trkpt lat="59.9514016" lon="17.8120713">
        <ele>27.5349</ele>
        <time>2013-05-22T20:54:28Z</time>
      </trkpt>
      <trkpt lat="59.9514059" lon="17.8119374">
        <ele>28.0155</ele>
        <time>2013-05-22T20:54:29Z</time>
      </trkpt>
      <trkpt lat="59.9514137" lon="17.8118036">
        <ele>28.0155</ele>
        <time>2013-05-22T20:54:30Z</time>
      </trkpt>
      <trkpt lat="59.9514259" lon="17.8116716">
        <ele>28.4962</ele>
        <time>2013-05-22T20:54:31Z</time>
      </trkpt>
      <trkpt lat="59.9514411" lon="17.8115421">
        <ele>28.4962</ele>
        <time>2013-05-22T20:54:32Z</time>
      </trkpt>
      <trkpt lat="59.9514575" lon="17.8114131">
        <ele>28.4962</ele>
        <time>2013-05-22T20:54:33Z</time>
      </trkpt>
      <trkpt lat="59.9514747" lon="17.8112845">
        <ele>28.9769</ele>
        <time>2013-05-22T20:54:34Z</time>
      </trkpt>
      <trkpt lat="59.9514939" lon="17.8111567">
        <ele>28.9769</ele>
        <time>2013-05-22T20:54:35Z</time>
      </trkpt>
      <trkpt lat="59.9515141" lon="17.8110282">
        <ele>28.9769</ele>
        <time>2013-05-22T20:54:36Z</time>
      </trkpt>
      <trkpt lat="59.9515357" lon="17.8108997">
        <ele>28.9769</ele>
        <time>2013-05-22T20:54:37Z</time>
      </trkpt>
      <trkpt lat="59.9515583" lon="17.8107724">
        <ele>28.9769</ele>
        <time>2013-05-22T20:54:38Z</time>
      </trkpt>
      <trkpt lat="59.951581" lon="17.8106464">
        <ele>28.9769</ele>
        <time>2013-05-22T20:54:39Z</time>
      </trkpt>
      <trkpt lat="59.9516055" lon="17.8105206">
        <ele>28.9769</ele>
        <time>2013-05-22T20:54:40Z</time>
      </trkpt>
      <trkpt lat="59.9516328" lon="17.8103962">
        <ele>28.9769</ele>
        <time>2013-05-22T20:54:41Z</time>
      </trkpt>
      <trkpt lat="59.9516616" lon="17.810272">
        <ele>29.4575</ele>
        <time>2013-05-22T20:54:42Z</time>
      </trkpt>
      <trkpt lat="59.9516916" lon="17.8101493">
        <ele>29.4575</ele>
        <time>2013-05-22T20:54:43Z</time>
      </trkpt>
      <trkpt lat="59.9517232" lon="17.810028">
        <ele>29.4575</ele>
        <time>2013-05-22T20:54:44Z</time>
      </trkpt>
      <trkpt lat="59.9517559" lon="17.8099068">
        <ele>29.4575</ele>
        <time>2013-05-22T20:54:45Z</time>
      </trkpt>
      <trkpt lat="59.9517891" lon="17.809785">
        <ele>29.9381</ele>
        <time>2013-05-22T20:54:46Z</time>
      </trkpt>
      <trkpt lat="59.9518214" lon="17.8096626">
        <ele>29.9381</ele>
        <time>2013-05-22T20:54:47Z</time>
      </trkpt>
      <trkpt lat="59.9518543" lon="17.8095393">
        <ele>29.9381</ele>
        <time>2013-05-22T20:54:48Z</time>
      </trkpt>
      <trkpt lat="59.9518878" lon="17.8094147">
        <ele>29.9381</ele>
        <time>2013-05-22T20:54:49Z</time>
      </trkpt>
      <trkpt lat="59.9519213" lon="17.8092889">
        <ele>29.9381</ele>
        <time>2013-05-22T20:54:50Z</time>
      </trkpt>
      <trkpt lat="59.9519551" lon="17.8091634">
        <ele>29.9381</ele>
        <time>2013-05-22T20:54:51Z</time>
      </trkpt>
      <trkpt lat="59.9519888" lon="17.8090363">
        <ele>29.9381</ele>
        <time>2013-05-22T20:54:52Z</time>
      </trkpt>
      <trkpt lat="59.9520224" lon="17.8089079">
        <ele>29.9381</ele>
        <time>2013-05-22T20:54:53Z</time>
      </trkpt>
      <trkpt lat="59.9520565" lon="17.8087804">
        <ele>30.4188</ele>
        <time>2013-05-22T20:54:54Z</time>
      </trkpt>
      <trkpt lat="59.9520902" lon="17.8086535">
        <ele>29.9381</ele>
        <time>2013-05-22T20:54:55Z</time>
      </trkpt>
      <trkpt lat="59.9521239" lon="17.8085251">
        <ele>30.4188</ele>
        <time>2013-05-22T20:54:56Z</time>
      </trkpt>
      <trkpt lat="59.9521574" lon="17.8083957">
        <ele>30.4188</ele>
        <time>2013-05-22T20:54:57Z</time>
      </trkpt>
      <trkpt lat="59.9521902" lon="17.8082671">
        <ele>30.4188</ele>
        <time>2013-05-22T20:54:58Z</time>
      </trkpt>
      <trkpt lat="59.9522224" lon="17.8081398">
        <ele>30.4188</ele>
        <time>2013-05-22T20:54:59Z</time>
      </trkpt>
      <trkpt lat="59.9522555" lon="17.808016">
        <ele>30.8995</ele>
        <time>2013-05-22T20:55:00Z</time>
      </trkpt>
      <trkpt lat="59.9522882" lon="17.8078931">
        <ele>30.8995</ele>
        <time>2013-05-22T20:55:01Z</time>
      </trkpt>
      <trkpt lat="59.95232" lon="17.8077726">
        <ele>30.8995</ele>
        <time>2013-05-22T20:55:02Z</time>
      </trkpt>
      <trkpt lat="59.9523507" lon="17.8076553">
        <ele>30.8995</ele>
        <time>2013-05-22T20:55:03Z</time>
      </trkpt>
      <trkpt lat="59.9523819" lon="17.8075348">
        <ele>31.8607</ele>
        <time>2013-05-22T20:55:04Z</time>
      </trkpt>
      <trkpt lat="59.9524115" lon="17.8074244">
        <ele>31.3801</ele>
        <time>2013-05-22T20:55:05Z</time>
      </trkpt>
      <trkpt lat="59.9524414" lon="17.8073129">
        <ele>31.8607</ele>
        <time>2013-05-22T20:55:06Z</time>
      </trkpt>
      <trkpt lat="59.952469" lon="17.8072049">
        <ele>31.8607</ele>
        <time>2013-05-22T20:55:07Z</time>
      </trkpt>
      <trkpt lat="59.9524951" lon="17.8070981">
        <ele>31.8607</ele>
        <time>2013-05-22T20:55:08Z</time>
      </trkpt>
      <trkpt lat="59.9525191" lon="17.806998">
        <ele>32.3416</ele>
        <time>2013-05-22T20:55:09Z</time>
      </trkpt>
      <trkpt lat="59.9525439" lon="17.8068988">
        <ele>32.3416</ele>
        <time>2013-05-22T20:55:10Z</time>
      </trkpt>
      <trkpt lat="59.9525666" lon="17.8068013">
        <ele>31.8607</ele>
        <time>2013-05-22T20:55:11Z</time>
      </trkpt>
      <trkpt lat="59.952587" lon="17.8067122">
        <ele>31.8607</ele>
        <time>2013-05-22T20:55:12Z</time>
      </trkpt>
      <trkpt lat="59.9526046" lon="17.8066193">
        <ele>32.3416</ele>
        <time>2013-05-22T20:55:13Z</time>
      </trkpt>
      <trkpt lat="59.9526207" lon="17.8065314">
        <ele>32.3416</ele>
        <time>2013-05-22T20:55:14Z</time>
      </trkpt>
      <trkpt lat="59.9526388" lon="17.8064522">
        <ele>33.3029</ele>
        <time>2013-05-22T20:55:15Z</time>
      </trkpt>
      <trkpt lat="59.9526555" lon="17.8063672">
        <ele>33.3029</ele>
        <time>2013-05-22T20:55:16Z</time>
      </trkpt>
      <trkpt lat="59.9526744" lon="17.8062756">
        <ele>33.7834</ele>
        <time>2013-05-22T20:55:17Z</time>
      </trkpt>
      <trkpt lat="59.9526936" lon="17.8061798">
        <ele>34.7449</ele>
        <time>2013-05-22T20:55:18Z</time>
      </trkpt>
      <trkpt lat="59.9527061" lon="17.8060901">
        <ele>34.7449</ele>
        <time>2013-05-22T20:55:19Z</time>
      </trkpt>
      <trkpt lat="59.9527201" lon="17.8059911">
        <ele>34.7449</ele>
        <time>2013-05-22T20:55:20Z</time>
      </trkpt>
      <trkpt lat="59.9527352" lon="17.8058932">
        <ele>35.2255</ele>
        <time>2013-05-22T20:55:21Z</time>
      </trkpt>
      <trkpt lat="59.9527513" lon="17.8057938">
        <ele>35.2255</ele>
        <time>2013-05-22T20:55:22Z</time>
      </trkpt>
      <trkpt lat="59.9527671" lon="17.8056951">
        <ele>35.7061</ele>
        <time>2013-05-22T20:55:23Z</time>
      </trkpt>
      <trkpt lat="59.9527819" lon="17.8055979">
        <ele>36.1868</ele>
        <time>2013-05-22T20:55:24Z</time>
      </trkpt>
      <trkpt lat="59.9527952" lon="17.8054985">
        <ele>36.1868</ele>
        <time>2013-05-22T20:55:25Z</time>
      </trkpt>
      <trkpt lat="59.9528081" lon="17.8053949">
        <ele>36.6675</ele>
        <time>2013-05-22T20:55:26Z</time>
      </trkpt>
      <trkpt lat="59.9528211" lon="17.805297">
        <ele>36.1868</ele>
        <time>2013-05-22T20:55:27Z</time>
      </trkpt>
      <trkpt lat="59.9528315" lon="17.8051979">
        <ele>36.1868</ele>
        <time>2013-05-22T20:55:28Z</time>
      </trkpt>
      <trkpt lat="59.9528442" lon="17.8050964">
        <ele>37.1481</ele>
        <time>2013-05-22T20:55:29Z</time>
      </trkpt>
      <trkpt lat="59.9528572" lon="17.804993">
        <ele>37.6287</ele>
        <time>2013-05-22T20:55:30Z</time>
      </trkpt>
      <trkpt lat="59.9528699" lon="17.8048893">
        <ele>38.5901</ele>
        <time>2013-05-22T20:55:31Z</time>
      </trkpt>
      <trkpt lat="59.9528843" lon="17.8047892">
        <ele>38.5901</ele>
        <time>2013-05-22T20:55:32Z</time>
      </trkpt>
      <trkpt lat="59.9528978" lon="17.8046887">
        <ele>38.1094</ele>
        <time>2013-05-22T20:55:33Z</time>
      </trkpt>
      <trkpt lat="59.9529128" lon="17.8046078">
        <ele>35.7061</ele>
        <time>2013-05-22T20:55:34Z</time>
      </trkpt>
      <trkpt lat="59.9529359" lon="17.8045174">
        <ele>35.2255</ele>
        <time>2013-05-22T20:55:35Z</time>
      </trkpt>
      <trkpt lat="59.9529625" lon="17.8044354">
        <ele>34.7449</ele>
        <time>2013-05-22T20:55:36Z</time>
      </trkpt>
      <trkpt lat="59.9529898" lon="17.8043527">
        <ele>34.2642</ele>
        <time>2013-05-22T20:55:37Z</time>
      </trkpt>
      <trkpt lat="59.9530169" lon="17.8042773">
        <ele>33.7834</ele>
        <time>2013-05-22T20:55:38Z</time>
      </trkpt>
      <trkpt lat="59.9530465" lon="17.8042038">
        <ele>33.3029</ele>
        <time>2013-05-22T20:55:39Z</time>
      </trkpt>
      <trkpt lat="59.9530775" lon="17.8041344">
        <ele>33.3029</ele>
        <time>2013-05-22T20:55:40Z</time>
      </trkpt>
      <trkpt lat="59.9531118" lon="17.8040681">
        <ele>33.7834</ele>
        <time>2013-05-22T20:55:41Z</time>
      </trkpt>
      <trkpt lat="59.9531449" lon="17.8040029">
        <ele>33.7834</ele>
        <time>2013-05-22T20:55:42Z</time>
      </trkpt>
      <trkpt lat="59.9531769" lon="17.8039388">
        <ele>33.7834</ele>
        <time>2013-05-22T20:55:43Z</time>
      </trkpt>
      <trkpt lat="59.9532095" lon="17.803873">
        <ele>34.2642</ele>
        <time>2013-05-22T20:55:44Z</time>
      </trkpt>
      <trkpt lat="59.9532412" lon="17.8038023">
        <ele>34.2642</ele>
        <time>2013-05-22T20:55:45Z</time>
      </trkpt>
      <trkpt lat="59.9532738" lon="17.8037269">
        <ele>34.7449</ele>
        <time>2013-05-22T20:55:46Z</time>
      </trkpt>
      <trkpt lat="59.9533075" lon="17.8036516">
        <ele>35.2255</ele>
        <time>2013-05-22T20:55:47Z</time>
      </trkpt>
      <trkpt lat="59.9533407" lon="17.803573">
        <ele>35.7061</ele>
        <time>2013-05-22T20:55:48Z</time>
      </trkpt>
      <trkpt lat="59.9533701" lon="17.8034948">
        <ele>35.2255</ele>
        <time>2013-05-22T20:55:49Z</time>
      </trkpt>
      <trkpt lat="59.9534008" lon="17.8034062">
        <ele>35.7061</ele>
        <time>2013-05-22T20:55:50Z</time>
      </trkpt>
      <trkpt lat="59.9534319" lon="17.8033162">
        <ele>35.7061</ele>
        <time>2013-05-22T20:55:51Z</time>
      </trkpt>
      <trkpt lat="59.9534617" lon="17.8032239">
        <ele>35.7061</ele>
        <time>2013-05-22T20:55:52Z</time>
      </trkpt>
      <trkpt lat="59.9534879" lon="17.8031255">
        <ele>35.2255</ele>
        <time>2013-05-22T20:55:53Z</time>
      </trkpt>
      <trkpt lat="59.9535117" lon="17.8030233">
        <ele>34.7449</ele>
        <time>2013-05-22T20:55:54Z</time>
      </trkpt>
      <trkpt lat="59.9535355" lon="17.8029209">
        <ele>34.7449</ele>
        <time>2013-05-22T20:55:55Z</time>
      </trkpt>
      <trkpt lat="59.9535591" lon="17.802823">
        <ele>33.3029</ele>
        <time>2013-05-22T20:55:56Z</time>
      </trkpt>
      <trkpt lat="59.9535832" lon="17.8027111">
        <ele>32.8223</ele>
        <time>2013-05-22T20:55:57Z</time>
      </trkpt>
      <trkpt lat="59.9536095" lon="17.8026005">
        <ele>32.8223</ele>
        <time>2013-05-22T20:55:58Z</time>
      </trkpt>
      <trkpt lat="59.9536334" lon="17.802481">
        <ele>32.3416</ele>
        <time>2013-05-22T20:55:59Z</time>
      </trkpt>
      <trkpt lat="59.9536572" lon="17.8023557">
        <ele>31.8607</ele>
        <time>2013-05-22T20:56:00Z</time>
      </trkpt>
      <trkpt lat="59.9536837" lon="17.8022293">
        <ele>32.8223</ele>
        <time>2013-05-22T20:56:01Z</time>
      </trkpt>
      <trkpt lat="59.9537136" lon="17.802097">
        <ele>33.7834</ele>
        <time>2013-05-22T20:56:02Z</time>
      </trkpt>
      <trkpt lat="59.9537431" lon="17.8019641">
        <ele>33.3029</ele>
        <time>2013-05-22T20:56:03Z</time>
      </trkpt>
      <trkpt lat="59.9537797" lon="17.801836">
        <ele>32.8223</ele>
        <time>2013-05-22T20:56:04Z</time>
      </trkpt>
      <trkpt lat="59.9538147" lon="17.8017075">
        <ele>31.8607</ele>
        <time>2013-05-22T20:56:05Z</time>
      </trkpt>
      <trkpt lat="59.9538578" lon="17.8015885">
        <ele>31.8607</ele>
        <time>2013-05-22T20:56:06Z</time>
      </trkpt>
      <trkpt lat="59.9539038" lon="17.8014652">
        <ele>30.8995</ele>
        <time>2013-05-22T20:56:07Z</time>
      </trkpt>
      <trkpt lat="59.9539525" lon="17.8013361">
        <ele>30.4188</ele>
        <time>2013-05-22T20:56:08Z</time>
      </trkpt>
      <trkpt lat="59.9540036" lon="17.8012135">
        <ele>29.9381</ele>
        <time>2013-05-22T20:56:09Z</time>
      </trkpt>
      <trkpt lat="59.9540509" lon="17.8010902">
        <ele>29.4575</ele>
        <time>2013-05-22T20:56:10Z</time>
      </trkpt>
      <trkpt lat="59.9540996" lon="17.8009779">
        <ele>28.4962</ele>
        <time>2013-05-22T20:56:11Z</time>
      </trkpt>
      <trkpt lat="59.9541437" lon="17.8008484">
        <ele>28.4962</ele>
        <time>2013-05-22T20:56:12Z</time>
      </trkpt>
      <trkpt lat="59.9541888" lon="17.8007198">
        <ele>28.9769</ele>
        <time>2013-05-22T20:56:13Z</time>
      </trkpt>
      <trkpt lat="59.9542332" lon="17.8006018">
        <ele>28.4962</ele>
        <time>2013-05-22T20:56:14Z</time>
      </trkpt>
      <trkpt lat="59.9542797" lon="17.8004883">
        <ele>28.4962</ele>
        <time>2013-05-22T20:56:15Z</time>
      </trkpt>
      <trkpt lat="59.9543221" lon="17.8003783">
        <ele>28.4962</ele>
        <time>2013-05-22T20:56:16Z</time>
      </trkpt>
      <trkpt lat="59.9543679" lon="17.8002729">
        <ele>28.0155</ele>
        <time>2013-05-22T20:56:17Z</time>
      </trkpt>
      <trkpt lat="59.954415" lon="17.8001682">
        <ele>28.0155</ele>
        <time>2013-05-22T20:56:18Z</time>
      </trkpt>
      <trkpt lat="59.9544623" lon="17.8000615">
        <ele>28.0155</ele>
        <time>2013-05-22T20:56:19Z</time>
      </trkpt>
      <trkpt lat="59.9545083" lon="17.7999504">
        <ele>28.0155</ele>
        <time>2013-05-22T20:56:20Z</time>
      </trkpt>
      <trkpt lat="59.9545578" lon="17.7998362">
        <ele>28.0155</ele>
        <time>2013-05-22T20:56:21Z</time>
      </trkpt>
      <trkpt lat="59.9546082" lon="17.7997231">
        <ele>28.0155</ele>
        <time>2013-05-22T20:56:22Z</time>
      </trkpt>
      <trkpt lat="59.954659" lon="17.7996144">
        <ele>28.0155</ele>
        <time>2013-05-22T20:56:23Z</time>
      </trkpt>
      <trkpt lat="59.9547091" lon="17.7995103">
        <ele>28.0155</ele>
        <time>2013-05-22T20:56:24Z</time>
      </trkpt>
      <trkpt lat="59.9547578" lon="17.7994149">
        <ele>28.4962</ele>
        <time>2013-05-22T20:56:25Z</time>
      </trkpt>
      <trkpt lat="59.9548059" lon="17.7993237">
        <ele>28.4962</ele>
        <time>2013-05-22T20:56:26Z</time>
      </trkpt>
      <trkpt lat="59.9548536" lon="17.7992275">
        <ele>29.4575</ele>
        <time>2013-05-22T20:56:27Z</time>
      </trkpt>
      <trkpt lat="59.9549009" lon="17.7991377">
        <ele>29.9381</ele>
        <time>2013-05-22T20:56:28Z</time>
      </trkpt>
      <trkpt lat="59.9549473" lon="17.7990506">
        <ele>30.8995</ele>
        <time>2013-05-22T20:56:29Z</time>
      </trkpt>
      <trkpt lat="59.9549926" lon="17.7989648">
        <ele>31.3801</ele>
        <time>2013-05-22T20:56:30Z</time>
      </trkpt>
      <trkpt lat="59.9550377" lon="17.7988794">
        <ele>31.8607</ele>
        <time>2013-05-22T20:56:31Z</time>
      </trkpt>
      <trkpt lat="59.9550823" lon="17.7987927">
        <ele>32.3416</ele>
        <time>2013-05-22T20:56:32Z</time>
      </trkpt>
      <trkpt lat="59.9551257" lon="17.7987017">
        <ele>32.3416</ele>
        <time>2013-05-22T20:56:33Z</time>
      </trkpt>
      <trkpt lat="59.9551675" lon="17.7986051">
        <ele>32.8223</ele>
        <time>2013-05-22T20:56:34Z</time>
      </trkpt>
      <trkpt lat="59.9552079" lon="17.7985038">
        <ele>32.3416</ele>
        <time>2013-05-22T20:56:35Z</time>
      </trkpt>
      <trkpt lat="59.955248" lon="17.7983997">
        <ele>32.3416</ele>
        <time>2013-05-22T20:56:36Z</time>
      </trkpt>
      <trkpt lat="59.9552873" lon="17.7982935">
        <ele>32.3416</ele>
        <time>2013-05-22T20:56:37Z</time>
      </trkpt>
      <trkpt lat="59.9553257" lon="17.7981835">
        <ele>32.3416</ele>
        <time>2013-05-22T20:56:38Z</time>
      </trkpt>
      <trkpt lat="59.9553631" lon="17.7980692">
        <ele>31.8607</ele>
        <time>2013-05-22T20:56:39Z</time>
      </trkpt>
      <trkpt lat="59.9554002" lon="17.7979515">
        <ele>31.8607</ele>
        <time>2013-05-22T20:56:40Z</time>
      </trkpt>
      <trkpt lat="59.9554369" lon="17.7978289">
        <ele>31.3801</ele>
        <time>2013-05-22T20:56:41Z</time>
      </trkpt>
      <trkpt lat="59.9554733" lon="17.7977024">
        <ele>31.3801</ele>
        <time>2013-05-22T20:56:42Z</time>
      </trkpt>
      <trkpt lat="59.9555104" lon="17.7975766">
        <ele>30.8995</ele>
        <time>2013-05-22T20:56:43Z</time>
      </trkpt>
      <trkpt lat="59.9555484" lon="17.797451">
        <ele>30.8995</ele>
        <time>2013-05-22T20:56:44Z</time>
      </trkpt>
      <trkpt lat="59.9555862" lon="17.7973228">
        <ele>30.4188</ele>
        <time>2013-05-22T20:56:45Z</time>
      </trkpt>
      <trkpt lat="59.9556231" lon="17.7971904">
        <ele>30.4188</ele>
        <time>2013-05-22T20:56:46Z</time>
      </trkpt>
      <trkpt lat="59.9556599" lon="17.7970549">
        <ele>30.4188</ele>
        <time>2013-05-22T20:56:47Z</time>
      </trkpt>
      <trkpt lat="59.955696" lon="17.7969161">
        <ele>30.4188</ele>
        <time>2013-05-22T20:56:48Z</time>
      </trkpt>
      <trkpt lat="59.9557293" lon="17.7967742">
        <ele>30.4188</ele>
        <time>2013-05-22T20:56:49Z</time>
      </trkpt>
      <trkpt lat="59.9557599" lon="17.7966312">
        <ele>30.4188</ele>
        <time>2013-05-22T20:56:50Z</time>
      </trkpt>
      <trkpt lat="59.9557884" lon="17.796488">
        <ele>30.4188</ele>
        <time>2013-05-22T20:56:51Z</time>
      </trkpt>
      <trkpt lat="59.9558156" lon="17.7963441">
        <ele>30.4188</ele>
        <time>2013-05-22T20:56:52Z</time>
      </trkpt>
      <trkpt lat="59.9558412" lon="17.7962012">
        <ele>30.4188</ele>
        <time>2013-05-22T20:56:53Z</time>
      </trkpt>
      <trkpt lat="59.9558658" lon="17.7960588">
        <ele>30.4188</ele>
        <time>2013-05-22T20:56:54Z</time>
      </trkpt>
      <trkpt lat="59.9558899" lon="17.7959153">
        <ele>29.9381</ele>
        <time>2013-05-22T20:56:55Z</time>
      </trkpt>
      <trkpt lat="59.9559143" lon="17.7957711">
        <ele>29.9381</ele>
        <time>2013-05-22T20:56:56Z</time>
      </trkpt>
      <trkpt lat="59.9559401" lon="17.7956287">
        <ele>30.4188</ele>
        <time>2013-05-22T20:56:57Z</time>
      </trkpt>
      <trkpt lat="59.9559679" lon="17.7954879">
        <ele>30.4188</ele>
        <time>2013-05-22T20:56:58Z</time>
      </trkpt>
      <trkpt lat="59.9559977" lon="17.7953468">
        <ele>30.4188</ele>
        <time>2013-05-22T20:56:59Z</time>
      </trkpt>
      <trkpt lat="59.9560305" lon="17.7952068">
        <ele>30.4188</ele>
        <time>2013-05-22T20:57:00Z</time>
      </trkpt>
      <trkpt lat="59.9560654" lon="17.7950679">
        <ele>30.4188</ele>
        <time>2013-05-22T20:57:01Z</time>
      </trkpt>
      <trkpt lat="59.9560999" lon="17.7949293">
        <ele>30.8995</ele>
        <time>2013-05-22T20:57:02Z</time>
      </trkpt>
      <trkpt lat="59.9561333" lon="17.7947897">
        <ele>30.8995</ele>
        <time>2013-05-22T20:57:03Z</time>
      </trkpt>
      <trkpt lat="59.9561669" lon="17.7946492">
        <ele>30.8995</ele>
        <time>2013-05-22T20:57:04Z</time>
      </trkpt>
      <trkpt lat="59.9562004" lon="17.7945092">
        <ele>30.8995</ele>
        <time>2013-05-22T20:57:05Z</time>
      </trkpt>
      <trkpt lat="59.9562328" lon="17.7943707">
        <ele>31.3801</ele>
        <time>2013-05-22T20:57:06Z</time>
      </trkpt>
      <trkpt lat="59.9562641" lon="17.7942329">
        <ele>31.3801</ele>
        <time>2013-05-22T20:57:07Z</time>
      </trkpt>
      <trkpt lat="59.9562943" lon="17.7940959">
        <ele>31.3801</ele>
        <time>2013-05-22T20:57:08Z</time>
      </trkpt>
      <trkpt lat="59.956323" lon="17.7939587">
        <ele>31.3801</ele>
        <time>2013-05-22T20:57:09Z</time>
      </trkpt>
      <trkpt lat="59.9563504" lon="17.7938214">
        <ele>31.3801</ele>
        <time>2013-05-22T20:57:10Z</time>
      </trkpt>
      <trkpt lat="59.9563781" lon="17.7936868">
        <ele>31.8607</ele>
        <time>2013-05-22T20:57:11Z</time>
      </trkpt>
      <trkpt lat="59.9564064" lon="17.7935547">
        <ele>31.8607</ele>
        <time>2013-05-22T20:57:12Z</time>
      </trkpt>
      <trkpt lat="59.9564346" lon="17.7934242">
        <ele>31.8607</ele>
        <time>2013-05-22T20:57:13Z</time>
      </trkpt>
      <trkpt lat="59.9564618" lon="17.7932957">
        <ele>31.8607</ele>
        <time>2013-05-22T20:57:14Z</time>
      </trkpt>
      <trkpt lat="59.9564879" lon="17.7931683">
        <ele>32.3416</ele>
        <time>2013-05-22T20:57:15Z</time>
      </trkpt>
      <trkpt lat="59.9565125" lon="17.7930414">
        <ele>32.3416</ele>
        <time>2013-05-22T20:57:16Z</time>
      </trkpt>
      <trkpt lat="59.9565363" lon="17.792914">
        <ele>32.3416</ele>
        <time>2013-05-22T20:57:17Z</time>
      </trkpt>
      <trkpt lat="59.9565597" lon="17.792786">
        <ele>32.3416</ele>
        <time>2013-05-22T20:57:18Z</time>
      </trkpt>
      <trkpt lat="59.9565833" lon="17.7926577">
        <ele>32.3416</ele>
        <time>2013-05-22T20:57:19Z</time>
      </trkpt>
      <trkpt lat="59.9566067" lon="17.7925283">
        <ele>32.3416</ele>
        <time>2013-05-22T20:57:20Z</time>
      </trkpt>
      <trkpt lat="59.95663" lon="17.7923975">
        <ele>32.3416</ele>
        <time>2013-05-22T20:57:21Z</time>
      </trkpt>
      <trkpt lat="59.9566529" lon="17.7922647">
        <ele>32.3416</ele>
        <time>2013-05-22T20:57:22Z</time>
      </trkpt>
      <trkpt lat="59.9566756" lon="17.7921296">
        <ele>32.3416</ele>
        <time>2013-05-22T20:57:23Z</time>
      </trkpt>
      <trkpt lat="59.956698" lon="17.7919934">
        <ele>32.3416</ele>
        <time>2013-05-22T20:57:24Z</time>
      </trkpt>
      <trkpt lat="59.9567207" lon="17.7918572">
        <ele>32.3416</ele>
        <time>2013-05-22T20:57:25Z</time>
      </trkpt>
      <trkpt lat="59.9567425" lon="17.7917194">
        <ele>32.3416</ele>
        <time>2013-05-22T20:57:26Z</time>
      </trkpt>
      <trkpt lat="59.9567624" lon="17.7915801">
        <ele>32.8223</ele>
        <time>2013-05-22T20:57:27Z</time>
      </trkpt>
      <trkpt lat="59.9567795" lon="17.7914413">
        <ele>32.8223</ele>
        <time>2013-05-22T20:57:28Z</time>
      </trkpt>
      <trkpt lat="59.9567897" lon="17.7913019">
        <ele>33.3029</ele>
        <time>2013-05-22T20:57:29Z</time>
      </trkpt>
      <trkpt lat="59.9567883" lon="17.7911641">
        <ele>33.3029</ele>
        <time>2013-05-22T20:57:30Z</time>
      </trkpt>
      <trkpt lat="59.9567749" lon="17.7910279">
        <ele>33.3029</ele>
        <time>2013-05-22T20:57:31Z</time>
      </trkpt>
      <trkpt lat="59.9567547" lon="17.7908922">
        <ele>33.3029</ele>
        <time>2013-05-22T20:57:32Z</time>
      </trkpt>
      <trkpt lat="59.9567296" lon="17.790758">
        <ele>32.8223</ele>
        <time>2013-05-22T20:57:33Z</time>
      </trkpt>
      <trkpt lat="59.956701" lon="17.7906233">
        <ele>32.3416</ele>
        <time>2013-05-22T20:57:34Z</time>
      </trkpt>
      <trkpt lat="59.9566711" lon="17.7904841">
        <ele>32.3416</ele>
        <time>2013-05-22T20:57:35Z</time>
      </trkpt>
      <trkpt lat="59.9566412" lon="17.7903382">
        <ele>31.8607</ele>
        <time>2013-05-22T20:57:36Z</time>
      </trkpt>
      <trkpt lat="59.9566156" lon="17.7901864">
        <ele>31.8607</ele>
        <time>2013-05-22T20:57:37Z</time>
      </trkpt>
      <trkpt lat="59.956604" lon="17.7900244">
        <ele>31.3801</ele>
        <time>2013-05-22T20:57:38Z</time>
      </trkpt>
      <trkpt lat="59.9566099" lon="17.7898546">
        <ele>31.8607</ele>
        <time>2013-05-22T20:57:39Z</time>
      </trkpt>
      <trkpt lat="59.9566357" lon="17.7896957">
        <ele>31.3801</ele>
        <time>2013-05-22T20:57:40Z</time>
      </trkpt>
      <trkpt lat="59.9566834" lon="17.7895571">
        <ele>30.8995</ele>
        <time>2013-05-22T20:57:41Z</time>
      </trkpt>
      <trkpt lat="59.9567393" lon="17.7894391">
        <ele>30.8995</ele>
        <time>2013-05-22T20:57:42Z</time>
      </trkpt>
      <trkpt lat="59.9568039" lon="17.7893517">
        <ele>28.9769</ele>
        <time>2013-05-22T20:57:43Z</time>
      </trkpt>
      <trkpt lat="59.9568713" lon="17.7892693">
        <ele>28.4962</ele>
        <time>2013-05-22T20:57:44Z</time>
      </trkpt>
      <trkpt lat="59.9569391" lon="17.7891898">
        <ele>28.0155</ele>
        <time>2013-05-22T20:57:45Z</time>
      </trkpt>
      <trkpt lat="59.9570076" lon="17.7891054">
        <ele>28.0155</ele>
        <time>2013-05-22T20:57:46Z</time>
      </trkpt>
      <trkpt lat="59.9570741" lon="17.7890185">
        <ele>27.5349</ele>
        <time>2013-05-22T20:57:47Z</time>
      </trkpt>
      <trkpt lat="59.9571342" lon="17.7889237">
        <ele>27.5349</ele>
        <time>2013-05-22T20:57:48Z</time>
      </trkpt>
      <trkpt lat="59.9571865" lon="17.7888109">
        <ele>28.4962</ele>
        <time>2013-05-22T20:57:49Z</time>
      </trkpt>
      <trkpt lat="59.957234" lon="17.7887013">
        <ele>28.9769</ele>
        <time>2013-05-22T20:57:50Z</time>
      </trkpt>
      <trkpt lat="59.9572773" lon="17.7885925">
        <ele>28.9769</ele>
        <time>2013-05-22T20:57:51Z</time>
      </trkpt>
      <trkpt lat="59.9573175" lon="17.7884863">
        <ele>28.4962</ele>
        <time>2013-05-22T20:57:52Z</time>
      </trkpt>
      <trkpt lat="59.9573566" lon="17.7883741">
        <ele>28.4962</ele>
        <time>2013-05-22T20:57:53Z</time>
      </trkpt>
      <trkpt lat="59.9573926" lon="17.7882565">
        <ele>28.0155</ele>
        <time>2013-05-22T20:57:54Z</time>
      </trkpt>
      <trkpt lat="59.9574256" lon="17.7881343">
        <ele>27.5349</ele>
        <time>2013-05-22T20:57:55Z</time>
      </trkpt>
      <trkpt lat="59.9574581" lon="17.7880105">
        <ele>27.0543</ele>
        <time>2013-05-22T20:57:56Z</time>
      </trkpt>
      <trkpt lat="59.957492" lon="17.7878846">
        <ele>27.0543</ele>
        <time>2013-05-22T20:57:57Z</time>
      </trkpt>
      <trkpt lat="59.957526" lon="17.7877586">
        <ele>26.5736</ele>
        <time>2013-05-22T20:57:58Z</time>
      </trkpt>
      <trkpt lat="59.9575605" lon="17.7876303">
        <ele>26.5736</ele>
        <time>2013-05-22T20:57:59Z</time>
      </trkpt>
      <trkpt lat="59.9575935" lon="17.7875032">
        <ele>27.0543</ele>
        <time>2013-05-22T20:58:00Z</time>
      </trkpt>
      <trkpt lat="59.9576247" lon="17.7873789">
        <ele>27.5349</ele>
        <time>2013-05-22T20:58:01Z</time>
      </trkpt>
      <trkpt lat="59.9576516" lon="17.7872505">
        <ele>28.0155</ele>
        <time>2013-05-22T20:58:02Z</time>
      </trkpt>
      <trkpt lat="59.9576749" lon="17.7871262">
        <ele>27.5349</ele>
        <time>2013-05-22T20:58:03Z</time>
      </trkpt>
      <trkpt lat="59.9576991" lon="17.7870065">
        <ele>27.5349</ele>
        <time>2013-05-22T20:58:04Z</time>
      </trkpt>
      <trkpt lat="59.9577281" lon="17.7868878">
        <ele>27.0543</ele>
        <time>2013-05-22T20:58:05Z</time>
      </trkpt>
      <trkpt lat="59.9577632" lon="17.7867694">
        <ele>27.0543</ele>
        <time>2013-05-22T20:58:06Z</time>
      </trkpt>
      <trkpt lat="59.9578066" lon="17.7866564">
        <ele>27.0543</ele>
        <time>2013-05-22T20:58:07Z</time>
      </trkpt>
      <trkpt lat="59.9578588" lon="17.7865544">
        <ele>27.0543</ele>
        <time>2013-05-22T20:58:08Z</time>
      </trkpt>
      <trkpt lat="59.9579158" lon="17.7864621">
        <ele>27.0543</ele>
        <time>2013-05-22T20:58:09Z</time>
      </trkpt>
      <trkpt lat="59.9579758" lon="17.7863756">
        <ele>27.0543</ele>
        <time>2013-05-22T20:58:10Z</time>
      </trkpt>
      <trkpt lat="59.958037" lon="17.7862978">
        <ele>27.0543</ele>
        <time>2013-05-22T20:58:11Z</time>
      </trkpt>
      <trkpt lat="59.9580965" lon="17.7862181">
        <ele>27.5349</ele>
        <time>2013-05-22T20:58:12Z</time>
      </trkpt>
      <trkpt lat="59.9581551" lon="17.7861424">
        <ele>28.0155</ele>
        <time>2013-05-22T20:58:13Z</time>
      </trkpt>
      <trkpt lat="59.9582141" lon="17.7860688">
        <ele>28.4962</ele>
        <time>2013-05-22T20:58:14Z</time>
      </trkpt>
      <trkpt lat="59.9582736" lon="17.7859981">
        <ele>28.4962</ele>
        <time>2013-05-22T20:58:15Z</time>
      </trkpt>
      <trkpt lat="59.9583327" lon="17.7859327">
        <ele>28.4962</ele>
        <time>2013-05-22T20:58:16Z</time>
      </trkpt>
      <trkpt lat="59.9583917" lon="17.7858699">
        <ele>28.4962</ele>
        <time>2013-05-22T20:58:17Z</time>
      </trkpt>
      <trkpt lat="59.9584515" lon="17.7858072">
        <ele>28.4962</ele>
        <time>2013-05-22T20:58:18Z</time>
      </trkpt>
      <trkpt lat="59.9585115" lon="17.7857421">
        <ele>28.9769</ele>
        <time>2013-05-22T20:58:19Z</time>
      </trkpt>
      <trkpt lat="59.9585701" lon="17.7856757">
        <ele>28.9769</ele>
        <time>2013-05-22T20:58:20Z</time>
      </trkpt>
      <trkpt lat="59.9586289" lon="17.7856121">
        <ele>29.4575</ele>
        <time>2013-05-22T20:58:21Z</time>
      </trkpt>
      <trkpt lat="59.9586881" lon="17.7855534">
        <ele>29.9381</ele>
        <time>2013-05-22T20:58:22Z</time>
      </trkpt>
      <trkpt lat="59.9587475" lon="17.7854992">
        <ele>29.9381</ele>
        <time>2013-05-22T20:58:23Z</time>
      </trkpt>
      <trkpt lat="59.9588079" lon="17.7854463">
        <ele>30.4188</ele>
        <time>2013-05-22T20:58:24Z</time>
      </trkpt>
      <trkpt lat="59.9588709" lon="17.785399">
        <ele>30.4188</ele>
        <time>2013-05-22T20:58:25Z</time>
      </trkpt>
      <trkpt lat="59.9589352" lon="17.7853532">
        <ele>30.4188</ele>
        <time>2013-05-22T20:58:26Z</time>
      </trkpt>
      <trkpt lat="59.9589994" lon="17.7853023">
        <ele>30.4188</ele>
        <time>2013-05-22T20:58:27Z</time>
      </trkpt>
      <trkpt lat="59.959064" lon="17.7852511">
        <ele>30.4188</ele>
        <time>2013-05-22T20:58:28Z</time>
      </trkpt>
      <trkpt lat="59.959128" lon="17.7851993">
        <ele>30.4188</ele>
        <time>2013-05-22T20:58:29Z</time>
      </trkpt>
      <trkpt lat="59.9591914" lon="17.7851439">
        <ele>30.8995</ele>
        <time>2013-05-22T20:58:30Z</time>
      </trkpt>
      <trkpt lat="59.9592525" lon="17.7850843">
        <ele>30.8995</ele>
        <time>2013-05-22T20:58:31Z</time>
      </trkpt>
      <trkpt lat="59.9593113" lon="17.7850204">
        <ele>31.3801</ele>
        <time>2013-05-22T20:58:32Z</time>
      </trkpt>
      <trkpt lat="59.9593682" lon="17.784951">
        <ele>31.3801</ele>
        <time>2013-05-22T20:58:33Z</time>
      </trkpt>
      <trkpt lat="59.9594229" lon="17.7848765">
        <ele>31.8607</ele>
        <time>2013-05-22T20:58:34Z</time>
      </trkpt>
      <trkpt lat="59.959475" lon="17.7847978">
        <ele>31.8607</ele>
        <time>2013-05-22T20:58:35Z</time>
      </trkpt>
      <trkpt lat="59.9595247" lon="17.784718">
        <ele>32.3416</ele>
        <time>2013-05-22T20:58:36Z</time>
      </trkpt>
      <trkpt lat="59.9595737" lon="17.7846371">
        <ele>32.3416</ele>
        <time>2013-05-22T20:58:37Z</time>
      </trkpt>
      <trkpt lat="59.9596224" lon="17.7845538">
        <ele>32.3416</ele>
        <time>2013-05-22T20:58:38Z</time>
      </trkpt>
      <trkpt lat="59.9596716" lon="17.7844677">
        <ele>32.3416</ele>
        <time>2013-05-22T20:58:39Z</time>
      </trkpt>
      <trkpt lat="59.9597229" lon="17.7843842">
        <ele>32.3416</ele>
        <time>2013-05-22T20:58:40Z</time>
      </trkpt>
      <trkpt lat="59.9597763" lon="17.7843046">
        <ele>32.3416</ele>
        <time>2013-05-22T20:58:41Z</time>
      </trkpt>
      <trkpt lat="59.9598287" lon="17.7842203">
        <ele>31.8607</ele>
        <time>2013-05-22T20:58:42Z</time>
      </trkpt>
      <trkpt lat="59.9598781" lon="17.784128">
        <ele>31.8607</ele>
        <time>2013-05-22T20:58:43Z</time>
      </trkpt>
      <trkpt lat="59.9599246" lon="17.7840299">
        <ele>31.8607</ele>
        <time>2013-05-22T20:58:44Z</time>
      </trkpt>
      <trkpt lat="59.9599694" lon="17.7839305">
        <ele>31.3801</ele>
        <time>2013-05-22T20:58:45Z</time>
      </trkpt>
      <trkpt lat="59.9600124" lon="17.7838243">
        <ele>31.3801</ele>
        <time>2013-05-22T20:58:46Z</time>
      </trkpt>
      <trkpt lat="59.9600537" lon="17.7837127">
        <ele>31.3801</ele>
        <time>2013-05-22T20:58:47Z</time>
      </trkpt>
      <trkpt lat="59.9600941" lon="17.7835986">
        <ele>31.3801</ele>
        <time>2013-05-22T20:58:48Z</time>
      </trkpt>
      <trkpt lat="59.9601343" lon="17.7834825">
        <ele>30.8995</ele>
        <time>2013-05-22T20:58:49Z</time>
      </trkpt>
      <trkpt lat="59.9601746" lon="17.7833675">
        <ele>30.8995</ele>
        <time>2013-05-22T20:58:50Z</time>
      </trkpt>
      <trkpt lat="59.9602147" lon="17.7832523">
        <ele>30.8995</ele>
        <time>2013-05-22T20:58:51Z</time>
      </trkpt>
      <trkpt lat="59.9602547" lon="17.7831377">
        <ele>30.4188</ele>
        <time>2013-05-22T20:58:52Z</time>
      </trkpt>
      <trkpt lat="59.9602949" lon="17.7830252">
        <ele>30.4188</ele>
        <time>2013-05-22T20:58:53Z</time>
      </trkpt>
      <trkpt lat="59.9603344" lon="17.7829141">
        <ele>30.4188</ele>
        <time>2013-05-22T20:58:54Z</time>
      </trkpt>
      <trkpt lat="59.9603728" lon="17.7828024">
        <ele>30.4188</ele>
        <time>2013-05-22T20:58:55Z</time>
      </trkpt>
      <trkpt lat="59.9604093" lon="17.7826878">
        <ele>29.9381</ele>
        <time>2013-05-22T20:58:56Z</time>
      </trkpt>
      <trkpt lat="59.9604447" lon="17.7825713">
        <ele>29.9381</ele>
        <time>2013-05-22T20:58:57Z</time>
      </trkpt>
      <trkpt lat="59.9604807" lon="17.7824551">
        <ele>29.4575</ele>
        <time>2013-05-22T20:58:58Z</time>
      </trkpt>
      <trkpt lat="59.9605155" lon="17.7823375">
        <ele>28.9769</ele>
        <time>2013-05-22T20:58:59Z</time>
      </trkpt>
      <trkpt lat="59.9605505" lon="17.782219">
        <ele>28.4962</ele>
        <time>2013-05-22T20:59:00Z</time>
      </trkpt>
      <trkpt lat="59.9605888" lon="17.782103">
        <ele>28.0155</ele>
        <time>2013-05-22T20:59:01Z</time>
      </trkpt>
      <trkpt lat="59.9606327" lon="17.7819932">
        <ele>27.5349</ele>
        <time>2013-05-22T20:59:02Z</time>
      </trkpt>
      <trkpt lat="59.9606804" lon="17.7818891">
        <ele>27.5349</ele>
        <time>2013-05-22T20:59:03Z</time>
      </trkpt>
      <trkpt lat="59.9607306" lon="17.7817907">
        <ele>27.0543</ele>
        <time>2013-05-22T20:59:04Z</time>
      </trkpt>
      <trkpt lat="59.9607829" lon="17.7816957">
        <ele>26.5736</ele>
        <time>2013-05-22T20:59:05Z</time>
      </trkpt>
      <trkpt lat="59.9608361" lon="17.7816007">
        <ele>26.5736</ele>
        <time>2013-05-22T20:59:06Z</time>
      </trkpt>
      <trkpt lat="59.9608892" lon="17.7815089">
        <ele>26.0929</ele>
        <time>2013-05-22T20:59:07Z</time>
      </trkpt>
      <trkpt lat="59.960942" lon="17.7814194">
        <ele>25.6123</ele>
        <time>2013-05-22T20:59:08Z</time>
      </trkpt>
      <trkpt lat="59.9609943" lon="17.7813322">
        <ele>25.6123</ele>
        <time>2013-05-22T20:59:09Z</time>
      </trkpt>
      <trkpt lat="59.9610461" lon="17.7812435">
        <ele>25.1317</ele>
        <time>2013-05-22T20:59:10Z</time>
      </trkpt>
      <trkpt lat="59.9610968" lon="17.7811525">
        <ele>25.1317</ele>
        <time>2013-05-22T20:59:11Z</time>
      </trkpt>
      <trkpt lat="59.9611476" lon="17.7810603">
        <ele>24.651</ele>
        <time>2013-05-22T20:59:12Z</time>
      </trkpt>
      <trkpt lat="59.9611992" lon="17.7809674">
        <ele>24.651</ele>
        <time>2013-05-22T20:59:13Z</time>
      </trkpt>
      <trkpt lat="59.9612516" lon="17.7808727">
        <ele>24.1703</ele>
        <time>2013-05-22T20:59:14Z</time>
      </trkpt>
      <trkpt lat="59.961304" lon="17.7807761">
        <ele>24.1703</ele>
        <time>2013-05-22T20:59:15Z</time>
      </trkpt>
      <trkpt lat="59.9613562" lon="17.7806797">
        <ele>24.1703</ele>
        <time>2013-05-22T20:59:16Z</time>
      </trkpt>
      <trkpt lat="59.9614086" lon="17.780583">
        <ele>23.6896</ele>
        <time>2013-05-22T20:59:17Z</time>
      </trkpt>
      <trkpt lat="59.9614614" lon="17.780486">
        <ele>23.6896</ele>
        <time>2013-05-22T20:59:18Z</time>
      </trkpt>
      <trkpt lat="59.9615142" lon="17.7803878">
        <ele>23.6896</ele>
        <time>2013-05-22T20:59:19Z</time>
      </trkpt>
      <trkpt lat="59.9615662" lon="17.780287">
        <ele>23.6896</ele>
        <time>2013-05-22T20:59:20Z</time>
      </trkpt>
      <trkpt lat="59.961616" lon="17.7801808">
        <ele>23.6896</ele>
        <time>2013-05-22T20:59:21Z</time>
      </trkpt>
      <trkpt lat="59.9616644" lon="17.7800709">
        <ele>23.6896</ele>
        <time>2013-05-22T20:59:22Z</time>
      </trkpt>
      <trkpt lat="59.9617122" lon="17.7799599">
        <ele>23.6896</ele>
        <time>2013-05-22T20:59:23Z</time>
      </trkpt>
      <trkpt lat="59.9617594" lon="17.7798483">
        <ele>23.6896</ele>
        <time>2013-05-22T20:59:24Z</time>
      </trkpt>
      <trkpt lat="59.9618065" lon="17.7797373">
        <ele>23.6896</ele>
        <time>2013-05-22T20:59:25Z</time>
      </trkpt>
      <trkpt lat="59.9618545" lon="17.7796276">
        <ele>23.6896</ele>
        <time>2013-05-22T20:59:26Z</time>
      </trkpt>
      <trkpt lat="59.9619039" lon="17.779519">
        <ele>23.6896</ele>
        <time>2013-05-22T20:59:27Z</time>
      </trkpt>
      <trkpt lat="59.9619536" lon="17.7794084">
        <ele>23.6896</ele>
        <time>2013-05-22T20:59:28Z</time>
      </trkpt>
      <trkpt lat="59.9620039" lon="17.779296">
        <ele>23.209</ele>
        <time>2013-05-22T20:59:29Z</time>
      </trkpt>
      <trkpt lat="59.9620557" lon="17.7791839">
        <ele>23.209</ele>
        <time>2013-05-22T20:59:30Z</time>
      </trkpt>
      <trkpt lat="59.9621074" lon="17.77907">
        <ele>23.209</ele>
        <time>2013-05-22T20:59:31Z</time>
      </trkpt>
      <trkpt lat="59.9621571" lon="17.7789546">
        <ele>23.209</ele>
        <time>2013-05-22T20:59:32Z</time>
      </trkpt>
      <trkpt lat="59.9622068" lon="17.7788308">
        <ele>23.6896</ele>
        <time>2013-05-22T20:59:33Z</time>
      </trkpt>
      <trkpt lat="59.9622576" lon="17.778712">
        <ele>24.1703</ele>
        <time>2013-05-22T20:59:34Z</time>
      </trkpt>
      <trkpt lat="59.9623074" lon="17.7785971">
        <ele>24.1703</ele>
        <time>2013-05-22T20:59:35Z</time>
      </trkpt>
      <trkpt lat="59.9623557" lon="17.7784831">
        <ele>24.1703</ele>
        <time>2013-05-22T20:59:36Z</time>
      </trkpt>
      <trkpt lat="59.9624027" lon="17.7783708">
        <ele>24.651</ele>
        <time>2013-05-22T20:59:37Z</time>
      </trkpt>
      <trkpt lat="59.9624489" lon="17.778262">
        <ele>24.651</ele>
        <time>2013-05-22T20:59:38Z</time>
      </trkpt>
      <trkpt lat="59.9624944" lon="17.7781564">
        <ele>24.651</ele>
        <time>2013-05-22T20:59:39Z</time>
      </trkpt>
      <trkpt lat="59.9625405" lon="17.7780549">
        <ele>24.651</ele>
        <time>2013-05-22T20:59:40Z</time>
      </trkpt>
      <trkpt lat="59.9625872" lon="17.7779564">
        <ele>24.651</ele>
        <time>2013-05-22T20:59:41Z</time>
      </trkpt>
      <trkpt lat="59.9626343" lon="17.777858">
        <ele>24.651</ele>
        <time>2013-05-22T20:59:42Z</time>
      </trkpt>
      <trkpt lat="59.9626819" lon="17.7777602">
        <ele>24.651</ele>
        <time>2013-05-22T20:59:43Z</time>
      </trkpt>
      <trkpt lat="59.9627285" lon="17.7776622">
        <ele>24.651</ele>
        <time>2013-05-22T20:59:44Z</time>
      </trkpt>
      <trkpt lat="59.9627736" lon="17.7775632">
        <ele>25.1317</ele>
        <time>2013-05-22T20:59:45Z</time>
      </trkpt>
      <trkpt lat="59.9628188" lon="17.7774662">
        <ele>25.1317</ele>
        <time>2013-05-22T20:59:46Z</time>
      </trkpt>
      <trkpt lat="59.9628642" lon="17.7773722">
        <ele>24.651</ele>
        <time>2013-05-22T20:59:47Z</time>
      </trkpt>
      <trkpt lat="59.9629083" lon="17.7772766">
        <ele>24.651</ele>
        <time>2013-05-22T20:59:48Z</time>
      </trkpt>
      <trkpt lat="59.9629514" lon="17.7771757">
        <ele>24.651</ele>
        <time>2013-05-22T20:59:49Z</time>
      </trkpt>
      <trkpt lat="59.9629943" lon="17.7770685">
        <ele>24.651</ele>
        <time>2013-05-22T20:59:50Z</time>
      </trkpt>
      <trkpt lat="59.9630361" lon="17.7769577">
        <ele>25.1317</ele>
        <time>2013-05-22T20:59:51Z</time>
      </trkpt>
      <trkpt lat="59.9630766" lon="17.7768438">
        <ele>25.1317</ele>
        <time>2013-05-22T20:59:52Z</time>
      </trkpt>
      <trkpt lat="59.9631128" lon="17.7767267">
        <ele>25.6123</ele>
        <time>2013-05-22T20:59:53Z</time>
      </trkpt>
      <trkpt lat="59.9631495" lon="17.7766101">
        <ele>25.6123</ele>
        <time>2013-05-22T20:59:54Z</time>
      </trkpt>
      <trkpt lat="59.963186" lon="17.7764967">
        <ele>25.6123</ele>
        <time>2013-05-22T20:59:55Z</time>
      </trkpt>
      <trkpt lat="59.9632206" lon="17.7763878">
        <ele>25.6123</ele>
        <time>2013-05-22T20:59:56Z</time>
      </trkpt>
      <trkpt lat="59.9632533" lon="17.7762786">
        <ele>25.6123</ele>
        <time>2013-05-22T20:59:57Z</time>
      </trkpt>
      <trkpt lat="59.9632854" lon="17.7761677">
        <ele>25.6123</ele>
        <time>2013-05-22T20:59:58Z</time>
      </trkpt>
      <trkpt lat="59.9633192" lon="17.7760549">
        <ele>25.6123</ele>
        <time>2013-05-22T20:59:59Z</time>
      </trkpt>
      <trkpt lat="59.9633549" lon="17.7759424">
        <ele>25.6123</ele>
        <time>2013-05-22T21:00:00Z</time>
      </trkpt>
      <trkpt lat="59.9633912" lon="17.7758284">
        <ele>25.6123</ele>
        <time>2013-05-22T21:00:01Z</time>
      </trkpt>
      <trkpt lat="59.963428" lon="17.7757119">
        <ele>25.6123</ele>
        <time>2013-05-22T21:00:02Z</time>
      </trkpt>
      <trkpt lat="59.9634658" lon="17.7755926">
        <ele>25.6123</ele>
        <time>2013-05-22T21:00:03Z</time>
      </trkpt>
      <trkpt lat="59.9635041" lon="17.775472">
        <ele>25.1317</ele>
        <time>2013-05-22T21:00:04Z</time>
      </trkpt>
      <trkpt lat="59.9635427" lon="17.7753502">
        <ele>25.1317</ele>
        <time>2013-05-22T21:00:05Z</time>
      </trkpt>
      <trkpt lat="59.9635796" lon="17.7752239">
        <ele>25.1317</ele>
        <time>2013-05-22T21:00:06Z</time>
      </trkpt>
      <trkpt lat="59.9636127" lon="17.7750929">
        <ele>25.1317</ele>
        <time>2013-05-22T21:00:07Z</time>
      </trkpt>
      <trkpt lat="59.9636418" lon="17.7749585">
        <ele>24.651</ele>
        <time>2013-05-22T21:00:08Z</time>
      </trkpt>
      <trkpt lat="59.9636678" lon="17.7748219">
        <ele>24.651</ele>
        <time>2013-05-22T21:00:09Z</time>
      </trkpt>
      <trkpt lat="59.963692" lon="17.7746848">
        <ele>24.651</ele>
        <time>2013-05-22T21:00:10Z</time>
      </trkpt>
      <trkpt lat="59.9637144" lon="17.77455">
        <ele>24.651</ele>
        <time>2013-05-22T21:00:11Z</time>
      </trkpt>
      <trkpt lat="59.9637356" lon="17.774418">
        <ele>24.651</ele>
        <time>2013-05-22T21:00:12Z</time>
      </trkpt>
      <trkpt lat="59.9637573" lon="17.7742874">
        <ele>24.651</ele>
        <time>2013-05-22T21:00:13Z</time>
      </trkpt>
      <trkpt lat="59.9637787" lon="17.7741562">
        <ele>24.651</ele>
        <time>2013-05-22T21:00:14Z</time>
      </trkpt>
      <trkpt lat="59.9638012" lon="17.7740237">
        <ele>24.651</ele>
        <time>2013-05-22T21:00:15Z</time>
      </trkpt>
      <trkpt lat="59.9638247" lon="17.773887">
        <ele>24.651</ele>
        <time>2013-05-22T21:00:16Z</time>
      </trkpt>
      <trkpt lat="59.9638475" lon="17.773746">
        <ele>24.651</ele>
        <time>2013-05-22T21:00:17Z</time>
      </trkpt>
      <trkpt lat="59.9638692" lon="17.7736027">
        <ele>24.651</ele>
        <time>2013-05-22T21:00:18Z</time>
      </trkpt>
      <trkpt lat="59.9638892" lon="17.7734565">
        <ele>25.1317</ele>
        <time>2013-05-22T21:00:19Z</time>
      </trkpt>
      <trkpt lat="59.9639065" lon="17.7733058">
        <ele>25.6123</ele>
        <time>2013-05-22T21:00:20Z</time>
      </trkpt>
      <trkpt lat="59.9639203" lon="17.7731554">
        <ele>26.0929</ele>
        <time>2013-05-22T21:00:21Z</time>
      </trkpt>
      <trkpt lat="59.9639267" lon="17.7730088">
        <ele>26.0929</ele>
        <time>2013-05-22T21:00:22Z</time>
      </trkpt>
      <trkpt lat="59.9639271" lon="17.7728607">
        <ele>25.6123</ele>
        <time>2013-05-22T21:00:23Z</time>
      </trkpt>
      <trkpt lat="59.9639209" lon="17.7727124">
        <ele>25.6123</ele>
        <time>2013-05-22T21:00:24Z</time>
      </trkpt>
      <trkpt lat="59.9639077" lon="17.772566">
        <ele>25.6123</ele>
        <time>2013-05-22T21:00:25Z</time>
      </trkpt>
      <trkpt lat="59.9638882" lon="17.772421">
        <ele>25.6123</ele>
        <time>2013-05-22T21:00:26Z</time>
      </trkpt>
      <trkpt lat="59.9638641" lon="17.772282">
        <ele>25.6123</ele>
        <time>2013-05-22T21:00:27Z</time>
      </trkpt>
      <trkpt lat="59.9638382" lon="17.7721501">
        <ele>26.0929</ele>
        <time>2013-05-22T21:00:28Z</time>
      </trkpt>
      <trkpt lat="59.963812" lon="17.7720265">
        <ele>26.5736</ele>
        <time>2013-05-22T21:00:29Z</time>
      </trkpt>
      <trkpt lat="59.9637859" lon="17.7719076">
        <ele>27.0543</ele>
        <time>2013-05-22T21:00:30Z</time>
      </trkpt>
      <trkpt lat="59.9637589" lon="17.7717924">
        <ele>27.5349</ele>
        <time>2013-05-22T21:00:31Z</time>
      </trkpt>
      <trkpt lat="59.9637325" lon="17.7716797">
        <ele>27.5349</ele>
        <time>2013-05-22T21:00:32Z</time>
      </trkpt>
      <trkpt lat="59.9637074" lon="17.7715678">
        <ele>28.0155</ele>
        <time>2013-05-22T21:00:33Z</time>
      </trkpt>
      <trkpt lat="59.9636818" lon="17.7714575">
        <ele>28.4962</ele>
        <time>2013-05-22T21:00:34Z</time>
      </trkpt>
      <trkpt lat="59.9636562" lon="17.7713483">
        <ele>28.4962</ele>
        <time>2013-05-22T21:00:35Z</time>
      </trkpt>
      <trkpt lat="59.9636304" lon="17.7712351">
        <ele>28.4962</ele>
        <time>2013-05-22T21:00:36Z</time>
      </trkpt>
      <trkpt lat="59.9636045" lon="17.7711187">
        <ele>28.9769</ele>
        <time>2013-05-22T21:00:37Z</time>
      </trkpt>
      <trkpt lat="59.9635787" lon="17.7710011">
        <ele>29.4575</ele>
        <time>2013-05-22T21:00:38Z</time>
      </trkpt>
      <trkpt lat="59.9635547" lon="17.7708825">
        <ele>29.9381</ele>
        <time>2013-05-22T21:00:39Z</time>
      </trkpt>
      <trkpt lat="59.9635336" lon="17.7707613">
        <ele>30.4188</ele>
        <time>2013-05-22T21:00:40Z</time>
      </trkpt>
      <trkpt lat="59.9635164" lon="17.7706419">
        <ele>30.8995</ele>
        <time>2013-05-22T21:00:41Z</time>
      </trkpt>
      <trkpt lat="59.9635019" lon="17.770524">
        <ele>31.3801</ele>
        <time>2013-05-22T21:00:42Z</time>
      </trkpt>
      <trkpt lat="59.9634906" lon="17.770408">
        <ele>31.8607</ele>
        <time>2013-05-22T21:00:43Z</time>
      </trkpt>
      <trkpt lat="59.9634821" lon="17.770294">
        <ele>32.3416</ele>
        <time>2013-05-22T21:00:44Z</time>
      </trkpt>
      <trkpt lat="59.9634751" lon="17.7701807">
        <ele>32.8223</ele>
        <time>2013-05-22T21:00:45Z</time>
      </trkpt>
      <trkpt lat="59.9634714" lon="17.7700671">
        <ele>32.3416</ele>
        <time>2013-05-22T21:00:46Z</time>
      </trkpt>
      <trkpt lat="59.9634667" lon="17.7699604">
        <ele>31.8607</ele>
        <time>2013-05-22T21:00:47Z</time>
      </trkpt>
      <trkpt lat="59.9634693" lon="17.7698479">
        <ele>30.8995</ele>
        <time>2013-05-22T21:00:48Z</time>
      </trkpt>
      <trkpt lat="59.9634757" lon="17.7697263">
        <ele>30.8995</ele>
        <time>2013-05-22T21:00:49Z</time>
      </trkpt>
      <trkpt lat="59.9634898" lon="17.7695999">
        <ele>30.8995</ele>
        <time>2013-05-22T21:00:50Z</time>
      </trkpt>
      <trkpt lat="59.9635144" lon="17.7694781">
        <ele>30.4188</ele>
        <time>2013-05-22T21:00:51Z</time>
      </trkpt>
      <trkpt lat="59.9635468" lon="17.7693533">
        <ele>30.4188</ele>
        <time>2013-05-22T21:00:52Z</time>
      </trkpt>
      <trkpt lat="59.9635829" lon="17.7692332">
        <ele>29.9381</ele>
        <time>2013-05-22T21:00:53Z</time>
      </trkpt>
      <trkpt lat="59.9636202" lon="17.7691136">
        <ele>29.4575</ele>
        <time>2013-05-22T21:00:54Z</time>
      </trkpt>
      <trkpt lat="59.9636569" lon="17.7689954">
        <ele>29.4575</ele>
        <time>2013-05-22T21:00:55Z</time>
      </trkpt>
      <trkpt lat="59.9636916" lon="17.7688745">
        <ele>29.4575</ele>
        <time>2013-05-22T21:00:56Z</time>
      </trkpt>
      <trkpt lat="59.9637264" lon="17.768754">
        <ele>29.4575</ele>
        <time>2013-05-22T21:00:57Z</time>
      </trkpt>
      <trkpt lat="59.9637611" lon="17.7686307">
        <ele>29.9381</ele>
        <time>2013-05-22T21:00:58Z</time>
      </trkpt>
      <trkpt lat="59.9637955" lon="17.7685077">
        <ele>31.3801</ele>
        <time>2013-05-22T21:00:59Z</time>
      </trkpt>
      <trkpt lat="59.9638283" lon="17.7683889">
        <ele>32.3416</ele>
        <time>2013-05-22T21:01:00Z</time>
      </trkpt>
      <trkpt lat="59.9638595" lon="17.7682717">
        <ele>32.8223</ele>
        <time>2013-05-22T21:01:01Z</time>
      </trkpt>
      <trkpt lat="59.9638892" lon="17.7681618">
        <ele>32.8223</ele>
        <time>2013-05-22T21:01:02Z</time>
      </trkpt>
      <trkpt lat="59.9639177" lon="17.7680517">
        <ele>33.3029</ele>
        <time>2013-05-22T21:01:03Z</time>
      </trkpt>
      <trkpt lat="59.9639452" lon="17.7679448">
        <ele>33.7834</ele>
        <time>2013-05-22T21:01:04Z</time>
      </trkpt>
      <trkpt lat="59.9639703" lon="17.7678362">
        <ele>34.2642</ele>
        <time>2013-05-22T21:01:05Z</time>
      </trkpt>
      <trkpt lat="59.9639934" lon="17.7677307">
        <ele>34.2642</ele>
        <time>2013-05-22T21:01:06Z</time>
      </trkpt>
      <trkpt lat="59.9640154" lon="17.7676252">
        <ele>34.2642</ele>
        <time>2013-05-22T21:01:07Z</time>
      </trkpt>
      <trkpt lat="59.9640361" lon="17.7675179">
        <ele>34.2642</ele>
        <time>2013-05-22T21:01:08Z</time>
      </trkpt>
      <trkpt lat="59.964056" lon="17.7674076">
        <ele>34.2642</ele>
        <time>2013-05-22T21:01:09Z</time>
      </trkpt>
      <trkpt lat="59.9640737" lon="17.767292">
        <ele>34.2642</ele>
        <time>2013-05-22T21:01:10Z</time>
      </trkpt>
      <trkpt lat="59.9640878" lon="17.7671771">
        <ele>34.2642</ele>
        <time>2013-05-22T21:01:11Z</time>
      </trkpt>
      <trkpt lat="59.964098" lon="17.7670581">
        <ele>34.2642</ele>
        <time>2013-05-22T21:01:12Z</time>
      </trkpt>
      <trkpt lat="59.9641061" lon="17.7669382">
        <ele>34.2642</ele>
        <time>2013-05-22T21:01:13Z</time>
      </trkpt>
      <trkpt lat="59.9641091" lon="17.7668208">
        <ele>33.7834</ele>
        <time>2013-05-22T21:01:14Z</time>
      </trkpt>
      <trkpt lat="59.9641087" lon="17.7667057">
        <ele>33.3029</ele>
        <time>2013-05-22T21:01:15Z</time>
      </trkpt>
      <trkpt lat="59.9641034" lon="17.7665959">
        <ele>32.3416</ele>
        <time>2013-05-22T21:01:16Z</time>
      </trkpt>
      <trkpt lat="59.9641026" lon="17.7664695">
        <ele>32.3416</ele>
        <time>2013-05-22T21:01:17Z</time>
      </trkpt>
      <trkpt lat="59.964109" lon="17.7663365">
        <ele>32.8223</ele>
        <time>2013-05-22T21:01:18Z</time>
      </trkpt>
      <trkpt lat="59.9641013" lon="17.7661975">
        <ele>32.8223</ele>
        <time>2013-05-22T21:01:19Z</time>
      </trkpt>
      <trkpt lat="59.964092" lon="17.7660705">
        <ele>31.8607</ele>
        <time>2013-05-22T21:01:20Z</time>
      </trkpt>
      <trkpt lat="59.9640926" lon="17.7659254">
        <ele>31.3801</ele>
        <time>2013-05-22T21:01:21Z</time>
      </trkpt>
      <trkpt lat="59.9640995" lon="17.765763">
        <ele>31.3801</ele>
        <time>2013-05-22T21:01:22Z</time>
      </trkpt>
      <trkpt lat="59.9641053" lon="17.7655861">
        <ele>30.4188</ele>
        <time>2013-05-22T21:01:23Z</time>
      </trkpt>
      <trkpt lat="59.9641166" lon="17.7654092">
        <ele>30.4188</ele>
        <time>2013-05-22T21:01:24Z</time>
      </trkpt>
      <trkpt lat="59.9641366" lon="17.7652249">
        <ele>30.4188</ele>
        <time>2013-05-22T21:01:25Z</time>
      </trkpt>
      <trkpt lat="59.964164" lon="17.7650472">
        <ele>28.9769</ele>
        <time>2013-05-22T21:01:26Z</time>
      </trkpt>
      <trkpt lat="59.9641966" lon="17.7648721">
        <ele>28.0155</ele>
        <time>2013-05-22T21:01:27Z</time>
      </trkpt>
      <trkpt lat="59.9642384" lon="17.7647166">
        <ele>25.6123</ele>
        <time>2013-05-22T21:01:28Z</time>
      </trkpt>
      <trkpt lat="59.964283" lon="17.7645602">
        <ele>23.6896</ele>
        <time>2013-05-22T21:01:29Z</time>
      </trkpt>
      <trkpt lat="59.9643286" lon="17.7643871">
        <ele>24.651</ele>
        <time>2013-05-22T21:01:30Z</time>
      </trkpt>
      <trkpt lat="59.9643712" lon="17.7642253">
        <ele>24.1703</ele>
        <time>2013-05-22T21:01:31Z</time>
      </trkpt>
      <trkpt lat="59.964412" lon="17.7640628">
        <ele>24.1703</ele>
        <time>2013-05-22T21:01:32Z</time>
      </trkpt>
      <trkpt lat="59.964451" lon="17.7639026">
        <ele>24.1703</ele>
        <time>2013-05-22T21:01:33Z</time>
      </trkpt>
      <trkpt lat="59.9644886" lon="17.7637442">
        <ele>24.1703</ele>
        <time>2013-05-22T21:01:34Z</time>
      </trkpt>
      <trkpt lat="59.964526" lon="17.76359">
        <ele>24.1703</ele>
        <time>2013-05-22T21:01:35Z</time>
      </trkpt>
      <trkpt lat="59.9645632" lon="17.7634402">
        <ele>24.1703</ele>
        <time>2013-05-22T21:01:36Z</time>
      </trkpt>
      <trkpt lat="59.9645996" lon="17.7632932">
        <ele>24.1703</ele>
        <time>2013-05-22T21:01:37Z</time>
      </trkpt>
      <trkpt lat="59.9646368" lon="17.7631522">
        <ele>23.209</ele>
        <time>2013-05-22T21:01:38Z</time>
      </trkpt>
      <trkpt lat="59.9646733" lon="17.7630155">
        <ele>22.7283</ele>
        <time>2013-05-22T21:01:39Z</time>
      </trkpt>
      <trkpt lat="59.9647094" lon="17.7628782">
        <ele>22.2476</ele>
        <time>2013-05-22T21:01:40Z</time>
      </trkpt>
      <trkpt lat="59.9647465" lon="17.7627429">
        <ele>21.767</ele>
        <time>2013-05-22T21:01:41Z</time>
      </trkpt>
      <trkpt lat="59.9647857" lon="17.7626078">
        <ele>22.2476</ele>
        <time>2013-05-22T21:01:42Z</time>
      </trkpt>
      <trkpt lat="59.9648275" lon="17.7624869">
        <ele>21.767</ele>
        <time>2013-05-22T21:01:43Z</time>
      </trkpt>
      <trkpt lat="59.9648707" lon="17.7623648">
        <ele>21.2864</ele>
        <time>2013-05-22T21:01:44Z</time>
      </trkpt>
      <trkpt lat="59.9649141" lon="17.7622483">
        <ele>21.2864</ele>
        <time>2013-05-22T21:01:45Z</time>
      </trkpt>
      <trkpt lat="59.9649576" lon="17.7621398">
        <ele>20.325</ele>
        <time>2013-05-22T21:01:46Z</time>
      </trkpt>
      <trkpt lat="59.9650009" lon="17.7620358">
        <ele>20.325</ele>
        <time>2013-05-22T21:01:47Z</time>
      </trkpt>
      <trkpt lat="59.9650424" lon="17.7619265">
        <ele>20.8057</ele>
        <time>2013-05-22T21:01:48Z</time>
      </trkpt>
      <trkpt lat="59.9650803" lon="17.7618055">
        <ele>22.7283</ele>
        <time>2013-05-22T21:01:49Z</time>
      </trkpt>
      <trkpt lat="59.9651216" lon="17.7617002">
        <ele>22.7283</ele>
        <time>2013-05-22T21:01:50Z</time>
      </trkpt>
      <trkpt lat="59.9651627" lon="17.7615996">
        <ele>22.2476</ele>
        <time>2013-05-22T21:01:51Z</time>
      </trkpt>
      <trkpt lat="59.9652014" lon="17.7614876">
        <ele>22.7283</ele>
        <time>2013-05-22T21:01:52Z</time>
      </trkpt>
      <trkpt lat="59.9652435" lon="17.7613713">
        <ele>23.6896</ele>
        <time>2013-05-22T21:01:53Z</time>
      </trkpt>
      <trkpt lat="59.9652849" lon="17.7612584">
        <ele>23.6896</ele>
        <time>2013-05-22T21:01:54Z</time>
      </trkpt>
      <trkpt lat="59.9653284" lon="17.7611447">
        <ele>23.6896</ele>
        <time>2013-05-22T21:01:55Z</time>
      </trkpt>
      <trkpt lat="59.9653762" lon="17.7610341">
        <ele>24.1703</ele>
        <time>2013-05-22T21:01:56Z</time>
      </trkpt>
      <trkpt lat="59.9654253" lon="17.7609298">
        <ele>24.651</ele>
        <time>2013-05-22T21:01:57Z</time>
      </trkpt>
      <trkpt lat="59.9654751" lon="17.7608346">
        <ele>24.1703</ele>
        <time>2013-05-22T21:01:58Z</time>
      </trkpt>
      <trkpt lat="59.9655263" lon="17.7607446">
        <ele>24.1703</ele>
        <time>2013-05-22T21:01:59Z</time>
      </trkpt>
      <trkpt lat="59.9655775" lon="17.760658">
        <ele>24.1703</ele>
        <time>2013-05-22T21:02:00Z</time>
      </trkpt>
      <trkpt lat="59.9656294" lon="17.7605787">
        <ele>23.6896</ele>
        <time>2013-05-22T21:02:01Z</time>
      </trkpt>
      <trkpt lat="59.9656803" lon="17.7604995">
        <ele>23.209</ele>
        <time>2013-05-22T21:02:02Z</time>
      </trkpt>
      <trkpt lat="59.9657313" lon="17.7604182">
        <ele>22.7283</ele>
        <time>2013-05-22T21:02:03Z</time>
      </trkpt>
      <trkpt lat="59.9657838" lon="17.7603341">
        <ele>22.2476</ele>
        <time>2013-05-22T21:02:04Z</time>
      </trkpt>
      <trkpt lat="59.9658377" lon="17.7602447">
        <ele>22.2476</ele>
        <time>2013-05-22T21:02:05Z</time>
      </trkpt>
      <trkpt lat="59.9658922" lon="17.7601553">
        <ele>22.2476</ele>
        <time>2013-05-22T21:02:06Z</time>
      </trkpt>
      <trkpt lat="59.9659479" lon="17.7600668">
        <ele>22.2476</ele>
        <time>2013-05-22T21:02:07Z</time>
      </trkpt>
      <trkpt lat="59.9660034" lon="17.7599753">
        <ele>22.2476</ele>
        <time>2013-05-22T21:02:08Z</time>
      </trkpt>
      <trkpt lat="59.9660573" lon="17.7598826">
        <ele>21.2864</ele>
        <time>2013-05-22T21:02:09Z</time>
      </trkpt>
      <trkpt lat="59.9661118" lon="17.7597933">
        <ele>20.8057</ele>
        <time>2013-05-22T21:02:10Z</time>
      </trkpt>
      <trkpt lat="59.9661675" lon="17.759701">
        <ele>20.325</ele>
        <time>2013-05-22T21:02:11Z</time>
      </trkpt>
      <trkpt lat="59.9662226" lon="17.7596042">
        <ele>20.325</ele>
        <time>2013-05-22T21:02:12Z</time>
      </trkpt>
      <trkpt lat="59.9662771" lon="17.7595068">
        <ele>20.325</ele>
        <time>2013-05-22T21:02:13Z</time>
      </trkpt>
      <trkpt lat="59.9663313" lon="17.7594146">
        <ele>20.325</ele>
        <time>2013-05-22T21:02:14Z</time>
      </trkpt>
      <trkpt lat="59.9663857" lon="17.759332">
        <ele>20.325</ele>
        <time>2013-05-22T21:02:15Z</time>
      </trkpt>
      <trkpt lat="59.9664413" lon="17.7592557">
        <ele>20.8057</ele>
        <time>2013-05-22T21:02:16Z</time>
      </trkpt>
      <trkpt lat="59.966496" lon="17.7591794">
        <ele>19.3638</ele>
        <time>2013-05-22T21:02:17Z</time>
      </trkpt>
      <trkpt lat="59.9665534" lon="17.7591064">
        <ele>19.3638</ele>
        <time>2013-05-22T21:02:18Z</time>
      </trkpt>
      <trkpt lat="59.9666116" lon="17.7590377">
        <ele>19.3638</ele>
        <time>2013-05-22T21:02:19Z</time>
      </trkpt>
      <trkpt lat="59.9666699" lon="17.7589755">
        <ele>19.3638</ele>
        <time>2013-05-22T21:02:20Z</time>
      </trkpt>
      <trkpt lat="59.9667274" lon="17.7589142">
        <ele>19.3638</ele>
        <time>2013-05-22T21:02:21Z</time>
      </trkpt>
      <trkpt lat="59.9667832" lon="17.7588558">
        <ele>19.3638</ele>
        <time>2013-05-22T21:02:22Z</time>
      </trkpt>
      <trkpt lat="59.9668378" lon="17.7588003">
        <ele>19.3638</ele>
        <time>2013-05-22T21:02:23Z</time>
      </trkpt>
      <trkpt lat="59.9668903" lon="17.7587487">
        <ele>18.8831</ele>
        <time>2013-05-22T21:02:24Z</time>
      </trkpt>
      <trkpt lat="59.9669457" lon="17.7587121">
        <ele>19.3638</ele>
        <time>2013-05-22T21:02:25Z</time>
      </trkpt>
      <trkpt lat="59.9669991" lon="17.7586687">
        <ele>19.3638</ele>
        <time>2013-05-22T21:02:26Z</time>
      </trkpt>
      <trkpt lat="59.9670519" lon="17.7586247">
        <ele>18.8831</ele>
        <time>2013-05-22T21:02:27Z</time>
      </trkpt>
      <trkpt lat="59.9671037" lon="17.7585778">
        <ele>18.8831</ele>
        <time>2013-05-22T21:02:28Z</time>
      </trkpt>
      <trkpt lat="59.967155" lon="17.7585341">
        <ele>18.8831</ele>
        <time>2013-05-22T21:02:29Z</time>
      </trkpt>
      <trkpt lat="59.9672072" lon="17.7584953">
        <ele>18.8831</ele>
        <time>2013-05-22T21:02:30Z</time>
      </trkpt>
      <trkpt lat="59.9672586" lon="17.7584554">
        <ele>18.8831</ele>
        <time>2013-05-22T21:02:31Z</time>
      </trkpt>
      <trkpt lat="59.9673094" lon="17.7584127">
        <ele>18.4023</ele>
        <time>2013-05-22T21:02:32Z</time>
      </trkpt>
      <trkpt lat="59.9673611" lon="17.7583684">
        <ele>18.4023</ele>
        <time>2013-05-22T21:02:33Z</time>
      </trkpt>
      <trkpt lat="59.9674129" lon="17.7583232">
        <ele>18.4023</ele>
        <time>2013-05-22T21:02:34Z</time>
      </trkpt>
      <trkpt lat="59.9674653" lon="17.7582765">
        <ele>17.9218</ele>
        <time>2013-05-22T21:02:35Z</time>
      </trkpt>
      <trkpt lat="59.9675185" lon="17.7582235">
        <ele>17.9218</ele>
        <time>2013-05-22T21:02:36Z</time>
      </trkpt>
      <trkpt lat="59.9675709" lon="17.7581657">
        <ele>18.4023</ele>
        <time>2013-05-22T21:02:37Z</time>
      </trkpt>
      <trkpt lat="59.9676186" lon="17.7581067">
        <ele>18.4023</ele>
        <time>2013-05-22T21:02:38Z</time>
      </trkpt>
      <trkpt lat="59.9676723" lon="17.7580534">
        <ele>19.3638</ele>
        <time>2013-05-22T21:02:39Z</time>
      </trkpt>
      <trkpt lat="59.9677232" lon="17.7579559">
        <ele>24.651</ele>
        <time>2013-05-22T21:02:40Z</time>
      </trkpt>
      <trkpt lat="59.9677693" lon="17.7578895">
        <ele>25.1317</ele>
        <time>2013-05-22T21:02:41Z</time>
      </trkpt>
      <trkpt lat="59.9678178" lon="17.7578201">
        <ele>26.5736</ele>
        <time>2013-05-22T21:02:42Z</time>
      </trkpt>
      <trkpt lat="59.9678655" lon="17.7577571">
        <ele>27.0543</ele>
        <time>2013-05-22T21:02:43Z</time>
      </trkpt>
      <trkpt lat="59.9679111" lon="17.757695">
        <ele>27.5349</ele>
        <time>2013-05-22T21:02:44Z</time>
      </trkpt>
      <trkpt lat="59.9679579" lon="17.7576371">
        <ele>28.0155</ele>
        <time>2013-05-22T21:02:45Z</time>
      </trkpt>
      <trkpt lat="59.9680057" lon="17.7575841">
        <ele>28.0155</ele>
        <time>2013-05-22T21:02:46Z</time>
      </trkpt>
      <trkpt lat="59.9680537" lon="17.7575328">
        <ele>28.4962</ele>
        <time>2013-05-22T21:02:47Z</time>
      </trkpt>
      <trkpt lat="59.9680988" lon="17.7574808">
        <ele>28.9769</ele>
        <time>2013-05-22T21:02:48Z</time>
      </trkpt>
      <trkpt lat="59.9681392" lon="17.7574271">
        <ele>28.9769</ele>
        <time>2013-05-22T21:02:49Z</time>
      </trkpt>
      <trkpt lat="59.9681761" lon="17.7573723">
        <ele>29.4575</ele>
        <time>2013-05-22T21:02:50Z</time>
      </trkpt>
      <trkpt lat="59.9682122" lon="17.7573195">
        <ele>29.9381</ele>
        <time>2013-05-22T21:02:51Z</time>
      </trkpt>
      <trkpt lat="59.9682475" lon="17.7572692">
        <ele>29.9381</ele>
        <time>2013-05-22T21:02:52Z</time>
      </trkpt>
      <trkpt lat="59.9682815" lon="17.7572194">
        <ele>29.9381</ele>
        <time>2013-05-22T21:02:53Z</time>
      </trkpt>
      <trkpt lat="59.9683143" lon="17.7571702">
        <ele>29.9381</ele>
        <time>2013-05-22T21:02:54Z</time>
      </trkpt>
      <trkpt lat="59.9683475" lon="17.7571225">
        <ele>29.9381</ele>
        <time>2013-05-22T21:02:55Z</time>
      </trkpt>
      <trkpt lat="59.9683826" lon="17.7570735">
        <ele>29.9381</ele>
        <time>2013-05-22T21:02:56Z</time>
      </trkpt>
      <trkpt lat="59.9684193" lon="17.7570247">
        <ele>29.9381</ele>
        <time>2013-05-22T21:02:57Z</time>
      </trkpt>
      <trkpt lat="59.9684547" lon="17.7569711">
        <ele>29.4575</ele>
        <time>2013-05-22T21:02:58Z</time>
      </trkpt>
      <trkpt lat="59.9684929" lon="17.7569152">
        <ele>29.4575</ele>
        <time>2013-05-22T21:02:59Z</time>
      </trkpt>
      <trkpt lat="59.9685338" lon="17.756858">
        <ele>29.4575</ele>
        <time>2013-05-22T21:03:00Z</time>
      </trkpt>
      <trkpt lat="59.9685741" lon="17.7567978">
        <ele>28.9769</ele>
        <time>2013-05-22T21:03:01Z</time>
      </trkpt>
      <trkpt lat="59.968614" lon="17.7567367">
        <ele>28.9769</ele>
        <time>2013-05-22T21:03:02Z</time>
      </trkpt>
      <trkpt lat="59.9686536" lon="17.756676">
        <ele>28.4962</ele>
        <time>2013-05-22T21:03:03Z</time>
      </trkpt>
      <trkpt lat="59.9686929" lon="17.7566119">
        <ele>28.4962</ele>
        <time>2013-05-22T21:03:04Z</time>
      </trkpt>
      <trkpt lat="59.9687308" lon="17.7565443">
        <ele>28.0155</ele>
        <time>2013-05-22T21:03:05Z</time>
      </trkpt>
      <trkpt lat="59.9687682" lon="17.7564745">
        <ele>27.5349</ele>
        <time>2013-05-22T21:03:06Z</time>
      </trkpt>
      <trkpt lat="59.9688064" lon="17.7564018">
        <ele>27.5349</ele>
        <time>2013-05-22T21:03:07Z</time>
      </trkpt>
      <trkpt lat="59.9688456" lon="17.7563254">
        <ele>27.0543</ele>
        <time>2013-05-22T21:03:08Z</time>
      </trkpt>
      <trkpt lat="59.9688857" lon="17.7562445">
        <ele>27.0543</ele>
        <time>2013-05-22T21:03:09Z</time>
      </trkpt>
      <trkpt lat="59.9689266" lon="17.7561595">
        <ele>27.0543</ele>
        <time>2013-05-22T21:03:10Z</time>
      </trkpt>
      <trkpt lat="59.9689694" lon="17.7560747">
        <ele>27.0543</ele>
        <time>2013-05-22T21:03:11Z</time>
      </trkpt>
      <trkpt lat="59.9690116" lon="17.7559865">
        <ele>27.0543</ele>
        <time>2013-05-22T21:03:12Z</time>
      </trkpt>
      <trkpt lat="59.969053" lon="17.7558952">
        <ele>27.5349</ele>
        <time>2013-05-22T21:03:13Z</time>
      </trkpt>
      <trkpt lat="59.9690944" lon="17.7558059">
        <ele>27.5349</ele>
        <time>2013-05-22T21:03:14Z</time>
      </trkpt>
      <trkpt lat="59.9691358" lon="17.7557193">
        <ele>28.0155</ele>
        <time>2013-05-22T21:03:15Z</time>
      </trkpt>
      <trkpt lat="59.9691764" lon="17.7556332">
        <ele>28.0155</ele>
        <time>2013-05-22T21:03:16Z</time>
      </trkpt>
      <trkpt lat="59.9692159" lon="17.7555462">
        <ele>28.4962</ele>
        <time>2013-05-22T21:03:17Z</time>
      </trkpt>
      <trkpt lat="59.9692553" lon="17.7554591">
        <ele>28.4962</ele>
        <time>2013-05-22T21:03:18Z</time>
      </trkpt>
      <trkpt lat="59.9692955" lon="17.7553725">
        <ele>28.4962</ele>
        <time>2013-05-22T21:03:19Z</time>
      </trkpt>
      <trkpt lat="59.9693373" lon="17.755285">
        <ele>28.4962</ele>
        <time>2013-05-22T21:03:20Z</time>
      </trkpt>
      <trkpt lat="59.9693805" lon="17.7551945">
        <ele>28.4962</ele>
        <time>2013-05-22T21:03:21Z</time>
      </trkpt>
      <trkpt lat="59.9694237" lon="17.7551053">
        <ele>28.4962</ele>
        <time>2013-05-22T21:03:22Z</time>
      </trkpt>
      <trkpt lat="59.9694666" lon="17.755017">
        <ele>28.0155</ele>
        <time>2013-05-22T21:03:23Z</time>
      </trkpt>
      <trkpt lat="59.9695088" lon="17.7549281">
        <ele>28.0155</ele>
        <time>2013-05-22T21:03:24Z</time>
      </trkpt>
      <trkpt lat="59.9695508" lon="17.7548388">
        <ele>28.0155</ele>
        <time>2013-05-22T21:03:25Z</time>
      </trkpt>
      <trkpt lat="59.9695934" lon="17.7547506">
        <ele>28.0155</ele>
        <time>2013-05-22T21:03:26Z</time>
      </trkpt>
      <trkpt lat="59.9696373" lon="17.7546641">
        <ele>27.5349</ele>
        <time>2013-05-22T21:03:27Z</time>
      </trkpt>
      <trkpt lat="59.9696834" lon="17.7545811">
        <ele>27.5349</ele>
        <time>2013-05-22T21:03:28Z</time>
      </trkpt>
      <trkpt lat="59.9697278" lon="17.7544946">
        <ele>27.0543</ele>
        <time>2013-05-22T21:03:29Z</time>
      </trkpt>
      <trkpt lat="59.9697719" lon="17.7544042">
        <ele>27.0543</ele>
        <time>2013-05-22T21:03:30Z</time>
      </trkpt>
      <trkpt lat="59.9698169" lon="17.7543128">
        <ele>26.5736</ele>
        <time>2013-05-22T21:03:31Z</time>
      </trkpt>
      <trkpt lat="59.9698627" lon="17.7542194">
        <ele>26.5736</ele>
        <time>2013-05-22T21:03:32Z</time>
      </trkpt>
      <trkpt lat="59.9699092" lon="17.7541252">
        <ele>26.0929</ele>
        <time>2013-05-22T21:03:33Z</time>
      </trkpt>
      <trkpt lat="59.9699549" lon="17.7540249">
        <ele>26.5736</ele>
        <time>2013-05-22T21:03:34Z</time>
      </trkpt>
      <trkpt lat="59.9699998" lon="17.753928">
        <ele>26.0929</ele>
        <time>2013-05-22T21:03:35Z</time>
      </trkpt>
      <trkpt lat="59.9700424" lon="17.7538259">
        <ele>26.5736</ele>
        <time>2013-05-22T21:03:36Z</time>
      </trkpt>
      <trkpt lat="59.9700829" lon="17.7537281">
        <ele>25.6123</ele>
        <time>2013-05-22T21:03:37Z</time>
      </trkpt>
      <trkpt lat="59.9701219" lon="17.7536327">
        <ele>24.651</ele>
        <time>2013-05-22T21:03:38Z</time>
      </trkpt>
      <trkpt lat="59.97016" lon="17.7535313">
        <ele>24.651</ele>
        <time>2013-05-22T21:03:39Z</time>
      </trkpt>
      <trkpt lat="59.9701956" lon="17.7534205">
        <ele>25.1317</ele>
        <time>2013-05-22T21:03:40Z</time>
      </trkpt>
      <trkpt lat="59.9702293" lon="17.753312">
        <ele>26.0929</ele>
        <time>2013-05-22T21:03:41Z</time>
      </trkpt>
      <trkpt lat="59.970263" lon="17.7532157">
        <ele>25.6123</ele>
        <time>2013-05-22T21:03:42Z</time>
      </trkpt>
      <trkpt lat="59.970296" lon="17.7531176">
        <ele>26.0929</ele>
        <time>2013-05-22T21:03:43Z</time>
      </trkpt>
      <trkpt lat="59.9703298" lon="17.753023">
        <ele>26.0929</ele>
        <time>2013-05-22T21:03:44Z</time>
      </trkpt>
      <trkpt lat="59.9703634" lon="17.752925">
        <ele>26.5736</ele>
        <time>2013-05-22T21:03:45Z</time>
      </trkpt>
      <trkpt lat="59.970397" lon="17.7528299">
        <ele>26.5736</ele>
        <time>2013-05-22T21:03:46Z</time>
      </trkpt>
      <trkpt lat="59.9704322" lon="17.752735">
        <ele>26.0929</ele>
        <time>2013-05-22T21:03:47Z</time>
      </trkpt>
      <trkpt lat="59.9704698" lon="17.7526392">
        <ele>26.0929</ele>
        <time>2013-05-22T21:03:48Z</time>
      </trkpt>
      <trkpt lat="59.9705104" lon="17.7525448">
        <ele>26.0929</ele>
        <time>2013-05-22T21:03:49Z</time>
      </trkpt>
      <trkpt lat="59.9705525" lon="17.7524517">
        <ele>25.1317</ele>
        <time>2013-05-22T21:03:50Z</time>
      </trkpt>
      <trkpt lat="59.9705965" lon="17.7523596">
        <ele>24.651</ele>
        <time>2013-05-22T21:03:51Z</time>
      </trkpt>
      <trkpt lat="59.9706427" lon="17.7522707">
        <ele>24.1703</ele>
        <time>2013-05-22T21:03:52Z</time>
      </trkpt>
      <trkpt lat="59.9706905" lon="17.7521835">
        <ele>24.1703</ele>
        <time>2013-05-22T21:03:53Z</time>
      </trkpt>
      <trkpt lat="59.9707395" lon="17.7520992">
        <ele>23.6896</ele>
        <time>2013-05-22T21:03:54Z</time>
      </trkpt>
      <trkpt lat="59.9707889" lon="17.7520174">
        <ele>23.209</ele>
        <time>2013-05-22T21:03:55Z</time>
      </trkpt>
      <trkpt lat="59.9708392" lon="17.751939">
        <ele>23.209</ele>
        <time>2013-05-22T21:03:56Z</time>
      </trkpt>
      <trkpt lat="59.9708909" lon="17.7518648">
        <ele>22.7283</ele>
        <time>2013-05-22T21:03:57Z</time>
      </trkpt>
      <trkpt lat="59.9709435" lon="17.7517921">
        <ele>22.7283</ele>
        <time>2013-05-22T21:03:58Z</time>
      </trkpt>
      <trkpt lat="59.9709958" lon="17.7517223">
        <ele>22.2476</ele>
        <time>2013-05-22T21:03:59Z</time>
      </trkpt>
      <trkpt lat="59.971049" lon="17.7516528">
        <ele>22.2476</ele>
        <time>2013-05-22T21:04:00Z</time>
      </trkpt>
      <trkpt lat="59.9711015" lon="17.7515818">
        <ele>22.2476</ele>
        <time>2013-05-22T21:04:01Z</time>
      </trkpt>
      <trkpt lat="59.971155" lon="17.7515156">
        <ele>22.7283</ele>
        <time>2013-05-22T21:04:02Z</time>
      </trkpt>
      <trkpt lat="59.971209" lon="17.7514557">
        <ele>22.7283</ele>
        <time>2013-05-22T21:04:03Z</time>
      </trkpt>
      <trkpt lat="59.9712627" lon="17.7513982">
        <ele>22.7283</ele>
        <time>2013-05-22T21:04:04Z</time>
      </trkpt>
      <trkpt lat="59.9713161" lon="17.7513407">
        <ele>22.7283</ele>
        <time>2013-05-22T21:04:05Z</time>
      </trkpt>
      <trkpt lat="59.971369" lon="17.7512856">
        <ele>22.7283</ele>
        <time>2013-05-22T21:04:06Z</time>
      </trkpt>
      <trkpt lat="59.9714218" lon="17.7512313">
        <ele>22.2476</ele>
        <time>2013-05-22T21:04:07Z</time>
      </trkpt>
      <trkpt lat="59.9714735" lon="17.7511747">
        <ele>22.7283</ele>
        <time>2013-05-22T21:04:08Z</time>
      </trkpt>
      <trkpt lat="59.9715221" lon="17.7511119">
        <ele>22.7283</ele>
        <time>2013-05-22T21:04:09Z</time>
      </trkpt>
      <trkpt lat="59.9715688" lon="17.751048">
        <ele>22.7283</ele>
        <time>2013-05-22T21:04:10Z</time>
      </trkpt>
      <trkpt lat="59.971614" lon="17.750984">
        <ele>22.2476</ele>
        <time>2013-05-22T21:04:11Z</time>
      </trkpt>
      <trkpt lat="59.9716591" lon="17.7509164">
        <ele>22.7283</ele>
        <time>2013-05-22T21:04:12Z</time>
      </trkpt>
      <trkpt lat="59.9717029" lon="17.7508444">
        <ele>23.6896</ele>
        <time>2013-05-22T21:04:13Z</time>
      </trkpt>
      <trkpt lat="59.9717461" lon="17.750779">
        <ele>24.1703</ele>
        <time>2013-05-22T21:04:14Z</time>
      </trkpt>
      <trkpt lat="59.9717871" lon="17.7507164">
        <ele>24.1703</ele>
        <time>2013-05-22T21:04:15Z</time>
      </trkpt>
      <trkpt lat="59.9718249" lon="17.7506493">
        <ele>23.6896</ele>
        <time>2013-05-22T21:04:16Z</time>
      </trkpt>
      <trkpt lat="59.971861" lon="17.7505786">
        <ele>23.6896</ele>
        <time>2013-05-22T21:04:17Z</time>
      </trkpt>
      <trkpt lat="59.9718964" lon="17.7505071">
        <ele>23.209</ele>
        <time>2013-05-22T21:04:18Z</time>
      </trkpt>
      <trkpt lat="59.9719303" lon="17.7504142">
        <ele>24.651</ele>
        <time>2013-05-22T21:04:19Z</time>
      </trkpt>
      <trkpt lat="59.9719638" lon="17.7503259">
        <ele>25.6123</ele>
        <time>2013-05-22T21:04:20Z</time>
      </trkpt>
      <trkpt lat="59.9719957" lon="17.7502334">
        <ele>27.5349</ele>
        <time>2013-05-22T21:04:21Z</time>
      </trkpt>
      <trkpt lat="59.9720279" lon="17.7501586">
        <ele>27.5349</ele>
        <time>2013-05-22T21:04:22Z</time>
      </trkpt>
      <trkpt lat="59.9720612" lon="17.7500864">
        <ele>27.5349</ele>
        <time>2013-05-22T21:04:23Z</time>
      </trkpt>
      <trkpt lat="59.972093" lon="17.750015">
        <ele>28.0155</ele>
        <time>2013-05-22T21:04:24Z</time>
      </trkpt>
      <trkpt lat="59.9721233" lon="17.749929">
        <ele>29.4575</ele>
        <time>2013-05-22T21:04:25Z</time>
      </trkpt>
      <trkpt lat="59.9721538" lon="17.7498462">
        <ele>29.9381</ele>
        <time>2013-05-22T21:04:26Z</time>
      </trkpt>
      <trkpt lat="59.9721843" lon="17.7497652">
        <ele>29.9381</ele>
        <time>2013-05-22T21:04:27Z</time>
      </trkpt>
      <trkpt lat="59.9722162" lon="17.7496846">
        <ele>30.4188</ele>
        <time>2013-05-22T21:04:28Z</time>
      </trkpt>
      <trkpt lat="59.9722496" lon="17.7495986">
        <ele>30.4188</ele>
        <time>2013-05-22T21:04:29Z</time>
      </trkpt>
      <trkpt lat="59.9722867" lon="17.749512">
        <ele>30.8995</ele>
        <time>2013-05-22T21:04:30Z</time>
      </trkpt>
      <trkpt lat="59.9723251" lon="17.7494221">
        <ele>31.3801</ele>
        <time>2013-05-22T21:04:31Z</time>
      </trkpt>
      <trkpt lat="59.9723636" lon="17.74933">
        <ele>32.3416</ele>
        <time>2013-05-22T21:04:32Z</time>
      </trkpt>
      <trkpt lat="59.9723992" lon="17.7492343">
        <ele>33.7834</ele>
        <time>2013-05-22T21:04:33Z</time>
      </trkpt>
      <trkpt lat="59.9724377" lon="17.7491556">
        <ele>33.3029</ele>
        <time>2013-05-22T21:04:34Z</time>
      </trkpt>
      <trkpt lat="59.972476" lon="17.7490785">
        <ele>33.3029</ele>
        <time>2013-05-22T21:04:35Z</time>
      </trkpt>
      <trkpt lat="59.9725112" lon="17.7489974">
        <ele>33.7834</ele>
        <time>2013-05-22T21:04:36Z</time>
      </trkpt>
      <trkpt lat="59.9725472" lon="17.7489137">
        <ele>33.3029</ele>
        <time>2013-05-22T21:04:37Z</time>
      </trkpt>
      <trkpt lat="59.9725875" lon="17.7488316">
        <ele>33.3029</ele>
        <time>2013-05-22T21:04:38Z</time>
      </trkpt>
      <trkpt lat="59.9726298" lon="17.7487425">
        <ele>33.7834</ele>
        <time>2013-05-22T21:04:39Z</time>
      </trkpt>
      <trkpt lat="59.9726702" lon="17.748657">
        <ele>33.3029</ele>
        <time>2013-05-22T21:04:40Z</time>
      </trkpt>
      <trkpt lat="59.9727135" lon="17.7485703">
        <ele>33.3029</ele>
        <time>2013-05-22T21:04:41Z</time>
      </trkpt>
      <trkpt lat="59.9727547" lon="17.7484758">
        <ele>32.8223</ele>
        <time>2013-05-22T21:04:42Z</time>
      </trkpt>
      <trkpt lat="59.9727956" lon="17.7483763">
        <ele>33.3029</ele>
        <time>2013-05-22T21:04:43Z</time>
      </trkpt>
      <trkpt lat="59.9728451" lon="17.7482776">
        <ele>33.7834</ele>
        <time>2013-05-22T21:04:44Z</time>
      </trkpt>
      <trkpt lat="59.9728926" lon="17.7481808">
        <ele>34.2642</ele>
        <time>2013-05-22T21:04:45Z</time>
      </trkpt>
      <trkpt lat="59.9729417" lon="17.748089">
        <ele>34.2642</ele>
        <time>2013-05-22T21:04:46Z</time>
      </trkpt>
      <trkpt lat="59.9729949" lon="17.7480087">
        <ele>34.7449</ele>
        <time>2013-05-22T21:04:47Z</time>
      </trkpt>
      <trkpt lat="59.97305" lon="17.747936">
        <ele>35.2255</ele>
        <time>2013-05-22T21:04:48Z</time>
      </trkpt>
      <trkpt lat="59.9731054" lon="17.7478686">
        <ele>35.2255</ele>
        <time>2013-05-22T21:04:49Z</time>
      </trkpt>
      <trkpt lat="59.9731607" lon="17.7478045">
        <ele>35.2255</ele>
        <time>2013-05-22T21:04:50Z</time>
      </trkpt>
      <trkpt lat="59.9732146" lon="17.7477369">
        <ele>35.2255</ele>
        <time>2013-05-22T21:04:51Z</time>
      </trkpt>
      <trkpt lat="59.9732683" lon="17.7476679">
        <ele>35.2255</ele>
        <time>2013-05-22T21:04:52Z</time>
      </trkpt>
      <trkpt lat="59.9733228" lon="17.747605">
        <ele>35.2255</ele>
        <time>2013-05-22T21:04:53Z</time>
      </trkpt>
      <trkpt lat="59.9733783" lon="17.7475477">
        <ele>35.7061</ele>
        <time>2013-05-22T21:04:54Z</time>
      </trkpt>
      <trkpt lat="59.9734353" lon="17.7475057">
        <ele>35.2255</ele>
        <time>2013-05-22T21:04:55Z</time>
      </trkpt>
      <trkpt lat="59.9734921" lon="17.7474656">
        <ele>35.2255</ele>
        <time>2013-05-22T21:04:56Z</time>
      </trkpt>
      <trkpt lat="59.9735467" lon="17.7474204">
        <ele>34.7449</ele>
        <time>2013-05-22T21:04:57Z</time>
      </trkpt>
      <trkpt lat="59.9735985" lon="17.7473694">
        <ele>34.7449</ele>
        <time>2013-05-22T21:04:58Z</time>
      </trkpt>
      <trkpt lat="59.9736477" lon="17.7473109">
        <ele>34.7449</ele>
        <time>2013-05-22T21:04:59Z</time>
      </trkpt>
      <trkpt lat="59.973696" lon="17.7472512">
        <ele>35.7061</ele>
        <time>2013-05-22T21:05:00Z</time>
      </trkpt>
      <trkpt lat="59.9737436" lon="17.7472005">
        <ele>35.7061</ele>
        <time>2013-05-22T21:05:01Z</time>
      </trkpt>
      <trkpt lat="59.9737922" lon="17.7471524">
        <ele>35.2255</ele>
        <time>2013-05-22T21:05:02Z</time>
      </trkpt>
      <trkpt lat="59.9738399" lon="17.7471015">
        <ele>35.2255</ele>
        <time>2013-05-22T21:05:03Z</time>
      </trkpt>
      <trkpt lat="59.973887" lon="17.7470447">
        <ele>35.2255</ele>
        <time>2013-05-22T21:05:04Z</time>
      </trkpt>
      <trkpt lat="59.9739338" lon="17.7469835">
        <ele>34.7449</ele>
        <time>2013-05-22T21:05:05Z</time>
      </trkpt>
      <trkpt lat="59.9739813" lon="17.7469198">
        <ele>34.7449</ele>
        <time>2013-05-22T21:05:06Z</time>
      </trkpt>
      <trkpt lat="59.974029" lon="17.746857">
        <ele>34.7449</ele>
        <time>2013-05-22T21:05:07Z</time>
      </trkpt>
      <trkpt lat="59.9740776" lon="17.7467956">
        <ele>34.2642</ele>
        <time>2013-05-22T21:05:08Z</time>
      </trkpt>
      <trkpt lat="59.9741272" lon="17.7467342">
        <ele>33.7834</ele>
        <time>2013-05-22T21:05:09Z</time>
      </trkpt>
      <trkpt lat="59.9741765" lon="17.7466715">
        <ele>33.7834</ele>
        <time>2013-05-22T21:05:10Z</time>
      </trkpt>
      <trkpt lat="59.9742258" lon="17.7466062">
        <ele>33.3029</ele>
        <time>2013-05-22T21:05:11Z</time>
      </trkpt>
      <trkpt lat="59.9742753" lon="17.7465373">
        <ele>33.7834</ele>
        <time>2013-05-22T21:05:12Z</time>
      </trkpt>
      <trkpt lat="59.9743241" lon="17.7464718">
        <ele>33.7834</ele>
        <time>2013-05-22T21:05:13Z</time>
      </trkpt>
      <trkpt lat="59.9743724" lon="17.7464116">
        <ele>33.3029</ele>
        <time>2013-05-22T21:05:14Z</time>
      </trkpt>
      <trkpt lat="59.9744196" lon="17.7463527">
        <ele>32.8223</ele>
        <time>2013-05-22T21:05:15Z</time>
      </trkpt>
      <trkpt lat="59.9744647" lon="17.7462942">
        <ele>32.3416</ele>
        <time>2013-05-22T21:05:16Z</time>
      </trkpt>
      <trkpt lat="59.9745076" lon="17.746235">
        <ele>31.8607</ele>
        <time>2013-05-22T21:05:17Z</time>
      </trkpt>
      <trkpt lat="59.9745499" lon="17.7461729">
        <ele>31.8607</ele>
        <time>2013-05-22T21:05:18Z</time>
      </trkpt>
      <trkpt lat="59.9745901" lon="17.746109">
        <ele>31.8607</ele>
        <time>2013-05-22T21:05:19Z</time>
      </trkpt>
      <trkpt lat="59.9746269" lon="17.7460484">
        <ele>31.8607</ele>
        <time>2013-05-22T21:05:20Z</time>
      </trkpt>
      <trkpt lat="59.9746602" lon="17.7459879">
        <ele>31.3801</ele>
        <time>2013-05-22T21:05:21Z</time>
      </trkpt>
      <trkpt lat="59.9746929" lon="17.7459318">
        <ele>31.3801</ele>
        <time>2013-05-22T21:05:22Z</time>
      </trkpt>
      <trkpt lat="59.9747224" lon="17.745889">
        <ele>31.3801</ele>
        <time>2013-05-22T21:05:23Z</time>
      </trkpt>
      <trkpt lat="59.9747459" lon="17.7458578">
        <ele>31.3801</ele>
        <time>2013-05-22T21:05:24Z</time>
      </trkpt>
      <trkpt lat="59.9747633" lon="17.7458337">
        <ele>30.8995</ele>
        <time>2013-05-22T21:05:25Z</time>
      </trkpt>
      <trkpt lat="59.974776" lon="17.745815">
        <ele>30.8995</ele>
        <time>2013-05-22T21:05:26Z</time>
      </trkpt>
      <trkpt lat="59.9747833" lon="17.7457989">
        <ele>30.4188</ele>
        <time>2013-05-22T21:05:27Z</time>
      </trkpt>
      <trkpt lat="59.9747848" lon="17.74579">
        <ele>30.4188</ele>
        <time>2013-05-22T21:05:28Z</time>
      </trkpt>
      <trkpt lat="59.9747832" lon="17.7457893">
        <ele>29.9381</ele>
        <time>2013-05-22T21:05:29Z</time>
      </trkpt>
      <trkpt lat="59.9747817" lon="17.7457927">
        <ele>29.4575</ele>
        <time>2013-05-22T21:05:30Z</time>
      </trkpt>
      <trkpt lat="59.9748924" lon="17.7454109">
        <ele>28.9769</ele>
        <time>2013-05-22T21:08:50Z</time>
      </trkpt>
      <trkpt lat="59.9749076" lon="17.7453695">
        <ele>28.9769</ele>
        <time>2013-05-22T21:08:51Z</time>
      </trkpt>
      <trkpt lat="59.9749259" lon="17.7453157">
        <ele>28.4962</ele>
        <time>2013-05-22T21:08:52Z</time>
      </trkpt>
      <trkpt lat="59.9749456" lon="17.7452525">
        <ele>28.4962</ele>
        <time>2013-05-22T21:08:53Z</time>
      </trkpt>
      <trkpt lat="59.9749695" lon="17.7451777">
        <ele>29.4575</ele>
        <time>2013-05-22T21:08:54Z</time>
      </trkpt>
      <trkpt lat="59.9749945" lon="17.7451011">
        <ele>30.4188</ele>
        <time>2013-05-22T21:08:55Z</time>
      </trkpt>
      <trkpt lat="59.9750207" lon="17.7450229">
        <ele>30.8995</ele>
        <time>2013-05-22T21:08:56Z</time>
      </trkpt>
      <trkpt lat="59.9750453" lon="17.7449374">
        <ele>31.8607</ele>
        <time>2013-05-22T21:08:57Z</time>
      </trkpt>
      <trkpt lat="59.9750697" lon="17.744857">
        <ele>31.3801</ele>
        <time>2013-05-22T21:08:58Z</time>
      </trkpt>
      <trkpt lat="59.9750935" lon="17.74478">
        <ele>31.3801</ele>
        <time>2013-05-22T21:08:59Z</time>
      </trkpt>
      <trkpt lat="59.9751173" lon="17.7447055">
        <ele>30.8995</ele>
        <time>2013-05-22T21:09:00Z</time>
      </trkpt>
      <trkpt lat="59.9751401" lon="17.7446338">
        <ele>30.4188</ele>
        <time>2013-05-22T21:09:01Z</time>
      </trkpt>
      <trkpt lat="59.9751624" lon="17.7445577">
        <ele>30.4188</ele>
        <time>2013-05-22T21:09:02Z</time>
      </trkpt>
      <trkpt lat="59.9751832" lon="17.7444747">
        <ele>29.9381</ele>
        <time>2013-05-22T21:09:03Z</time>
      </trkpt>
      <trkpt lat="59.9752039" lon="17.7443862">
        <ele>29.4575</ele>
        <time>2013-05-22T21:09:04Z</time>
      </trkpt>
      <trkpt lat="59.9752252" lon="17.7442941">
        <ele>28.9769</ele>
        <time>2013-05-22T21:09:05Z</time>
      </trkpt>
      <trkpt lat="59.9752463" lon="17.7441942">
        <ele>28.9769</ele>
        <time>2013-05-22T21:09:06Z</time>
      </trkpt>
      <trkpt lat="59.9752681" lon="17.744096">
        <ele>28.4962</ele>
        <time>2013-05-22T21:09:07Z</time>
      </trkpt>
      <trkpt lat="59.9752893" lon="17.7439893">
        <ele>28.0155</ele>
        <time>2013-05-22T21:09:08Z</time>
      </trkpt>
      <trkpt lat="59.9753121" lon="17.7438791">
        <ele>28.0155</ele>
        <time>2013-05-22T21:09:09Z</time>
      </trkpt>
      <trkpt lat="59.9753337" lon="17.7437687">
        <ele>27.5349</ele>
        <time>2013-05-22T21:09:10Z</time>
      </trkpt>
      <trkpt lat="59.9753533" lon="17.7436585">
        <ele>27.5349</ele>
        <time>2013-05-22T21:09:11Z</time>
      </trkpt>
      <trkpt lat="59.9753726" lon="17.7435495">
        <ele>27.5349</ele>
        <time>2013-05-22T21:09:12Z</time>
      </trkpt>
      <trkpt lat="59.9753929" lon="17.7434434">
        <ele>27.5349</ele>
        <time>2013-05-22T21:09:13Z</time>
      </trkpt>
      <trkpt lat="59.9754146" lon="17.7433382">
        <ele>27.0543</ele>
        <time>2013-05-22T21:09:14Z</time>
      </trkpt>
      <trkpt lat="59.9754385" lon="17.7432366">
        <ele>27.0543</ele>
        <time>2013-05-22T21:09:15Z</time>
      </trkpt>
      <trkpt lat="59.9754647" lon="17.7431382">
        <ele>27.0543</ele>
        <time>2013-05-22T21:09:16Z</time>
      </trkpt>
      <trkpt lat="59.9754923" lon="17.7430436">
        <ele>27.0543</ele>
        <time>2013-05-22T21:09:17Z</time>
      </trkpt>
      <trkpt lat="59.9755199" lon="17.742952">
        <ele>27.0543</ele>
        <time>2013-05-22T21:09:18Z</time>
      </trkpt>
      <trkpt lat="59.9755452" lon="17.7428612">
        <ele>27.0543</ele>
        <time>2013-05-22T21:09:19Z</time>
      </trkpt>
      <trkpt lat="59.9755699" lon="17.7427727">
        <ele>27.0543</ele>
        <time>2013-05-22T21:09:20Z</time>
      </trkpt>
      <trkpt lat="59.9755953" lon="17.742685">
        <ele>27.0543</ele>
        <time>2013-05-22T21:09:21Z</time>
      </trkpt>
      <trkpt lat="59.9756186" lon="17.7425886">
        <ele>28.0155</ele>
        <time>2013-05-22T21:09:22Z</time>
      </trkpt>
      <trkpt lat="59.9756434" lon="17.7424962">
        <ele>28.0155</ele>
        <time>2013-05-22T21:09:23Z</time>
      </trkpt>
      <trkpt lat="59.9756694" lon="17.7423985">
        <ele>28.0155</ele>
        <time>2013-05-22T21:09:24Z</time>
      </trkpt>
      <trkpt lat="59.9756963" lon="17.7422938">
        <ele>27.5349</ele>
        <time>2013-05-22T21:09:25Z</time>
      </trkpt>
      <trkpt lat="59.9757258" lon="17.7421832">
        <ele>27.5349</ele>
        <time>2013-05-22T21:09:26Z</time>
      </trkpt>
      <trkpt lat="59.975757" lon="17.7420712">
        <ele>27.0543</ele>
        <time>2013-05-22T21:09:27Z</time>
      </trkpt>
      <trkpt lat="59.9757871" lon="17.7419597">
        <ele>27.0543</ele>
        <time>2013-05-22T21:09:28Z</time>
      </trkpt>
      <trkpt lat="59.9758151" lon="17.7418452">
        <ele>26.5736</ele>
        <time>2013-05-22T21:09:29Z</time>
      </trkpt>
      <trkpt lat="59.9758424" lon="17.741729">
        <ele>26.5736</ele>
        <time>2013-05-22T21:09:30Z</time>
      </trkpt>
      <trkpt lat="59.975868" lon="17.7416109">
        <ele>26.5736</ele>
        <time>2013-05-22T21:09:31Z</time>
      </trkpt>
      <trkpt lat="59.9758933" lon="17.7414915">
        <ele>26.5736</ele>
        <time>2013-05-22T21:09:32Z</time>
      </trkpt>
      <trkpt lat="59.9759197" lon="17.7413725">
        <ele>26.5736</ele>
        <time>2013-05-22T21:09:33Z</time>
      </trkpt>
      <trkpt lat="59.9759487" lon="17.741256">
        <ele>26.5736</ele>
        <time>2013-05-22T21:09:34Z</time>
      </trkpt>
      <trkpt lat="59.9759788" lon="17.7411408">
        <ele>26.5736</ele>
        <time>2013-05-22T21:09:35Z</time>
      </trkpt>
      <trkpt lat="59.9760088" lon="17.741027">
        <ele>26.5736</ele>
        <time>2013-05-22T21:09:36Z</time>
      </trkpt>
      <trkpt lat="59.9760398" lon="17.7409157">
        <ele>26.5736</ele>
        <time>2013-05-22T21:09:37Z</time>
      </trkpt>
      <trkpt lat="59.9760705" lon="17.7408058">
        <ele>26.5736</ele>
        <time>2013-05-22T21:09:38Z</time>
      </trkpt>
      <trkpt lat="59.9761027" lon="17.7406992">
        <ele>26.5736</ele>
        <time>2013-05-22T21:09:39Z</time>
      </trkpt>
      <trkpt lat="59.9761381" lon="17.740597">
        <ele>26.5736</ele>
        <time>2013-05-22T21:09:40Z</time>
      </trkpt>
      <trkpt lat="59.9761741" lon="17.7404984">
        <ele>26.5736</ele>
        <time>2013-05-22T21:09:41Z</time>
      </trkpt>
      <trkpt lat="59.9762062" lon="17.7403985">
        <ele>26.5736</ele>
        <time>2013-05-22T21:09:42Z</time>
      </trkpt>
      <trkpt lat="59.976234" lon="17.7402893">
        <ele>27.5349</ele>
        <time>2013-05-22T21:09:43Z</time>
      </trkpt>
      <trkpt lat="59.976263" lon="17.7401904">
        <ele>27.5349</ele>
        <time>2013-05-22T21:09:44Z</time>
      </trkpt>
      <trkpt lat="59.9762927" lon="17.740093">
        <ele>27.5349</ele>
        <time>2013-05-22T21:09:45Z</time>
      </trkpt>
      <trkpt lat="59.9763249" lon="17.7399976">
        <ele>27.0543</ele>
        <time>2013-05-22T21:09:46Z</time>
      </trkpt>
      <trkpt lat="59.97636" lon="17.7399038">
        <ele>27.0543</ele>
        <time>2013-05-22T21:09:47Z</time>
      </trkpt>
      <trkpt lat="59.9763994" lon="17.7398148">
        <ele>27.0543</ele>
        <time>2013-05-22T21:09:48Z</time>
      </trkpt>
      <trkpt lat="59.9764427" lon="17.7397349">
        <ele>27.0543</ele>
        <time>2013-05-22T21:09:49Z</time>
      </trkpt>
      <trkpt lat="59.9764869" lon="17.739662">
        <ele>27.0543</ele>
        <time>2013-05-22T21:09:50Z</time>
      </trkpt>
      <trkpt lat="59.976533" lon="17.7395969">
        <ele>27.5349</ele>
        <time>2013-05-22T21:09:51Z</time>
      </trkpt>
      <trkpt lat="59.9765815" lon="17.7395398">
        <ele>27.5349</ele>
        <time>2013-05-22T21:09:52Z</time>
      </trkpt>
      <trkpt lat="59.9766314" lon="17.7394873">
        <ele>27.5349</ele>
        <time>2013-05-22T21:09:53Z</time>
      </trkpt>
      <trkpt lat="59.9766848" lon="17.7394487">
        <ele>27.0543</ele>
        <time>2013-05-22T21:09:54Z</time>
      </trkpt>
      <trkpt lat="59.976738" lon="17.739417">
        <ele>27.5349</ele>
        <time>2013-05-22T21:09:55Z</time>
      </trkpt>
      <trkpt lat="59.9767908" lon="17.7393993">
        <ele>28.0155</ele>
        <time>2013-05-22T21:09:56Z</time>
      </trkpt>
      <trkpt lat="59.9768411" lon="17.7393844">
        <ele>28.0155</ele>
        <time>2013-05-22T21:09:57Z</time>
      </trkpt>
      <trkpt lat="59.9768915" lon="17.7393657">
        <ele>28.4962</ele>
        <time>2013-05-22T21:09:58Z</time>
      </trkpt>
      <trkpt lat="59.976938" lon="17.7393445">
        <ele>28.0155</ele>
        <time>2013-05-22T21:09:59Z</time>
      </trkpt>
      <trkpt lat="59.9769864" lon="17.739327">
        <ele>28.4962</ele>
        <time>2013-05-22T21:10:00Z</time>
      </trkpt>
      <trkpt lat="59.9770366" lon="17.739307">
        <ele>28.9769</ele>
        <time>2013-05-22T21:10:01Z</time>
      </trkpt>
      <trkpt lat="59.9770882" lon="17.7392865">
        <ele>29.4575</ele>
        <time>2013-05-22T21:10:02Z</time>
      </trkpt>
      <trkpt lat="59.9771407" lon="17.7392633">
        <ele>29.4575</ele>
        <time>2013-05-22T21:10:03Z</time>
      </trkpt>
      <trkpt lat="59.9771948" lon="17.7392417">
        <ele>29.9381</ele>
        <time>2013-05-22T21:10:04Z</time>
      </trkpt>
      <trkpt lat="59.9772485" lon="17.7392185">
        <ele>30.4188</ele>
        <time>2013-05-22T21:10:05Z</time>
      </trkpt>
      <trkpt lat="59.9773033" lon="17.7391894">
        <ele>30.8995</ele>
        <time>2013-05-22T21:10:06Z</time>
      </trkpt>
      <trkpt lat="59.9773568" lon="17.7391657">
        <ele>31.3801</ele>
        <time>2013-05-22T21:10:07Z</time>
      </trkpt>
      <trkpt lat="59.9774119" lon="17.7391316">
        <ele>32.8223</ele>
        <time>2013-05-22T21:10:08Z</time>
      </trkpt>
      <trkpt lat="59.9774647" lon="17.7391051">
        <ele>33.3029</ele>
        <time>2013-05-22T21:10:09Z</time>
      </trkpt>
      <trkpt lat="59.9775171" lon="17.7390839">
        <ele>33.7834</ele>
        <time>2013-05-22T21:10:10Z</time>
      </trkpt>
      <trkpt lat="59.9775675" lon="17.7390694">
        <ele>34.2642</ele>
        <time>2013-05-22T21:10:11Z</time>
      </trkpt>
      <trkpt lat="59.977618" lon="17.7390622">
        <ele>35.2255</ele>
        <time>2013-05-22T21:10:12Z</time>
      </trkpt>
      <trkpt lat="59.9776664" lon="17.73906">
        <ele>35.7061</ele>
        <time>2013-05-22T21:10:13Z</time>
      </trkpt>
      <trkpt lat="59.9777135" lon="17.7390622">
        <ele>36.1868</ele>
        <time>2013-05-22T21:10:14Z</time>
      </trkpt>
      <trkpt lat="59.9777577" lon="17.7390692">
        <ele>35.7061</ele>
        <time>2013-05-22T21:10:15Z</time>
      </trkpt>
      <trkpt lat="59.9778019" lon="17.7390799">
        <ele>35.2255</ele>
        <time>2013-05-22T21:10:16Z</time>
      </trkpt>
      <trkpt lat="59.977845" lon="17.7390918">
        <ele>35.7061</ele>
        <time>2013-05-22T21:10:17Z</time>
      </trkpt>
      <trkpt lat="59.977887" lon="17.7391062">
        <ele>36.6675</ele>
        <time>2013-05-22T21:10:18Z</time>
      </trkpt>
      <trkpt lat="59.9779286" lon="17.7391257">
        <ele>37.1481</ele>
        <time>2013-05-22T21:10:19Z</time>
      </trkpt>
      <trkpt lat="59.977971" lon="17.7391522">
        <ele>37.6287</ele>
        <time>2013-05-22T21:10:20Z</time>
      </trkpt>
      <trkpt lat="59.9780114" lon="17.7391777">
        <ele>37.6287</ele>
        <time>2013-05-22T21:10:21Z</time>
      </trkpt>
      <trkpt lat="59.9780524" lon="17.7392009">
        <ele>39.0707</ele>
        <time>2013-05-22T21:10:22Z</time>
      </trkpt>
      <trkpt lat="59.9781005" lon="17.7392088">
        <ele>40.0321</ele>
        <time>2013-05-22T21:10:23Z</time>
      </trkpt>
      <trkpt lat="59.9781389" lon="17.7392161">
        <ele>38.5901</ele>
        <time>2013-05-22T21:10:24Z</time>
      </trkpt>
      <trkpt lat="59.9781793" lon="17.7392192">
        <ele>39.0707</ele>
        <time>2013-05-22T21:10:25Z</time>
      </trkpt>
      <trkpt lat="59.9782233" lon="17.7392154">
        <ele>40.5128</ele>
        <time>2013-05-22T21:10:26Z</time>
      </trkpt>
      <trkpt lat="59.9782612" lon="17.7392319">
        <ele>40.0321</ele>
        <time>2013-05-22T21:10:27Z</time>
      </trkpt>
      <trkpt lat="59.9782997" lon="17.7392555">
        <ele>40.0321</ele>
        <time>2013-05-22T21:10:28Z</time>
      </trkpt>
      <trkpt lat="59.978341" lon="17.7392671">
        <ele>39.5513</ele>
        <time>2013-05-22T21:10:29Z</time>
      </trkpt>
      <trkpt lat="59.9783828" lon="17.7392764">
        <ele>39.5513</ele>
        <time>2013-05-22T21:10:30Z</time>
      </trkpt>
      <trkpt lat="59.9784185" lon="17.7392847">
        <ele>38.5901</ele>
        <time>2013-05-22T21:10:31Z</time>
      </trkpt>
      <trkpt lat="59.978459" lon="17.7392917">
        <ele>39.0707</ele>
        <time>2013-05-22T21:10:32Z</time>
      </trkpt>
      <trkpt lat="59.9784989" lon="17.7392916">
        <ele>39.5513</ele>
        <time>2013-05-22T21:10:33Z</time>
      </trkpt>
      <trkpt lat="59.9785439" lon="17.7392886">
        <ele>40.5128</ele>
        <time>2013-05-22T21:10:34Z</time>
      </trkpt>
      <trkpt lat="59.9785885" lon="17.739286">
        <ele>40.5128</ele>
        <time>2013-05-22T21:10:35Z</time>
      </trkpt>
      <trkpt lat="59.9786334" lon="17.739284">
        <ele>40.9934</ele>
        <time>2013-05-22T21:10:36Z</time>
      </trkpt>
      <trkpt lat="59.9786818" lon="17.7392859">
        <ele>41.9547</ele>
        <time>2013-05-22T21:10:37Z</time>
      </trkpt>
      <trkpt lat="59.9787267" lon="17.7392956">
        <ele>42.4354</ele>
        <time>2013-05-22T21:10:38Z</time>
      </trkpt>
      <trkpt lat="59.9787729" lon="17.739306">
        <ele>42.4354</ele>
        <time>2013-05-22T21:10:39Z</time>
      </trkpt>
      <trkpt lat="59.9788164" lon="17.7393092">
        <ele>42.916</ele>
        <time>2013-05-22T21:10:40Z</time>
      </trkpt>
      <trkpt lat="59.9788558" lon="17.7393101">
        <ele>42.4354</ele>
        <time>2013-05-22T21:10:41Z</time>
      </trkpt>
      <trkpt lat="59.9788925" lon="17.7393221">
        <ele>42.4354</ele>
        <time>2013-05-22T21:10:42Z</time>
      </trkpt>
      <trkpt lat="59.978925" lon="17.7393529">
        <ele>41.474</ele>
        <time>2013-05-22T21:10:43Z</time>
      </trkpt>
      <trkpt lat="59.978949" lon="17.7394003">
        <ele>40.9934</ele>
        <time>2013-05-22T21:10:44Z</time>
      </trkpt>
      <trkpt lat="59.9789669" lon="17.7394591">
        <ele>40.0321</ele>
        <time>2013-05-22T21:10:45Z</time>
      </trkpt>
      <trkpt lat="59.9789806" lon="17.7395217">
        <ele>39.5513</ele>
        <time>2013-05-22T21:10:46Z</time>
      </trkpt>
      <trkpt lat="59.978988" lon="17.7395807">
        <ele>39.0707</ele>
        <time>2013-05-22T21:10:47Z</time>
      </trkpt>
      <trkpt lat="59.9789883" lon="17.7396283">
        <ele>38.5901</ele>
        <time>2013-05-22T21:10:48Z</time>
      </trkpt>
      <trkpt lat="59.9789842" lon="17.7396605">
        <ele>39.0707</ele>
        <time>2013-05-22T21:10:49Z</time>
      </trkpt>
      <trkpt lat="59.9789764" lon="17.7396816">
        <ele>38.1094</ele>
        <time>2013-05-22T21:10:50Z</time>
      </trkpt>
      <trkpt lat="59.9789729" lon="17.7396858">
        <ele>38.1094</ele>
        <time>2013-05-22T21:10:51Z</time>
      </trkpt>
      <trkpt lat="59.9789654" lon="17.7397023">
        <ele>36.6675</ele>
        <time>2013-05-22T21:10:52Z</time>
      </trkpt>
    </trkseg>
  </trk>
</gpx>